<?xml version="1.0" encoding="UTF-8" standalone="no" ?>
<gpx xmlns="http://www.topografix.com/GPX/1/1" xmlns:xsi="http://www.w3.org/2001/XMLSchema-instance" xsi:schemaLocation="http://www.topografix.com/GPX/1/1 http://www.topografix.com/GPX/1/1/gpx.xsd" version="1.1" creator="VisuGPX - https://www.visugpx.com">
  <metadata>
    <name>Oxybike 2016</name>
    <desc><![CDATA[oxybike 2016 organisé par Rouen VTT. Parcours sympa.]]></desc>
  </metadata>
  <trk>
    <name><![CDATA[Oxybike 2016]]></name>
    <trkseg>
      <trkpt lat="49.45145" lon="1.03159">
        <ele>131</ele>
        <time>2016-09-25T06:35:32.000Z</time>
      </trkpt>
      <trkpt lat="49.45155" lon="1.03156">
        <ele>131.19999694824</ele>
        <time>2016-09-25T06:35:37.000Z</time>
      </trkpt>
      <trkpt lat="49.45162" lon="1.03155">
        <ele>131.39999389648</ele>
        <time>2016-09-25T06:35:39.000Z</time>
      </trkpt>
      <trkpt lat="49.45178" lon="1.03154">
        <ele>132</ele>
        <time>2016-09-25T06:35:43.000Z</time>
      </trkpt>
      <trkpt lat="49.45186" lon="1.03154">
        <ele>132.19999694824</ele>
        <time>2016-09-25T06:35:45.000Z</time>
      </trkpt>
      <trkpt lat="49.45207" lon="1.03152">
        <ele>132.39999389648</ele>
        <time>2016-09-25T06:35:52.000Z</time>
      </trkpt>
      <trkpt lat="49.45209" lon="1.0315">
        <ele>132.39999389648</ele>
        <time>2016-09-25T06:35:53.000Z</time>
      </trkpt>
      <trkpt lat="49.45214" lon="1.03138">
        <ele>132</ele>
        <time>2016-09-25T06:35:56.000Z</time>
      </trkpt>
      <trkpt lat="49.45214" lon="1.03135">
        <ele>132</ele>
        <time>2016-09-25T06:35:57.000Z</time>
      </trkpt>
      <trkpt lat="49.45214" lon="1.03125">
        <ele>131.60000610352</ele>
        <time>2016-09-25T06:35:59.000Z</time>
      </trkpt>
      <trkpt lat="49.45215" lon="1.03115">
        <ele>131.19999694824</ele>
        <time>2016-09-25T06:36:01.000Z</time>
      </trkpt>
      <trkpt lat="49.45218" lon="1.03086">
        <ele>130.19999694824</ele>
        <time>2016-09-25T06:36:06.000Z</time>
      </trkpt>
      <trkpt lat="49.45225" lon="1.03046">
        <ele>129.80000305176</ele>
        <time>2016-09-25T06:36:14.000Z</time>
      </trkpt>
      <trkpt lat="49.45231" lon="1.03045">
        <ele>130</ele>
        <time>2016-09-25T06:36:16.000Z</time>
      </trkpt>
      <trkpt lat="49.45234" lon="1.03048">
        <ele>130</ele>
        <time>2016-09-25T06:36:17.000Z</time>
      </trkpt>
      <trkpt lat="49.45242" lon="1.0306">
        <ele>130</ele>
        <time>2016-09-25T06:36:20.000Z</time>
      </trkpt>
      <trkpt lat="49.45247" lon="1.03068">
        <ele>130.39999389648</ele>
        <time>2016-09-25T06:36:22.000Z</time>
      </trkpt>
      <trkpt lat="49.45265" lon="1.03096">
        <ele>131.39999389648</ele>
        <time>2016-09-25T06:36:29.000Z</time>
      </trkpt>
      <trkpt lat="49.4527" lon="1.03105">
        <ele>131.80000305176</ele>
        <time>2016-09-25T06:36:31.000Z</time>
      </trkpt>
      <trkpt lat="49.45285" lon="1.03127">
        <ele>132.60000610352</ele>
        <time>2016-09-25T06:36:37.000Z</time>
      </trkpt>
      <trkpt lat="49.453" lon="1.03144">
        <ele>133.19999694824</ele>
        <time>2016-09-25T06:36:44.000Z</time>
      </trkpt>
      <trkpt lat="49.45305" lon="1.0313">
        <ele>133</ele>
        <time>2016-09-25T06:36:48.000Z</time>
      </trkpt>
      <trkpt lat="49.45305" lon="1.0312">
        <ele>132.80000305176</ele>
        <time>2016-09-25T06:36:50.000Z</time>
      </trkpt>
      <trkpt lat="49.45305" lon="1.031">
        <ele>132.19999694824</ele>
        <time>2016-09-25T06:36:54.000Z</time>
      </trkpt>
      <trkpt lat="49.45308" lon="1.03063">
        <ele>132.39999389648</ele>
        <time>2016-09-25T06:37:01.000Z</time>
      </trkpt>
      <trkpt lat="49.45309" lon="1.03051">
        <ele>132.60000610352</ele>
        <time>2016-09-25T06:37:03.000Z</time>
      </trkpt>
      <trkpt lat="49.45309" lon="1.03018">
        <ele>132.60000610352</ele>
        <time>2016-09-25T06:37:09.000Z</time>
      </trkpt>
      <trkpt lat="49.45312" lon="1.02968">
        <ele>134.19999694824</ele>
        <time>2016-09-25T06:37:17.000Z</time>
      </trkpt>
      <trkpt lat="49.45313" lon="1.02938">
        <ele>134.19999694824</ele>
        <time>2016-09-25T06:37:22.000Z</time>
      </trkpt>
      <trkpt lat="49.45313" lon="1.0292">
        <ele>134.19999694824</ele>
        <time>2016-09-25T06:37:25.000Z</time>
      </trkpt>
      <trkpt lat="49.45312" lon="1.02913">
        <ele>134</ele>
        <time>2016-09-25T06:37:26.000Z</time>
      </trkpt>
      <trkpt lat="49.45313" lon="1.0286">
        <ele>134</ele>
        <time>2016-09-25T06:37:34.000Z</time>
      </trkpt>
      <trkpt lat="49.45313" lon="1.02811">
        <ele>133</ele>
        <time>2016-09-25T06:37:42.000Z</time>
      </trkpt>
      <trkpt lat="49.45312" lon="1.028">
        <ele>132.80000305176</ele>
        <time>2016-09-25T06:37:44.000Z</time>
      </trkpt>
      <trkpt lat="49.45308" lon="1.02771">
        <ele>132.60000610352</ele>
        <time>2016-09-25T06:37:49.000Z</time>
      </trkpt>
      <trkpt lat="49.45309" lon="1.02738">
        <ele>132.80000305176</ele>
        <time>2016-09-25T06:37:54.000Z</time>
      </trkpt>
      <trkpt lat="49.45311" lon="1.02697">
        <ele>132.80000305176</ele>
        <time>2016-09-25T06:38:01.000Z</time>
      </trkpt>
      <trkpt lat="49.45313" lon="1.02655">
        <ele>132.60000610352</ele>
        <time>2016-09-25T06:38:08.000Z</time>
      </trkpt>
      <trkpt lat="49.45309" lon="1.02602">
        <ele>132.19999694824</ele>
        <time>2016-09-25T06:38:16.000Z</time>
      </trkpt>
      <trkpt lat="49.45308" lon="1.02595">
        <ele>132.19999694824</ele>
        <time>2016-09-25T06:38:17.000Z</time>
      </trkpt>
      <trkpt lat="49.45306" lon="1.02566">
        <ele>132</ele>
        <time>2016-09-25T06:38:22.000Z</time>
      </trkpt>
      <trkpt lat="49.45308" lon="1.02554">
        <ele>132.19999694824</ele>
        <time>2016-09-25T06:38:24.000Z</time>
      </trkpt>
      <trkpt lat="49.45317" lon="1.02525">
        <ele>133</ele>
        <time>2016-09-25T06:38:29.000Z</time>
      </trkpt>
      <trkpt lat="49.45326" lon="1.02501">
        <ele>133.60000610352</ele>
        <time>2016-09-25T06:38:33.000Z</time>
      </trkpt>
      <trkpt lat="49.45327" lon="1.0249">
        <ele>133.80000305176</ele>
        <time>2016-09-25T06:38:35.000Z</time>
      </trkpt>
      <trkpt lat="49.45328" lon="1.02484">
        <ele>133.80000305176</ele>
        <time>2016-09-25T06:38:36.000Z</time>
      </trkpt>
      <trkpt lat="49.45325" lon="1.02457">
        <ele>133.39999389648</ele>
        <time>2016-09-25T06:38:40.000Z</time>
      </trkpt>
      <trkpt lat="49.45321" lon="1.02436">
        <ele>132.80000305176</ele>
        <time>2016-09-25T06:38:43.000Z</time>
      </trkpt>
      <trkpt lat="49.4532" lon="1.02428">
        <ele>132.60000610352</ele>
        <time>2016-09-25T06:38:44.000Z</time>
      </trkpt>
      <trkpt lat="49.45319" lon="1.02404">
        <ele>132.39999389648</ele>
        <time>2016-09-25T06:38:47.000Z</time>
      </trkpt>
      <trkpt lat="49.45317" lon="1.02349">
        <ele>132.80000305176</ele>
        <time>2016-09-25T06:38:55.000Z</time>
      </trkpt>
      <trkpt lat="49.45314" lon="1.02298">
        <ele>132.19999694824</ele>
        <time>2016-09-25T06:39:03.000Z</time>
      </trkpt>
      <trkpt lat="49.45304" lon="1.02266">
        <ele>131</ele>
        <time>2016-09-25T06:39:09.000Z</time>
      </trkpt>
      <trkpt lat="49.45303" lon="1.0226">
        <ele>131</ele>
        <time>2016-09-25T06:39:10.000Z</time>
      </trkpt>
      <trkpt lat="49.45298" lon="1.02224">
        <ele>130.19999694824</ele>
        <time>2016-09-25T06:39:16.000Z</time>
      </trkpt>
      <trkpt lat="49.45295" lon="1.02198">
        <ele>130</ele>
        <time>2016-09-25T06:39:20.000Z</time>
      </trkpt>
      <trkpt lat="49.45299" lon="1.02188">
        <ele>130.39999389648</ele>
        <time>2016-09-25T06:39:21.000Z</time>
      </trkpt>
      <trkpt lat="49.45301" lon="1.02172">
        <ele>130.60000610352</ele>
        <time>2016-09-25T06:39:23.000Z</time>
      </trkpt>
      <trkpt lat="49.453" lon="1.02164">
        <ele>130.39999389648</ele>
        <time>2016-09-25T06:39:24.000Z</time>
      </trkpt>
      <trkpt lat="49.45298" lon="1.02112">
        <ele>130.19999694824</ele>
        <time>2016-09-25T06:39:31.000Z</time>
      </trkpt>
      <trkpt lat="49.45297" lon="1.02085">
        <ele>130</ele>
        <time>2016-09-25T06:39:35.000Z</time>
      </trkpt>
      <trkpt lat="49.45294" lon="1.02057">
        <ele>129.80000305176</ele>
        <time>2016-09-25T06:39:39.000Z</time>
      </trkpt>
      <trkpt lat="49.4529" lon="1.02023">
        <ele>130</ele>
        <time>2016-09-25T06:39:44.000Z</time>
      </trkpt>
      <trkpt lat="49.4529" lon="1.02009">
        <ele>130.19999694824</ele>
        <time>2016-09-25T06:39:46.000Z</time>
      </trkpt>
      <trkpt lat="49.45286" lon="1.0197">
        <ele>130.39999389648</ele>
        <time>2016-09-25T06:39:51.000Z</time>
      </trkpt>
      <trkpt lat="49.45284" lon="1.01963">
        <ele>130.60000610352</ele>
        <time>2016-09-25T06:39:52.000Z</time>
      </trkpt>
      <trkpt lat="49.45282" lon="1.01956">
        <ele>130.60000610352</ele>
        <time>2016-09-25T06:39:53.000Z</time>
      </trkpt>
      <trkpt lat="49.45274" lon="1.01929">
        <ele>131.60000610352</ele>
        <time>2016-09-25T06:39:57.000Z</time>
      </trkpt>
      <trkpt lat="49.4527" lon="1.01915">
        <ele>132.19999694824</ele>
        <time>2016-09-25T06:39:59.000Z</time>
      </trkpt>
      <trkpt lat="49.45259" lon="1.01892">
        <ele>133</ele>
        <time>2016-09-25T06:40:03.000Z</time>
      </trkpt>
      <trkpt lat="49.45249" lon="1.01877">
        <ele>133</ele>
        <time>2016-09-25T06:40:06.000Z</time>
      </trkpt>
      <trkpt lat="49.45243" lon="1.0187">
        <ele>133</ele>
        <time>2016-09-25T06:40:08.000Z</time>
      </trkpt>
      <trkpt lat="49.45219" lon="1.01837">
        <ele>133</ele>
        <time>2016-09-25T06:40:14.000Z</time>
      </trkpt>
      <trkpt lat="49.45209" lon="1.01819">
        <ele>133</ele>
        <time>2016-09-25T06:40:17.000Z</time>
      </trkpt>
      <trkpt lat="49.45204" lon="1.01806">
        <ele>133</ele>
        <time>2016-09-25T06:40:19.000Z</time>
      </trkpt>
      <trkpt lat="49.452" lon="1.01775">
        <ele>132.19999694824</ele>
        <time>2016-09-25T06:40:23.000Z</time>
      </trkpt>
      <trkpt lat="49.452" lon="1.01766">
        <ele>132</ele>
        <time>2016-09-25T06:40:24.000Z</time>
      </trkpt>
      <trkpt lat="49.45199" lon="1.01707">
        <ele>130.19999694824</ele>
        <time>2016-09-25T06:40:31.000Z</time>
      </trkpt>
      <trkpt lat="49.452" lon="1.01699">
        <ele>129.80000305176</ele>
        <time>2016-09-25T06:40:32.000Z</time>
      </trkpt>
      <trkpt lat="49.45201" lon="1.01665">
        <ele>128.19999694824</ele>
        <time>2016-09-25T06:40:37.000Z</time>
      </trkpt>
      <trkpt lat="49.452" lon="1.01661">
        <ele>128</ele>
        <time>2016-09-25T06:40:38.000Z</time>
      </trkpt>
      <trkpt lat="49.45197" lon="1.01657">
        <ele>127.80000305176</ele>
        <time>2016-09-25T06:40:39.000Z</time>
      </trkpt>
      <trkpt lat="49.4519" lon="1.01651">
        <ele>127.59999847412</ele>
        <time>2016-09-25T06:40:41.000Z</time>
      </trkpt>
      <trkpt lat="49.45182" lon="1.01647">
        <ele>127.40000152588</ele>
        <time>2016-09-25T06:40:43.000Z</time>
      </trkpt>
      <trkpt lat="49.45166" lon="1.01641">
        <ele>127.40000152588</ele>
        <time>2016-09-25T06:40:46.000Z</time>
      </trkpt>
      <trkpt lat="49.4516" lon="1.01639">
        <ele>127.40000152588</ele>
        <time>2016-09-25T06:40:47.000Z</time>
      </trkpt>
      <trkpt lat="49.45136" lon="1.01627">
        <ele>127.19999694824</ele>
        <time>2016-09-25T06:40:52.000Z</time>
      </trkpt>
      <trkpt lat="49.45122" lon="1.0162">
        <ele>127.19999694824</ele>
        <time>2016-09-25T06:40:55.000Z</time>
      </trkpt>
      <trkpt lat="49.45104" lon="1.01612">
        <ele>127.80000305176</ele>
        <time>2016-09-25T06:40:59.000Z</time>
      </trkpt>
      <trkpt lat="49.45091" lon="1.01612">
        <ele>128.60000610352</ele>
        <time>2016-09-25T06:41:02.000Z</time>
      </trkpt>
      <trkpt lat="49.45088" lon="1.01614">
        <ele>129</ele>
        <time>2016-09-25T06:41:03.000Z</time>
      </trkpt>
      <trkpt lat="49.45085" lon="1.01617">
        <ele>129.19999694824</ele>
        <time>2016-09-25T06:41:04.000Z</time>
      </trkpt>
      <trkpt lat="49.45071" lon="1.01636">
        <ele>130.19999694824</ele>
        <time>2016-09-25T06:41:10.000Z</time>
      </trkpt>
      <trkpt lat="49.45053" lon="1.01656">
        <ele>131.60000610352</ele>
        <time>2016-09-25T06:41:15.000Z</time>
      </trkpt>
      <trkpt lat="49.45047" lon="1.01663">
        <ele>132</ele>
        <time>2016-09-25T06:41:17.000Z</time>
      </trkpt>
      <trkpt lat="49.45034" lon="1.01677">
        <ele>132.80000305176</ele>
        <time>2016-09-25T06:41:22.000Z</time>
      </trkpt>
      <trkpt lat="49.45032" lon="1.01677">
        <ele>132.80000305176</ele>
        <time>2016-09-25T06:41:23.000Z</time>
      </trkpt>
      <trkpt lat="49.4503" lon="1.01677">
        <ele>132.80000305176</ele>
        <time>2016-09-25T06:41:24.000Z</time>
      </trkpt>
      <trkpt lat="49.45024" lon="1.01674">
        <ele>132.80000305176</ele>
        <time>2016-09-25T06:41:27.000Z</time>
      </trkpt>
      <trkpt lat="49.45016" lon="1.01673">
        <ele>132.80000305176</ele>
        <time>2016-09-25T06:41:29.000Z</time>
      </trkpt>
      <trkpt lat="49.44994" lon="1.01666">
        <ele>132.60000610352</ele>
        <time>2016-09-25T06:41:35.000Z</time>
      </trkpt>
      <trkpt lat="49.44988" lon="1.01665">
        <ele>132.60000610352</ele>
        <time>2016-09-25T06:41:37.000Z</time>
      </trkpt>
      <trkpt lat="49.44985" lon="1.01664">
        <ele>132.60000610352</ele>
        <time>2016-09-25T06:41:38.000Z</time>
      </trkpt>
      <trkpt lat="49.44969" lon="1.0166">
        <ele>132.39999389648</ele>
        <time>2016-09-25T06:41:44.000Z</time>
      </trkpt>
      <trkpt lat="49.44966" lon="1.01659">
        <ele>132.39999389648</ele>
        <time>2016-09-25T06:41:45.000Z</time>
      </trkpt>
      <trkpt lat="49.44961" lon="1.01657">
        <ele>132.19999694824</ele>
        <time>2016-09-25T06:41:48.000Z</time>
      </trkpt>
      <trkpt lat="49.44956" lon="1.01657">
        <ele>132.19999694824</ele>
        <time>2016-09-25T06:41:50.000Z</time>
      </trkpt>
      <trkpt lat="49.44947" lon="1.01656">
        <ele>132</ele>
        <time>2016-09-25T06:41:53.000Z</time>
      </trkpt>
      <trkpt lat="49.44938" lon="1.01655">
        <ele>131.60000610352</ele>
        <time>2016-09-25T06:41:56.000Z</time>
      </trkpt>
      <trkpt lat="49.44921" lon="1.01647">
        <ele>131</ele>
        <time>2016-09-25T06:42:02.000Z</time>
      </trkpt>
      <trkpt lat="49.44905" lon="1.01637">
        <ele>130.39999389648</ele>
        <time>2016-09-25T06:42:09.000Z</time>
      </trkpt>
      <trkpt lat="49.44896" lon="1.01635">
        <ele>130</ele>
        <time>2016-09-25T06:42:14.000Z</time>
      </trkpt>
      <trkpt lat="49.44881" lon="1.0163">
        <ele>129.39999389648</ele>
        <time>2016-09-25T06:42:21.000Z</time>
      </trkpt>
      <trkpt lat="49.44866" lon="1.01631">
        <ele>128.80000305176</ele>
        <time>2016-09-25T06:42:26.000Z</time>
      </trkpt>
      <trkpt lat="49.44856" lon="1.01629">
        <ele>128.39999389648</ele>
        <time>2016-09-25T06:42:29.000Z</time>
      </trkpt>
      <trkpt lat="49.44845" lon="1.01624">
        <ele>128</ele>
        <time>2016-09-25T06:42:33.000Z</time>
      </trkpt>
      <trkpt lat="49.4483" lon="1.01622">
        <ele>127.40000152588</ele>
        <time>2016-09-25T06:42:39.000Z</time>
      </trkpt>
      <trkpt lat="49.44828" lon="1.01621">
        <ele>127.40000152588</ele>
        <time>2016-09-25T06:42:40.000Z</time>
      </trkpt>
      <trkpt lat="49.44811" lon="1.01616">
        <ele>126.80000305176</ele>
        <time>2016-09-25T06:42:45.000Z</time>
      </trkpt>
      <trkpt lat="49.448" lon="1.01613">
        <ele>126.19999694824</ele>
        <time>2016-09-25T06:42:48.000Z</time>
      </trkpt>
      <trkpt lat="49.44786" lon="1.01607">
        <ele>125.59999847412</ele>
        <time>2016-09-25T06:42:52.000Z</time>
      </trkpt>
      <trkpt lat="49.44774" lon="1.01603">
        <ele>125.19999694824</ele>
        <time>2016-09-25T06:42:55.000Z</time>
      </trkpt>
      <trkpt lat="49.44759" lon="1.01599">
        <ele>124.40000152588</ele>
        <time>2016-09-25T06:42:59.000Z</time>
      </trkpt>
      <trkpt lat="49.44725" lon="1.0159">
        <ele>122.59999847412</ele>
        <time>2016-09-25T06:43:06.000Z</time>
      </trkpt>
      <trkpt lat="49.4472" lon="1.01587">
        <ele>122.40000152588</ele>
        <time>2016-09-25T06:43:07.000Z</time>
      </trkpt>
      <trkpt lat="49.44688" lon="1.01577">
        <ele>120.19999694824</ele>
        <time>2016-09-25T06:43:13.000Z</time>
      </trkpt>
      <trkpt lat="49.44679" lon="1.01573">
        <ele>119.19999694824</ele>
        <time>2016-09-25T06:43:15.000Z</time>
      </trkpt>
      <trkpt lat="49.44669" lon="1.01571">
        <ele>118.19999694824</ele>
        <time>2016-09-25T06:43:17.000Z</time>
      </trkpt>
      <trkpt lat="49.4466" lon="1.01569">
        <ele>117.40000152588</ele>
        <time>2016-09-25T06:43:19.000Z</time>
      </trkpt>
      <trkpt lat="49.44646" lon="1.01564">
        <ele>116</ele>
        <time>2016-09-25T06:43:22.000Z</time>
      </trkpt>
      <trkpt lat="49.44621" lon="1.01558">
        <ele>113.40000152588</ele>
        <time>2016-09-25T06:43:27.000Z</time>
      </trkpt>
      <trkpt lat="49.44595" lon="1.01554">
        <ele>109.40000152588</ele>
        <time>2016-09-25T06:43:32.000Z</time>
      </trkpt>
      <trkpt lat="49.4457" lon="1.01543">
        <ele>105</ele>
        <time>2016-09-25T06:43:38.000Z</time>
      </trkpt>
      <trkpt lat="49.44567" lon="1.01537">
        <ele>104.59999847412</ele>
        <time>2016-09-25T06:43:39.000Z</time>
      </trkpt>
      <trkpt lat="49.44564" lon="1.01514">
        <ele>103.80000305176</ele>
        <time>2016-09-25T06:43:43.000Z</time>
      </trkpt>
      <trkpt lat="49.4456" lon="1.01494">
        <ele>102.59999847412</ele>
        <time>2016-09-25T06:43:47.000Z</time>
      </trkpt>
      <trkpt lat="49.44557" lon="1.01468">
        <ele>101.59999847412</ele>
        <time>2016-09-25T06:43:51.000Z</time>
      </trkpt>
      <trkpt lat="49.44555" lon="1.01456">
        <ele>101.40000152588</ele>
        <time>2016-09-25T06:43:53.000Z</time>
      </trkpt>
      <trkpt lat="49.44548" lon="1.0142">
        <ele>100.80000305176</ele>
        <time>2016-09-25T06:43:58.000Z</time>
      </trkpt>
      <trkpt lat="49.44545" lon="1.01389">
        <ele>100.80000305176</ele>
        <time>2016-09-25T06:44:02.000Z</time>
      </trkpt>
      <trkpt lat="49.44545" lon="1.01381">
        <ele>100.80000305176</ele>
        <time>2016-09-25T06:44:03.000Z</time>
      </trkpt>
      <trkpt lat="49.44544" lon="1.01361">
        <ele>101</ele>
        <time>2016-09-25T06:44:06.000Z</time>
      </trkpt>
      <trkpt lat="49.44543" lon="1.01351">
        <ele>101</ele>
        <time>2016-09-25T06:44:08.000Z</time>
      </trkpt>
      <trkpt lat="49.44541" lon="1.01345">
        <ele>100.80000305176</ele>
        <time>2016-09-25T06:44:10.000Z</time>
      </trkpt>
      <trkpt lat="49.44538" lon="1.01331">
        <ele>100.59999847412</ele>
        <time>2016-09-25T06:44:13.000Z</time>
      </trkpt>
      <trkpt lat="49.44535" lon="1.01319">
        <ele>100.19999694824</ele>
        <time>2016-09-25T06:44:15.000Z</time>
      </trkpt>
      <trkpt lat="49.4453" lon="1.01301">
        <ele>100.40000152588</ele>
        <time>2016-09-25T06:44:18.000Z</time>
      </trkpt>
      <trkpt lat="49.44528" lon="1.01295">
        <ele>100.40000152588</ele>
        <time>2016-09-25T06:44:19.000Z</time>
      </trkpt>
      <trkpt lat="49.44527" lon="1.0127">
        <ele>100.80000305176</ele>
        <time>2016-09-25T06:44:23.000Z</time>
      </trkpt>
      <trkpt lat="49.44528" lon="1.01258">
        <ele>101</ele>
        <time>2016-09-25T06:44:25.000Z</time>
      </trkpt>
      <trkpt lat="49.44529" lon="1.0124">
        <ele>101</ele>
        <time>2016-09-25T06:44:28.000Z</time>
      </trkpt>
      <trkpt lat="49.44529" lon="1.01221">
        <ele>101.19999694824</ele>
        <time>2016-09-25T06:44:31.000Z</time>
      </trkpt>
      <trkpt lat="49.44529" lon="1.01212">
        <ele>101.19999694824</ele>
        <time>2016-09-25T06:44:32.000Z</time>
      </trkpt>
      <trkpt lat="49.44529" lon="1.01158">
        <ele>100.59999847412</ele>
        <time>2016-09-25T06:44:38.000Z</time>
      </trkpt>
      <trkpt lat="49.44527" lon="1.01123">
        <ele>99.800003051758</ele>
        <time>2016-09-25T06:44:42.000Z</time>
      </trkpt>
      <trkpt lat="49.44527" lon="1.01105">
        <ele>98.800003051758</ele>
        <time>2016-09-25T06:44:44.000Z</time>
      </trkpt>
      <trkpt lat="49.44526" lon="1.01089">
        <ele>98.199996948242</ele>
        <time>2016-09-25T06:44:46.000Z</time>
      </trkpt>
      <trkpt lat="49.44526" lon="1.01058">
        <ele>96.599998474121</ele>
        <time>2016-09-25T06:44:50.000Z</time>
      </trkpt>
      <trkpt lat="49.44526" lon="1.01042">
        <ele>95.800003051758</ele>
        <time>2016-09-25T06:44:52.000Z</time>
      </trkpt>
      <trkpt lat="49.44526" lon="1.01028">
        <ele>95.400001525879</ele>
        <time>2016-09-25T06:44:54.000Z</time>
      </trkpt>
      <trkpt lat="49.44524" lon="1.0099">
        <ele>94.599998474121</ele>
        <time>2016-09-25T06:44:59.000Z</time>
      </trkpt>
      <trkpt lat="49.44526" lon="1.00976">
        <ele>94.199996948242</ele>
        <time>2016-09-25T06:45:01.000Z</time>
      </trkpt>
      <trkpt lat="49.44528" lon="1.00966">
        <ele>94</ele>
        <time>2016-09-25T06:45:03.000Z</time>
      </trkpt>
      <trkpt lat="49.44527" lon="1.00948">
        <ele>94.199996948242</ele>
        <time>2016-09-25T06:45:08.000Z</time>
      </trkpt>
      <trkpt lat="49.44531" lon="1.00918">
        <ele>94.599998474121</ele>
        <time>2016-09-25T06:45:13.000Z</time>
      </trkpt>
      <trkpt lat="49.44534" lon="1.00862">
        <ele>95.400001525879</ele>
        <time>2016-09-25T06:45:21.000Z</time>
      </trkpt>
      <trkpt lat="49.44535" lon="1.00854">
        <ele>95.599998474121</ele>
        <time>2016-09-25T06:45:22.000Z</time>
      </trkpt>
      <trkpt lat="49.44539" lon="1.00818">
        <ele>96.400001525879</ele>
        <time>2016-09-25T06:45:26.000Z</time>
      </trkpt>
      <trkpt lat="49.44537" lon="1.00788">
        <ele>96.599998474121</ele>
        <time>2016-09-25T06:45:29.000Z</time>
      </trkpt>
      <trkpt lat="49.44534" lon="1.00769">
        <ele>96.599998474121</ele>
        <time>2016-09-25T06:45:31.000Z</time>
      </trkpt>
      <trkpt lat="49.44533" lon="1.00751">
        <ele>96.800003051758</ele>
        <time>2016-09-25T06:45:33.000Z</time>
      </trkpt>
      <trkpt lat="49.44535" lon="1.00726">
        <ele>97.199996948242</ele>
        <time>2016-09-25T06:45:36.000Z</time>
      </trkpt>
      <trkpt lat="49.44534" lon="1.00697">
        <ele>96.800003051758</ele>
        <time>2016-09-25T06:45:40.000Z</time>
      </trkpt>
      <trkpt lat="49.44532" lon="1.00684">
        <ele>96.599998474121</ele>
        <time>2016-09-25T06:45:42.000Z</time>
      </trkpt>
      <trkpt lat="49.44532" lon="1.00661">
        <ele>96.199996948242</ele>
        <time>2016-09-25T06:45:45.000Z</time>
      </trkpt>
      <trkpt lat="49.44535" lon="1.00646">
        <ele>96.199996948242</ele>
        <time>2016-09-25T06:45:47.000Z</time>
      </trkpt>
      <trkpt lat="49.44536" lon="1.00628">
        <ele>96.199996948242</ele>
        <time>2016-09-25T06:45:49.000Z</time>
      </trkpt>
      <trkpt lat="49.44535" lon="1.00605">
        <ele>96.199996948242</ele>
        <time>2016-09-25T06:45:52.000Z</time>
      </trkpt>
      <trkpt lat="49.44534" lon="1.00598">
        <ele>96.199996948242</ele>
        <time>2016-09-25T06:45:53.000Z</time>
      </trkpt>
      <trkpt lat="49.44534" lon="1.00573">
        <ele>96.199996948242</ele>
        <time>2016-09-25T06:45:56.000Z</time>
      </trkpt>
      <trkpt lat="49.44535" lon="1.00558">
        <ele>96.199996948242</ele>
        <time>2016-09-25T06:45:58.000Z</time>
      </trkpt>
      <trkpt lat="49.44534" lon="1.0055">
        <ele>96.199996948242</ele>
        <time>2016-09-25T06:45:59.000Z</time>
      </trkpt>
      <trkpt lat="49.44536" lon="1.00518">
        <ele>96.599998474121</ele>
        <time>2016-09-25T06:46:03.000Z</time>
      </trkpt>
      <trkpt lat="49.44537" lon="1.00511">
        <ele>96.800003051758</ele>
        <time>2016-09-25T06:46:04.000Z</time>
      </trkpt>
      <trkpt lat="49.44542" lon="1.00481">
        <ele>97</ele>
        <time>2016-09-25T06:46:09.000Z</time>
      </trkpt>
      <trkpt lat="49.44542" lon="1.00473">
        <ele>96.800003051758</ele>
        <time>2016-09-25T06:46:11.000Z</time>
      </trkpt>
      <trkpt lat="49.44542" lon="1.00469">
        <ele>96.800003051758</ele>
        <time>2016-09-25T06:46:12.000Z</time>
      </trkpt>
      <trkpt lat="49.44536" lon="1.00448">
        <ele>97</ele>
        <time>2016-09-25T06:46:15.000Z</time>
      </trkpt>
      <trkpt lat="49.44534" lon="1.00443">
        <ele>97</ele>
        <time>2016-09-25T06:46:16.000Z</time>
      </trkpt>
      <trkpt lat="49.4453" lon="1.00414">
        <ele>97</ele>
        <time>2016-09-25T06:46:20.000Z</time>
      </trkpt>
      <trkpt lat="49.44531" lon="1.00406">
        <ele>97</ele>
        <time>2016-09-25T06:46:21.000Z</time>
      </trkpt>
      <trkpt lat="49.44531" lon="1.00382">
        <ele>96.800003051758</ele>
        <time>2016-09-25T06:46:24.000Z</time>
      </trkpt>
      <trkpt lat="49.44531" lon="1.00374">
        <ele>96.599998474121</ele>
        <time>2016-09-25T06:46:25.000Z</time>
      </trkpt>
      <trkpt lat="49.44531" lon="1.00359">
        <ele>96.199996948242</ele>
        <time>2016-09-25T06:46:27.000Z</time>
      </trkpt>
      <trkpt lat="49.44529" lon="1.00346">
        <ele>96</ele>
        <time>2016-09-25T06:46:29.000Z</time>
      </trkpt>
      <trkpt lat="49.44526" lon="1.00333">
        <ele>95.599998474121</ele>
        <time>2016-09-25T06:46:31.000Z</time>
      </trkpt>
      <trkpt lat="49.44525" lon="1.00325">
        <ele>95.400001525879</ele>
        <time>2016-09-25T06:46:32.000Z</time>
      </trkpt>
      <trkpt lat="49.44525" lon="1.00288">
        <ele>95</ele>
        <time>2016-09-25T06:46:36.000Z</time>
      </trkpt>
      <trkpt lat="49.44524" lon="1.00262">
        <ele>94.599998474121</ele>
        <time>2016-09-25T06:46:39.000Z</time>
      </trkpt>
      <trkpt lat="49.44522" lon="1.00237">
        <ele>94.400001525879</ele>
        <time>2016-09-25T06:46:42.000Z</time>
      </trkpt>
      <trkpt lat="49.44522" lon="1.00215">
        <ele>94.199996948242</ele>
        <time>2016-09-25T06:46:45.000Z</time>
      </trkpt>
      <trkpt lat="49.44522" lon="1.00203">
        <ele>94</ele>
        <time>2016-09-25T06:46:47.000Z</time>
      </trkpt>
      <trkpt lat="49.44524" lon="1.00156">
        <ele>93.400001525879</ele>
        <time>2016-09-25T06:46:54.000Z</time>
      </trkpt>
      <trkpt lat="49.44526" lon="1.00149">
        <ele>93.199996948242</ele>
        <time>2016-09-25T06:46:55.000Z</time>
      </trkpt>
      <trkpt lat="49.44528" lon="1.00113">
        <ele>92.400001525879</ele>
        <time>2016-09-25T06:46:59.000Z</time>
      </trkpt>
      <trkpt lat="49.44527" lon="1.00102">
        <ele>92.199996948242</ele>
        <time>2016-09-25T06:47:00.000Z</time>
      </trkpt>
      <trkpt lat="49.44528" lon="1.00075">
        <ele>91.400001525879</ele>
        <time>2016-09-25T06:47:03.000Z</time>
      </trkpt>
      <trkpt lat="49.44527" lon="1.00059">
        <ele>91.199996948242</ele>
        <time>2016-09-25T06:47:05.000Z</time>
      </trkpt>
      <trkpt lat="49.44527" lon="1.00051">
        <ele>91</ele>
        <time>2016-09-25T06:47:06.000Z</time>
      </trkpt>
      <trkpt lat="49.44527" lon="1.00043">
        <ele>90.800003051758</ele>
        <time>2016-09-25T06:47:07.000Z</time>
      </trkpt>
      <trkpt lat="49.44525" lon="1.00013">
        <ele>90.599998474121</ele>
        <time>2016-09-25T06:47:11.000Z</time>
      </trkpt>
      <trkpt lat="49.44526" lon="1.00005">
        <ele>90.400001525879</ele>
        <time>2016-09-25T06:47:12.000Z</time>
      </trkpt>
      <trkpt lat="49.44526" lon="0.99998">
        <ele>90.400001525879</ele>
        <time>2016-09-25T06:47:13.000Z</time>
      </trkpt>
      <trkpt lat="49.44528" lon="0.99974">
        <ele>90</ele>
        <time>2016-09-25T06:47:17.000Z</time>
      </trkpt>
      <trkpt lat="49.44525" lon="0.9995">
        <ele>89.599998474121</ele>
        <time>2016-09-25T06:47:21.000Z</time>
      </trkpt>
      <trkpt lat="49.44526" lon="0.99945">
        <ele>89.599998474121</ele>
        <time>2016-09-25T06:47:22.000Z</time>
      </trkpt>
      <trkpt lat="49.44528" lon="0.99917">
        <ele>89.400001525879</ele>
        <time>2016-09-25T06:47:27.000Z</time>
      </trkpt>
      <trkpt lat="49.44528" lon="0.99912">
        <ele>89.199996948242</ele>
        <time>2016-09-25T06:47:28.000Z</time>
      </trkpt>
      <trkpt lat="49.44527" lon="0.99901">
        <ele>89.199996948242</ele>
        <time>2016-09-25T06:47:30.000Z</time>
      </trkpt>
      <trkpt lat="49.44524" lon="0.99888">
        <ele>89</ele>
        <time>2016-09-25T06:47:32.000Z</time>
      </trkpt>
      <trkpt lat="49.44523" lon="0.99875">
        <ele>88.800003051758</ele>
        <time>2016-09-25T06:47:34.000Z</time>
      </trkpt>
      <trkpt lat="49.44526" lon="0.99855">
        <ele>88.599998474121</ele>
        <time>2016-09-25T06:47:37.000Z</time>
      </trkpt>
      <trkpt lat="49.44528" lon="0.99834">
        <ele>88.400001525879</ele>
        <time>2016-09-25T06:47:40.000Z</time>
      </trkpt>
      <trkpt lat="49.44528" lon="0.99817">
        <ele>88.199996948242</ele>
        <time>2016-09-25T06:47:42.000Z</time>
      </trkpt>
      <trkpt lat="49.44528" lon="0.99809">
        <ele>88</ele>
        <time>2016-09-25T06:47:43.000Z</time>
      </trkpt>
      <trkpt lat="49.44527" lon="0.99774">
        <ele>88</ele>
        <time>2016-09-25T06:47:47.000Z</time>
      </trkpt>
      <trkpt lat="49.44528" lon="0.99759">
        <ele>88</ele>
        <time>2016-09-25T06:47:49.000Z</time>
      </trkpt>
      <trkpt lat="49.44529" lon="0.99714">
        <ele>88</ele>
        <time>2016-09-25T06:47:56.000Z</time>
      </trkpt>
      <trkpt lat="49.44531" lon="0.99694">
        <ele>88</ele>
        <time>2016-09-25T06:47:59.000Z</time>
      </trkpt>
      <trkpt lat="49.4453" lon="0.99672">
        <ele>88</ele>
        <time>2016-09-25T06:48:02.000Z</time>
      </trkpt>
      <trkpt lat="49.44529" lon="0.99631">
        <ele>87.599998474121</ele>
        <time>2016-09-25T06:48:08.000Z</time>
      </trkpt>
      <trkpt lat="49.44525" lon="0.99595">
        <ele>86.599998474121</ele>
        <time>2016-09-25T06:48:14.000Z</time>
      </trkpt>
      <trkpt lat="49.44526" lon="0.99567">
        <ele>86</ele>
        <time>2016-09-25T06:48:19.000Z</time>
      </trkpt>
      <trkpt lat="49.4452" lon="0.9954">
        <ele>86</ele>
        <time>2016-09-25T06:48:24.000Z</time>
      </trkpt>
      <trkpt lat="49.44516" lon="0.99526">
        <ele>86.199996948242</ele>
        <time>2016-09-25T06:48:27.000Z</time>
      </trkpt>
      <trkpt lat="49.44515" lon="0.99521">
        <ele>86.199996948242</ele>
        <time>2016-09-25T06:48:28.000Z</time>
      </trkpt>
      <trkpt lat="49.44516" lon="0.99504">
        <ele>86.400001525879</ele>
        <time>2016-09-25T06:48:31.000Z</time>
      </trkpt>
      <trkpt lat="49.44518" lon="0.99485">
        <ele>86.800003051758</ele>
        <time>2016-09-25T06:48:34.000Z</time>
      </trkpt>
      <trkpt lat="49.44524" lon="0.99447">
        <ele>87.199996948242</ele>
        <time>2016-09-25T06:48:39.000Z</time>
      </trkpt>
      <trkpt lat="49.44526" lon="0.99438">
        <ele>87.199996948242</ele>
        <time>2016-09-25T06:48:40.000Z</time>
      </trkpt>
      <trkpt lat="49.44527" lon="0.99429">
        <ele>87.400001525879</ele>
        <time>2016-09-25T06:48:41.000Z</time>
      </trkpt>
      <trkpt lat="49.44527" lon="0.99414">
        <ele>87.599998474121</ele>
        <time>2016-09-25T06:48:43.000Z</time>
      </trkpt>
      <trkpt lat="49.44527" lon="0.99398">
        <ele>87.800003051758</ele>
        <time>2016-09-25T06:48:45.000Z</time>
      </trkpt>
      <trkpt lat="49.44527" lon="0.9939">
        <ele>87.800003051758</ele>
        <time>2016-09-25T06:48:46.000Z</time>
      </trkpt>
      <trkpt lat="49.44527" lon="0.99377">
        <ele>87.599998474121</ele>
        <time>2016-09-25T06:48:48.000Z</time>
      </trkpt>
      <trkpt lat="49.44528" lon="0.99358">
        <ele>87.199996948242</ele>
        <time>2016-09-25T06:48:51.000Z</time>
      </trkpt>
      <trkpt lat="49.44529" lon="0.99344">
        <ele>86.800003051758</ele>
        <time>2016-09-25T06:48:53.000Z</time>
      </trkpt>
      <trkpt lat="49.44532" lon="0.99319">
        <ele>86.199996948242</ele>
        <time>2016-09-25T06:48:57.000Z</time>
      </trkpt>
      <trkpt lat="49.4453" lon="0.99307">
        <ele>86</ele>
        <time>2016-09-25T06:48:59.000Z</time>
      </trkpt>
      <trkpt lat="49.44528" lon="0.99295">
        <ele>85.599998474121</ele>
        <time>2016-09-25T06:49:01.000Z</time>
      </trkpt>
      <trkpt lat="49.44526" lon="0.99258">
        <ele>84.199996948242</ele>
        <time>2016-09-25T06:49:07.000Z</time>
      </trkpt>
      <trkpt lat="49.44525" lon="0.99238">
        <ele>83.599998474121</ele>
        <time>2016-09-25T06:49:12.000Z</time>
      </trkpt>
      <trkpt lat="49.44529" lon="0.99234">
        <ele>83.400001525879</ele>
        <time>2016-09-25T06:49:17.000Z</time>
      </trkpt>
      <trkpt lat="49.44538" lon="0.99242">
        <ele>83.599998474121</ele>
        <time>2016-09-25T06:49:21.000Z</time>
      </trkpt>
      <trkpt lat="49.44543" lon="0.99248">
        <ele>83.800003051758</ele>
        <time>2016-09-25T06:49:23.000Z</time>
      </trkpt>
      <trkpt lat="49.44553" lon="0.99263">
        <ele>84.199996948242</ele>
        <time>2016-09-25T06:49:27.000Z</time>
      </trkpt>
      <trkpt lat="49.44556" lon="0.9927">
        <ele>84.400001525879</ele>
        <time>2016-09-25T06:49:29.000Z</time>
      </trkpt>
      <trkpt lat="49.44558" lon="0.99273">
        <ele>84.400001525879</ele>
        <time>2016-09-25T06:49:30.000Z</time>
      </trkpt>
      <trkpt lat="49.44562" lon="0.9928">
        <ele>84.599998474121</ele>
        <time>2016-09-25T06:49:32.000Z</time>
      </trkpt>
      <trkpt lat="49.44575" lon="0.99301">
        <ele>85.199996948242</ele>
        <time>2016-09-25T06:49:37.000Z</time>
      </trkpt>
      <trkpt lat="49.44581" lon="0.9931">
        <ele>85.400001525879</ele>
        <time>2016-09-25T06:49:39.000Z</time>
      </trkpt>
      <trkpt lat="49.44594" lon="0.9933">
        <ele>85.599998474121</ele>
        <time>2016-09-25T06:49:43.000Z</time>
      </trkpt>
      <trkpt lat="49.446" lon="0.9934">
        <ele>85.599998474121</ele>
        <time>2016-09-25T06:49:45.000Z</time>
      </trkpt>
      <trkpt lat="49.44615" lon="0.99366">
        <ele>85.800003051758</ele>
        <time>2016-09-25T06:49:50.000Z</time>
      </trkpt>
      <trkpt lat="49.44625" lon="0.99383">
        <ele>86.199996948242</ele>
        <time>2016-09-25T06:49:54.000Z</time>
      </trkpt>
      <trkpt lat="49.44647" lon="0.99417">
        <ele>87.400001525879</ele>
        <time>2016-09-25T06:50:01.000Z</time>
      </trkpt>
      <trkpt lat="49.44657" lon="0.99431">
        <ele>88</ele>
        <time>2016-09-25T06:50:04.000Z</time>
      </trkpt>
      <trkpt lat="49.44663" lon="0.9944">
        <ele>88.199996948242</ele>
        <time>2016-09-25T06:50:06.000Z</time>
      </trkpt>
      <trkpt lat="49.44672" lon="0.99453">
        <ele>88.800003051758</ele>
        <time>2016-09-25T06:50:09.000Z</time>
      </trkpt>
      <trkpt lat="49.44674" lon="0.99458">
        <ele>89</ele>
        <time>2016-09-25T06:50:10.000Z</time>
      </trkpt>
      <trkpt lat="49.44677" lon="0.99463">
        <ele>89.199996948242</ele>
        <time>2016-09-25T06:50:11.000Z</time>
      </trkpt>
      <trkpt lat="49.44686" lon="0.99477">
        <ele>89.599998474121</ele>
        <time>2016-09-25T06:50:14.000Z</time>
      </trkpt>
      <trkpt lat="49.44697" lon="0.99496">
        <ele>90</ele>
        <time>2016-09-25T06:50:18.000Z</time>
      </trkpt>
      <trkpt lat="49.44703" lon="0.99506">
        <ele>90</ele>
        <time>2016-09-25T06:50:20.000Z</time>
      </trkpt>
      <trkpt lat="49.44709" lon="0.99514">
        <ele>89.800003051758</ele>
        <time>2016-09-25T06:50:22.000Z</time>
      </trkpt>
      <trkpt lat="49.44724" lon="0.99539">
        <ele>89.599998474121</ele>
        <time>2016-09-25T06:50:28.000Z</time>
      </trkpt>
      <trkpt lat="49.44749" lon="0.99576">
        <ele>89.400001525879</ele>
        <time>2016-09-25T06:50:36.000Z</time>
      </trkpt>
      <trkpt lat="49.44781" lon="0.99628">
        <ele>89</ele>
        <time>2016-09-25T06:50:46.000Z</time>
      </trkpt>
      <trkpt lat="49.44804" lon="0.99668">
        <ele>90</ele>
        <time>2016-09-25T06:50:54.000Z</time>
      </trkpt>
      <trkpt lat="49.44827" lon="0.99709">
        <ele>91.400001525879</ele>
        <time>2016-09-25T06:51:03.000Z</time>
      </trkpt>
      <trkpt lat="49.44838" lon="0.99726">
        <ele>92</ele>
        <time>2016-09-25T06:51:07.000Z</time>
      </trkpt>
      <trkpt lat="49.44845" lon="0.99733">
        <ele>92</ele>
        <time>2016-09-25T06:51:10.000Z</time>
      </trkpt>
      <trkpt lat="49.44851" lon="0.99732">
        <ele>92</ele>
        <time>2016-09-25T06:51:12.000Z</time>
      </trkpt>
      <trkpt lat="49.44863" lon="0.99728">
        <ele>92</ele>
        <time>2016-09-25T06:51:15.000Z</time>
      </trkpt>
      <trkpt lat="49.44883" lon="0.99724">
        <ele>92</ele>
        <time>2016-09-25T06:51:20.000Z</time>
      </trkpt>
      <trkpt lat="49.44899" lon="0.99722">
        <ele>92</ele>
        <time>2016-09-25T06:51:24.000Z</time>
      </trkpt>
      <trkpt lat="49.44933" lon="0.99713">
        <ele>92</ele>
        <time>2016-09-25T06:51:31.000Z</time>
      </trkpt>
      <trkpt lat="49.44968" lon="0.99709">
        <ele>91.800003051758</ele>
        <time>2016-09-25T06:51:38.000Z</time>
      </trkpt>
      <trkpt lat="49.44984" lon="0.99707">
        <ele>91.400001525879</ele>
        <time>2016-09-25T06:51:41.000Z</time>
      </trkpt>
      <trkpt lat="49.4499" lon="0.99707">
        <ele>91.199996948242</ele>
        <time>2016-09-25T06:51:42.000Z</time>
      </trkpt>
      <trkpt lat="49.45001" lon="0.99707">
        <ele>91</ele>
        <time>2016-09-25T06:51:44.000Z</time>
      </trkpt>
      <trkpt lat="49.45013" lon="0.99706">
        <ele>90.800003051758</ele>
        <time>2016-09-25T06:51:46.000Z</time>
      </trkpt>
      <trkpt lat="49.4503" lon="0.99705">
        <ele>89.800003051758</ele>
        <time>2016-09-25T06:51:49.000Z</time>
      </trkpt>
      <trkpt lat="49.45036" lon="0.99704">
        <ele>90</ele>
        <time>2016-09-25T06:51:50.000Z</time>
      </trkpt>
      <trkpt lat="49.45047" lon="0.99702">
        <ele>90.599998474121</ele>
        <time>2016-09-25T06:51:52.000Z</time>
      </trkpt>
      <trkpt lat="49.45059" lon="0.99701">
        <ele>91.199996948242</ele>
        <time>2016-09-25T06:51:54.000Z</time>
      </trkpt>
      <trkpt lat="49.45074" lon="0.997">
        <ele>92.199996948242</ele>
        <time>2016-09-25T06:51:57.000Z</time>
      </trkpt>
      <trkpt lat="49.45087" lon="0.99699">
        <ele>93</ele>
        <time>2016-09-25T06:52:00.000Z</time>
      </trkpt>
      <trkpt lat="49.451" lon="0.99697">
        <ele>93.400001525879</ele>
        <time>2016-09-25T06:52:03.000Z</time>
      </trkpt>
      <trkpt lat="49.45109" lon="0.99697">
        <ele>93.800003051758</ele>
        <time>2016-09-25T06:52:05.000Z</time>
      </trkpt>
      <trkpt lat="49.45118" lon="0.99697">
        <ele>94</ele>
        <time>2016-09-25T06:52:07.000Z</time>
      </trkpt>
      <trkpt lat="49.45131" lon="0.99694">
        <ele>94.599998474121</ele>
        <time>2016-09-25T06:52:10.000Z</time>
      </trkpt>
      <trkpt lat="49.45141" lon="0.99693">
        <ele>95</ele>
        <time>2016-09-25T06:52:13.000Z</time>
      </trkpt>
      <trkpt lat="49.45149" lon="0.99693">
        <ele>95.400001525879</ele>
        <time>2016-09-25T06:52:15.000Z</time>
      </trkpt>
      <trkpt lat="49.45157" lon="0.99692">
        <ele>95.800003051758</ele>
        <time>2016-09-25T06:52:17.000Z</time>
      </trkpt>
      <trkpt lat="49.45166" lon="0.99699">
        <ele>96.400001525879</ele>
        <time>2016-09-25T06:52:20.000Z</time>
      </trkpt>
      <trkpt lat="49.45168" lon="0.9971">
        <ele>97</ele>
        <time>2016-09-25T06:52:22.000Z</time>
      </trkpt>
      <trkpt lat="49.45169" lon="0.99723">
        <ele>97.400001525879</ele>
        <time>2016-09-25T06:52:24.000Z</time>
      </trkpt>
      <trkpt lat="49.4517" lon="0.9976">
        <ele>98</ele>
        <time>2016-09-25T06:52:30.000Z</time>
      </trkpt>
      <trkpt lat="49.45172" lon="0.9977">
        <ele>98.199996948242</ele>
        <time>2016-09-25T06:52:32.000Z</time>
      </trkpt>
      <trkpt lat="49.45174" lon="0.99773">
        <ele>98.400001525879</ele>
        <time>2016-09-25T06:52:33.000Z</time>
      </trkpt>
      <trkpt lat="49.45177" lon="0.99775">
        <ele>98.599998474121</ele>
        <time>2016-09-25T06:52:34.000Z</time>
      </trkpt>
      <trkpt lat="49.45183" lon="0.99777">
        <ele>98.800003051758</ele>
        <time>2016-09-25T06:52:36.000Z</time>
      </trkpt>
      <trkpt lat="49.4519" lon="0.99779">
        <ele>99.199996948242</ele>
        <time>2016-09-25T06:52:38.000Z</time>
      </trkpt>
      <trkpt lat="49.45196" lon="0.99781">
        <ele>99.599998474121</ele>
        <time>2016-09-25T06:52:40.000Z</time>
      </trkpt>
      <trkpt lat="49.45215" lon="0.99788">
        <ele>101</ele>
        <time>2016-09-25T06:52:47.000Z</time>
      </trkpt>
      <trkpt lat="49.45222" lon="0.99789">
        <ele>101.59999847412</ele>
        <time>2016-09-25T06:52:50.000Z</time>
      </trkpt>
      <trkpt lat="49.45235" lon="0.99792">
        <ele>102.80000305176</ele>
        <time>2016-09-25T06:52:55.000Z</time>
      </trkpt>
      <trkpt lat="49.45238" lon="0.99793">
        <ele>103</ele>
        <time>2016-09-25T06:52:56.000Z</time>
      </trkpt>
      <trkpt lat="49.4525" lon="0.99796">
        <ele>104</ele>
        <time>2016-09-25T06:53:00.000Z</time>
      </trkpt>
      <trkpt lat="49.45256" lon="0.99797">
        <ele>104.59999847412</ele>
        <time>2016-09-25T06:53:02.000Z</time>
      </trkpt>
      <trkpt lat="49.45259" lon="0.99798">
        <ele>104.80000305176</ele>
        <time>2016-09-25T06:53:03.000Z</time>
      </trkpt>
      <trkpt lat="49.45262" lon="0.99799">
        <ele>105.19999694824</ele>
        <time>2016-09-25T06:53:04.000Z</time>
      </trkpt>
      <trkpt lat="49.4527" lon="0.998">
        <ele>105.80000305176</ele>
        <time>2016-09-25T06:53:07.000Z</time>
      </trkpt>
      <trkpt lat="49.4528" lon="0.99804">
        <ele>106.80000305176</ele>
        <time>2016-09-25T06:53:11.000Z</time>
      </trkpt>
      <trkpt lat="49.45283" lon="0.99804">
        <ele>107</ele>
        <time>2016-09-25T06:53:12.000Z</time>
      </trkpt>
      <trkpt lat="49.45288" lon="0.99806">
        <ele>107.19999694824</ele>
        <time>2016-09-25T06:53:14.000Z</time>
      </trkpt>
      <trkpt lat="49.45301" lon="0.99809">
        <ele>108.19999694824</ele>
        <time>2016-09-25T06:53:19.000Z</time>
      </trkpt>
      <trkpt lat="49.45311" lon="0.99811">
        <ele>108.59999847412</ele>
        <time>2016-09-25T06:53:22.000Z</time>
      </trkpt>
      <trkpt lat="49.45316" lon="0.99812">
        <ele>109</ele>
        <time>2016-09-25T06:53:24.000Z</time>
      </trkpt>
      <trkpt lat="49.45325" lon="0.99815">
        <ele>109.59999847412</ele>
        <time>2016-09-25T06:53:28.000Z</time>
      </trkpt>
      <trkpt lat="49.45336" lon="0.99817">
        <ele>110.19999694824</ele>
        <time>2016-09-25T06:53:32.000Z</time>
      </trkpt>
      <trkpt lat="49.45346" lon="0.99819">
        <ele>110.80000305176</ele>
        <time>2016-09-25T06:53:36.000Z</time>
      </trkpt>
      <trkpt lat="49.45354" lon="0.99821">
        <ele>111.19999694824</ele>
        <time>2016-09-25T06:53:39.000Z</time>
      </trkpt>
      <trkpt lat="49.45361" lon="0.99828">
        <ele>111.80000305176</ele>
        <time>2016-09-25T06:53:42.000Z</time>
      </trkpt>
      <trkpt lat="49.45368" lon="0.99832">
        <ele>112.19999694824</ele>
        <time>2016-09-25T06:53:45.000Z</time>
      </trkpt>
      <trkpt lat="49.4537" lon="0.99831">
        <ele>112.19999694824</ele>
        <time>2016-09-25T06:53:46.000Z</time>
      </trkpt>
      <trkpt lat="49.45375" lon="0.99826">
        <ele>112.40000152588</ele>
        <time>2016-09-25T06:53:50.000Z</time>
      </trkpt>
      <trkpt lat="49.45376" lon="0.99824">
        <ele>112.40000152588</ele>
        <time>2016-09-25T06:53:57.000Z</time>
      </trkpt>
      <trkpt lat="49.45376" lon="0.99824">
        <ele>112.40000152588</ele>
        <time>2016-09-25T06:54:07.000Z</time>
      </trkpt>
      <trkpt lat="49.45377" lon="0.99826">
        <ele>112.59999847412</ele>
        <time>2016-09-25T06:54:13.000Z</time>
      </trkpt>
      <trkpt lat="49.45377" lon="0.99826">
        <ele>112.59999847412</ele>
        <time>2016-09-25T06:54:28.000Z</time>
      </trkpt>
      <trkpt lat="49.45377" lon="0.99826">
        <ele>112.59999847412</ele>
        <time>2016-09-25T06:54:42.000Z</time>
      </trkpt>
      <trkpt lat="49.45377" lon="0.99826">
        <ele>112.59999847412</ele>
        <time>2016-09-25T06:55:00.000Z</time>
      </trkpt>
      <trkpt lat="49.45377" lon="0.99826">
        <ele>112.59999847412</ele>
        <time>2016-09-25T06:55:14.000Z</time>
      </trkpt>
      <trkpt lat="49.45377" lon="0.99826">
        <ele>112.59999847412</ele>
        <time>2016-09-25T06:55:24.000Z</time>
      </trkpt>
      <trkpt lat="49.45377" lon="0.99826">
        <ele>112.59999847412</ele>
        <time>2016-09-25T06:55:39.000Z</time>
      </trkpt>
      <trkpt lat="49.45377" lon="0.99826">
        <ele>112.59999847412</ele>
        <time>2016-09-25T06:55:47.000Z</time>
      </trkpt>
      <trkpt lat="49.45377" lon="0.99826">
        <ele>112.59999847412</ele>
        <time>2016-09-25T06:56:00.000Z</time>
      </trkpt>
      <trkpt lat="49.45377" lon="0.99826">
        <ele>112.59999847412</ele>
        <time>2016-09-25T06:56:16.000Z</time>
      </trkpt>
      <trkpt lat="49.45377" lon="0.99826">
        <ele>112.59999847412</ele>
        <time>2016-09-25T06:56:26.000Z</time>
      </trkpt>
      <trkpt lat="49.45377" lon="0.99826">
        <ele>112.59999847412</ele>
        <time>2016-09-25T06:56:43.000Z</time>
      </trkpt>
      <trkpt lat="49.45377" lon="0.99826">
        <ele>112.59999847412</ele>
        <time>2016-09-25T06:57:00.000Z</time>
      </trkpt>
      <trkpt lat="49.45377" lon="0.99826">
        <ele>112.59999847412</ele>
        <time>2016-09-25T06:57:12.000Z</time>
      </trkpt>
      <trkpt lat="49.45377" lon="0.99826">
        <ele>112.59999847412</ele>
        <time>2016-09-25T06:57:24.000Z</time>
      </trkpt>
      <trkpt lat="49.45379" lon="0.99824">
        <ele>112.59999847412</ele>
        <time>2016-09-25T06:57:31.000Z</time>
      </trkpt>
      <trkpt lat="49.45391" lon="0.99809">
        <ele>113.19999694824</ele>
        <time>2016-09-25T06:57:37.000Z</time>
      </trkpt>
      <trkpt lat="49.45393" lon="0.99807">
        <ele>113.19999694824</ele>
        <time>2016-09-25T06:57:38.000Z</time>
      </trkpt>
      <trkpt lat="49.45402" lon="0.99796">
        <ele>113.40000152588</ele>
        <time>2016-09-25T06:57:42.000Z</time>
      </trkpt>
      <trkpt lat="49.45405" lon="0.99792">
        <ele>113.40000152588</ele>
        <time>2016-09-25T06:57:44.000Z</time>
      </trkpt>
      <trkpt lat="49.45409" lon="0.99787">
        <ele>113.59999847412</ele>
        <time>2016-09-25T06:57:47.000Z</time>
      </trkpt>
      <trkpt lat="49.45417" lon="0.99778">
        <ele>113.80000305176</ele>
        <time>2016-09-25T06:57:51.000Z</time>
      </trkpt>
      <trkpt lat="49.45427" lon="0.99767">
        <ele>114.59999847412</ele>
        <time>2016-09-25T06:57:55.000Z</time>
      </trkpt>
      <trkpt lat="49.45439" lon="0.99753">
        <ele>115.80000305176</ele>
        <time>2016-09-25T06:58:00.000Z</time>
      </trkpt>
      <trkpt lat="49.45444" lon="0.99747">
        <ele>116.19999694824</ele>
        <time>2016-09-25T06:58:02.000Z</time>
      </trkpt>
      <trkpt lat="49.45454" lon="0.99734">
        <ele>117.40000152588</ele>
        <time>2016-09-25T06:58:07.000Z</time>
      </trkpt>
      <trkpt lat="49.45456" lon="0.99733">
        <ele>117.40000152588</ele>
        <time>2016-09-25T06:58:08.000Z</time>
      </trkpt>
      <trkpt lat="49.45459" lon="0.99726">
        <ele>117.19999694824</ele>
        <time>2016-09-25T06:58:11.000Z</time>
      </trkpt>
      <trkpt lat="49.45464" lon="0.99718">
        <ele>116.80000305176</ele>
        <time>2016-09-25T06:58:14.000Z</time>
      </trkpt>
      <trkpt lat="49.45466" lon="0.99714">
        <ele>116.59999847412</ele>
        <time>2016-09-25T06:58:15.000Z</time>
      </trkpt>
      <trkpt lat="49.45467" lon="0.99692">
        <ele>115.59999847412</ele>
        <time>2016-09-25T06:58:19.000Z</time>
      </trkpt>
      <trkpt lat="49.45464" lon="0.99651">
        <ele>113.40000152588</ele>
        <time>2016-09-25T06:58:25.000Z</time>
      </trkpt>
      <trkpt lat="49.45464" lon="0.99645">
        <ele>112.80000305176</ele>
        <time>2016-09-25T06:58:26.000Z</time>
      </trkpt>
      <trkpt lat="49.45464" lon="0.99613">
        <ele>111.80000305176</ele>
        <time>2016-09-25T06:58:31.000Z</time>
      </trkpt>
      <trkpt lat="49.45465" lon="0.99587">
        <ele>111.19999694824</ele>
        <time>2016-09-25T06:58:35.000Z</time>
      </trkpt>
      <trkpt lat="49.45466" lon="0.9958">
        <ele>111</ele>
        <time>2016-09-25T06:58:36.000Z</time>
      </trkpt>
      <trkpt lat="49.45466" lon="0.99549">
        <ele>110.40000152588</ele>
        <time>2016-09-25T06:58:40.000Z</time>
      </trkpt>
      <trkpt lat="49.45466" lon="0.99531">
        <ele>110.40000152588</ele>
        <time>2016-09-25T06:58:42.000Z</time>
      </trkpt>
      <trkpt lat="49.45466" lon="0.99522">
        <ele>110.40000152588</ele>
        <time>2016-09-25T06:58:43.000Z</time>
      </trkpt>
      <trkpt lat="49.45465" lon="0.99496">
        <ele>110.40000152588</ele>
        <time>2016-09-25T06:58:46.000Z</time>
      </trkpt>
      <trkpt lat="49.45465" lon="0.99488">
        <ele>110.59999847412</ele>
        <time>2016-09-25T06:58:47.000Z</time>
      </trkpt>
      <trkpt lat="49.45465" lon="0.99476">
        <ele>110.80000305176</ele>
        <time>2016-09-25T06:58:49.000Z</time>
      </trkpt>
      <trkpt lat="49.45467" lon="0.99468">
        <ele>110.80000305176</ele>
        <time>2016-09-25T06:58:51.000Z</time>
      </trkpt>
      <trkpt lat="49.45467" lon="0.99465">
        <ele>110.80000305176</ele>
        <time>2016-09-25T06:58:52.000Z</time>
      </trkpt>
      <trkpt lat="49.4547" lon="0.99454">
        <ele>110.80000305176</ele>
        <time>2016-09-25T06:58:55.000Z</time>
      </trkpt>
      <trkpt lat="49.45472" lon="0.99446">
        <ele>110.80000305176</ele>
        <time>2016-09-25T06:58:57.000Z</time>
      </trkpt>
      <trkpt lat="49.45474" lon="0.99443">
        <ele>110.80000305176</ele>
        <time>2016-09-25T06:58:58.000Z</time>
      </trkpt>
      <trkpt lat="49.45479" lon="0.99435">
        <ele>110.59999847412</ele>
        <time>2016-09-25T06:59:01.000Z</time>
      </trkpt>
      <trkpt lat="49.45483" lon="0.99429">
        <ele>110.59999847412</ele>
        <time>2016-09-25T06:59:03.000Z</time>
      </trkpt>
      <trkpt lat="49.45487" lon="0.99424">
        <ele>111</ele>
        <time>2016-09-25T06:59:05.000Z</time>
      </trkpt>
      <trkpt lat="49.45489" lon="0.99422">
        <ele>111.19999694824</ele>
        <time>2016-09-25T06:59:06.000Z</time>
      </trkpt>
      <trkpt lat="49.45494" lon="0.99421">
        <ele>111.80000305176</ele>
        <time>2016-09-25T06:59:08.000Z</time>
      </trkpt>
      <trkpt lat="49.45502" lon="0.99417">
        <ele>112.59999847412</ele>
        <time>2016-09-25T06:59:11.000Z</time>
      </trkpt>
      <trkpt lat="49.45506" lon="0.9941">
        <ele>113.59999847412</ele>
        <time>2016-09-25T06:59:13.000Z</time>
      </trkpt>
      <trkpt lat="49.45508" lon="0.99405">
        <ele>114</ele>
        <time>2016-09-25T06:59:14.000Z</time>
      </trkpt>
      <trkpt lat="49.45515" lon="0.99391">
        <ele>115.80000305176</ele>
        <time>2016-09-25T06:59:17.000Z</time>
      </trkpt>
      <trkpt lat="49.45517" lon="0.99386">
        <ele>116</ele>
        <time>2016-09-25T06:59:18.000Z</time>
      </trkpt>
      <trkpt lat="49.45519" lon="0.99381">
        <ele>116.19999694824</ele>
        <time>2016-09-25T06:59:19.000Z</time>
      </trkpt>
      <trkpt lat="49.45522" lon="0.99376">
        <ele>116.40000152588</ele>
        <time>2016-09-25T06:59:20.000Z</time>
      </trkpt>
      <trkpt lat="49.45531" lon="0.9936">
        <ele>117.59999847412</ele>
        <time>2016-09-25T06:59:24.000Z</time>
      </trkpt>
      <trkpt lat="49.45543" lon="0.99336">
        <ele>118.80000305176</ele>
        <time>2016-09-25T06:59:29.000Z</time>
      </trkpt>
      <trkpt lat="49.45545" lon="0.99331">
        <ele>119</ele>
        <time>2016-09-25T06:59:30.000Z</time>
      </trkpt>
      <trkpt lat="49.4555" lon="0.99322">
        <ele>119.40000152588</ele>
        <time>2016-09-25T06:59:32.000Z</time>
      </trkpt>
      <trkpt lat="49.45556" lon="0.99308">
        <ele>119.59999847412</ele>
        <time>2016-09-25T06:59:35.000Z</time>
      </trkpt>
      <trkpt lat="49.45561" lon="0.99297">
        <ele>119.40000152588</ele>
        <time>2016-09-25T06:59:37.000Z</time>
      </trkpt>
      <trkpt lat="49.45567" lon="0.99285">
        <ele>119.19999694824</ele>
        <time>2016-09-25T06:59:39.000Z</time>
      </trkpt>
      <trkpt lat="49.45577" lon="0.99261">
        <ele>119.19999694824</ele>
        <time>2016-09-25T06:59:43.000Z</time>
      </trkpt>
      <trkpt lat="49.45592" lon="0.99216">
        <ele>119.80000305176</ele>
        <time>2016-09-25T06:59:51.000Z</time>
      </trkpt>
      <trkpt lat="49.45604" lon="0.99169">
        <ele>120.80000305176</ele>
        <time>2016-09-25T06:59:58.000Z</time>
      </trkpt>
      <trkpt lat="49.45613" lon="0.99121">
        <ele>122.19999694824</ele>
        <time>2016-09-25T07:00:04.000Z</time>
      </trkpt>
      <trkpt lat="49.45614" lon="0.99115">
        <ele>122.40000152588</ele>
        <time>2016-09-25T07:00:05.000Z</time>
      </trkpt>
      <trkpt lat="49.45624" lon="0.99085">
        <ele>123.40000152588</ele>
        <time>2016-09-25T07:00:11.000Z</time>
      </trkpt>
      <trkpt lat="49.45628" lon="0.99078">
        <ele>123.59999847412</ele>
        <time>2016-09-25T07:00:13.000Z</time>
      </trkpt>
      <trkpt lat="49.45639" lon="0.99063">
        <ele>125</ele>
        <time>2016-09-25T07:00:18.000Z</time>
      </trkpt>
      <trkpt lat="49.4565" lon="0.99054">
        <ele>126</ele>
        <time>2016-09-25T07:00:22.000Z</time>
      </trkpt>
      <trkpt lat="49.45652" lon="0.99052">
        <ele>126.19999694824</ele>
        <time>2016-09-25T07:00:23.000Z</time>
      </trkpt>
      <trkpt lat="49.45654" lon="0.9905">
        <ele>126.19999694824</ele>
        <time>2016-09-25T07:00:24.000Z</time>
      </trkpt>
      <trkpt lat="49.45663" lon="0.9903">
        <ele>126.80000305176</ele>
        <time>2016-09-25T07:00:30.000Z</time>
      </trkpt>
      <trkpt lat="49.45669" lon="0.99015">
        <ele>127.19999694824</ele>
        <time>2016-09-25T07:00:32.000Z</time>
      </trkpt>
      <trkpt lat="49.45679" lon="0.98987">
        <ele>127.80000305176</ele>
        <time>2016-09-25T07:00:37.000Z</time>
      </trkpt>
      <trkpt lat="49.45683" lon="0.98958">
        <ele>127</ele>
        <time>2016-09-25T07:00:43.000Z</time>
      </trkpt>
      <trkpt lat="49.45679" lon="0.98946">
        <ele>126.19999694824</ele>
        <time>2016-09-25T07:00:46.000Z</time>
      </trkpt>
      <trkpt lat="49.45677" lon="0.98944">
        <ele>126</ele>
        <time>2016-09-25T07:00:47.000Z</time>
      </trkpt>
      <trkpt lat="49.45676" lon="0.98942">
        <ele>125.80000305176</ele>
        <time>2016-09-25T07:00:48.000Z</time>
      </trkpt>
      <trkpt lat="49.45674" lon="0.9894">
        <ele>125.59999847412</ele>
        <time>2016-09-25T07:00:50.000Z</time>
      </trkpt>
      <trkpt lat="49.45666" lon="0.98933">
        <ele>124.59999847412</ele>
        <time>2016-09-25T07:00:55.000Z</time>
      </trkpt>
      <trkpt lat="49.45657" lon="0.98925">
        <ele>123.59999847412</ele>
        <time>2016-09-25T07:00:58.000Z</time>
      </trkpt>
      <trkpt lat="49.45647" lon="0.98921">
        <ele>122.59999847412</ele>
        <time>2016-09-25T07:01:00.000Z</time>
      </trkpt>
      <trkpt lat="49.45631" lon="0.98916">
        <ele>121.40000152588</ele>
        <time>2016-09-25T07:01:03.000Z</time>
      </trkpt>
      <trkpt lat="49.45621" lon="0.98912">
        <ele>120.40000152588</ele>
        <time>2016-09-25T07:01:05.000Z</time>
      </trkpt>
      <trkpt lat="49.45616" lon="0.98911">
        <ele>120.19999694824</ele>
        <time>2016-09-25T07:01:06.000Z</time>
      </trkpt>
      <trkpt lat="49.45604" lon="0.9891">
        <ele>119.59999847412</ele>
        <time>2016-09-25T07:01:08.000Z</time>
      </trkpt>
      <trkpt lat="49.45592" lon="0.98907">
        <ele>118.80000305176</ele>
        <time>2016-09-25T07:01:10.000Z</time>
      </trkpt>
      <trkpt lat="49.45587" lon="0.98903">
        <ele>118.40000152588</ele>
        <time>2016-09-25T07:01:11.000Z</time>
      </trkpt>
      <trkpt lat="49.45576" lon="0.98889">
        <ele>116.80000305176</ele>
        <time>2016-09-25T07:01:14.000Z</time>
      </trkpt>
      <trkpt lat="49.45568" lon="0.98884">
        <ele>115.80000305176</ele>
        <time>2016-09-25T07:01:16.000Z</time>
      </trkpt>
      <trkpt lat="49.45562" lon="0.98884">
        <ele>115.40000152588</ele>
        <time>2016-09-25T07:01:17.000Z</time>
      </trkpt>
      <trkpt lat="49.45556" lon="0.98884">
        <ele>115.19999694824</ele>
        <time>2016-09-25T07:01:18.000Z</time>
      </trkpt>
      <trkpt lat="49.45545" lon="0.98888">
        <ele>115.19999694824</ele>
        <time>2016-09-25T07:01:20.000Z</time>
      </trkpt>
      <trkpt lat="49.4554" lon="0.98891">
        <ele>115.19999694824</ele>
        <time>2016-09-25T07:01:21.000Z</time>
      </trkpt>
      <trkpt lat="49.45535" lon="0.98893">
        <ele>115.19999694824</ele>
        <time>2016-09-25T07:01:22.000Z</time>
      </trkpt>
      <trkpt lat="49.45529" lon="0.98893">
        <ele>114.80000305176</ele>
        <time>2016-09-25T07:01:23.000Z</time>
      </trkpt>
      <trkpt lat="49.45509" lon="0.98889">
        <ele>112.80000305176</ele>
        <time>2016-09-25T07:01:26.000Z</time>
      </trkpt>
      <trkpt lat="49.45502" lon="0.98888">
        <ele>112.19999694824</ele>
        <time>2016-09-25T07:01:27.000Z</time>
      </trkpt>
      <trkpt lat="49.45489" lon="0.98885">
        <ele>110.80000305176</ele>
        <time>2016-09-25T07:01:29.000Z</time>
      </trkpt>
      <trkpt lat="49.45476" lon="0.98882">
        <ele>109.40000152588</ele>
        <time>2016-09-25T07:01:31.000Z</time>
      </trkpt>
      <trkpt lat="49.4547" lon="0.98882">
        <ele>109</ele>
        <time>2016-09-25T07:01:32.000Z</time>
      </trkpt>
      <trkpt lat="49.45449" lon="0.98881">
        <ele>107</ele>
        <time>2016-09-25T07:01:35.000Z</time>
      </trkpt>
      <trkpt lat="49.45442" lon="0.98879">
        <ele>106.59999847412</ele>
        <time>2016-09-25T07:01:36.000Z</time>
      </trkpt>
      <trkpt lat="49.45434" lon="0.98877">
        <ele>106.19999694824</ele>
        <time>2016-09-25T07:01:37.000Z</time>
      </trkpt>
      <trkpt lat="49.45427" lon="0.98876">
        <ele>105.59999847412</ele>
        <time>2016-09-25T07:01:38.000Z</time>
      </trkpt>
      <trkpt lat="49.45401" lon="0.98867">
        <ele>103</ele>
        <time>2016-09-25T07:01:42.000Z</time>
      </trkpt>
      <trkpt lat="49.45394" lon="0.98867">
        <ele>102.40000152588</ele>
        <time>2016-09-25T07:01:43.000Z</time>
      </trkpt>
      <trkpt lat="49.45372" lon="0.98867">
        <ele>100.59999847412</ele>
        <time>2016-09-25T07:01:46.000Z</time>
      </trkpt>
      <trkpt lat="49.45349" lon="0.98868">
        <ele>99.400001525879</ele>
        <time>2016-09-25T07:01:49.000Z</time>
      </trkpt>
      <trkpt lat="49.45326" lon="0.98867">
        <ele>98.199996948242</ele>
        <time>2016-09-25T07:01:52.000Z</time>
      </trkpt>
      <trkpt lat="49.45312" lon="0.98862">
        <ele>97.400001525879</ele>
        <time>2016-09-25T07:01:54.000Z</time>
      </trkpt>
      <trkpt lat="49.45293" lon="0.98854">
        <ele>96.199996948242</ele>
        <time>2016-09-25T07:01:57.000Z</time>
      </trkpt>
      <trkpt lat="49.45276" lon="0.98841">
        <ele>95</ele>
        <time>2016-09-25T07:02:00.000Z</time>
      </trkpt>
      <trkpt lat="49.45259" lon="0.9883">
        <ele>94</ele>
        <time>2016-09-25T07:02:03.000Z</time>
      </trkpt>
      <trkpt lat="49.45242" lon="0.9882">
        <ele>93</ele>
        <time>2016-09-25T07:02:06.000Z</time>
      </trkpt>
      <trkpt lat="49.45235" lon="0.98816">
        <ele>92.599998474121</ele>
        <time>2016-09-25T07:02:07.000Z</time>
      </trkpt>
      <trkpt lat="49.45223" lon="0.9881">
        <ele>92</ele>
        <time>2016-09-25T07:02:09.000Z</time>
      </trkpt>
      <trkpt lat="49.4521" lon="0.98806">
        <ele>91.199996948242</ele>
        <time>2016-09-25T07:02:11.000Z</time>
      </trkpt>
      <trkpt lat="49.45197" lon="0.98803">
        <ele>90.599998474121</ele>
        <time>2016-09-25T07:02:13.000Z</time>
      </trkpt>
      <trkpt lat="49.4519" lon="0.98801">
        <ele>90.400001525879</ele>
        <time>2016-09-25T07:02:14.000Z</time>
      </trkpt>
      <trkpt lat="49.45165" lon="0.98795">
        <ele>89</ele>
        <time>2016-09-25T07:02:18.000Z</time>
      </trkpt>
      <trkpt lat="49.45159" lon="0.98793">
        <ele>88.599998474121</ele>
        <time>2016-09-25T07:02:20.000Z</time>
      </trkpt>
      <trkpt lat="49.45157" lon="0.98793">
        <ele>88.599998474121</ele>
        <time>2016-09-25T07:02:21.000Z</time>
      </trkpt>
      <trkpt lat="49.45156" lon="0.98792">
        <ele>88.599998474121</ele>
        <time>2016-09-25T07:02:23.000Z</time>
      </trkpt>
      <trkpt lat="49.45151" lon="0.9879">
        <ele>88.199996948242</ele>
        <time>2016-09-25T07:02:28.000Z</time>
      </trkpt>
      <trkpt lat="49.45144" lon="0.98787">
        <ele>87.800003051758</ele>
        <time>2016-09-25T07:02:31.000Z</time>
      </trkpt>
      <trkpt lat="49.45139" lon="0.98785">
        <ele>87.599998474121</ele>
        <time>2016-09-25T07:02:33.000Z</time>
      </trkpt>
      <trkpt lat="49.45126" lon="0.98779">
        <ele>86.800003051758</ele>
        <time>2016-09-25T07:02:38.000Z</time>
      </trkpt>
      <trkpt lat="49.45121" lon="0.98778">
        <ele>86.599998474121</ele>
        <time>2016-09-25T07:02:40.000Z</time>
      </trkpt>
      <trkpt lat="49.45117" lon="0.98778">
        <ele>86.400001525879</ele>
        <time>2016-09-25T07:02:42.000Z</time>
      </trkpt>
      <trkpt lat="49.45101" lon="0.98772">
        <ele>86.599998474121</ele>
        <time>2016-09-25T07:02:47.000Z</time>
      </trkpt>
      <trkpt lat="49.45077" lon="0.98766">
        <ele>87.400001525879</ele>
        <time>2016-09-25T07:02:53.000Z</time>
      </trkpt>
      <trkpt lat="49.45061" lon="0.98757">
        <ele>87.800003051758</ele>
        <time>2016-09-25T07:02:58.000Z</time>
      </trkpt>
      <trkpt lat="49.45034" lon="0.98752">
        <ele>88.599998474121</ele>
        <time>2016-09-25T07:03:04.000Z</time>
      </trkpt>
      <trkpt lat="49.44995" lon="0.98743">
        <ele>89.800003051758</ele>
        <time>2016-09-25T07:03:11.000Z</time>
      </trkpt>
      <trkpt lat="49.44964" lon="0.98734">
        <ele>90.599998474121</ele>
        <time>2016-09-25T07:03:17.000Z</time>
      </trkpt>
      <trkpt lat="49.44961" lon="0.98734">
        <ele>90.800003051758</ele>
        <time>2016-09-25T07:03:18.000Z</time>
      </trkpt>
      <trkpt lat="49.44953" lon="0.98744">
        <ele>91</ele>
        <time>2016-09-25T07:03:23.000Z</time>
      </trkpt>
      <trkpt lat="49.44947" lon="0.98737">
        <ele>91</ele>
        <time>2016-09-25T07:03:26.000Z</time>
      </trkpt>
      <trkpt lat="49.44942" lon="0.98726">
        <ele>91</ele>
        <time>2016-09-25T07:03:29.000Z</time>
      </trkpt>
      <trkpt lat="49.44937" lon="0.98721">
        <ele>90.800003051758</ele>
        <time>2016-09-25T07:03:31.000Z</time>
      </trkpt>
      <trkpt lat="49.44928" lon="0.9872">
        <ele>90.800003051758</ele>
        <time>2016-09-25T07:03:33.000Z</time>
      </trkpt>
      <trkpt lat="49.44923" lon="0.98719">
        <ele>90.800003051758</ele>
        <time>2016-09-25T07:03:34.000Z</time>
      </trkpt>
      <trkpt lat="49.44919" lon="0.98718">
        <ele>90.800003051758</ele>
        <time>2016-09-25T07:03:35.000Z</time>
      </trkpt>
      <trkpt lat="49.44916" lon="0.98715">
        <ele>90.599998474121</ele>
        <time>2016-09-25T07:03:36.000Z</time>
      </trkpt>
      <trkpt lat="49.44915" lon="0.98712">
        <ele>90.599998474121</ele>
        <time>2016-09-25T07:03:37.000Z</time>
      </trkpt>
      <trkpt lat="49.44915" lon="0.98698">
        <ele>90</ele>
        <time>2016-09-25T07:03:40.000Z</time>
      </trkpt>
      <trkpt lat="49.44916" lon="0.98688">
        <ele>89.599998474121</ele>
        <time>2016-09-25T07:03:42.000Z</time>
      </trkpt>
      <trkpt lat="49.44916" lon="0.98661">
        <ele>88.400001525879</ele>
        <time>2016-09-25T07:03:47.000Z</time>
      </trkpt>
      <trkpt lat="49.44915" lon="0.98647">
        <ele>87.599998474121</ele>
        <time>2016-09-25T07:03:50.000Z</time>
      </trkpt>
      <trkpt lat="49.44916" lon="0.98614">
        <ele>86.800003051758</ele>
        <time>2016-09-25T07:03:57.000Z</time>
      </trkpt>
      <trkpt lat="49.44919" lon="0.98575">
        <ele>87</ele>
        <time>2016-09-25T07:04:05.000Z</time>
      </trkpt>
      <trkpt lat="49.44919" lon="0.98545">
        <ele>88.199996948242</ele>
        <time>2016-09-25T07:04:11.000Z</time>
      </trkpt>
      <trkpt lat="49.44919" lon="0.9854">
        <ele>88.599998474121</ele>
        <time>2016-09-25T07:04:12.000Z</time>
      </trkpt>
      <trkpt lat="49.44919" lon="0.98528">
        <ele>89.400001525879</ele>
        <time>2016-09-25T07:04:17.000Z</time>
      </trkpt>
      <trkpt lat="49.44918" lon="0.98526">
        <ele>89.599998474121</ele>
        <time>2016-09-25T07:04:18.000Z</time>
      </trkpt>
      <trkpt lat="49.44911" lon="0.98523">
        <ele>89.599998474121</ele>
        <time>2016-09-25T07:04:21.000Z</time>
      </trkpt>
      <trkpt lat="49.44907" lon="0.98522">
        <ele>89.599998474121</ele>
        <time>2016-09-25T07:04:22.000Z</time>
      </trkpt>
      <trkpt lat="49.44884" lon="0.98518">
        <ele>89.400001525879</ele>
        <time>2016-09-25T07:04:27.000Z</time>
      </trkpt>
      <trkpt lat="49.44848" lon="0.9851">
        <ele>88.599998474121</ele>
        <time>2016-09-25T07:04:34.000Z</time>
      </trkpt>
      <trkpt lat="49.44838" lon="0.98507">
        <ele>88.400001525879</ele>
        <time>2016-09-25T07:04:36.000Z</time>
      </trkpt>
      <trkpt lat="49.44801" lon="0.98496">
        <ele>87.400001525879</ele>
        <time>2016-09-25T07:04:43.000Z</time>
      </trkpt>
      <trkpt lat="49.44796" lon="0.98494">
        <ele>87.400001525879</ele>
        <time>2016-09-25T07:04:44.000Z</time>
      </trkpt>
      <trkpt lat="49.44786" lon="0.98493">
        <ele>87</ele>
        <time>2016-09-25T07:04:46.000Z</time>
      </trkpt>
      <trkpt lat="49.44777" lon="0.9849">
        <ele>86.800003051758</ele>
        <time>2016-09-25T07:04:48.000Z</time>
      </trkpt>
      <trkpt lat="49.44771" lon="0.98489">
        <ele>86.599998474121</ele>
        <time>2016-09-25T07:04:49.000Z</time>
      </trkpt>
      <trkpt lat="49.44745" lon="0.98482">
        <ele>85.800003051758</ele>
        <time>2016-09-25T07:04:54.000Z</time>
      </trkpt>
      <trkpt lat="49.44735" lon="0.9848">
        <ele>85.400001525879</ele>
        <time>2016-09-25T07:04:56.000Z</time>
      </trkpt>
      <trkpt lat="49.44725" lon="0.98477">
        <ele>85.199996948242</ele>
        <time>2016-09-25T07:04:58.000Z</time>
      </trkpt>
      <trkpt lat="49.44705" lon="0.98471">
        <ele>84.400001525879</ele>
        <time>2016-09-25T07:05:02.000Z</time>
      </trkpt>
      <trkpt lat="49.44688" lon="0.98466">
        <ele>84.599998474121</ele>
        <time>2016-09-25T07:05:05.000Z</time>
      </trkpt>
      <trkpt lat="49.44675" lon="0.98465">
        <ele>85</ele>
        <time>2016-09-25T07:05:08.000Z</time>
      </trkpt>
      <trkpt lat="49.44669" lon="0.98465">
        <ele>85.199996948242</ele>
        <time>2016-09-25T07:05:11.000Z</time>
      </trkpt>
      <trkpt lat="49.44668" lon="0.98465">
        <ele>85.199996948242</ele>
        <time>2016-09-25T07:05:12.000Z</time>
      </trkpt>
      <trkpt lat="49.44667" lon="0.98463">
        <ele>85.400001525879</ele>
        <time>2016-09-25T07:05:13.000Z</time>
      </trkpt>
      <trkpt lat="49.44666" lon="0.98457">
        <ele>85.599998474121</ele>
        <time>2016-09-25T07:05:15.000Z</time>
      </trkpt>
      <trkpt lat="49.44667" lon="0.98452">
        <ele>85.800003051758</ele>
        <time>2016-09-25T07:05:16.000Z</time>
      </trkpt>
      <trkpt lat="49.44668" lon="0.98433">
        <ele>86.800003051758</ele>
        <time>2016-09-25T07:05:20.000Z</time>
      </trkpt>
      <trkpt lat="49.44669" lon="0.98429">
        <ele>87</ele>
        <time>2016-09-25T07:05:21.000Z</time>
      </trkpt>
      <trkpt lat="49.44677" lon="0.98395">
        <ele>88.400001525879</ele>
        <time>2016-09-25T07:05:27.000Z</time>
      </trkpt>
      <trkpt lat="49.44678" lon="0.98389">
        <ele>88.599998474121</ele>
        <time>2016-09-25T07:05:28.000Z</time>
      </trkpt>
      <trkpt lat="49.44679" lon="0.98379">
        <ele>88.599998474121</ele>
        <time>2016-09-25T07:05:30.000Z</time>
      </trkpt>
      <trkpt lat="49.44678" lon="0.98369">
        <ele>88.800003051758</ele>
        <time>2016-09-25T07:05:32.000Z</time>
      </trkpt>
      <trkpt lat="49.44676" lon="0.98345">
        <ele>88.800003051758</ele>
        <time>2016-09-25T07:05:37.000Z</time>
      </trkpt>
      <trkpt lat="49.44676" lon="0.9834">
        <ele>88.800003051758</ele>
        <time>2016-09-25T07:05:38.000Z</time>
      </trkpt>
      <trkpt lat="49.4469" lon="0.98297">
        <ele>88.400001525879</ele>
        <time>2016-09-25T07:05:45.000Z</time>
      </trkpt>
      <trkpt lat="49.44699" lon="0.98265">
        <ele>88.599998474121</ele>
        <time>2016-09-25T07:05:51.000Z</time>
      </trkpt>
      <trkpt lat="49.447" lon="0.98258">
        <ele>88.599998474121</ele>
        <time>2016-09-25T07:05:52.000Z</time>
      </trkpt>
      <trkpt lat="49.44711" lon="0.98212">
        <ele>89.800003051758</ele>
        <time>2016-09-25T07:05:59.000Z</time>
      </trkpt>
      <trkpt lat="49.44715" lon="0.9819">
        <ele>90.199996948242</ele>
        <time>2016-09-25T07:06:02.000Z</time>
      </trkpt>
      <trkpt lat="49.44719" lon="0.98161">
        <ele>90.800003051758</ele>
        <time>2016-09-25T07:06:06.000Z</time>
      </trkpt>
      <trkpt lat="49.44722" lon="0.98116">
        <ele>90.400001525879</ele>
        <time>2016-09-25T07:06:13.000Z</time>
      </trkpt>
      <trkpt lat="49.44725" lon="0.98096">
        <ele>90.199996948242</ele>
        <time>2016-09-25T07:06:18.000Z</time>
      </trkpt>
      <trkpt lat="49.44725" lon="0.98088">
        <ele>90</ele>
        <time>2016-09-25T07:06:20.000Z</time>
      </trkpt>
      <trkpt lat="49.44727" lon="0.98082">
        <ele>89.800003051758</ele>
        <time>2016-09-25T07:06:21.000Z</time>
      </trkpt>
      <trkpt lat="49.44729" lon="0.98072">
        <ele>89.599998474121</ele>
        <time>2016-09-25T07:06:23.000Z</time>
      </trkpt>
      <trkpt lat="49.4473" lon="0.98069">
        <ele>89.400001525879</ele>
        <time>2016-09-25T07:06:24.000Z</time>
      </trkpt>
      <trkpt lat="49.44731" lon="0.98066">
        <ele>89.400001525879</ele>
        <time>2016-09-25T07:06:25.000Z</time>
      </trkpt>
      <trkpt lat="49.44733" lon="0.98064">
        <ele>89.400001525879</ele>
        <time>2016-09-25T07:06:26.000Z</time>
      </trkpt>
      <trkpt lat="49.44734" lon="0.98061">
        <ele>89.400001525879</ele>
        <time>2016-09-25T07:06:27.000Z</time>
      </trkpt>
      <trkpt lat="49.44735" lon="0.98055">
        <ele>89.199996948242</ele>
        <time>2016-09-25T07:06:29.000Z</time>
      </trkpt>
      <trkpt lat="49.44735" lon="0.98049">
        <ele>89</ele>
        <time>2016-09-25T07:06:31.000Z</time>
      </trkpt>
      <trkpt lat="49.44734" lon="0.98045">
        <ele>89</ele>
        <time>2016-09-25T07:06:32.000Z</time>
      </trkpt>
      <trkpt lat="49.44733" lon="0.98041">
        <ele>88.800003051758</ele>
        <time>2016-09-25T07:06:33.000Z</time>
      </trkpt>
      <trkpt lat="49.44732" lon="0.98018">
        <ele>88.199996948242</ele>
        <time>2016-09-25T07:06:37.000Z</time>
      </trkpt>
      <trkpt lat="49.44741" lon="0.97966">
        <ele>88</ele>
        <time>2016-09-25T07:06:44.000Z</time>
      </trkpt>
      <trkpt lat="49.44751" lon="0.97917">
        <ele>86.599998474121</ele>
        <time>2016-09-25T07:06:50.000Z</time>
      </trkpt>
      <trkpt lat="49.44755" lon="0.97892">
        <ele>86.400001525879</ele>
        <time>2016-09-25T07:06:53.000Z</time>
      </trkpt>
      <trkpt lat="49.44757" lon="0.97884">
        <ele>86.599998474121</ele>
        <time>2016-09-25T07:06:54.000Z</time>
      </trkpt>
      <trkpt lat="49.44758" lon="0.97875">
        <ele>86.599998474121</ele>
        <time>2016-09-25T07:06:55.000Z</time>
      </trkpt>
      <trkpt lat="49.44761" lon="0.97858">
        <ele>86</ele>
        <time>2016-09-25T07:06:57.000Z</time>
      </trkpt>
      <trkpt lat="49.44769" lon="0.9783">
        <ele>84.199996948242</ele>
        <time>2016-09-25T07:07:00.000Z</time>
      </trkpt>
      <trkpt lat="49.44784" lon="0.97795">
        <ele>82.199996948242</ele>
        <time>2016-09-25T07:07:04.000Z</time>
      </trkpt>
      <trkpt lat="49.4479" lon="0.97779">
        <ele>81.599998474121</ele>
        <time>2016-09-25T07:07:06.000Z</time>
      </trkpt>
      <trkpt lat="49.44796" lon="0.97762">
        <ele>80.800003051758</ele>
        <time>2016-09-25T07:07:08.000Z</time>
      </trkpt>
      <trkpt lat="49.44809" lon="0.97715">
        <ele>78.599998474121</ele>
        <time>2016-09-25T07:07:14.000Z</time>
      </trkpt>
      <trkpt lat="49.44815" lon="0.97678">
        <ele>75.800003051758</ele>
        <time>2016-09-25T07:07:19.000Z</time>
      </trkpt>
      <trkpt lat="49.44818" lon="0.97664">
        <ele>75.599998474121</ele>
        <time>2016-09-25T07:07:21.000Z</time>
      </trkpt>
      <trkpt lat="49.44819" lon="0.97658">
        <ele>75.599998474121</ele>
        <time>2016-09-25T07:07:22.000Z</time>
      </trkpt>
      <trkpt lat="49.44822" lon="0.97631">
        <ele>75</ele>
        <time>2016-09-25T07:07:26.000Z</time>
      </trkpt>
      <trkpt lat="49.44822" lon="0.97617">
        <ele>74.599998474121</ele>
        <time>2016-09-25T07:07:28.000Z</time>
      </trkpt>
      <trkpt lat="49.44826" lon="0.97585">
        <ele>74.199996948242</ele>
        <time>2016-09-25T07:07:33.000Z</time>
      </trkpt>
      <trkpt lat="49.44827" lon="0.9758">
        <ele>74.199996948242</ele>
        <time>2016-09-25T07:07:34.000Z</time>
      </trkpt>
      <trkpt lat="49.4483" lon="0.97563">
        <ele>74.400001525879</ele>
        <time>2016-09-25T07:07:37.000Z</time>
      </trkpt>
      <trkpt lat="49.44836" lon="0.97541">
        <ele>74.199996948242</ele>
        <time>2016-09-25T07:07:41.000Z</time>
      </trkpt>
      <trkpt lat="49.44837" lon="0.97536">
        <ele>74.199996948242</ele>
        <time>2016-09-25T07:07:42.000Z</time>
      </trkpt>
      <trkpt lat="49.44851" lon="0.9751">
        <ele>75.400001525879</ele>
        <time>2016-09-25T07:07:48.000Z</time>
      </trkpt>
      <trkpt lat="49.44853" lon="0.97506">
        <ele>75.599998474121</ele>
        <time>2016-09-25T07:07:49.000Z</time>
      </trkpt>
      <trkpt lat="49.44867" lon="0.97483">
        <ele>76.599998474121</ele>
        <time>2016-09-25T07:07:55.000Z</time>
      </trkpt>
      <trkpt lat="49.44872" lon="0.97473">
        <ele>76.400001525879</ele>
        <time>2016-09-25T07:07:57.000Z</time>
      </trkpt>
      <trkpt lat="49.44883" lon="0.97458">
        <ele>75.400001525879</ele>
        <time>2016-09-25T07:08:02.000Z</time>
      </trkpt>
      <trkpt lat="49.44893" lon="0.97458">
        <ele>76.400001525879</ele>
        <time>2016-09-25T07:08:06.000Z</time>
      </trkpt>
      <trkpt lat="49.44896" lon="0.97459">
        <ele>76.800003051758</ele>
        <time>2016-09-25T07:08:07.000Z</time>
      </trkpt>
      <trkpt lat="49.44904" lon="0.97461">
        <ele>78</ele>
        <time>2016-09-25T07:08:09.000Z</time>
      </trkpt>
      <trkpt lat="49.44911" lon="0.97463">
        <ele>78.800003051758</ele>
        <time>2016-09-25T07:08:11.000Z</time>
      </trkpt>
      <trkpt lat="49.44923" lon="0.97467">
        <ele>80.599998474121</ele>
        <time>2016-09-25T07:08:14.000Z</time>
      </trkpt>
      <trkpt lat="49.44927" lon="0.97469">
        <ele>81.199996948242</ele>
        <time>2016-09-25T07:08:15.000Z</time>
      </trkpt>
      <trkpt lat="49.44953" lon="0.97474">
        <ele>83.800003051758</ele>
        <time>2016-09-25T07:08:20.000Z</time>
      </trkpt>
      <trkpt lat="49.44973" lon="0.97481">
        <ele>83.599998474121</ele>
        <time>2016-09-25T07:08:24.000Z</time>
      </trkpt>
      <trkpt lat="49.44978" lon="0.9748">
        <ele>83.400001525879</ele>
        <time>2016-09-25T07:08:25.000Z</time>
      </trkpt>
      <trkpt lat="49.44982" lon="0.97478">
        <ele>83.400001525879</ele>
        <time>2016-09-25T07:08:26.000Z</time>
      </trkpt>
      <trkpt lat="49.44991" lon="0.97467">
        <ele>82.199996948242</ele>
        <time>2016-09-25T07:08:29.000Z</time>
      </trkpt>
      <trkpt lat="49.44993" lon="0.97462">
        <ele>81.599998474121</ele>
        <time>2016-09-25T07:08:30.000Z</time>
      </trkpt>
      <trkpt lat="49.44995" lon="0.97457">
        <ele>81</ele>
        <time>2016-09-25T07:08:31.000Z</time>
      </trkpt>
      <trkpt lat="49.45007" lon="0.97442">
        <ele>79.400001525879</ele>
        <time>2016-09-25T07:08:35.000Z</time>
      </trkpt>
      <trkpt lat="49.45027" lon="0.97434">
        <ele>79</ele>
        <time>2016-09-25T07:08:40.000Z</time>
      </trkpt>
      <trkpt lat="49.45051" lon="0.9743">
        <ele>79.800003051758</ele>
        <time>2016-09-25T07:08:47.000Z</time>
      </trkpt>
      <trkpt lat="49.4507" lon="0.97429">
        <ele>80.599998474121</ele>
        <time>2016-09-25T07:08:53.000Z</time>
      </trkpt>
      <trkpt lat="49.45089" lon="0.97434">
        <ele>81.599998474121</ele>
        <time>2016-09-25T07:08:59.000Z</time>
      </trkpt>
      <trkpt lat="49.45111" lon="0.97442">
        <ele>83</ele>
        <time>2016-09-25T07:09:03.000Z</time>
      </trkpt>
      <trkpt lat="49.45126" lon="0.97453">
        <ele>83.199996948242</ele>
        <time>2016-09-25T07:09:06.000Z</time>
      </trkpt>
      <trkpt lat="49.45135" lon="0.97463">
        <ele>83.199996948242</ele>
        <time>2016-09-25T07:09:08.000Z</time>
      </trkpt>
      <trkpt lat="49.45141" lon="0.97476">
        <ele>83.599998474121</ele>
        <time>2016-09-25T07:09:10.000Z</time>
      </trkpt>
      <trkpt lat="49.45145" lon="0.97496">
        <ele>84.599998474121</ele>
        <time>2016-09-25T07:09:13.000Z</time>
      </trkpt>
      <trkpt lat="49.45145" lon="0.97502">
        <ele>84.800003051758</ele>
        <time>2016-09-25T07:09:14.000Z</time>
      </trkpt>
      <trkpt lat="49.45145" lon="0.97508">
        <ele>85</ele>
        <time>2016-09-25T07:09:15.000Z</time>
      </trkpt>
      <trkpt lat="49.45147" lon="0.97549">
        <ele>86</ele>
        <time>2016-09-25T07:09:22.000Z</time>
      </trkpt>
      <trkpt lat="49.45149" lon="0.97608">
        <ele>86</ele>
        <time>2016-09-25T07:09:31.000Z</time>
      </trkpt>
      <trkpt lat="49.45149" lon="0.97621">
        <ele>86</ele>
        <time>2016-09-25T07:09:33.000Z</time>
      </trkpt>
      <trkpt lat="49.45148" lon="0.97648">
        <ele>86.400001525879</ele>
        <time>2016-09-25T07:09:37.000Z</time>
      </trkpt>
      <trkpt lat="49.45148" lon="0.97654">
        <ele>86.800003051758</ele>
        <time>2016-09-25T07:09:38.000Z</time>
      </trkpt>
      <trkpt lat="49.45146" lon="0.97691">
        <ele>88.199996948242</ele>
        <time>2016-09-25T07:09:44.000Z</time>
      </trkpt>
      <trkpt lat="49.45144" lon="0.97707">
        <ele>88.400001525879</ele>
        <time>2016-09-25T07:09:47.000Z</time>
      </trkpt>
      <trkpt lat="49.45146" lon="0.97721">
        <ele>88.599998474121</ele>
        <time>2016-09-25T07:09:50.000Z</time>
      </trkpt>
      <trkpt lat="49.45157" lon="0.97726">
        <ele>88.599998474121</ele>
        <time>2016-09-25T07:09:54.000Z</time>
      </trkpt>
      <trkpt lat="49.4516" lon="0.97727">
        <ele>88.599998474121</ele>
        <time>2016-09-25T07:09:55.000Z</time>
      </trkpt>
      <trkpt lat="49.45189" lon="0.97734">
        <ele>88.800003051758</ele>
        <time>2016-09-25T07:10:03.000Z</time>
      </trkpt>
      <trkpt lat="49.45208" lon="0.97742">
        <ele>89</ele>
        <time>2016-09-25T07:10:08.000Z</time>
      </trkpt>
      <trkpt lat="49.45218" lon="0.97744">
        <ele>88.800003051758</ele>
        <time>2016-09-25T07:10:10.000Z</time>
      </trkpt>
      <trkpt lat="49.45229" lon="0.97748">
        <ele>88.400001525879</ele>
        <time>2016-09-25T07:10:12.000Z</time>
      </trkpt>
      <trkpt lat="49.45234" lon="0.9775">
        <ele>88.199996948242</ele>
        <time>2016-09-25T07:10:13.000Z</time>
      </trkpt>
      <trkpt lat="49.45246" lon="0.97758">
        <ele>88</ele>
        <time>2016-09-25T07:10:15.000Z</time>
      </trkpt>
      <trkpt lat="49.4525" lon="0.97762">
        <ele>88.199996948242</ele>
        <time>2016-09-25T07:10:16.000Z</time>
      </trkpt>
      <trkpt lat="49.45255" lon="0.97767">
        <ele>88.400001525879</ele>
        <time>2016-09-25T07:10:17.000Z</time>
      </trkpt>
      <trkpt lat="49.45265" lon="0.9778">
        <ele>89.199996948242</ele>
        <time>2016-09-25T07:10:19.000Z</time>
      </trkpt>
      <trkpt lat="49.45269" lon="0.97787">
        <ele>89.599998474121</ele>
        <time>2016-09-25T07:10:20.000Z</time>
      </trkpt>
      <trkpt lat="49.45286" lon="0.97824">
        <ele>90.800003051758</ele>
        <time>2016-09-25T07:10:25.000Z</time>
      </trkpt>
      <trkpt lat="49.45288" lon="0.97831">
        <ele>90.800003051758</ele>
        <time>2016-09-25T07:10:26.000Z</time>
      </trkpt>
      <trkpt lat="49.45293" lon="0.97853">
        <ele>90.599998474121</ele>
        <time>2016-09-25T07:10:29.000Z</time>
      </trkpt>
      <trkpt lat="49.45294" lon="0.97861">
        <ele>90.599998474121</ele>
        <time>2016-09-25T07:10:30.000Z</time>
      </trkpt>
      <trkpt lat="49.45294" lon="0.97877">
        <ele>90.599998474121</ele>
        <time>2016-09-25T07:10:32.000Z</time>
      </trkpt>
      <trkpt lat="49.45292" lon="0.979">
        <ele>91</ele>
        <time>2016-09-25T07:10:35.000Z</time>
      </trkpt>
      <trkpt lat="49.4529" lon="0.97927">
        <ele>92</ele>
        <time>2016-09-25T07:10:39.000Z</time>
      </trkpt>
      <trkpt lat="49.45291" lon="0.97948">
        <ele>92.800003051758</ele>
        <time>2016-09-25T07:10:42.000Z</time>
      </trkpt>
      <trkpt lat="49.45294" lon="0.97965">
        <ele>93.199996948242</ele>
        <time>2016-09-25T07:10:44.000Z</time>
      </trkpt>
      <trkpt lat="49.45293" lon="0.97974">
        <ele>93.599998474121</ele>
        <time>2016-09-25T07:10:45.000Z</time>
      </trkpt>
      <trkpt lat="49.45293" lon="0.98006">
        <ele>94</ele>
        <time>2016-09-25T07:10:49.000Z</time>
      </trkpt>
      <trkpt lat="49.45293" lon="0.98013">
        <ele>94.199996948242</ele>
        <time>2016-09-25T07:10:50.000Z</time>
      </trkpt>
      <trkpt lat="49.45289" lon="0.98035">
        <ele>94.599998474121</ele>
        <time>2016-09-25T07:10:54.000Z</time>
      </trkpt>
      <trkpt lat="49.45286" lon="0.98068">
        <ele>94.800003051758</ele>
        <time>2016-09-25T07:11:01.000Z</time>
      </trkpt>
      <trkpt lat="49.45286" lon="0.98074">
        <ele>94.800003051758</ele>
        <time>2016-09-25T07:11:02.000Z</time>
      </trkpt>
      <trkpt lat="49.45285" lon="0.98097">
        <ele>94.400001525879</ele>
        <time>2016-09-25T07:11:06.000Z</time>
      </trkpt>
      <trkpt lat="49.45284" lon="0.98107">
        <ele>94.400001525879</ele>
        <time>2016-09-25T07:11:08.000Z</time>
      </trkpt>
      <trkpt lat="49.45284" lon="0.98111">
        <ele>94.400001525879</ele>
        <time>2016-09-25T07:11:09.000Z</time>
      </trkpt>
      <trkpt lat="49.45281" lon="0.98138">
        <ele>94</ele>
        <time>2016-09-25T07:11:15.000Z</time>
      </trkpt>
      <trkpt lat="49.45281" lon="0.98143">
        <ele>94</ele>
        <time>2016-09-25T07:11:16.000Z</time>
      </trkpt>
      <trkpt lat="49.45278" lon="0.98179">
        <ele>94</ele>
        <time>2016-09-25T07:11:23.000Z</time>
      </trkpt>
      <trkpt lat="49.45274" lon="0.98209">
        <ele>94.199996948242</ele>
        <time>2016-09-25T07:11:28.000Z</time>
      </trkpt>
      <trkpt lat="49.45272" lon="0.98219">
        <ele>94.199996948242</ele>
        <time>2016-09-25T07:11:30.000Z</time>
      </trkpt>
      <trkpt lat="49.4527" lon="0.98226">
        <ele>94.199996948242</ele>
        <time>2016-09-25T07:11:32.000Z</time>
      </trkpt>
      <trkpt lat="49.4527" lon="0.98237">
        <ele>94.199996948242</ele>
        <time>2016-09-25T07:11:35.000Z</time>
      </trkpt>
      <trkpt lat="49.45272" lon="0.98262">
        <ele>94.199996948242</ele>
        <time>2016-09-25T07:11:40.000Z</time>
      </trkpt>
      <trkpt lat="49.4527" lon="0.9827">
        <ele>94.199996948242</ele>
        <time>2016-09-25T07:11:41.000Z</time>
      </trkpt>
      <trkpt lat="49.45266" lon="0.98306">
        <ele>94.599998474121</ele>
        <time>2016-09-25T07:11:47.000Z</time>
      </trkpt>
      <trkpt lat="49.45271" lon="0.98308">
        <ele>94.400001525879</ele>
        <time>2016-09-25T07:11:50.000Z</time>
      </trkpt>
      <trkpt lat="49.45272" lon="0.98307">
        <ele>94.400001525879</ele>
        <time>2016-09-25T07:11:51.000Z</time>
      </trkpt>
      <trkpt lat="49.45274" lon="0.98306">
        <ele>94.199996948242</ele>
        <time>2016-09-25T07:11:52.000Z</time>
      </trkpt>
      <trkpt lat="49.45282" lon="0.98298">
        <ele>94</ele>
        <time>2016-09-25T07:11:55.000Z</time>
      </trkpt>
      <trkpt lat="49.45289" lon="0.98291">
        <ele>93.599998474121</ele>
        <time>2016-09-25T07:11:57.000Z</time>
      </trkpt>
      <trkpt lat="49.4531" lon="0.98268">
        <ele>92</ele>
        <time>2016-09-25T07:12:04.000Z</time>
      </trkpt>
      <trkpt lat="49.45326" lon="0.98251">
        <ele>91.199996948242</ele>
        <time>2016-09-25T07:12:09.000Z</time>
      </trkpt>
      <trkpt lat="49.4533" lon="0.98246">
        <ele>90.800003051758</ele>
        <time>2016-09-25T07:12:10.000Z</time>
      </trkpt>
      <trkpt lat="49.45358" lon="0.98214">
        <ele>89.599998474121</ele>
        <time>2016-09-25T07:12:17.000Z</time>
      </trkpt>
      <trkpt lat="49.4538" lon="0.9819">
        <ele>91</ele>
        <time>2016-09-25T07:12:24.000Z</time>
      </trkpt>
      <trkpt lat="49.45402" lon="0.98165">
        <ele>92.599998474121</ele>
        <time>2016-09-25T07:12:30.000Z</time>
      </trkpt>
      <trkpt lat="49.45432" lon="0.98134">
        <ele>93.599998474121</ele>
        <time>2016-09-25T07:12:36.000Z</time>
      </trkpt>
      <trkpt lat="49.45459" lon="0.98103">
        <ele>94.800003051758</ele>
        <time>2016-09-25T07:12:42.000Z</time>
      </trkpt>
      <trkpt lat="49.45467" lon="0.98094">
        <ele>95.199996948242</ele>
        <time>2016-09-25T07:12:45.000Z</time>
      </trkpt>
      <trkpt lat="49.4547" lon="0.98091">
        <ele>95.400001525879</ele>
        <time>2016-09-25T07:12:46.000Z</time>
      </trkpt>
      <trkpt lat="49.45478" lon="0.98082">
        <ele>96</ele>
        <time>2016-09-25T07:12:50.000Z</time>
      </trkpt>
      <trkpt lat="49.45488" lon="0.9807">
        <ele>96.800003051758</ele>
        <time>2016-09-25T07:12:55.000Z</time>
      </trkpt>
      <trkpt lat="49.45493" lon="0.98066">
        <ele>97.199996948242</ele>
        <time>2016-09-25T07:12:57.000Z</time>
      </trkpt>
      <trkpt lat="49.45499" lon="0.98059">
        <ele>97.599998474121</ele>
        <time>2016-09-25T07:13:00.000Z</time>
      </trkpt>
      <trkpt lat="49.45506" lon="0.98052">
        <ele>98.199996948242</ele>
        <time>2016-09-25T07:13:04.000Z</time>
      </trkpt>
      <trkpt lat="49.45507" lon="0.9805">
        <ele>98.199996948242</ele>
        <time>2016-09-25T07:13:05.000Z</time>
      </trkpt>
      <trkpt lat="49.4551" lon="0.98046">
        <ele>98.599998474121</ele>
        <time>2016-09-25T07:13:07.000Z</time>
      </trkpt>
      <trkpt lat="49.45515" lon="0.98041">
        <ele>99</ele>
        <time>2016-09-25T07:13:10.000Z</time>
      </trkpt>
      <trkpt lat="49.4552" lon="0.98036">
        <ele>99.800003051758</ele>
        <time>2016-09-25T07:13:13.000Z</time>
      </trkpt>
      <trkpt lat="49.45524" lon="0.98032">
        <ele>100.19999694824</ele>
        <time>2016-09-25T07:13:15.000Z</time>
      </trkpt>
      <trkpt lat="49.45528" lon="0.98027">
        <ele>101</ele>
        <time>2016-09-25T07:13:18.000Z</time>
      </trkpt>
      <trkpt lat="49.45531" lon="0.98024">
        <ele>101.40000152588</ele>
        <time>2016-09-25T07:13:20.000Z</time>
      </trkpt>
      <trkpt lat="49.45534" lon="0.98021">
        <ele>101.80000305176</ele>
        <time>2016-09-25T07:13:22.000Z</time>
      </trkpt>
      <trkpt lat="49.45536" lon="0.98019">
        <ele>102</ele>
        <time>2016-09-25T07:13:23.000Z</time>
      </trkpt>
      <trkpt lat="49.45542" lon="0.98012">
        <ele>102.80000305176</ele>
        <time>2016-09-25T07:13:26.000Z</time>
      </trkpt>
      <trkpt lat="49.45547" lon="0.98008">
        <ele>103.19999694824</ele>
        <time>2016-09-25T07:13:29.000Z</time>
      </trkpt>
      <trkpt lat="49.4555" lon="0.98004">
        <ele>103.59999847412</ele>
        <time>2016-09-25T07:13:31.000Z</time>
      </trkpt>
      <trkpt lat="49.45552" lon="0.98002">
        <ele>103.80000305176</ele>
        <time>2016-09-25T07:13:32.000Z</time>
      </trkpt>
      <trkpt lat="49.45554" lon="0.98">
        <ele>104</ele>
        <time>2016-09-25T07:13:33.000Z</time>
      </trkpt>
      <trkpt lat="49.45557" lon="0.97996">
        <ele>104.40000152588</ele>
        <time>2016-09-25T07:13:35.000Z</time>
      </trkpt>
      <trkpt lat="49.45561" lon="0.97991">
        <ele>105</ele>
        <time>2016-09-25T07:13:38.000Z</time>
      </trkpt>
      <trkpt lat="49.45564" lon="0.97987">
        <ele>105.59999847412</ele>
        <time>2016-09-25T07:13:40.000Z</time>
      </trkpt>
      <trkpt lat="49.45567" lon="0.97984">
        <ele>106</ele>
        <time>2016-09-25T07:13:42.000Z</time>
      </trkpt>
      <trkpt lat="49.45573" lon="0.97979">
        <ele>106.59999847412</ele>
        <time>2016-09-25T07:13:44.000Z</time>
      </trkpt>
      <trkpt lat="49.45579" lon="0.97972">
        <ele>107.40000152588</ele>
        <time>2016-09-25T07:13:47.000Z</time>
      </trkpt>
      <trkpt lat="49.45582" lon="0.97969">
        <ele>107.59999847412</ele>
        <time>2016-09-25T07:13:49.000Z</time>
      </trkpt>
      <trkpt lat="49.45587" lon="0.97964">
        <ele>108</ele>
        <time>2016-09-25T07:13:52.000Z</time>
      </trkpt>
      <trkpt lat="49.45596" lon="0.97954">
        <ele>109</ele>
        <time>2016-09-25T07:13:57.000Z</time>
      </trkpt>
      <trkpt lat="49.45608" lon="0.97942">
        <ele>111</ele>
        <time>2016-09-25T07:14:03.000Z</time>
      </trkpt>
      <trkpt lat="49.45613" lon="0.97936">
        <ele>112</ele>
        <time>2016-09-25T07:14:06.000Z</time>
      </trkpt>
      <trkpt lat="49.45628" lon="0.97919">
        <ele>114.59999847412</ele>
        <time>2016-09-25T07:14:16.000Z</time>
      </trkpt>
      <trkpt lat="49.45635" lon="0.9791">
        <ele>116</ele>
        <time>2016-09-25T07:14:21.000Z</time>
      </trkpt>
      <trkpt lat="49.45638" lon="0.97907">
        <ele>116.40000152588</ele>
        <time>2016-09-25T07:14:23.000Z</time>
      </trkpt>
      <trkpt lat="49.45655" lon="0.97888">
        <ele>118.19999694824</ele>
        <time>2016-09-25T07:14:33.000Z</time>
      </trkpt>
      <trkpt lat="49.45659" lon="0.97883">
        <ele>118.59999847412</ele>
        <time>2016-09-25T07:14:35.000Z</time>
      </trkpt>
      <trkpt lat="49.45669" lon="0.97872">
        <ele>119.40000152588</ele>
        <time>2016-09-25T07:14:40.000Z</time>
      </trkpt>
      <trkpt lat="49.45671" lon="0.9787">
        <ele>119.59999847412</ele>
        <time>2016-09-25T07:14:41.000Z</time>
      </trkpt>
      <trkpt lat="49.45679" lon="0.97858">
        <ele>120.40000152588</ele>
        <time>2016-09-25T07:14:48.000Z</time>
      </trkpt>
      <trkpt lat="49.45681" lon="0.97856">
        <ele>120.59999847412</ele>
        <time>2016-09-25T07:14:49.000Z</time>
      </trkpt>
      <trkpt lat="49.45686" lon="0.97851">
        <ele>121.19999694824</ele>
        <time>2016-09-25T07:14:52.000Z</time>
      </trkpt>
      <trkpt lat="49.45691" lon="0.97845">
        <ele>121.80000305176</ele>
        <time>2016-09-25T07:14:55.000Z</time>
      </trkpt>
      <trkpt lat="49.45697" lon="0.97837">
        <ele>122.40000152588</ele>
        <time>2016-09-25T07:14:59.000Z</time>
      </trkpt>
      <trkpt lat="49.45701" lon="0.97834">
        <ele>122.80000305176</ele>
        <time>2016-09-25T07:15:01.000Z</time>
      </trkpt>
      <trkpt lat="49.45709" lon="0.97823">
        <ele>123.19999694824</ele>
        <time>2016-09-25T07:15:06.000Z</time>
      </trkpt>
      <trkpt lat="49.45713" lon="0.97819">
        <ele>123.40000152588</ele>
        <time>2016-09-25T07:15:08.000Z</time>
      </trkpt>
      <trkpt lat="49.45732" lon="0.97798">
        <ele>125</ele>
        <time>2016-09-25T07:15:18.000Z</time>
      </trkpt>
      <trkpt lat="49.45738" lon="0.97793">
        <ele>125.40000152588</ele>
        <time>2016-09-25T07:15:21.000Z</time>
      </trkpt>
      <trkpt lat="49.45745" lon="0.97785">
        <ele>126</ele>
        <time>2016-09-25T07:15:25.000Z</time>
      </trkpt>
      <trkpt lat="49.45748" lon="0.97783">
        <ele>126.19999694824</ele>
        <time>2016-09-25T07:15:26.000Z</time>
      </trkpt>
      <trkpt lat="49.4575" lon="0.97781">
        <ele>126.40000152588</ele>
        <time>2016-09-25T07:15:27.000Z</time>
      </trkpt>
      <trkpt lat="49.45754" lon="0.97777">
        <ele>126.80000305176</ele>
        <time>2016-09-25T07:15:29.000Z</time>
      </trkpt>
      <trkpt lat="49.45759" lon="0.97771">
        <ele>127</ele>
        <time>2016-09-25T07:15:32.000Z</time>
      </trkpt>
      <trkpt lat="49.45764" lon="0.97765">
        <ele>127.40000152588</ele>
        <time>2016-09-25T07:15:35.000Z</time>
      </trkpt>
      <trkpt lat="49.4577" lon="0.97759">
        <ele>127.80000305176</ele>
        <time>2016-09-25T07:15:38.000Z</time>
      </trkpt>
      <trkpt lat="49.45776" lon="0.97755">
        <ele>128</ele>
        <time>2016-09-25T07:15:41.000Z</time>
      </trkpt>
      <trkpt lat="49.45784" lon="0.9775">
        <ele>128.39999389648</ele>
        <time>2016-09-25T07:15:44.000Z</time>
      </trkpt>
      <trkpt lat="49.45786" lon="0.9775">
        <ele>128.60000610352</ele>
        <time>2016-09-25T07:15:45.000Z</time>
      </trkpt>
      <trkpt lat="49.45793" lon="0.97749">
        <ele>129.19999694824</ele>
        <time>2016-09-25T07:15:48.000Z</time>
      </trkpt>
      <trkpt lat="49.458" lon="0.97752">
        <ele>129.60000610352</ele>
        <time>2016-09-25T07:15:51.000Z</time>
      </trkpt>
      <trkpt lat="49.45802" lon="0.97753">
        <ele>129.60000610352</ele>
        <time>2016-09-25T07:15:52.000Z</time>
      </trkpt>
      <trkpt lat="49.45808" lon="0.97759">
        <ele>130</ele>
        <time>2016-09-25T07:15:55.000Z</time>
      </trkpt>
      <trkpt lat="49.45815" lon="0.97767">
        <ele>130.39999389648</ele>
        <time>2016-09-25T07:15:59.000Z</time>
      </trkpt>
      <trkpt lat="49.45817" lon="0.97769">
        <ele>130.39999389648</ele>
        <time>2016-09-25T07:16:00.000Z</time>
      </trkpt>
      <trkpt lat="49.45824" lon="0.97778">
        <ele>130.80000305176</ele>
        <time>2016-09-25T07:16:03.000Z</time>
      </trkpt>
      <trkpt lat="49.45831" lon="0.97792">
        <ele>131</ele>
        <time>2016-09-25T07:16:07.000Z</time>
      </trkpt>
      <trkpt lat="49.45832" lon="0.97796">
        <ele>130.80000305176</ele>
        <time>2016-09-25T07:16:08.000Z</time>
      </trkpt>
      <trkpt lat="49.45832" lon="0.97809">
        <ele>130.60000610352</ele>
        <time>2016-09-25T07:16:11.000Z</time>
      </trkpt>
      <trkpt lat="49.45831" lon="0.9782">
        <ele>130</ele>
        <time>2016-09-25T07:16:13.000Z</time>
      </trkpt>
      <trkpt lat="49.4583" lon="0.9783">
        <ele>129.60000610352</ele>
        <time>2016-09-25T07:16:15.000Z</time>
      </trkpt>
      <trkpt lat="49.45824" lon="0.97882">
        <ele>127.80000305176</ele>
        <time>2016-09-25T07:16:22.000Z</time>
      </trkpt>
      <trkpt lat="49.45822" lon="0.9789">
        <ele>127.40000152588</ele>
        <time>2016-09-25T07:16:23.000Z</time>
      </trkpt>
      <trkpt lat="49.4582" lon="0.97899">
        <ele>127.19999694824</ele>
        <time>2016-09-25T07:16:24.000Z</time>
      </trkpt>
      <trkpt lat="49.45819" lon="0.97908">
        <ele>127</ele>
        <time>2016-09-25T07:16:25.000Z</time>
      </trkpt>
      <trkpt lat="49.45814" lon="0.97945">
        <ele>126.40000152588</ele>
        <time>2016-09-25T07:16:30.000Z</time>
      </trkpt>
      <trkpt lat="49.45812" lon="0.97954">
        <ele>126.40000152588</ele>
        <time>2016-09-25T07:16:31.000Z</time>
      </trkpt>
      <trkpt lat="49.45811" lon="0.97963">
        <ele>126.40000152588</ele>
        <time>2016-09-25T07:16:32.000Z</time>
      </trkpt>
      <trkpt lat="49.45805" lon="0.98004">
        <ele>126</ele>
        <time>2016-09-25T07:16:37.000Z</time>
      </trkpt>
      <trkpt lat="49.45804" lon="0.98013">
        <ele>125.80000305176</ele>
        <time>2016-09-25T07:16:38.000Z</time>
      </trkpt>
      <trkpt lat="49.458" lon="0.98045">
        <ele>125.19999694824</ele>
        <time>2016-09-25T07:16:42.000Z</time>
      </trkpt>
      <trkpt lat="49.45796" lon="0.98071">
        <ele>124.80000305176</ele>
        <time>2016-09-25T07:16:45.000Z</time>
      </trkpt>
      <trkpt lat="49.45794" lon="0.98088">
        <ele>124.40000152588</ele>
        <time>2016-09-25T07:16:47.000Z</time>
      </trkpt>
      <trkpt lat="49.45792" lon="0.98096">
        <ele>124.19999694824</ele>
        <time>2016-09-25T07:16:48.000Z</time>
      </trkpt>
      <trkpt lat="49.45788" lon="0.98121">
        <ele>123.59999847412</ele>
        <time>2016-09-25T07:16:51.000Z</time>
      </trkpt>
      <trkpt lat="49.45785" lon="0.98146">
        <ele>123.19999694824</ele>
        <time>2016-09-25T07:16:54.000Z</time>
      </trkpt>
      <trkpt lat="49.45783" lon="0.98161">
        <ele>122.59999847412</ele>
        <time>2016-09-25T07:16:56.000Z</time>
      </trkpt>
      <trkpt lat="49.45782" lon="0.98169">
        <ele>122.19999694824</ele>
        <time>2016-09-25T07:16:57.000Z</time>
      </trkpt>
      <trkpt lat="49.45779" lon="0.98191">
        <ele>121.40000152588</ele>
        <time>2016-09-25T07:17:00.000Z</time>
      </trkpt>
      <trkpt lat="49.45777" lon="0.98214">
        <ele>120.59999847412</ele>
        <time>2016-09-25T07:17:03.000Z</time>
      </trkpt>
      <trkpt lat="49.45775" lon="0.98237">
        <ele>120.19999694824</ele>
        <time>2016-09-25T07:17:06.000Z</time>
      </trkpt>
      <trkpt lat="49.45773" lon="0.98262">
        <ele>120.19999694824</ele>
        <time>2016-09-25T07:17:09.000Z</time>
      </trkpt>
      <trkpt lat="49.45772" lon="0.98286">
        <ele>120</ele>
        <time>2016-09-25T07:17:12.000Z</time>
      </trkpt>
      <trkpt lat="49.4577" lon="0.98311">
        <ele>119.59999847412</ele>
        <time>2016-09-25T07:17:15.000Z</time>
      </trkpt>
      <trkpt lat="49.45769" lon="0.98319">
        <ele>119.59999847412</ele>
        <time>2016-09-25T07:17:16.000Z</time>
      </trkpt>
      <trkpt lat="49.45761" lon="0.98378">
        <ele>119.19999694824</ele>
        <time>2016-09-25T07:17:22.000Z</time>
      </trkpt>
      <trkpt lat="49.45759" lon="0.98388">
        <ele>119</ele>
        <time>2016-09-25T07:17:23.000Z</time>
      </trkpt>
      <trkpt lat="49.45754" lon="0.98417">
        <ele>118.59999847412</ele>
        <time>2016-09-25T07:17:27.000Z</time>
      </trkpt>
      <trkpt lat="49.45753" lon="0.98421">
        <ele>118.40000152588</ele>
        <time>2016-09-25T07:17:29.000Z</time>
      </trkpt>
      <trkpt lat="49.45753" lon="0.98421">
        <ele>118.40000152588</ele>
        <time>2016-09-25T07:17:30.000Z</time>
      </trkpt>
      <trkpt lat="49.45756" lon="0.98427">
        <ele>118.80000305176</ele>
        <time>2016-09-25T07:17:33.000Z</time>
      </trkpt>
      <trkpt lat="49.45761" lon="0.98429">
        <ele>119.59999847412</ele>
        <time>2016-09-25T07:17:36.000Z</time>
      </trkpt>
      <trkpt lat="49.45774" lon="0.98434">
        <ele>121.40000152588</ele>
        <time>2016-09-25T07:17:41.000Z</time>
      </trkpt>
      <trkpt lat="49.45789" lon="0.9844">
        <ele>123.59999847412</ele>
        <time>2016-09-25T07:17:47.000Z</time>
      </trkpt>
      <trkpt lat="49.45803" lon="0.98444">
        <ele>125.59999847412</ele>
        <time>2016-09-25T07:17:53.000Z</time>
      </trkpt>
      <trkpt lat="49.45822" lon="0.98448">
        <ele>128.19999694824</ele>
        <time>2016-09-25T07:18:01.000Z</time>
      </trkpt>
      <trkpt lat="49.45836" lon="0.98453">
        <ele>130.39999389648</ele>
        <time>2016-09-25T07:18:07.000Z</time>
      </trkpt>
      <trkpt lat="49.4584" lon="0.98456">
        <ele>131</ele>
        <time>2016-09-25T07:18:09.000Z</time>
      </trkpt>
      <trkpt lat="49.45855" lon="0.98459">
        <ele>133.19999694824</ele>
        <time>2016-09-25T07:18:15.000Z</time>
      </trkpt>
      <trkpt lat="49.45875" lon="0.98465">
        <ele>134.60000610352</ele>
        <time>2016-09-25T07:18:22.000Z</time>
      </trkpt>
      <trkpt lat="49.45877" lon="0.98466">
        <ele>134.60000610352</ele>
        <time>2016-09-25T07:18:23.000Z</time>
      </trkpt>
      <trkpt lat="49.45901" lon="0.98471">
        <ele>134.39999389648</ele>
        <time>2016-09-25T07:18:30.000Z</time>
      </trkpt>
      <trkpt lat="49.45908" lon="0.98472">
        <ele>134.39999389648</ele>
        <time>2016-09-25T07:18:32.000Z</time>
      </trkpt>
      <trkpt lat="49.45927" lon="0.98481">
        <ele>134.39999389648</ele>
        <time>2016-09-25T07:18:37.000Z</time>
      </trkpt>
      <trkpt lat="49.45932" lon="0.98484">
        <ele>134.39999389648</ele>
        <time>2016-09-25T07:18:39.000Z</time>
      </trkpt>
      <trkpt lat="49.45944" lon="0.98489">
        <ele>134.39999389648</ele>
        <time>2016-09-25T07:18:43.000Z</time>
      </trkpt>
      <trkpt lat="49.45946" lon="0.9849">
        <ele>134.39999389648</ele>
        <time>2016-09-25T07:18:44.000Z</time>
      </trkpt>
      <trkpt lat="49.45953" lon="0.98493">
        <ele>134.39999389648</ele>
        <time>2016-09-25T07:18:47.000Z</time>
      </trkpt>
      <trkpt lat="49.45956" lon="0.98493">
        <ele>134.19999694824</ele>
        <time>2016-09-25T07:18:49.000Z</time>
      </trkpt>
      <trkpt lat="49.45961" lon="0.98493">
        <ele>134</ele>
        <time>2016-09-25T07:18:51.000Z</time>
      </trkpt>
      <trkpt lat="49.45971" lon="0.98495">
        <ele>133.60000610352</ele>
        <time>2016-09-25T07:18:55.000Z</time>
      </trkpt>
      <trkpt lat="49.45973" lon="0.98495">
        <ele>133.39999389648</ele>
        <time>2016-09-25T07:18:56.000Z</time>
      </trkpt>
      <trkpt lat="49.45992" lon="0.98499">
        <ele>132.39999389648</ele>
        <time>2016-09-25T07:19:03.000Z</time>
      </trkpt>
      <trkpt lat="49.45995" lon="0.98501">
        <ele>132.19999694824</ele>
        <time>2016-09-25T07:19:04.000Z</time>
      </trkpt>
      <trkpt lat="49.46018" lon="0.98507">
        <ele>131</ele>
        <time>2016-09-25T07:19:13.000Z</time>
      </trkpt>
      <trkpt lat="49.46029" lon="0.98512">
        <ele>130.39999389648</ele>
        <time>2016-09-25T07:19:17.000Z</time>
      </trkpt>
      <trkpt lat="49.46042" lon="0.98517">
        <ele>130.60000610352</ele>
        <time>2016-09-25T07:19:21.000Z</time>
      </trkpt>
      <trkpt lat="49.46057" lon="0.98521">
        <ele>131</ele>
        <time>2016-09-25T07:19:26.000Z</time>
      </trkpt>
      <trkpt lat="49.46067" lon="0.98526">
        <ele>131.60000610352</ele>
        <time>2016-09-25T07:19:29.000Z</time>
      </trkpt>
      <trkpt lat="49.46073" lon="0.9853">
        <ele>131.80000305176</ele>
        <time>2016-09-25T07:19:31.000Z</time>
      </trkpt>
      <trkpt lat="49.461" lon="0.98534">
        <ele>132.39999389648</ele>
        <time>2016-09-25T07:19:39.000Z</time>
      </trkpt>
      <trkpt lat="49.46118" lon="0.98538">
        <ele>133</ele>
        <time>2016-09-25T07:19:44.000Z</time>
      </trkpt>
      <trkpt lat="49.4616" lon="0.98549">
        <ele>136.60000610352</ele>
        <time>2016-09-25T07:19:54.000Z</time>
      </trkpt>
      <trkpt lat="49.46195" lon="0.98558">
        <ele>139.60000610352</ele>
        <time>2016-09-25T07:20:02.000Z</time>
      </trkpt>
      <trkpt lat="49.4623" lon="0.98568">
        <ele>139.60000610352</ele>
        <time>2016-09-25T07:20:10.000Z</time>
      </trkpt>
      <trkpt lat="49.46234" lon="0.98569">
        <ele>139.60000610352</ele>
        <time>2016-09-25T07:20:11.000Z</time>
      </trkpt>
      <trkpt lat="49.46261" lon="0.98581">
        <ele>139.19999694824</ele>
        <time>2016-09-25T07:20:17.000Z</time>
      </trkpt>
      <trkpt lat="49.4628" lon="0.98592">
        <ele>139</ele>
        <time>2016-09-25T07:20:21.000Z</time>
      </trkpt>
      <trkpt lat="49.46284" lon="0.98591">
        <ele>138.80000305176</ele>
        <time>2016-09-25T07:20:22.000Z</time>
      </trkpt>
      <trkpt lat="49.46287" lon="0.98588">
        <ele>138.39999389648</ele>
        <time>2016-09-25T07:20:23.000Z</time>
      </trkpt>
      <trkpt lat="49.46297" lon="0.98578">
        <ele>136.80000305176</ele>
        <time>2016-09-25T07:20:26.000Z</time>
      </trkpt>
      <trkpt lat="49.46306" lon="0.98568">
        <ele>135.80000305176</ele>
        <time>2016-09-25T07:20:28.000Z</time>
      </trkpt>
      <trkpt lat="49.46325" lon="0.98553">
        <ele>133</ele>
        <time>2016-09-25T07:20:32.000Z</time>
      </trkpt>
      <trkpt lat="49.46331" lon="0.98549">
        <ele>132</ele>
        <time>2016-09-25T07:20:33.000Z</time>
      </trkpt>
      <trkpt lat="49.46359" lon="0.98523">
        <ele>129.39999389648</ele>
        <time>2016-09-25T07:20:38.000Z</time>
      </trkpt>
      <trkpt lat="49.46397" lon="0.98484">
        <ele>129.39999389648</ele>
        <time>2016-09-25T07:20:45.000Z</time>
      </trkpt>
      <trkpt lat="49.46401" lon="0.98478">
        <ele>129.60000610352</ele>
        <time>2016-09-25T07:20:46.000Z</time>
      </trkpt>
      <trkpt lat="49.46421" lon="0.98451">
        <ele>128.80000305176</ele>
        <time>2016-09-25T07:20:50.000Z</time>
      </trkpt>
      <trkpt lat="49.46436" lon="0.98436">
        <ele>129.19999694824</ele>
        <time>2016-09-25T07:20:53.000Z</time>
      </trkpt>
      <trkpt lat="49.46442" lon="0.98437">
        <ele>129.19999694824</ele>
        <time>2016-09-25T07:20:54.000Z</time>
      </trkpt>
      <trkpt lat="49.46457" lon="0.98449">
        <ele>129</ele>
        <time>2016-09-25T07:20:57.000Z</time>
      </trkpt>
      <trkpt lat="49.46463" lon="0.98455">
        <ele>129</ele>
        <time>2016-09-25T07:20:58.000Z</time>
      </trkpt>
      <trkpt lat="49.46468" lon="0.98459">
        <ele>129</ele>
        <time>2016-09-25T07:20:59.000Z</time>
      </trkpt>
      <trkpt lat="49.4648" lon="0.98469">
        <ele>129</ele>
        <time>2016-09-25T07:21:01.000Z</time>
      </trkpt>
      <trkpt lat="49.46491" lon="0.9848">
        <ele>128.60000610352</ele>
        <time>2016-09-25T07:21:03.000Z</time>
      </trkpt>
      <trkpt lat="49.46496" lon="0.98486">
        <ele>128.19999694824</ele>
        <time>2016-09-25T07:21:04.000Z</time>
      </trkpt>
      <trkpt lat="49.46501" lon="0.98491">
        <ele>127.80000305176</ele>
        <time>2016-09-25T07:21:05.000Z</time>
      </trkpt>
      <trkpt lat="49.46516" lon="0.98507">
        <ele>127</ele>
        <time>2016-09-25T07:21:08.000Z</time>
      </trkpt>
      <trkpt lat="49.46532" lon="0.98517">
        <ele>126.40000152588</ele>
        <time>2016-09-25T07:21:11.000Z</time>
      </trkpt>
      <trkpt lat="49.46543" lon="0.98524">
        <ele>126.59999847412</ele>
        <time>2016-09-25T07:21:13.000Z</time>
      </trkpt>
      <trkpt lat="49.46548" lon="0.98529">
        <ele>126.59999847412</ele>
        <time>2016-09-25T07:21:14.000Z</time>
      </trkpt>
      <trkpt lat="49.46562" lon="0.98544">
        <ele>126.40000152588</ele>
        <time>2016-09-25T07:21:17.000Z</time>
      </trkpt>
      <trkpt lat="49.46579" lon="0.98564">
        <ele>126.19999694824</ele>
        <time>2016-09-25T07:21:21.000Z</time>
      </trkpt>
      <trkpt lat="49.46583" lon="0.98571">
        <ele>126.40000152588</ele>
        <time>2016-09-25T07:21:22.000Z</time>
      </trkpt>
      <trkpt lat="49.46594" lon="0.98604">
        <ele>126.40000152588</ele>
        <time>2016-09-25T07:21:26.000Z</time>
      </trkpt>
      <trkpt lat="49.46596" lon="0.98612">
        <ele>126.40000152588</ele>
        <time>2016-09-25T07:21:27.000Z</time>
      </trkpt>
      <trkpt lat="49.46604" lon="0.98643">
        <ele>126</ele>
        <time>2016-09-25T07:21:31.000Z</time>
      </trkpt>
      <trkpt lat="49.46612" lon="0.98674">
        <ele>126</ele>
        <time>2016-09-25T07:21:35.000Z</time>
      </trkpt>
      <trkpt lat="49.46615" lon="0.98682">
        <ele>126</ele>
        <time>2016-09-25T07:21:36.000Z</time>
      </trkpt>
      <trkpt lat="49.46631" lon="0.98707">
        <ele>125.59999847412</ele>
        <time>2016-09-25T07:21:40.000Z</time>
      </trkpt>
      <trkpt lat="49.46639" lon="0.98721">
        <ele>125.40000152588</ele>
        <time>2016-09-25T07:21:42.000Z</time>
      </trkpt>
      <trkpt lat="49.46662" lon="0.98758">
        <ele>124</ele>
        <time>2016-09-25T07:21:47.000Z</time>
      </trkpt>
      <trkpt lat="49.46667" lon="0.98765">
        <ele>123.80000305176</ele>
        <time>2016-09-25T07:21:48.000Z</time>
      </trkpt>
      <trkpt lat="49.46681" lon="0.98785">
        <ele>122.80000305176</ele>
        <time>2016-09-25T07:21:51.000Z</time>
      </trkpt>
      <trkpt lat="49.46687" lon="0.98817">
        <ele>121.80000305176</ele>
        <time>2016-09-25T07:21:54.000Z</time>
      </trkpt>
      <trkpt lat="49.46686" lon="0.98862">
        <ele>121.40000152588</ele>
        <time>2016-09-25T07:21:58.000Z</time>
      </trkpt>
      <trkpt lat="49.46684" lon="0.98873">
        <ele>121.19999694824</ele>
        <time>2016-09-25T07:21:59.000Z</time>
      </trkpt>
      <trkpt lat="49.46682" lon="0.98884">
        <ele>121.19999694824</ele>
        <time>2016-09-25T07:22:00.000Z</time>
      </trkpt>
      <trkpt lat="49.46675" lon="0.98922">
        <ele>119.80000305176</ele>
        <time>2016-09-25T07:22:04.000Z</time>
      </trkpt>
      <trkpt lat="49.46661" lon="0.98981">
        <ele>118.59999847412</ele>
        <time>2016-09-25T07:22:11.000Z</time>
      </trkpt>
      <trkpt lat="49.46655" lon="0.99039">
        <ele>118.40000152588</ele>
        <time>2016-09-25T07:22:17.000Z</time>
      </trkpt>
      <trkpt lat="49.46653" lon="0.9912">
        <ele>123.80000305176</ele>
        <time>2016-09-25T07:22:25.000Z</time>
      </trkpt>
      <trkpt lat="49.46655" lon="0.99145">
        <ele>125</ele>
        <time>2016-09-25T07:22:28.000Z</time>
      </trkpt>
      <trkpt lat="49.46661" lon="0.9916">
        <ele>126.40000152588</ele>
        <time>2016-09-25T07:22:30.000Z</time>
      </trkpt>
      <trkpt lat="49.46676" lon="0.99177">
        <ele>128.19999694824</ele>
        <time>2016-09-25T07:22:34.000Z</time>
      </trkpt>
      <trkpt lat="49.46687" lon="0.99192">
        <ele>129.60000610352</ele>
        <time>2016-09-25T07:22:39.000Z</time>
      </trkpt>
      <trkpt lat="49.46691" lon="0.99197">
        <ele>130</ele>
        <time>2016-09-25T07:22:41.000Z</time>
      </trkpt>
      <trkpt lat="49.46693" lon="0.99203">
        <ele>130.60000610352</ele>
        <time>2016-09-25T07:22:44.000Z</time>
      </trkpt>
      <trkpt lat="49.46702" lon="0.9921">
        <ele>131.39999389648</ele>
        <time>2016-09-25T07:22:49.000Z</time>
      </trkpt>
      <trkpt lat="49.46705" lon="0.9921">
        <ele>131.19999694824</ele>
        <time>2016-09-25T07:22:50.000Z</time>
      </trkpt>
      <trkpt lat="49.46714" lon="0.99212">
        <ele>131</ele>
        <time>2016-09-25T07:22:53.000Z</time>
      </trkpt>
      <trkpt lat="49.46725" lon="0.99213">
        <ele>130.80000305176</ele>
        <time>2016-09-25T07:22:56.000Z</time>
      </trkpt>
      <trkpt lat="49.46744" lon="0.99221">
        <ele>131</ele>
        <time>2016-09-25T07:23:01.000Z</time>
      </trkpt>
      <trkpt lat="49.46762" lon="0.99241">
        <ele>132</ele>
        <time>2016-09-25T07:23:06.000Z</time>
      </trkpt>
      <trkpt lat="49.4677" lon="0.99248">
        <ele>132.39999389648</ele>
        <time>2016-09-25T07:23:08.000Z</time>
      </trkpt>
      <trkpt lat="49.46777" lon="0.99255">
        <ele>132.80000305176</ele>
        <time>2016-09-25T07:23:10.000Z</time>
      </trkpt>
      <trkpt lat="49.46789" lon="0.99261">
        <ele>132.80000305176</ele>
        <time>2016-09-25T07:23:13.000Z</time>
      </trkpt>
      <trkpt lat="49.46793" lon="0.99264">
        <ele>133</ele>
        <time>2016-09-25T07:23:14.000Z</time>
      </trkpt>
      <trkpt lat="49.46806" lon="0.99275">
        <ele>133.39999389648</ele>
        <time>2016-09-25T07:23:18.000Z</time>
      </trkpt>
      <trkpt lat="49.46817" lon="0.99284">
        <ele>133.80000305176</ele>
        <time>2016-09-25T07:23:21.000Z</time>
      </trkpt>
      <trkpt lat="49.46838" lon="0.993">
        <ele>134.39999389648</ele>
        <time>2016-09-25T07:23:27.000Z</time>
      </trkpt>
      <trkpt lat="49.46877" lon="0.99306">
        <ele>134.19999694824</ele>
        <time>2016-09-25T07:23:36.000Z</time>
      </trkpt>
      <trkpt lat="49.46886" lon="0.99309">
        <ele>134.60000610352</ele>
        <time>2016-09-25T07:23:38.000Z</time>
      </trkpt>
      <trkpt lat="49.46901" lon="0.9932">
        <ele>135.19999694824</ele>
        <time>2016-09-25T07:23:41.000Z</time>
      </trkpt>
      <trkpt lat="49.4691" lon="0.9933">
        <ele>135.60000610352</ele>
        <time>2016-09-25T07:23:43.000Z</time>
      </trkpt>
      <trkpt lat="49.46928" lon="0.99347">
        <ele>136.39999389648</ele>
        <time>2016-09-25T07:23:47.000Z</time>
      </trkpt>
      <trkpt lat="49.46937" lon="0.99354">
        <ele>136.80000305176</ele>
        <time>2016-09-25T07:23:49.000Z</time>
      </trkpt>
      <trkpt lat="49.46957" lon="0.99367">
        <ele>137.19999694824</ele>
        <time>2016-09-25T07:23:53.000Z</time>
      </trkpt>
      <trkpt lat="49.4697" lon="0.99382">
        <ele>137</ele>
        <time>2016-09-25T07:23:56.000Z</time>
      </trkpt>
      <trkpt lat="49.46975" lon="0.99381">
        <ele>136.80000305176</ele>
        <time>2016-09-25T07:23:57.000Z</time>
      </trkpt>
      <trkpt lat="49.46992" lon="0.99381">
        <ele>136.19999694824</ele>
        <time>2016-09-25T07:24:00.000Z</time>
      </trkpt>
      <trkpt lat="49.47002" lon="0.99388">
        <ele>136</ele>
        <time>2016-09-25T07:24:02.000Z</time>
      </trkpt>
      <trkpt lat="49.47012" lon="0.99398">
        <ele>135.19999694824</ele>
        <time>2016-09-25T07:24:04.000Z</time>
      </trkpt>
      <trkpt lat="49.47031" lon="0.99415">
        <ele>133.39999389648</ele>
        <time>2016-09-25T07:24:08.000Z</time>
      </trkpt>
      <trkpt lat="49.4705" lon="0.99423">
        <ele>131</ele>
        <time>2016-09-25T07:24:12.000Z</time>
      </trkpt>
      <trkpt lat="49.47055" lon="0.99425">
        <ele>130.19999694824</ele>
        <time>2016-09-25T07:24:13.000Z</time>
      </trkpt>
      <trkpt lat="49.4706" lon="0.99427">
        <ele>129.39999389648</ele>
        <time>2016-09-25T07:24:14.000Z</time>
      </trkpt>
      <trkpt lat="49.47077" lon="0.99423">
        <ele>127.80000305176</ele>
        <time>2016-09-25T07:24:17.000Z</time>
      </trkpt>
      <trkpt lat="49.47089" lon="0.99422">
        <ele>126.19999694824</ele>
        <time>2016-09-25T07:24:19.000Z</time>
      </trkpt>
      <trkpt lat="49.47095" lon="0.99424">
        <ele>125.40000152588</ele>
        <time>2016-09-25T07:24:20.000Z</time>
      </trkpt>
      <trkpt lat="49.471" lon="0.99427">
        <ele>124.40000152588</ele>
        <time>2016-09-25T07:24:21.000Z</time>
      </trkpt>
      <trkpt lat="49.47111" lon="0.99438">
        <ele>122.40000152588</ele>
        <time>2016-09-25T07:24:23.000Z</time>
      </trkpt>
      <trkpt lat="49.47122" lon="0.99448">
        <ele>120.80000305176</ele>
        <time>2016-09-25T07:24:25.000Z</time>
      </trkpt>
      <trkpt lat="49.47127" lon="0.99454">
        <ele>120.19999694824</ele>
        <time>2016-09-25T07:24:26.000Z</time>
      </trkpt>
      <trkpt lat="49.47137" lon="0.99476">
        <ele>118.40000152588</ele>
        <time>2016-09-25T07:24:29.000Z</time>
      </trkpt>
      <trkpt lat="49.47137" lon="0.99482">
        <ele>118.59999847412</ele>
        <time>2016-09-25T07:24:30.000Z</time>
      </trkpt>
      <trkpt lat="49.47135" lon="0.99487">
        <ele>118.80000305176</ele>
        <time>2016-09-25T07:24:31.000Z</time>
      </trkpt>
      <trkpt lat="49.47125" lon="0.99512">
        <ele>119.19999694824</ele>
        <time>2016-09-25T07:24:36.000Z</time>
      </trkpt>
      <trkpt lat="49.47118" lon="0.99533">
        <ele>119.19999694824</ele>
        <time>2016-09-25T07:24:41.000Z</time>
      </trkpt>
      <trkpt lat="49.47115" lon="0.99542">
        <ele>119.19999694824</ele>
        <time>2016-09-25T07:24:46.000Z</time>
      </trkpt>
      <trkpt lat="49.47118" lon="0.99547">
        <ele>119</ele>
        <time>2016-09-25T07:24:52.000Z</time>
      </trkpt>
      <trkpt lat="49.47118" lon="0.99547">
        <ele>119</ele>
        <time>2016-09-25T07:25:06.000Z</time>
      </trkpt>
      <trkpt lat="49.47118" lon="0.99547">
        <ele>119</ele>
        <time>2016-09-25T07:25:23.000Z</time>
      </trkpt>
      <trkpt lat="49.47118" lon="0.99547">
        <ele>119</ele>
        <time>2016-09-25T07:25:36.000Z</time>
      </trkpt>
      <trkpt lat="49.47118" lon="0.99547">
        <ele>119</ele>
        <time>2016-09-25T07:25:50.000Z</time>
      </trkpt>
      <trkpt lat="49.47118" lon="0.99547">
        <ele>119</ele>
        <time>2016-09-25T07:26:05.000Z</time>
      </trkpt>
      <trkpt lat="49.47118" lon="0.99548">
        <ele>119</ele>
        <time>2016-09-25T07:26:16.000Z</time>
      </trkpt>
      <trkpt lat="49.47118" lon="0.99548">
        <ele>119</ele>
        <time>2016-09-25T07:26:28.000Z</time>
      </trkpt>
      <trkpt lat="49.47118" lon="0.99548">
        <ele>119</ele>
        <time>2016-09-25T07:26:39.000Z</time>
      </trkpt>
      <trkpt lat="49.47118" lon="0.99547">
        <ele>119</ele>
        <time>2016-09-25T07:26:55.000Z</time>
      </trkpt>
      <trkpt lat="49.47118" lon="0.99547">
        <ele>119</ele>
        <time>2016-09-25T07:27:10.000Z</time>
      </trkpt>
      <trkpt lat="49.47118" lon="0.99547">
        <ele>119</ele>
        <time>2016-09-25T07:27:27.000Z</time>
      </trkpt>
      <trkpt lat="49.47119" lon="0.99547">
        <ele>119</ele>
        <time>2016-09-25T07:27:43.000Z</time>
      </trkpt>
      <trkpt lat="49.47119" lon="0.99547">
        <ele>119</ele>
        <time>2016-09-25T07:27:55.000Z</time>
      </trkpt>
      <trkpt lat="49.47121" lon="0.99547">
        <ele>119</ele>
        <time>2016-09-25T07:28:01.000Z</time>
      </trkpt>
      <trkpt lat="49.47123" lon="0.99546">
        <ele>118.80000305176</ele>
        <time>2016-09-25T07:28:02.000Z</time>
      </trkpt>
      <trkpt lat="49.47137" lon="0.99553">
        <ele>118</ele>
        <time>2016-09-25T07:28:07.000Z</time>
      </trkpt>
      <trkpt lat="49.47159" lon="0.99568">
        <ele>117.19999694824</ele>
        <time>2016-09-25T07:28:13.000Z</time>
      </trkpt>
      <trkpt lat="49.47164" lon="0.9957">
        <ele>117.19999694824</ele>
        <time>2016-09-25T07:28:14.000Z</time>
      </trkpt>
      <trkpt lat="49.47176" lon="0.9957">
        <ele>116.59999847412</ele>
        <time>2016-09-25T07:28:16.000Z</time>
      </trkpt>
      <trkpt lat="49.47182" lon="0.99568">
        <ele>116.19999694824</ele>
        <time>2016-09-25T07:28:17.000Z</time>
      </trkpt>
      <trkpt lat="49.47193" lon="0.99562">
        <ele>115.40000152588</ele>
        <time>2016-09-25T07:28:19.000Z</time>
      </trkpt>
      <trkpt lat="49.47204" lon="0.99556">
        <ele>115</ele>
        <time>2016-09-25T07:28:21.000Z</time>
      </trkpt>
      <trkpt lat="49.47214" lon="0.9955">
        <ele>115.19999694824</ele>
        <time>2016-09-25T07:28:23.000Z</time>
      </trkpt>
      <trkpt lat="49.47247" lon="0.99529">
        <ele>115.80000305176</ele>
        <time>2016-09-25T07:28:30.000Z</time>
      </trkpt>
      <trkpt lat="49.47276" lon="0.995">
        <ele>113</ele>
        <time>2016-09-25T07:28:37.000Z</time>
      </trkpt>
      <trkpt lat="49.47291" lon="0.99487">
        <ele>112.19999694824</ele>
        <time>2016-09-25T07:28:40.000Z</time>
      </trkpt>
      <trkpt lat="49.47302" lon="0.99482">
        <ele>113</ele>
        <time>2016-09-25T07:28:42.000Z</time>
      </trkpt>
      <trkpt lat="49.4732" lon="0.99475">
        <ele>115</ele>
        <time>2016-09-25T07:28:45.000Z</time>
      </trkpt>
      <trkpt lat="49.47326" lon="0.99475">
        <ele>115.59999847412</ele>
        <time>2016-09-25T07:28:46.000Z</time>
      </trkpt>
      <trkpt lat="49.47332" lon="0.99477">
        <ele>116.19999694824</ele>
        <time>2016-09-25T07:28:47.000Z</time>
      </trkpt>
      <trkpt lat="49.47348" lon="0.99485">
        <ele>118</ele>
        <time>2016-09-25T07:28:50.000Z</time>
      </trkpt>
      <trkpt lat="49.47359" lon="0.9949">
        <ele>119.19999694824</ele>
        <time>2016-09-25T07:28:52.000Z</time>
      </trkpt>
      <trkpt lat="49.47364" lon="0.99493">
        <ele>119.80000305176</ele>
        <time>2016-09-25T07:28:53.000Z</time>
      </trkpt>
      <trkpt lat="49.47375" lon="0.99499">
        <ele>119.80000305176</ele>
        <time>2016-09-25T07:28:55.000Z</time>
      </trkpt>
      <trkpt lat="49.47397" lon="0.99511">
        <ele>119.19999694824</ele>
        <time>2016-09-25T07:28:59.000Z</time>
      </trkpt>
      <trkpt lat="49.47414" lon="0.99518">
        <ele>118.80000305176</ele>
        <time>2016-09-25T07:29:02.000Z</time>
      </trkpt>
      <trkpt lat="49.47435" lon="0.99529">
        <ele>118.40000152588</ele>
        <time>2016-09-25T07:29:06.000Z</time>
      </trkpt>
      <trkpt lat="49.47454" lon="0.99541">
        <ele>117.80000305176</ele>
        <time>2016-09-25T07:29:10.000Z</time>
      </trkpt>
      <trkpt lat="49.47495" lon="0.99561">
        <ele>117</ele>
        <time>2016-09-25T07:29:18.000Z</time>
      </trkpt>
      <trkpt lat="49.47529" lon="0.9958">
        <ele>116.40000152588</ele>
        <time>2016-09-25T07:29:25.000Z</time>
      </trkpt>
      <trkpt lat="49.47565" lon="0.99599">
        <ele>115.40000152588</ele>
        <time>2016-09-25T07:29:32.000Z</time>
      </trkpt>
      <trkpt lat="49.4757" lon="0.99601">
        <ele>115.19999694824</ele>
        <time>2016-09-25T07:29:33.000Z</time>
      </trkpt>
      <trkpt lat="49.4758" lon="0.99606">
        <ele>114.80000305176</ele>
        <time>2016-09-25T07:29:35.000Z</time>
      </trkpt>
      <trkpt lat="49.47587" lon="0.99623">
        <ele>114.80000305176</ele>
        <time>2016-09-25T07:29:38.000Z</time>
      </trkpt>
      <trkpt lat="49.47582" lon="0.99643">
        <ele>115.19999694824</ele>
        <time>2016-09-25T07:29:41.000Z</time>
      </trkpt>
      <trkpt lat="49.47564" lon="0.99668">
        <ele>115.19999694824</ele>
        <time>2016-09-25T07:29:46.000Z</time>
      </trkpt>
      <trkpt lat="49.47531" lon="0.99704">
        <ele>117</ele>
        <time>2016-09-25T07:29:54.000Z</time>
      </trkpt>
      <trkpt lat="49.47519" lon="0.99717">
        <ele>117.40000152588</ele>
        <time>2016-09-25T07:29:57.000Z</time>
      </trkpt>
      <trkpt lat="49.47508" lon="0.99731">
        <ele>117.40000152588</ele>
        <time>2016-09-25T07:30:00.000Z</time>
      </trkpt>
      <trkpt lat="49.47484" lon="0.99755">
        <ele>116.80000305176</ele>
        <time>2016-09-25T07:30:06.000Z</time>
      </trkpt>
      <trkpt lat="49.4748" lon="0.99759">
        <ele>116.80000305176</ele>
        <time>2016-09-25T07:30:07.000Z</time>
      </trkpt>
      <trkpt lat="49.47449" lon="0.99781">
        <ele>119</ele>
        <time>2016-09-25T07:30:14.000Z</time>
      </trkpt>
      <trkpt lat="49.47431" lon="0.99797">
        <ele>119.59999847412</ele>
        <time>2016-09-25T07:30:19.000Z</time>
      </trkpt>
      <trkpt lat="49.47427" lon="0.998">
        <ele>119.59999847412</ele>
        <time>2016-09-25T07:30:20.000Z</time>
      </trkpt>
      <trkpt lat="49.47421" lon="0.99807">
        <ele>120</ele>
        <time>2016-09-25T07:30:22.000Z</time>
      </trkpt>
      <trkpt lat="49.47411" lon="0.99816">
        <ele>120.40000152588</ele>
        <time>2016-09-25T07:30:25.000Z</time>
      </trkpt>
      <trkpt lat="49.47405" lon="0.99822">
        <ele>120.59999847412</ele>
        <time>2016-09-25T07:30:27.000Z</time>
      </trkpt>
      <trkpt lat="49.47399" lon="0.99826">
        <ele>120.80000305176</ele>
        <time>2016-09-25T07:30:29.000Z</time>
      </trkpt>
      <trkpt lat="49.47391" lon="0.99835">
        <ele>121.19999694824</ele>
        <time>2016-09-25T07:30:32.000Z</time>
      </trkpt>
      <trkpt lat="49.47386" lon="0.9984">
        <ele>121.19999694824</ele>
        <time>2016-09-25T07:30:34.000Z</time>
      </trkpt>
      <trkpt lat="49.47372" lon="0.99855">
        <ele>121.80000305176</ele>
        <time>2016-09-25T07:30:38.000Z</time>
      </trkpt>
      <trkpt lat="49.47363" lon="0.99868">
        <ele>122</ele>
        <time>2016-09-25T07:30:41.000Z</time>
      </trkpt>
      <trkpt lat="49.47361" lon="0.99871">
        <ele>122</ele>
        <time>2016-09-25T07:30:42.000Z</time>
      </trkpt>
      <trkpt lat="49.47357" lon="0.99879">
        <ele>122</ele>
        <time>2016-09-25T07:30:44.000Z</time>
      </trkpt>
      <trkpt lat="49.47344" lon="0.99911">
        <ele>122.59999847412</ele>
        <time>2016-09-25T07:30:48.000Z</time>
      </trkpt>
      <trkpt lat="49.47338" lon="0.99933">
        <ele>122.59999847412</ele>
        <time>2016-09-25T07:30:51.000Z</time>
      </trkpt>
      <trkpt lat="49.47337" lon="0.99949">
        <ele>122.80000305176</ele>
        <time>2016-09-25T07:30:53.000Z</time>
      </trkpt>
      <trkpt lat="49.47336" lon="0.99957">
        <ele>122.80000305176</ele>
        <time>2016-09-25T07:30:54.000Z</time>
      </trkpt>
      <trkpt lat="49.47335" lon="0.99965">
        <ele>123</ele>
        <time>2016-09-25T07:30:55.000Z</time>
      </trkpt>
      <trkpt lat="49.47334" lon="0.99985">
        <ele>123.19999694824</ele>
        <time>2016-09-25T07:30:58.000Z</time>
      </trkpt>
      <trkpt lat="49.47337" lon="1.00012">
        <ele>123.40000152588</ele>
        <time>2016-09-25T07:31:02.000Z</time>
      </trkpt>
      <trkpt lat="49.47338" lon="1.00019">
        <ele>123.59999847412</ele>
        <time>2016-09-25T07:31:03.000Z</time>
      </trkpt>
      <trkpt lat="49.47347" lon="1.00056">
        <ele>123.59999847412</ele>
        <time>2016-09-25T07:31:09.000Z</time>
      </trkpt>
      <trkpt lat="49.47355" lon="1.00079">
        <ele>123.59999847412</ele>
        <time>2016-09-25T07:31:14.000Z</time>
      </trkpt>
      <trkpt lat="49.47354" lon="1.00092">
        <ele>123.80000305176</ele>
        <time>2016-09-25T07:31:19.000Z</time>
      </trkpt>
      <trkpt lat="49.47362" lon="1.00111">
        <ele>123.80000305176</ele>
        <time>2016-09-25T07:31:23.000Z</time>
      </trkpt>
      <trkpt lat="49.47382" lon="1.00137">
        <ele>122.40000152588</ele>
        <time>2016-09-25T07:31:28.000Z</time>
      </trkpt>
      <trkpt lat="49.47397" lon="1.00156">
        <ele>121.80000305176</ele>
        <time>2016-09-25T07:31:31.000Z</time>
      </trkpt>
      <trkpt lat="49.47415" lon="1.00183">
        <ele>121.19999694824</ele>
        <time>2016-09-25T07:31:35.000Z</time>
      </trkpt>
      <trkpt lat="49.47446" lon="1.00235">
        <ele>121</ele>
        <time>2016-09-25T07:31:42.000Z</time>
      </trkpt>
      <trkpt lat="49.47452" lon="1.00246">
        <ele>121.19999694824</ele>
        <time>2016-09-25T07:31:44.000Z</time>
      </trkpt>
      <trkpt lat="49.47455" lon="1.00256">
        <ele>121.59999847412</ele>
        <time>2016-09-25T07:31:46.000Z</time>
      </trkpt>
      <trkpt lat="49.47454" lon="1.00261">
        <ele>122</ele>
        <time>2016-09-25T07:31:47.000Z</time>
      </trkpt>
      <trkpt lat="49.47451" lon="1.00267">
        <ele>122.80000305176</ele>
        <time>2016-09-25T07:31:49.000Z</time>
      </trkpt>
      <trkpt lat="49.47448" lon="1.00273">
        <ele>123.59999847412</ele>
        <time>2016-09-25T07:31:51.000Z</time>
      </trkpt>
      <trkpt lat="49.47445" lon="1.00277">
        <ele>124.19999694824</ele>
        <time>2016-09-25T07:31:52.000Z</time>
      </trkpt>
      <trkpt lat="49.47443" lon="1.00281">
        <ele>124.59999847412</ele>
        <time>2016-09-25T07:31:53.000Z</time>
      </trkpt>
      <trkpt lat="49.47437" lon="1.00287">
        <ele>125.40000152588</ele>
        <time>2016-09-25T07:31:55.000Z</time>
      </trkpt>
      <trkpt lat="49.47428" lon="1.00298">
        <ele>126.80000305176</ele>
        <time>2016-09-25T07:31:58.000Z</time>
      </trkpt>
      <trkpt lat="49.47419" lon="1.0031">
        <ele>127.80000305176</ele>
        <time>2016-09-25T07:32:01.000Z</time>
      </trkpt>
      <trkpt lat="49.47416" lon="1.00314">
        <ele>128.19999694824</ele>
        <time>2016-09-25T07:32:02.000Z</time>
      </trkpt>
      <trkpt lat="49.47398" lon="1.00334">
        <ele>129.80000305176</ele>
        <time>2016-09-25T07:32:08.000Z</time>
      </trkpt>
      <trkpt lat="49.47385" lon="1.00358">
        <ele>131.39999389648</ele>
        <time>2016-09-25T07:32:14.000Z</time>
      </trkpt>
      <trkpt lat="49.47381" lon="1.00369">
        <ele>132.19999694824</ele>
        <time>2016-09-25T07:32:17.000Z</time>
      </trkpt>
      <trkpt lat="49.47376" lon="1.00382">
        <ele>133</ele>
        <time>2016-09-25T07:32:21.000Z</time>
      </trkpt>
      <trkpt lat="49.47367" lon="1.00394">
        <ele>134</ele>
        <time>2016-09-25T07:32:25.000Z</time>
      </trkpt>
      <trkpt lat="49.47364" lon="1.00397">
        <ele>134</ele>
        <time>2016-09-25T07:32:26.000Z</time>
      </trkpt>
      <trkpt lat="49.47357" lon="1.00406">
        <ele>134</ele>
        <time>2016-09-25T07:32:31.000Z</time>
      </trkpt>
      <trkpt lat="49.47359" lon="1.00412">
        <ele>134</ele>
        <time>2016-09-25T07:32:34.000Z</time>
      </trkpt>
      <trkpt lat="49.47364" lon="1.00414">
        <ele>133.80000305176</ele>
        <time>2016-09-25T07:32:36.000Z</time>
      </trkpt>
      <trkpt lat="49.47375" lon="1.00418">
        <ele>133.19999694824</ele>
        <time>2016-09-25T07:32:39.000Z</time>
      </trkpt>
      <trkpt lat="49.47384" lon="1.00422">
        <ele>132.80000305176</ele>
        <time>2016-09-25T07:32:41.000Z</time>
      </trkpt>
      <trkpt lat="49.47394" lon="1.00426">
        <ele>132.19999694824</ele>
        <time>2016-09-25T07:32:43.000Z</time>
      </trkpt>
      <trkpt lat="49.47399" lon="1.00429">
        <ele>132</ele>
        <time>2016-09-25T07:32:44.000Z</time>
      </trkpt>
      <trkpt lat="49.47405" lon="1.00431">
        <ele>131.60000610352</ele>
        <time>2016-09-25T07:32:45.000Z</time>
      </trkpt>
      <trkpt lat="49.4741" lon="1.00433">
        <ele>131.39999389648</ele>
        <time>2016-09-25T07:32:46.000Z</time>
      </trkpt>
      <trkpt lat="49.47415" lon="1.00434">
        <ele>131</ele>
        <time>2016-09-25T07:32:47.000Z</time>
      </trkpt>
      <trkpt lat="49.4742" lon="1.00436">
        <ele>130.60000610352</ele>
        <time>2016-09-25T07:32:48.000Z</time>
      </trkpt>
      <trkpt lat="49.47431" lon="1.0044">
        <ele>130</ele>
        <time>2016-09-25T07:32:50.000Z</time>
      </trkpt>
      <trkpt lat="49.47439" lon="1.00445">
        <ele>129.39999389648</ele>
        <time>2016-09-25T07:32:52.000Z</time>
      </trkpt>
      <trkpt lat="49.47442" lon="1.00446">
        <ele>129.19999694824</ele>
        <time>2016-09-25T07:32:53.000Z</time>
      </trkpt>
      <trkpt lat="49.47447" lon="1.00449">
        <ele>128.80000305176</ele>
        <time>2016-09-25T07:32:55.000Z</time>
      </trkpt>
      <trkpt lat="49.47454" lon="1.00452">
        <ele>128.60000610352</ele>
        <time>2016-09-25T07:32:58.000Z</time>
      </trkpt>
      <trkpt lat="49.47459" lon="1.00452">
        <ele>128.60000610352</ele>
        <time>2016-09-25T07:33:00.000Z</time>
      </trkpt>
      <trkpt lat="49.47464" lon="1.00452">
        <ele>128.39999389648</ele>
        <time>2016-09-25T07:33:03.000Z</time>
      </trkpt>
      <trkpt lat="49.47465" lon="1.00452">
        <ele>128.39999389648</ele>
        <time>2016-09-25T07:33:04.000Z</time>
      </trkpt>
      <trkpt lat="49.47467" lon="1.00452">
        <ele>128.39999389648</ele>
        <time>2016-09-25T07:33:07.000Z</time>
      </trkpt>
      <trkpt lat="49.47467" lon="1.00452">
        <ele>128.39999389648</ele>
        <time>2016-09-25T07:33:11.000Z</time>
      </trkpt>
      <trkpt lat="49.47469" lon="1.00456">
        <ele>128.39999389648</ele>
        <time>2016-09-25T07:33:20.000Z</time>
      </trkpt>
      <trkpt lat="49.47467" lon="1.00466">
        <ele>128.39999389648</ele>
        <time>2016-09-25T07:33:24.000Z</time>
      </trkpt>
      <trkpt lat="49.47467" lon="1.0047">
        <ele>128.60000610352</ele>
        <time>2016-09-25T07:33:25.000Z</time>
      </trkpt>
      <trkpt lat="49.47465" lon="1.00488">
        <ele>128.80000305176</ele>
        <time>2016-09-25T07:33:29.000Z</time>
      </trkpt>
      <trkpt lat="49.47463" lon="1.00491">
        <ele>128.80000305176</ele>
        <time>2016-09-25T07:33:30.000Z</time>
      </trkpt>
      <trkpt lat="49.47459" lon="1.00502">
        <ele>129</ele>
        <time>2016-09-25T07:33:33.000Z</time>
      </trkpt>
      <trkpt lat="49.47457" lon="1.0051">
        <ele>129.19999694824</ele>
        <time>2016-09-25T07:33:35.000Z</time>
      </trkpt>
      <trkpt lat="49.47456" lon="1.00514">
        <ele>129.39999389648</ele>
        <time>2016-09-25T07:33:36.000Z</time>
      </trkpt>
      <trkpt lat="49.47452" lon="1.0052">
        <ele>129.39999389648</ele>
        <time>2016-09-25T07:33:38.000Z</time>
      </trkpt>
      <trkpt lat="49.47447" lon="1.0053">
        <ele>129.80000305176</ele>
        <time>2016-09-25T07:33:41.000Z</time>
      </trkpt>
      <trkpt lat="49.47445" lon="1.00539">
        <ele>130</ele>
        <time>2016-09-25T07:33:43.000Z</time>
      </trkpt>
      <trkpt lat="49.47441" lon="1.0055">
        <ele>130.19999694824</ele>
        <time>2016-09-25T07:33:46.000Z</time>
      </trkpt>
      <trkpt lat="49.4744" lon="1.00557">
        <ele>130.60000610352</ele>
        <time>2016-09-25T07:33:48.000Z</time>
      </trkpt>
      <trkpt lat="49.47439" lon="1.00569">
        <ele>131</ele>
        <time>2016-09-25T07:33:51.000Z</time>
      </trkpt>
      <trkpt lat="49.47438" lon="1.00584">
        <ele>131.39999389648</ele>
        <time>2016-09-25T07:33:55.000Z</time>
      </trkpt>
      <trkpt lat="49.47438" lon="1.00605">
        <ele>131.80000305176</ele>
        <time>2016-09-25T07:34:03.000Z</time>
      </trkpt>
      <trkpt lat="49.4744" lon="1.00608">
        <ele>131.80000305176</ele>
        <time>2016-09-25T07:34:04.000Z</time>
      </trkpt>
      <trkpt lat="49.47442" lon="1.00611">
        <ele>131.80000305176</ele>
        <time>2016-09-25T07:34:05.000Z</time>
      </trkpt>
      <trkpt lat="49.47445" lon="1.0062">
        <ele>131.80000305176</ele>
        <time>2016-09-25T07:34:08.000Z</time>
      </trkpt>
      <trkpt lat="49.47442" lon="1.00626">
        <ele>132.19999694824</ele>
        <time>2016-09-25T07:34:12.000Z</time>
      </trkpt>
      <trkpt lat="49.4744" lon="1.00628">
        <ele>132.19999694824</ele>
        <time>2016-09-25T07:34:13.000Z</time>
      </trkpt>
      <trkpt lat="49.47439" lon="1.0063">
        <ele>132.39999389648</ele>
        <time>2016-09-25T07:34:14.000Z</time>
      </trkpt>
      <trkpt lat="49.47436" lon="1.0064">
        <ele>132.39999389648</ele>
        <time>2016-09-25T07:34:18.000Z</time>
      </trkpt>
      <trkpt lat="49.47434" lon="1.00669">
        <ele>132.19999694824</ele>
        <time>2016-09-25T07:34:26.000Z</time>
      </trkpt>
      <trkpt lat="49.47435" lon="1.00676">
        <ele>132.19999694824</ele>
        <time>2016-09-25T07:34:28.000Z</time>
      </trkpt>
      <trkpt lat="49.47433" lon="1.00689">
        <ele>132</ele>
        <time>2016-09-25T07:34:33.000Z</time>
      </trkpt>
      <trkpt lat="49.47433" lon="1.00693">
        <ele>132</ele>
        <time>2016-09-25T07:34:34.000Z</time>
      </trkpt>
      <trkpt lat="49.4743" lon="1.00711">
        <ele>131.80000305176</ele>
        <time>2016-09-25T07:34:40.000Z</time>
      </trkpt>
      <trkpt lat="49.47429" lon="1.00714">
        <ele>131.60000610352</ele>
        <time>2016-09-25T07:34:41.000Z</time>
      </trkpt>
      <trkpt lat="49.47427" lon="1.00722">
        <ele>131.39999389648</ele>
        <time>2016-09-25T07:34:44.000Z</time>
      </trkpt>
      <trkpt lat="49.47429" lon="1.00731">
        <ele>131</ele>
        <time>2016-09-25T07:34:46.000Z</time>
      </trkpt>
      <trkpt lat="49.47427" lon="1.00742">
        <ele>130.60000610352</ele>
        <time>2016-09-25T07:34:49.000Z</time>
      </trkpt>
      <trkpt lat="49.47417" lon="1.00748">
        <ele>130.60000610352</ele>
        <time>2016-09-25T07:34:54.000Z</time>
      </trkpt>
      <trkpt lat="49.4741" lon="1.00741">
        <ele>131</ele>
        <time>2016-09-25T07:35:00.000Z</time>
      </trkpt>
      <trkpt lat="49.47397" lon="1.00739">
        <ele>131.19999694824</ele>
        <time>2016-09-25T07:35:05.000Z</time>
      </trkpt>
      <trkpt lat="49.47392" lon="1.00738">
        <ele>131.19999694824</ele>
        <time>2016-09-25T07:35:06.000Z</time>
      </trkpt>
      <trkpt lat="49.47357" lon="1.00728">
        <ele>132.19999694824</ele>
        <time>2016-09-25T07:35:13.000Z</time>
      </trkpt>
      <trkpt lat="49.47333" lon="1.00719">
        <ele>133.19999694824</ele>
        <time>2016-09-25T07:35:19.000Z</time>
      </trkpt>
      <trkpt lat="49.47298" lon="1.00704">
        <ele>134.39999389648</ele>
        <time>2016-09-25T07:35:27.000Z</time>
      </trkpt>
      <trkpt lat="49.4728" lon="1.00697">
        <ele>135.19999694824</ele>
        <time>2016-09-25T07:35:32.000Z</time>
      </trkpt>
      <trkpt lat="49.47277" lon="1.00696">
        <ele>135.19999694824</ele>
        <time>2016-09-25T07:35:33.000Z</time>
      </trkpt>
      <trkpt lat="49.47256" lon="1.00691">
        <ele>136.39999389648</ele>
        <time>2016-09-25T07:35:40.000Z</time>
      </trkpt>
      <trkpt lat="49.47237" lon="1.00679">
        <ele>137.19999694824</ele>
        <time>2016-09-25T07:35:48.000Z</time>
      </trkpt>
      <trkpt lat="49.47225" lon="1.00677">
        <ele>137.39999389648</ele>
        <time>2016-09-25T07:35:54.000Z</time>
      </trkpt>
      <trkpt lat="49.47207" lon="1.00669">
        <ele>138</ele>
        <time>2016-09-25T07:36:02.000Z</time>
      </trkpt>
      <trkpt lat="49.47192" lon="1.00661">
        <ele>138.60000610352</ele>
        <time>2016-09-25T07:36:08.000Z</time>
      </trkpt>
      <trkpt lat="49.4717" lon="1.00656">
        <ele>140</ele>
        <time>2016-09-25T07:36:15.000Z</time>
      </trkpt>
      <trkpt lat="49.47143" lon="1.00645">
        <ele>141.60000610352</ele>
        <time>2016-09-25T07:36:23.000Z</time>
      </trkpt>
      <trkpt lat="49.4714" lon="1.00643">
        <ele>141.80000305176</ele>
        <time>2016-09-25T07:36:24.000Z</time>
      </trkpt>
      <trkpt lat="49.47129" lon="1.00638">
        <ele>142.39999389648</ele>
        <time>2016-09-25T07:36:27.000Z</time>
      </trkpt>
      <trkpt lat="49.4712" lon="1.00633">
        <ele>142.80000305176</ele>
        <time>2016-09-25T07:36:30.000Z</time>
      </trkpt>
      <trkpt lat="49.47117" lon="1.00632">
        <ele>142.80000305176</ele>
        <time>2016-09-25T07:36:31.000Z</time>
      </trkpt>
      <trkpt lat="49.47105" lon="1.00628">
        <ele>142.60000610352</ele>
        <time>2016-09-25T07:36:35.000Z</time>
      </trkpt>
      <trkpt lat="49.47098" lon="1.00625">
        <ele>142.60000610352</ele>
        <time>2016-09-25T07:36:37.000Z</time>
      </trkpt>
      <trkpt lat="49.47084" lon="1.00617">
        <ele>142.39999389648</ele>
        <time>2016-09-25T07:36:42.000Z</time>
      </trkpt>
      <trkpt lat="49.47081" lon="1.00615">
        <ele>142.39999389648</ele>
        <time>2016-09-25T07:36:43.000Z</time>
      </trkpt>
      <trkpt lat="49.4707" lon="1.0061">
        <ele>142.19999694824</ele>
        <time>2016-09-25T07:36:46.000Z</time>
      </trkpt>
      <trkpt lat="49.47062" lon="1.00608">
        <ele>142.19999694824</ele>
        <time>2016-09-25T07:36:48.000Z</time>
      </trkpt>
      <trkpt lat="49.47038" lon="1.00599">
        <ele>142</ele>
        <time>2016-09-25T07:36:55.000Z</time>
      </trkpt>
      <trkpt lat="49.47035" lon="1.00599">
        <ele>142</ele>
        <time>2016-09-25T07:36:56.000Z</time>
      </trkpt>
      <trkpt lat="49.47024" lon="1.00605">
        <ele>141.19999694824</ele>
        <time>2016-09-25T07:37:00.000Z</time>
      </trkpt>
      <trkpt lat="49.47013" lon="1.0063">
        <ele>140.80000305176</ele>
        <time>2016-09-25T07:37:07.000Z</time>
      </trkpt>
      <trkpt lat="49.47004" lon="1.0066">
        <ele>140.19999694824</ele>
        <time>2016-09-25T07:37:14.000Z</time>
      </trkpt>
      <trkpt lat="49.47002" lon="1.00673">
        <ele>139.60000610352</ele>
        <time>2016-09-25T07:37:17.000Z</time>
      </trkpt>
      <trkpt lat="49.47001" lon="1.00696">
        <ele>139.19999694824</ele>
        <time>2016-09-25T07:37:22.000Z</time>
      </trkpt>
      <trkpt lat="49.46998" lon="1.0071">
        <ele>139.60000610352</ele>
        <time>2016-09-25T07:37:26.000Z</time>
      </trkpt>
      <trkpt lat="49.46996" lon="1.00719">
        <ele>139.80000305176</ele>
        <time>2016-09-25T07:37:28.000Z</time>
      </trkpt>
      <trkpt lat="49.46992" lon="1.00728">
        <ele>140</ele>
        <time>2016-09-25T07:37:30.000Z</time>
      </trkpt>
      <trkpt lat="49.46987" lon="1.00747">
        <ele>139.60000610352</ele>
        <time>2016-09-25T07:37:34.000Z</time>
      </trkpt>
      <trkpt lat="49.46984" lon="1.00758">
        <ele>139.39999389648</ele>
        <time>2016-09-25T07:37:36.000Z</time>
      </trkpt>
      <trkpt lat="49.46983" lon="1.00764">
        <ele>139.60000610352</ele>
        <time>2016-09-25T07:37:37.000Z</time>
      </trkpt>
      <trkpt lat="49.46979" lon="1.00791">
        <ele>140.19999694824</ele>
        <time>2016-09-25T07:37:41.000Z</time>
      </trkpt>
      <trkpt lat="49.46978" lon="1.00797">
        <ele>140.39999389648</ele>
        <time>2016-09-25T07:37:42.000Z</time>
      </trkpt>
      <trkpt lat="49.46977" lon="1.00814">
        <ele>140.60000610352</ele>
        <time>2016-09-25T07:37:45.000Z</time>
      </trkpt>
      <trkpt lat="49.46977" lon="1.00839">
        <ele>140.80000305176</ele>
        <time>2016-09-25T07:37:49.000Z</time>
      </trkpt>
      <trkpt lat="49.46977" lon="1.00844">
        <ele>141</ele>
        <time>2016-09-25T07:37:50.000Z</time>
      </trkpt>
      <trkpt lat="49.46974" lon="1.0087">
        <ele>142.39999389648</ele>
        <time>2016-09-25T07:37:55.000Z</time>
      </trkpt>
      <trkpt lat="49.46965" lon="1.00889">
        <ele>144</ele>
        <time>2016-09-25T07:37:59.000Z</time>
      </trkpt>
      <trkpt lat="49.4696" lon="1.00897">
        <ele>144.39999389648</ele>
        <time>2016-09-25T07:38:01.000Z</time>
      </trkpt>
      <trkpt lat="49.46955" lon="1.00912">
        <ele>144.39999389648</ele>
        <time>2016-09-25T07:38:04.000Z</time>
      </trkpt>
      <trkpt lat="49.46951" lon="1.00921">
        <ele>144.19999694824</ele>
        <time>2016-09-25T07:38:06.000Z</time>
      </trkpt>
      <trkpt lat="49.46948" lon="1.00926">
        <ele>144</ele>
        <time>2016-09-25T07:38:07.000Z</time>
      </trkpt>
      <trkpt lat="49.46944" lon="1.00932">
        <ele>143.60000610352</ele>
        <time>2016-09-25T07:38:08.000Z</time>
      </trkpt>
      <trkpt lat="49.46938" lon="1.00945">
        <ele>142.80000305176</ele>
        <time>2016-09-25T07:38:10.000Z</time>
      </trkpt>
      <trkpt lat="49.4693" lon="1.00961">
        <ele>142.19999694824</ele>
        <time>2016-09-25T07:38:13.000Z</time>
      </trkpt>
      <trkpt lat="49.46915" lon="1.00996">
        <ele>142.39999389648</ele>
        <time>2016-09-25T07:38:19.000Z</time>
      </trkpt>
      <trkpt lat="49.469" lon="1.01019">
        <ele>142.19999694824</ele>
        <time>2016-09-25T07:38:24.000Z</time>
      </trkpt>
      <trkpt lat="49.46895" lon="1.01028">
        <ele>142.19999694824</ele>
        <time>2016-09-25T07:38:26.000Z</time>
      </trkpt>
      <trkpt lat="49.4688" lon="1.0105">
        <ele>142.80000305176</ele>
        <time>2016-09-25T07:38:31.000Z</time>
      </trkpt>
      <trkpt lat="49.46873" lon="1.01063">
        <ele>143</ele>
        <time>2016-09-25T07:38:33.000Z</time>
      </trkpt>
      <trkpt lat="49.46856" lon="1.01092">
        <ele>143</ele>
        <time>2016-09-25T07:38:38.000Z</time>
      </trkpt>
      <trkpt lat="49.46855" lon="1.01096">
        <ele>143.19999694824</ele>
        <time>2016-09-25T07:38:39.000Z</time>
      </trkpt>
      <trkpt lat="49.46855" lon="1.01109">
        <ele>143.39999389648</ele>
        <time>2016-09-25T07:38:43.000Z</time>
      </trkpt>
      <trkpt lat="49.46854" lon="1.01116">
        <ele>143.60000610352</ele>
        <time>2016-09-25T07:38:45.000Z</time>
      </trkpt>
      <trkpt lat="49.46852" lon="1.01124">
        <ele>143.60000610352</ele>
        <time>2016-09-25T07:38:48.000Z</time>
      </trkpt>
      <trkpt lat="49.46848" lon="1.01133">
        <ele>143.39999389648</ele>
        <time>2016-09-25T07:38:49.000Z</time>
      </trkpt>
      <trkpt lat="49.46847" lon="1.01143">
        <ele>143.19999694824</ele>
        <time>2016-09-25T07:38:51.000Z</time>
      </trkpt>
      <trkpt lat="49.46842" lon="1.01172">
        <ele>141.60000610352</ele>
        <time>2016-09-25T07:38:57.000Z</time>
      </trkpt>
      <trkpt lat="49.46843" lon="1.01187">
        <ele>141.19999694824</ele>
        <time>2016-09-25T07:38:59.000Z</time>
      </trkpt>
      <trkpt lat="49.46845" lon="1.01214">
        <ele>140.19999694824</ele>
        <time>2016-09-25T07:39:04.000Z</time>
      </trkpt>
      <trkpt lat="49.46842" lon="1.01219">
        <ele>139.80000305176</ele>
        <time>2016-09-25T07:39:05.000Z</time>
      </trkpt>
      <trkpt lat="49.46835" lon="1.01237">
        <ele>138.60000610352</ele>
        <time>2016-09-25T07:39:09.000Z</time>
      </trkpt>
      <trkpt lat="49.46833" lon="1.01248">
        <ele>138.39999389648</ele>
        <time>2016-09-25T07:39:11.000Z</time>
      </trkpt>
      <trkpt lat="49.46832" lon="1.01254">
        <ele>138.39999389648</ele>
        <time>2016-09-25T07:39:12.000Z</time>
      </trkpt>
      <trkpt lat="49.46827" lon="1.01263">
        <ele>137.80000305176</ele>
        <time>2016-09-25T07:39:14.000Z</time>
      </trkpt>
      <trkpt lat="49.46811" lon="1.013">
        <ele>140.39999389648</ele>
        <time>2016-09-25T07:39:20.000Z</time>
      </trkpt>
      <trkpt lat="49.46806" lon="1.01312">
        <ele>141.39999389648</ele>
        <time>2016-09-25T07:39:22.000Z</time>
      </trkpt>
      <trkpt lat="49.46796" lon="1.01326">
        <ele>141.60000610352</ele>
        <time>2016-09-25T07:39:25.000Z</time>
      </trkpt>
      <trkpt lat="49.46775" lon="1.01337">
        <ele>143.39999389648</ele>
        <time>2016-09-25T07:39:30.000Z</time>
      </trkpt>
      <trkpt lat="49.46762" lon="1.01333">
        <ele>143.80000305176</ele>
        <time>2016-09-25T07:39:33.000Z</time>
      </trkpt>
      <trkpt lat="49.46753" lon="1.01328">
        <ele>143.80000305176</ele>
        <time>2016-09-25T07:39:35.000Z</time>
      </trkpt>
      <trkpt lat="49.46736" lon="1.01321">
        <ele>144.19999694824</ele>
        <time>2016-09-25T07:39:38.000Z</time>
      </trkpt>
      <trkpt lat="49.46711" lon="1.01305">
        <ele>144</ele>
        <time>2016-09-25T07:39:43.000Z</time>
      </trkpt>
      <trkpt lat="49.46702" lon="1.01301">
        <ele>143.80000305176</ele>
        <time>2016-09-25T07:39:45.000Z</time>
      </trkpt>
      <trkpt lat="49.46683" lon="1.01292">
        <ele>142.60000610352</ele>
        <time>2016-09-25T07:39:49.000Z</time>
      </trkpt>
      <trkpt lat="49.46659" lon="1.01277">
        <ele>139.80000305176</ele>
        <time>2016-09-25T07:39:55.000Z</time>
      </trkpt>
      <trkpt lat="49.46653" lon="1.01274">
        <ele>139.19999694824</ele>
        <time>2016-09-25T07:39:57.000Z</time>
      </trkpt>
      <trkpt lat="49.46647" lon="1.01277">
        <ele>139</ele>
        <time>2016-09-25T07:39:59.000Z</time>
      </trkpt>
      <trkpt lat="49.46627" lon="1.01301">
        <ele>139.19999694824</ele>
        <time>2016-09-25T07:40:05.000Z</time>
      </trkpt>
      <trkpt lat="49.4661" lon="1.01305">
        <ele>138.60000610352</ele>
        <time>2016-09-25T07:40:11.000Z</time>
      </trkpt>
      <trkpt lat="49.46587" lon="1.01291">
        <ele>136.80000305176</ele>
        <time>2016-09-25T07:40:18.000Z</time>
      </trkpt>
      <trkpt lat="49.4657" lon="1.01275">
        <ele>135.39999389648</ele>
        <time>2016-09-25T07:40:21.000Z</time>
      </trkpt>
      <trkpt lat="49.46557" lon="1.01262">
        <ele>134.39999389648</ele>
        <time>2016-09-25T07:40:23.000Z</time>
      </trkpt>
      <trkpt lat="49.46519" lon="1.01223">
        <ele>131</ele>
        <time>2016-09-25T07:40:29.000Z</time>
      </trkpt>
      <trkpt lat="49.46489" lon="1.01189">
        <ele>129.80000305176</ele>
        <time>2016-09-25T07:40:34.000Z</time>
      </trkpt>
      <trkpt lat="49.46478" lon="1.01176">
        <ele>129.19999694824</ele>
        <time>2016-09-25T07:40:36.000Z</time>
      </trkpt>
      <trkpt lat="49.4646" lon="1.01157">
        <ele>128.39999389648</ele>
        <time>2016-09-25T07:40:39.000Z</time>
      </trkpt>
      <trkpt lat="49.46437" lon="1.01133">
        <ele>127.80000305176</ele>
        <time>2016-09-25T07:40:43.000Z</time>
      </trkpt>
      <trkpt lat="49.46417" lon="1.01113">
        <ele>127.80000305176</ele>
        <time>2016-09-25T07:40:47.000Z</time>
      </trkpt>
      <trkpt lat="49.46395" lon="1.01091">
        <ele>127.80000305176</ele>
        <time>2016-09-25T07:40:51.000Z</time>
      </trkpt>
      <trkpt lat="49.46354" lon="1.01051">
        <ele>128.60000610352</ele>
        <time>2016-09-25T07:40:59.000Z</time>
      </trkpt>
      <trkpt lat="49.46338" lon="1.01034">
        <ele>129.39999389648</ele>
        <time>2016-09-25T07:41:02.000Z</time>
      </trkpt>
      <trkpt lat="49.46316" lon="1.01011">
        <ele>130.39999389648</ele>
        <time>2016-09-25T07:41:06.000Z</time>
      </trkpt>
      <trkpt lat="49.46277" lon="1.00973">
        <ele>131.60000610352</ele>
        <time>2016-09-25T07:41:13.000Z</time>
      </trkpt>
      <trkpt lat="49.46272" lon="1.00969">
        <ele>131</ele>
        <time>2016-09-25T07:41:14.000Z</time>
      </trkpt>
      <trkpt lat="49.46263" lon="1.00967">
        <ele>130.39999389648</ele>
        <time>2016-09-25T07:41:16.000Z</time>
      </trkpt>
      <trkpt lat="49.46258" lon="1.00973">
        <ele>130.60000610352</ele>
        <time>2016-09-25T07:41:19.000Z</time>
      </trkpt>
      <trkpt lat="49.46257" lon="1.00976">
        <ele>130.80000305176</ele>
        <time>2016-09-25T07:41:20.000Z</time>
      </trkpt>
      <trkpt lat="49.46255" lon="1.00977">
        <ele>130.80000305176</ele>
        <time>2016-09-25T07:41:21.000Z</time>
      </trkpt>
      <trkpt lat="49.46252" lon="1.0098">
        <ele>130.60000610352</ele>
        <time>2016-09-25T07:41:23.000Z</time>
      </trkpt>
      <trkpt lat="49.46246" lon="1.00985">
        <ele>130.39999389648</ele>
        <time>2016-09-25T07:41:26.000Z</time>
      </trkpt>
      <trkpt lat="49.46226" lon="1.00995">
        <ele>129.39999389648</ele>
        <time>2016-09-25T07:41:30.000Z</time>
      </trkpt>
      <trkpt lat="49.46193" lon="1.01012">
        <ele>129.19999694824</ele>
        <time>2016-09-25T07:41:36.000Z</time>
      </trkpt>
      <trkpt lat="49.46189" lon="1.01016">
        <ele>129</ele>
        <time>2016-09-25T07:41:37.000Z</time>
      </trkpt>
      <trkpt lat="49.46167" lon="1.01036">
        <ele>129.19999694824</ele>
        <time>2016-09-25T07:41:42.000Z</time>
      </trkpt>
      <trkpt lat="49.46161" lon="1.0104">
        <ele>129.39999389648</ele>
        <time>2016-09-25T07:41:43.000Z</time>
      </trkpt>
      <trkpt lat="49.46148" lon="1.01052">
        <ele>130</ele>
        <time>2016-09-25T07:41:46.000Z</time>
      </trkpt>
      <trkpt lat="49.46144" lon="1.01056">
        <ele>130.19999694824</ele>
        <time>2016-09-25T07:41:47.000Z</time>
      </trkpt>
      <trkpt lat="49.46135" lon="1.01064">
        <ele>130.39999389648</ele>
        <time>2016-09-25T07:41:49.000Z</time>
      </trkpt>
      <trkpt lat="49.46131" lon="1.01068">
        <ele>130.39999389648</ele>
        <time>2016-09-25T07:41:50.000Z</time>
      </trkpt>
      <trkpt lat="49.46118" lon="1.01077">
        <ele>130</ele>
        <time>2016-09-25T07:41:53.000Z</time>
      </trkpt>
      <trkpt lat="49.46108" lon="1.01081">
        <ele>129.80000305176</ele>
        <time>2016-09-25T07:41:55.000Z</time>
      </trkpt>
      <trkpt lat="49.46079" lon="1.01092">
        <ele>128.60000610352</ele>
        <time>2016-09-25T07:42:02.000Z</time>
      </trkpt>
      <trkpt lat="49.46074" lon="1.01094">
        <ele>128.60000610352</ele>
        <time>2016-09-25T07:42:03.000Z</time>
      </trkpt>
      <trkpt lat="49.46066" lon="1.01094">
        <ele>128.19999694824</ele>
        <time>2016-09-25T07:42:05.000Z</time>
      </trkpt>
      <trkpt lat="49.46061" lon="1.01092">
        <ele>128</ele>
        <time>2016-09-25T07:42:06.000Z</time>
      </trkpt>
      <trkpt lat="49.46056" lon="1.01088">
        <ele>127.80000305176</ele>
        <time>2016-09-25T07:42:07.000Z</time>
      </trkpt>
      <trkpt lat="49.46041" lon="1.01075">
        <ele>127.19999694824</ele>
        <time>2016-09-25T07:42:10.000Z</time>
      </trkpt>
      <trkpt lat="49.46036" lon="1.0107">
        <ele>127.19999694824</ele>
        <time>2016-09-25T07:42:11.000Z</time>
      </trkpt>
      <trkpt lat="49.46025" lon="1.01056">
        <ele>126.59999847412</ele>
        <time>2016-09-25T07:42:14.000Z</time>
      </trkpt>
      <trkpt lat="49.46021" lon="1.01048">
        <ele>126.40000152588</ele>
        <time>2016-09-25T07:42:16.000Z</time>
      </trkpt>
      <trkpt lat="49.46021" lon="1.01043">
        <ele>126</ele>
        <time>2016-09-25T07:42:17.000Z</time>
      </trkpt>
      <trkpt lat="49.46017" lon="1.01031">
        <ele>125.40000152588</ele>
        <time>2016-09-25T07:42:20.000Z</time>
      </trkpt>
      <trkpt lat="49.46014" lon="1.01021">
        <ele>124.80000305176</ele>
        <time>2016-09-25T07:42:22.000Z</time>
      </trkpt>
      <trkpt lat="49.46013" lon="1.01016">
        <ele>124.40000152588</ele>
        <time>2016-09-25T07:42:23.000Z</time>
      </trkpt>
      <trkpt lat="49.4601" lon="1.01004">
        <ele>123.80000305176</ele>
        <time>2016-09-25T07:42:25.000Z</time>
      </trkpt>
      <trkpt lat="49.46005" lon="1.00992">
        <ele>123</ele>
        <time>2016-09-25T07:42:27.000Z</time>
      </trkpt>
      <trkpt lat="49.46002" lon="1.00986">
        <ele>122.59999847412</ele>
        <time>2016-09-25T07:42:28.000Z</time>
      </trkpt>
      <trkpt lat="49.45997" lon="1.00974">
        <ele>122</ele>
        <time>2016-09-25T07:42:30.000Z</time>
      </trkpt>
      <trkpt lat="49.4599" lon="1.00956">
        <ele>120.80000305176</ele>
        <time>2016-09-25T07:42:33.000Z</time>
      </trkpt>
      <trkpt lat="49.45984" lon="1.00943">
        <ele>120</ele>
        <time>2016-09-25T07:42:35.000Z</time>
      </trkpt>
      <trkpt lat="49.45981" lon="1.00937">
        <ele>119.80000305176</ele>
        <time>2016-09-25T07:42:36.000Z</time>
      </trkpt>
      <trkpt lat="49.45969" lon="1.00924">
        <ele>119</ele>
        <time>2016-09-25T07:42:39.000Z</time>
      </trkpt>
      <trkpt lat="49.45964" lon="1.0092">
        <ele>118.59999847412</ele>
        <time>2016-09-25T07:42:40.000Z</time>
      </trkpt>
      <trkpt lat="49.45959" lon="1.00917">
        <ele>118.59999847412</ele>
        <time>2016-09-25T07:42:41.000Z</time>
      </trkpt>
      <trkpt lat="49.45942" lon="1.00914">
        <ele>117.80000305176</ele>
        <time>2016-09-25T07:42:44.000Z</time>
      </trkpt>
      <trkpt lat="49.4592" lon="1.00924">
        <ele>117.19999694824</ele>
        <time>2016-09-25T07:42:48.000Z</time>
      </trkpt>
      <trkpt lat="49.45914" lon="1.00927">
        <ele>117</ele>
        <time>2016-09-25T07:42:49.000Z</time>
      </trkpt>
      <trkpt lat="49.45892" lon="1.00935">
        <ele>116.59999847412</ele>
        <time>2016-09-25T07:42:53.000Z</time>
      </trkpt>
      <trkpt lat="49.45887" lon="1.00936">
        <ele>116.40000152588</ele>
        <time>2016-09-25T07:42:54.000Z</time>
      </trkpt>
      <trkpt lat="49.45864" lon="1.0094">
        <ele>116</ele>
        <time>2016-09-25T07:42:58.000Z</time>
      </trkpt>
      <trkpt lat="49.45855" lon="1.00942">
        <ele>116.59999847412</ele>
        <time>2016-09-25T07:43:00.000Z</time>
      </trkpt>
      <trkpt lat="49.45842" lon="1.00949">
        <ele>117.59999847412</ele>
        <time>2016-09-25T07:43:04.000Z</time>
      </trkpt>
      <trkpt lat="49.4584" lon="1.00951">
        <ele>118</ele>
        <time>2016-09-25T07:43:05.000Z</time>
      </trkpt>
      <trkpt lat="49.45834" lon="1.00963">
        <ele>119.59999847412</ele>
        <time>2016-09-25T07:43:09.000Z</time>
      </trkpt>
      <trkpt lat="49.45833" lon="1.00966">
        <ele>120</ele>
        <time>2016-09-25T07:43:10.000Z</time>
      </trkpt>
      <trkpt lat="49.4583" lon="1.0097">
        <ele>120.59999847412</ele>
        <time>2016-09-25T07:43:14.000Z</time>
      </trkpt>
      <trkpt lat="49.45826" lon="1.00974">
        <ele>121.19999694824</ele>
        <time>2016-09-25T07:43:22.000Z</time>
      </trkpt>
      <trkpt lat="49.45823" lon="1.00972">
        <ele>121.19999694824</ele>
        <time>2016-09-25T07:43:31.000Z</time>
      </trkpt>
      <trkpt lat="49.45819" lon="1.00969">
        <ele>121.19999694824</ele>
        <time>2016-09-25T07:43:36.000Z</time>
      </trkpt>
      <trkpt lat="49.45812" lon="1.00966">
        <ele>121.19999694824</ele>
        <time>2016-09-25T07:43:38.000Z</time>
      </trkpt>
      <trkpt lat="49.45795" lon="1.00959">
        <ele>121.40000152588</ele>
        <time>2016-09-25T07:43:42.000Z</time>
      </trkpt>
      <trkpt lat="49.45771" lon="1.00935">
        <ele>120</ele>
        <time>2016-09-25T07:43:47.000Z</time>
      </trkpt>
      <trkpt lat="49.45761" lon="1.00923">
        <ele>119.19999694824</ele>
        <time>2016-09-25T07:43:49.000Z</time>
      </trkpt>
      <trkpt lat="49.45742" lon="1.009">
        <ele>117.40000152588</ele>
        <time>2016-09-25T07:43:53.000Z</time>
      </trkpt>
      <trkpt lat="49.45737" lon="1.00896">
        <ele>117</ele>
        <time>2016-09-25T07:43:54.000Z</time>
      </trkpt>
      <trkpt lat="49.45732" lon="1.00892">
        <ele>116.80000305176</ele>
        <time>2016-09-25T07:43:55.000Z</time>
      </trkpt>
      <trkpt lat="49.45702" lon="1.00865">
        <ele>115.40000152588</ele>
        <time>2016-09-25T07:44:00.000Z</time>
      </trkpt>
      <trkpt lat="49.45669" lon="1.00845">
        <ele>113.59999847412</ele>
        <time>2016-09-25T07:44:05.000Z</time>
      </trkpt>
      <trkpt lat="49.45645" lon="1.00835">
        <ele>112.59999847412</ele>
        <time>2016-09-25T07:44:09.000Z</time>
      </trkpt>
      <trkpt lat="49.45633" lon="1.00836">
        <ele>111.80000305176</ele>
        <time>2016-09-25T07:44:11.000Z</time>
      </trkpt>
      <trkpt lat="49.45621" lon="1.00839">
        <ele>111.19999694824</ele>
        <time>2016-09-25T07:44:13.000Z</time>
      </trkpt>
      <trkpt lat="49.45615" lon="1.00841">
        <ele>111</ele>
        <time>2016-09-25T07:44:14.000Z</time>
      </trkpt>
      <trkpt lat="49.45602" lon="1.00844">
        <ele>112.40000152588</ele>
        <time>2016-09-25T07:44:16.000Z</time>
      </trkpt>
      <trkpt lat="49.45575" lon="1.00857">
        <ele>115</ele>
        <time>2016-09-25T07:44:21.000Z</time>
      </trkpt>
      <trkpt lat="49.45557" lon="1.00872">
        <ele>113.80000305176</ele>
        <time>2016-09-25T07:44:26.000Z</time>
      </trkpt>
      <trkpt lat="49.45556" lon="1.00873">
        <ele>113.59999847412</ele>
        <time>2016-09-25T07:44:27.000Z</time>
      </trkpt>
      <trkpt lat="49.45552" lon="1.00878">
        <ele>113.19999694824</ele>
        <time>2016-09-25T07:44:32.000Z</time>
      </trkpt>
      <trkpt lat="49.45548" lon="1.00887">
        <ele>112.40000152588</ele>
        <time>2016-09-25T07:44:37.000Z</time>
      </trkpt>
      <trkpt lat="49.45548" lon="1.00889">
        <ele>112.19999694824</ele>
        <time>2016-09-25T07:44:38.000Z</time>
      </trkpt>
      <trkpt lat="49.45547" lon="1.00902">
        <ele>112.40000152588</ele>
        <time>2016-09-25T07:44:41.000Z</time>
      </trkpt>
      <trkpt lat="49.45548" lon="1.00917">
        <ele>112.80000305176</ele>
        <time>2016-09-25T07:44:44.000Z</time>
      </trkpt>
      <trkpt lat="49.45551" lon="1.00949">
        <ele>113.40000152588</ele>
        <time>2016-09-25T07:44:51.000Z</time>
      </trkpt>
      <trkpt lat="49.45562" lon="1.00983">
        <ele>114.59999847412</ele>
        <time>2016-09-25T07:44:59.000Z</time>
      </trkpt>
      <trkpt lat="49.45579" lon="1.01009">
        <ele>116.80000305176</ele>
        <time>2016-09-25T07:45:06.000Z</time>
      </trkpt>
      <trkpt lat="49.45602" lon="1.01025">
        <ele>118.40000152588</ele>
        <time>2016-09-25T07:45:14.000Z</time>
      </trkpt>
      <trkpt lat="49.45619" lon="1.01037">
        <ele>119.80000305176</ele>
        <time>2016-09-25T07:45:21.000Z</time>
      </trkpt>
      <trkpt lat="49.45643" lon="1.01067">
        <ele>122</ele>
        <time>2016-09-25T07:45:28.000Z</time>
      </trkpt>
      <trkpt lat="49.45648" lon="1.01077">
        <ele>122.40000152588</ele>
        <time>2016-09-25T07:45:31.000Z</time>
      </trkpt>
      <trkpt lat="49.45657" lon="1.01093">
        <ele>123.19999694824</ele>
        <time>2016-09-25T07:45:36.000Z</time>
      </trkpt>
      <trkpt lat="49.45668" lon="1.01108">
        <ele>124</ele>
        <time>2016-09-25T07:45:42.000Z</time>
      </trkpt>
      <trkpt lat="49.45672" lon="1.01114">
        <ele>124.40000152588</ele>
        <time>2016-09-25T07:45:44.000Z</time>
      </trkpt>
      <trkpt lat="49.45685" lon="1.01133">
        <ele>125.40000152588</ele>
        <time>2016-09-25T07:45:51.000Z</time>
      </trkpt>
      <trkpt lat="49.45687" lon="1.01136">
        <ele>125.59999847412</ele>
        <time>2016-09-25T07:45:52.000Z</time>
      </trkpt>
      <trkpt lat="49.45698" lon="1.01161">
        <ele>126.19999694824</ele>
        <time>2016-09-25T07:45:58.000Z</time>
      </trkpt>
      <trkpt lat="49.45704" lon="1.01172">
        <ele>126.59999847412</ele>
        <time>2016-09-25T07:46:01.000Z</time>
      </trkpt>
      <trkpt lat="49.45707" lon="1.01178">
        <ele>126.80000305176</ele>
        <time>2016-09-25T07:46:03.000Z</time>
      </trkpt>
      <trkpt lat="49.4571" lon="1.01185">
        <ele>127</ele>
        <time>2016-09-25T07:46:05.000Z</time>
      </trkpt>
      <trkpt lat="49.45714" lon="1.0119">
        <ele>127.19999694824</ele>
        <time>2016-09-25T07:46:07.000Z</time>
      </trkpt>
      <trkpt lat="49.45716" lon="1.01193">
        <ele>127.19999694824</ele>
        <time>2016-09-25T07:46:08.000Z</time>
      </trkpt>
      <trkpt lat="49.45721" lon="1.01202">
        <ele>127.40000152588</ele>
        <time>2016-09-25T07:46:11.000Z</time>
      </trkpt>
      <trkpt lat="49.45725" lon="1.01212">
        <ele>127.80000305176</ele>
        <time>2016-09-25T07:46:14.000Z</time>
      </trkpt>
      <trkpt lat="49.45727" lon="1.01226">
        <ele>128</ele>
        <time>2016-09-25T07:46:18.000Z</time>
      </trkpt>
      <trkpt lat="49.45727" lon="1.01232">
        <ele>128</ele>
        <time>2016-09-25T07:46:20.000Z</time>
      </trkpt>
      <trkpt lat="49.45726" lon="1.01265">
        <ele>128.19999694824</ele>
        <time>2016-09-25T07:46:27.000Z</time>
      </trkpt>
      <trkpt lat="49.45723" lon="1.01273">
        <ele>128.19999694824</ele>
        <time>2016-09-25T07:46:29.000Z</time>
      </trkpt>
      <trkpt lat="49.4572" lon="1.01278">
        <ele>128</ele>
        <time>2016-09-25T07:46:30.000Z</time>
      </trkpt>
      <trkpt lat="49.45717" lon="1.01281">
        <ele>127.80000305176</ele>
        <time>2016-09-25T07:46:31.000Z</time>
      </trkpt>
      <trkpt lat="49.45713" lon="1.01284">
        <ele>127.59999847412</ele>
        <time>2016-09-25T07:46:32.000Z</time>
      </trkpt>
      <trkpt lat="49.45709" lon="1.01287">
        <ele>127.40000152588</ele>
        <time>2016-09-25T07:46:33.000Z</time>
      </trkpt>
      <trkpt lat="49.45703" lon="1.0129">
        <ele>127.19999694824</ele>
        <time>2016-09-25T07:46:35.000Z</time>
      </trkpt>
      <trkpt lat="49.45699" lon="1.01293">
        <ele>127</ele>
        <time>2016-09-25T07:46:36.000Z</time>
      </trkpt>
      <trkpt lat="49.45692" lon="1.01297">
        <ele>127</ele>
        <time>2016-09-25T07:46:38.000Z</time>
      </trkpt>
      <trkpt lat="49.45689" lon="1.01299">
        <ele>127</ele>
        <time>2016-09-25T07:46:39.000Z</time>
      </trkpt>
      <trkpt lat="49.45683" lon="1.01303">
        <ele>126.59999847412</ele>
        <time>2016-09-25T07:46:41.000Z</time>
      </trkpt>
      <trkpt lat="49.45674" lon="1.01311">
        <ele>126</ele>
        <time>2016-09-25T07:46:44.000Z</time>
      </trkpt>
      <trkpt lat="49.45671" lon="1.01312">
        <ele>126</ele>
        <time>2016-09-25T07:46:45.000Z</time>
      </trkpt>
      <trkpt lat="49.45668" lon="1.01314">
        <ele>125.80000305176</ele>
        <time>2016-09-25T07:46:46.000Z</time>
      </trkpt>
      <trkpt lat="49.45665" lon="1.01314">
        <ele>125.80000305176</ele>
        <time>2016-09-25T07:46:47.000Z</time>
      </trkpt>
      <trkpt lat="49.45658" lon="1.01312">
        <ele>125.59999847412</ele>
        <time>2016-09-25T07:46:49.000Z</time>
      </trkpt>
      <trkpt lat="49.45651" lon="1.01309">
        <ele>125.19999694824</ele>
        <time>2016-09-25T07:46:51.000Z</time>
      </trkpt>
      <trkpt lat="49.45629" lon="1.01303">
        <ele>124.59999847412</ele>
        <time>2016-09-25T07:46:55.000Z</time>
      </trkpt>
      <trkpt lat="49.45623" lon="1.01301">
        <ele>124.59999847412</ele>
        <time>2016-09-25T07:46:56.000Z</time>
      </trkpt>
      <trkpt lat="49.45604" lon="1.01298">
        <ele>124.19999694824</ele>
        <time>2016-09-25T07:47:00.000Z</time>
      </trkpt>
      <trkpt lat="49.45592" lon="1.01293">
        <ele>124.19999694824</ele>
        <time>2016-09-25T07:47:02.000Z</time>
      </trkpt>
      <trkpt lat="49.4555" lon="1.01281">
        <ele>124.40000152588</ele>
        <time>2016-09-25T07:47:10.000Z</time>
      </trkpt>
      <trkpt lat="49.45505" lon="1.01265">
        <ele>123.19999694824</ele>
        <time>2016-09-25T07:47:18.000Z</time>
      </trkpt>
      <trkpt lat="49.4546" lon="1.01253">
        <ele>121.40000152588</ele>
        <time>2016-09-25T07:47:26.000Z</time>
      </trkpt>
      <trkpt lat="49.45444" lon="1.01246">
        <ele>120.59999847412</ele>
        <time>2016-09-25T07:47:29.000Z</time>
      </trkpt>
      <trkpt lat="49.45419" lon="1.01236">
        <ele>118.40000152588</ele>
        <time>2016-09-25T07:47:33.000Z</time>
      </trkpt>
      <trkpt lat="49.45412" lon="1.01234">
        <ele>117.80000305176</ele>
        <time>2016-09-25T07:47:34.000Z</time>
      </trkpt>
      <trkpt lat="49.45378" lon="1.01218">
        <ele>115</ele>
        <time>2016-09-25T07:47:39.000Z</time>
      </trkpt>
      <trkpt lat="49.45351" lon="1.01207">
        <ele>114</ele>
        <time>2016-09-25T07:47:43.000Z</time>
      </trkpt>
      <trkpt lat="49.45333" lon="1.01198">
        <ele>114</ele>
        <time>2016-09-25T07:47:46.000Z</time>
      </trkpt>
      <trkpt lat="49.45322" lon="1.01192">
        <ele>113.80000305176</ele>
        <time>2016-09-25T07:47:48.000Z</time>
      </trkpt>
      <trkpt lat="49.45315" lon="1.0119">
        <ele>113.80000305176</ele>
        <time>2016-09-25T07:47:49.000Z</time>
      </trkpt>
      <trkpt lat="49.45309" lon="1.01188">
        <ele>113.80000305176</ele>
        <time>2016-09-25T07:47:50.000Z</time>
      </trkpt>
      <trkpt lat="49.45304" lon="1.01185">
        <ele>113.80000305176</ele>
        <time>2016-09-25T07:47:51.000Z</time>
      </trkpt>
      <trkpt lat="49.45291" lon="1.01182">
        <ele>113.59999847412</ele>
        <time>2016-09-25T07:47:54.000Z</time>
      </trkpt>
      <trkpt lat="49.45288" lon="1.01182">
        <ele>113.59999847412</ele>
        <time>2016-09-25T07:47:55.000Z</time>
      </trkpt>
      <trkpt lat="49.45281" lon="1.01182">
        <ele>113.59999847412</ele>
        <time>2016-09-25T07:47:57.000Z</time>
      </trkpt>
      <trkpt lat="49.45268" lon="1.01187">
        <ele>113.80000305176</ele>
        <time>2016-09-25T07:48:02.000Z</time>
      </trkpt>
      <trkpt lat="49.45252" lon="1.01192">
        <ele>114.19999694824</ele>
        <time>2016-09-25T07:48:09.000Z</time>
      </trkpt>
      <trkpt lat="49.45235" lon="1.01188">
        <ele>114.80000305176</ele>
        <time>2016-09-25T07:48:16.000Z</time>
      </trkpt>
      <trkpt lat="49.45209" lon="1.01179">
        <ele>115.59999847412</ele>
        <time>2016-09-25T07:48:24.000Z</time>
      </trkpt>
      <trkpt lat="49.45188" lon="1.01171">
        <ele>116.40000152588</ele>
        <time>2016-09-25T07:48:30.000Z</time>
      </trkpt>
      <trkpt lat="49.45182" lon="1.01169">
        <ele>116.59999847412</ele>
        <time>2016-09-25T07:48:32.000Z</time>
      </trkpt>
      <trkpt lat="49.45168" lon="1.01163">
        <ele>117.19999694824</ele>
        <time>2016-09-25T07:48:36.000Z</time>
      </trkpt>
      <trkpt lat="49.45159" lon="1.0116">
        <ele>117.40000152588</ele>
        <time>2016-09-25T07:48:39.000Z</time>
      </trkpt>
      <trkpt lat="49.45144" lon="1.01157">
        <ele>118</ele>
        <time>2016-09-25T07:48:43.000Z</time>
      </trkpt>
      <trkpt lat="49.45132" lon="1.01156">
        <ele>118.40000152588</ele>
        <time>2016-09-25T07:48:46.000Z</time>
      </trkpt>
      <trkpt lat="49.45125" lon="1.01155">
        <ele>118.80000305176</ele>
        <time>2016-09-25T07:48:48.000Z</time>
      </trkpt>
      <trkpt lat="49.45115" lon="1.01162">
        <ele>119.19999694824</ele>
        <time>2016-09-25T07:48:51.000Z</time>
      </trkpt>
      <trkpt lat="49.45107" lon="1.01173">
        <ele>119.19999694824</ele>
        <time>2016-09-25T07:48:55.000Z</time>
      </trkpt>
      <trkpt lat="49.45106" lon="1.01184">
        <ele>119.40000152588</ele>
        <time>2016-09-25T07:48:57.000Z</time>
      </trkpt>
      <trkpt lat="49.45104" lon="1.01201">
        <ele>119.59999847412</ele>
        <time>2016-09-25T07:49:00.000Z</time>
      </trkpt>
      <trkpt lat="49.45105" lon="1.01212">
        <ele>119.80000305176</ele>
        <time>2016-09-25T07:49:02.000Z</time>
      </trkpt>
      <trkpt lat="49.45104" lon="1.01237">
        <ele>120.19999694824</ele>
        <time>2016-09-25T07:49:07.000Z</time>
      </trkpt>
      <trkpt lat="49.45104" lon="1.01242">
        <ele>120.19999694824</ele>
        <time>2016-09-25T07:49:08.000Z</time>
      </trkpt>
      <trkpt lat="49.45103" lon="1.01253">
        <ele>120.59999847412</ele>
        <time>2016-09-25T07:49:10.000Z</time>
      </trkpt>
      <trkpt lat="49.45101" lon="1.01269">
        <ele>120.80000305176</ele>
        <time>2016-09-25T07:49:13.000Z</time>
      </trkpt>
      <trkpt lat="49.451" lon="1.0128">
        <ele>121.19999694824</ele>
        <time>2016-09-25T07:49:15.000Z</time>
      </trkpt>
      <trkpt lat="49.451" lon="1.01286">
        <ele>121.19999694824</ele>
        <time>2016-09-25T07:49:16.000Z</time>
      </trkpt>
      <trkpt lat="49.451" lon="1.01323">
        <ele>122.80000305176</ele>
        <time>2016-09-25T07:49:21.000Z</time>
      </trkpt>
      <trkpt lat="49.451" lon="1.01338">
        <ele>123</ele>
        <time>2016-09-25T07:49:23.000Z</time>
      </trkpt>
      <trkpt lat="49.45097" lon="1.01369">
        <ele>123.80000305176</ele>
        <time>2016-09-25T07:49:28.000Z</time>
      </trkpt>
      <trkpt lat="49.45095" lon="1.01381">
        <ele>124.40000152588</ele>
        <time>2016-09-25T07:49:30.000Z</time>
      </trkpt>
      <trkpt lat="49.45093" lon="1.01398">
        <ele>124.80000305176</ele>
        <time>2016-09-25T07:49:33.000Z</time>
      </trkpt>
      <trkpt lat="49.45093" lon="1.01402">
        <ele>124.80000305176</ele>
        <time>2016-09-25T07:49:34.000Z</time>
      </trkpt>
      <trkpt lat="49.45091" lon="1.0141">
        <ele>124.80000305176</ele>
        <time>2016-09-25T07:49:36.000Z</time>
      </trkpt>
      <trkpt lat="49.45085" lon="1.01425">
        <ele>125.19999694824</ele>
        <time>2016-09-25T07:49:40.000Z</time>
      </trkpt>
      <trkpt lat="49.45081" lon="1.01427">
        <ele>125.19999694824</ele>
        <time>2016-09-25T07:49:41.000Z</time>
      </trkpt>
      <trkpt lat="49.45074" lon="1.01429">
        <ele>125.59999847412</ele>
        <time>2016-09-25T07:49:43.000Z</time>
      </trkpt>
      <trkpt lat="49.4507" lon="1.01429">
        <ele>125.59999847412</ele>
        <time>2016-09-25T07:49:44.000Z</time>
      </trkpt>
      <trkpt lat="49.45063" lon="1.01427">
        <ele>126</ele>
        <time>2016-09-25T07:49:46.000Z</time>
      </trkpt>
      <trkpt lat="49.45054" lon="1.01426">
        <ele>126.59999847412</ele>
        <time>2016-09-25T07:49:48.000Z</time>
      </trkpt>
      <trkpt lat="49.45045" lon="1.01423">
        <ele>127</ele>
        <time>2016-09-25T07:49:50.000Z</time>
      </trkpt>
      <trkpt lat="49.45037" lon="1.01421">
        <ele>127.40000152588</ele>
        <time>2016-09-25T07:49:52.000Z</time>
      </trkpt>
      <trkpt lat="49.45023" lon="1.0142">
        <ele>127.80000305176</ele>
        <time>2016-09-25T07:49:55.000Z</time>
      </trkpt>
      <trkpt lat="49.4501" lon="1.01419">
        <ele>128</ele>
        <time>2016-09-25T07:49:58.000Z</time>
      </trkpt>
      <trkpt lat="49.44993" lon="1.01415">
        <ele>128</ele>
        <time>2016-09-25T07:50:02.000Z</time>
      </trkpt>
      <trkpt lat="49.44976" lon="1.01411">
        <ele>128.19999694824</ele>
        <time>2016-09-25T07:50:06.000Z</time>
      </trkpt>
      <trkpt lat="49.44964" lon="1.01408">
        <ele>128.19999694824</ele>
        <time>2016-09-25T07:50:09.000Z</time>
      </trkpt>
      <trkpt lat="49.44947" lon="1.01402">
        <ele>128.19999694824</ele>
        <time>2016-09-25T07:50:13.000Z</time>
      </trkpt>
      <trkpt lat="49.44939" lon="1.01398">
        <ele>127.80000305176</ele>
        <time>2016-09-25T07:50:15.000Z</time>
      </trkpt>
      <trkpt lat="49.44935" lon="1.01397">
        <ele>127.59999847412</ele>
        <time>2016-09-25T07:50:16.000Z</time>
      </trkpt>
      <trkpt lat="49.44924" lon="1.01394">
        <ele>127.19999694824</ele>
        <time>2016-09-25T07:50:19.000Z</time>
      </trkpt>
      <trkpt lat="49.4492" lon="1.01393">
        <ele>127</ele>
        <time>2016-09-25T07:50:20.000Z</time>
      </trkpt>
      <trkpt lat="49.44881" lon="1.01382">
        <ele>125.40000152588</ele>
        <time>2016-09-25T07:50:29.000Z</time>
      </trkpt>
      <trkpt lat="49.44847" lon="1.01371">
        <ele>123.80000305176</ele>
        <time>2016-09-25T07:50:36.000Z</time>
      </trkpt>
      <trkpt lat="49.4482" lon="1.01365">
        <ele>122.40000152588</ele>
        <time>2016-09-25T07:50:42.000Z</time>
      </trkpt>
      <trkpt lat="49.44802" lon="1.01358">
        <ele>121.59999847412</ele>
        <time>2016-09-25T07:50:47.000Z</time>
      </trkpt>
      <trkpt lat="49.44774" lon="1.01349">
        <ele>120.19999694824</ele>
        <time>2016-09-25T07:50:53.000Z</time>
      </trkpt>
      <trkpt lat="49.44753" lon="1.01339">
        <ele>119</ele>
        <time>2016-09-25T07:50:57.000Z</time>
      </trkpt>
      <trkpt lat="49.44729" lon="1.01332">
        <ele>117.59999847412</ele>
        <time>2016-09-25T07:51:01.000Z</time>
      </trkpt>
      <trkpt lat="49.44703" lon="1.01324">
        <ele>116.40000152588</ele>
        <time>2016-09-25T07:51:05.000Z</time>
      </trkpt>
      <trkpt lat="49.44683" lon="1.01318">
        <ele>115</ele>
        <time>2016-09-25T07:51:08.000Z</time>
      </trkpt>
      <trkpt lat="49.44663" lon="1.01312">
        <ele>113.40000152588</ele>
        <time>2016-09-25T07:51:11.000Z</time>
      </trkpt>
      <trkpt lat="49.44636" lon="1.01304">
        <ele>111.40000152588</ele>
        <time>2016-09-25T07:51:15.000Z</time>
      </trkpt>
      <trkpt lat="49.44616" lon="1.01298">
        <ele>110</ele>
        <time>2016-09-25T07:51:18.000Z</time>
      </trkpt>
      <trkpt lat="49.44596" lon="1.0129">
        <ele>107.80000305176</ele>
        <time>2016-09-25T07:51:21.000Z</time>
      </trkpt>
      <trkpt lat="49.44589" lon="1.01287">
        <ele>107</ele>
        <time>2016-09-25T07:51:22.000Z</time>
      </trkpt>
      <trkpt lat="49.44581" lon="1.01285">
        <ele>106.19999694824</ele>
        <time>2016-09-25T07:51:23.000Z</time>
      </trkpt>
      <trkpt lat="49.44566" lon="1.01279">
        <ele>104.40000152588</ele>
        <time>2016-09-25T07:51:25.000Z</time>
      </trkpt>
      <trkpt lat="49.44552" lon="1.01275">
        <ele>102.80000305176</ele>
        <time>2016-09-25T07:51:27.000Z</time>
      </trkpt>
      <trkpt lat="49.44546" lon="1.01274">
        <ele>102</ele>
        <time>2016-09-25T07:51:28.000Z</time>
      </trkpt>
      <trkpt lat="49.44541" lon="1.01273">
        <ele>101.40000152588</ele>
        <time>2016-09-25T07:51:29.000Z</time>
      </trkpt>
      <trkpt lat="49.44536" lon="1.01272">
        <ele>100.80000305176</ele>
        <time>2016-09-25T07:51:30.000Z</time>
      </trkpt>
      <trkpt lat="49.44532" lon="1.01271">
        <ele>100.40000152588</ele>
        <time>2016-09-25T07:51:31.000Z</time>
      </trkpt>
      <trkpt lat="49.44529" lon="1.01271">
        <ele>100.59999847412</ele>
        <time>2016-09-25T07:51:32.000Z</time>
      </trkpt>
      <trkpt lat="49.44527" lon="1.01273">
        <ele>100.80000305176</ele>
        <time>2016-09-25T07:51:33.000Z</time>
      </trkpt>
      <trkpt lat="49.44526" lon="1.01279">
        <ele>100.80000305176</ele>
        <time>2016-09-25T07:51:35.000Z</time>
      </trkpt>
      <trkpt lat="49.44525" lon="1.01281">
        <ele>100.80000305176</ele>
        <time>2016-09-25T07:51:36.000Z</time>
      </trkpt>
      <trkpt lat="49.44521" lon="1.01289">
        <ele>101</ele>
        <time>2016-09-25T07:51:39.000Z</time>
      </trkpt>
      <trkpt lat="49.44519" lon="1.01291">
        <ele>101.19999694824</ele>
        <time>2016-09-25T07:51:40.000Z</time>
      </trkpt>
      <trkpt lat="49.44517" lon="1.01292">
        <ele>101.19999694824</ele>
        <time>2016-09-25T07:51:41.000Z</time>
      </trkpt>
      <trkpt lat="49.44516" lon="1.01291">
        <ele>101.40000152588</ele>
        <time>2016-09-25T07:51:42.000Z</time>
      </trkpt>
      <trkpt lat="49.44517" lon="1.01282">
        <ele>101.40000152588</ele>
        <time>2016-09-25T07:51:44.000Z</time>
      </trkpt>
      <trkpt lat="49.44517" lon="1.01268">
        <ele>101.59999847412</ele>
        <time>2016-09-25T07:51:46.000Z</time>
      </trkpt>
      <trkpt lat="49.44516" lon="1.01253">
        <ele>101.80000305176</ele>
        <time>2016-09-25T07:51:48.000Z</time>
      </trkpt>
      <trkpt lat="49.44512" lon="1.01238">
        <ele>102.40000152588</ele>
        <time>2016-09-25T07:51:50.000Z</time>
      </trkpt>
      <trkpt lat="49.44508" lon="1.01231">
        <ele>102.59999847412</ele>
        <time>2016-09-25T07:51:51.000Z</time>
      </trkpt>
      <trkpt lat="49.44504" lon="1.01225">
        <ele>103</ele>
        <time>2016-09-25T07:51:52.000Z</time>
      </trkpt>
      <trkpt lat="49.44495" lon="1.01212">
        <ele>103.80000305176</ele>
        <time>2016-09-25T07:51:54.000Z</time>
      </trkpt>
      <trkpt lat="49.4449" lon="1.01193">
        <ele>104.40000152588</ele>
        <time>2016-09-25T07:51:56.000Z</time>
      </trkpt>
      <trkpt lat="49.44484" lon="1.01158">
        <ele>104.80000305176</ele>
        <time>2016-09-25T07:51:59.000Z</time>
      </trkpt>
      <trkpt lat="49.44483" lon="1.01145">
        <ele>104.80000305176</ele>
        <time>2016-09-25T07:52:00.000Z</time>
      </trkpt>
      <trkpt lat="49.44479" lon="1.01104">
        <ele>103.80000305176</ele>
        <time>2016-09-25T07:52:04.000Z</time>
      </trkpt>
      <trkpt lat="49.44479" lon="1.01095">
        <ele>103.40000152588</ele>
        <time>2016-09-25T07:52:05.000Z</time>
      </trkpt>
      <trkpt lat="49.4448" lon="1.01088">
        <ele>103</ele>
        <time>2016-09-25T07:52:06.000Z</time>
      </trkpt>
      <trkpt lat="49.44482" lon="1.01078">
        <ele>102.40000152588</ele>
        <time>2016-09-25T07:52:08.000Z</time>
      </trkpt>
      <trkpt lat="49.44484" lon="1.01056">
        <ele>101</ele>
        <time>2016-09-25T07:52:14.000Z</time>
      </trkpt>
      <trkpt lat="49.44489" lon="1.01032">
        <ele>97.800003051758</ele>
        <time>2016-09-25T07:52:22.000Z</time>
      </trkpt>
      <trkpt lat="49.44491" lon="1.01014">
        <ele>96</ele>
        <time>2016-09-25T07:52:28.000Z</time>
      </trkpt>
      <trkpt lat="49.44493" lon="1.00983">
        <ele>95.199996948242</ele>
        <time>2016-09-25T07:52:36.000Z</time>
      </trkpt>
      <trkpt lat="49.44496" lon="1.0096">
        <ele>94.400001525879</ele>
        <time>2016-09-25T07:52:41.000Z</time>
      </trkpt>
      <trkpt lat="49.44499" lon="1.00925">
        <ele>93.800003051758</ele>
        <time>2016-09-25T07:52:47.000Z</time>
      </trkpt>
      <trkpt lat="49.44502" lon="1.00904">
        <ele>94.199996948242</ele>
        <time>2016-09-25T07:52:51.000Z</time>
      </trkpt>
      <trkpt lat="49.44502" lon="1.0088">
        <ele>94.199996948242</ele>
        <time>2016-09-25T07:52:55.000Z</time>
      </trkpt>
      <trkpt lat="49.44502" lon="1.00859">
        <ele>94.199996948242</ele>
        <time>2016-09-25T07:52:59.000Z</time>
      </trkpt>
      <trkpt lat="49.44499" lon="1.00843">
        <ele>94.400001525879</ele>
        <time>2016-09-25T07:53:02.000Z</time>
      </trkpt>
      <trkpt lat="49.44498" lon="1.00831">
        <ele>94.400001525879</ele>
        <time>2016-09-25T07:53:04.000Z</time>
      </trkpt>
      <trkpt lat="49.44499" lon="1.00821">
        <ele>94.599998474121</ele>
        <time>2016-09-25T07:53:06.000Z</time>
      </trkpt>
      <trkpt lat="49.44499" lon="1.00804">
        <ele>94.800003051758</ele>
        <time>2016-09-25T07:53:08.000Z</time>
      </trkpt>
      <trkpt lat="49.44499" lon="1.00778">
        <ele>95.199996948242</ele>
        <time>2016-09-25T07:53:12.000Z</time>
      </trkpt>
      <trkpt lat="49.44497" lon="1.00749">
        <ele>95.400001525879</ele>
        <time>2016-09-25T07:53:16.000Z</time>
      </trkpt>
      <trkpt lat="49.44496" lon="1.00719">
        <ele>95.800003051758</ele>
        <time>2016-09-25T07:53:21.000Z</time>
      </trkpt>
      <trkpt lat="49.44495" lon="1.00707">
        <ele>95.800003051758</ele>
        <time>2016-09-25T07:53:23.000Z</time>
      </trkpt>
      <trkpt lat="49.44494" lon="1.00699">
        <ele>96</ele>
        <time>2016-09-25T07:53:24.000Z</time>
      </trkpt>
      <trkpt lat="49.44492" lon="1.0065">
        <ele>95.599998474121</ele>
        <time>2016-09-25T07:53:31.000Z</time>
      </trkpt>
      <trkpt lat="49.44492" lon="1.00636">
        <ele>95.800003051758</ele>
        <time>2016-09-25T07:53:33.000Z</time>
      </trkpt>
      <trkpt lat="49.44495" lon="1.00606">
        <ele>96.800003051758</ele>
        <time>2016-09-25T07:53:37.000Z</time>
      </trkpt>
      <trkpt lat="49.44498" lon="1.00564">
        <ele>96.800003051758</ele>
        <time>2016-09-25T07:53:42.000Z</time>
      </trkpt>
      <trkpt lat="49.445" lon="1.00547">
        <ele>97</ele>
        <time>2016-09-25T07:53:44.000Z</time>
      </trkpt>
      <trkpt lat="49.445" lon="1.00493">
        <ele>97.599998474121</ele>
        <time>2016-09-25T07:53:50.000Z</time>
      </trkpt>
      <trkpt lat="49.445" lon="1.00429">
        <ele>97.400001525879</ele>
        <time>2016-09-25T07:53:57.000Z</time>
      </trkpt>
      <trkpt lat="49.44498" lon="1.00365">
        <ele>96.800003051758</ele>
        <time>2016-09-25T07:54:04.000Z</time>
      </trkpt>
      <trkpt lat="49.44498" lon="1.00357">
        <ele>96.599998474121</ele>
        <time>2016-09-25T07:54:05.000Z</time>
      </trkpt>
      <trkpt lat="49.44497" lon="1.00304">
        <ele>95.400001525879</ele>
        <time>2016-09-25T07:54:11.000Z</time>
      </trkpt>
      <trkpt lat="49.44494" lon="1.00238">
        <ele>95</ele>
        <time>2016-09-25T07:54:18.000Z</time>
      </trkpt>
      <trkpt lat="49.44493" lon="1.00157">
        <ele>94.199996948242</ele>
        <time>2016-09-25T07:54:26.000Z</time>
      </trkpt>
      <trkpt lat="49.44492" lon="1.00118">
        <ele>93.400001525879</ele>
        <time>2016-09-25T07:54:29.000Z</time>
      </trkpt>
      <trkpt lat="49.44492" lon="1.00095">
        <ele>92.800003051758</ele>
        <time>2016-09-25T07:54:31.000Z</time>
      </trkpt>
      <trkpt lat="49.44492" lon="1.00076">
        <ele>92.400001525879</ele>
        <time>2016-09-25T07:54:33.000Z</time>
      </trkpt>
      <trkpt lat="49.44491" lon="1.00056">
        <ele>92</ele>
        <time>2016-09-25T07:54:35.000Z</time>
      </trkpt>
      <trkpt lat="49.44491" lon="1.00004">
        <ele>90.800003051758</ele>
        <time>2016-09-25T07:54:40.000Z</time>
      </trkpt>
      <trkpt lat="49.44491" lon="0.99985">
        <ele>90.599998474121</ele>
        <time>2016-09-25T07:54:42.000Z</time>
      </trkpt>
      <trkpt lat="49.44491" lon="0.99976">
        <ele>90.599998474121</ele>
        <time>2016-09-25T07:54:43.000Z</time>
      </trkpt>
      <trkpt lat="49.44491" lon="0.99958">
        <ele>90</ele>
        <time>2016-09-25T07:54:45.000Z</time>
      </trkpt>
      <trkpt lat="49.44491" lon="0.99949">
        <ele>89.800003051758</ele>
        <time>2016-09-25T07:54:46.000Z</time>
      </trkpt>
      <trkpt lat="49.44492" lon="0.99906">
        <ele>89.199996948242</ele>
        <time>2016-09-25T07:54:51.000Z</time>
      </trkpt>
      <trkpt lat="49.44492" lon="0.99844">
        <ele>88.400001525879</ele>
        <time>2016-09-25T07:54:58.000Z</time>
      </trkpt>
      <trkpt lat="49.44491" lon="0.99773">
        <ele>88.400001525879</ele>
        <time>2016-09-25T07:55:07.000Z</time>
      </trkpt>
      <trkpt lat="49.4449" lon="0.99733">
        <ele>88.599998474121</ele>
        <time>2016-09-25T07:55:12.000Z</time>
      </trkpt>
      <trkpt lat="49.4449" lon="0.99724">
        <ele>88.400001525879</ele>
        <time>2016-09-25T07:55:13.000Z</time>
      </trkpt>
      <trkpt lat="49.44487" lon="0.99671">
        <ele>87.400001525879</ele>
        <time>2016-09-25T07:55:19.000Z</time>
      </trkpt>
      <trkpt lat="49.44487" lon="0.99629">
        <ele>87</ele>
        <time>2016-09-25T07:55:24.000Z</time>
      </trkpt>
      <trkpt lat="49.44487" lon="0.9961">
        <ele>86.400001525879</ele>
        <time>2016-09-25T07:55:26.000Z</time>
      </trkpt>
      <trkpt lat="49.44487" lon="0.99562">
        <ele>85</ele>
        <time>2016-09-25T07:55:31.000Z</time>
      </trkpt>
      <trkpt lat="49.44487" lon="0.99545">
        <ele>85.199996948242</ele>
        <time>2016-09-25T07:55:33.000Z</time>
      </trkpt>
      <trkpt lat="49.44487" lon="0.99514">
        <ele>86</ele>
        <time>2016-09-25T07:55:37.000Z</time>
      </trkpt>
      <trkpt lat="49.44487" lon="0.99503">
        <ele>86.199996948242</ele>
        <time>2016-09-25T07:55:39.000Z</time>
      </trkpt>
      <trkpt lat="49.44484" lon="0.99477">
        <ele>86.400001525879</ele>
        <time>2016-09-25T07:55:44.000Z</time>
      </trkpt>
      <trkpt lat="49.44479" lon="0.99474">
        <ele>86.400001525879</ele>
        <time>2016-09-25T07:55:46.000Z</time>
      </trkpt>
      <trkpt lat="49.44476" lon="0.99473">
        <ele>86.400001525879</ele>
        <time>2016-09-25T07:55:47.000Z</time>
      </trkpt>
      <trkpt lat="49.44468" lon="0.99474">
        <ele>86.199996948242</ele>
        <time>2016-09-25T07:55:49.000Z</time>
      </trkpt>
      <trkpt lat="49.44464" lon="0.99475">
        <ele>86.199996948242</ele>
        <time>2016-09-25T07:55:50.000Z</time>
      </trkpt>
      <trkpt lat="49.4445" lon="0.99479">
        <ele>86</ele>
        <time>2016-09-25T07:55:53.000Z</time>
      </trkpt>
      <trkpt lat="49.44422" lon="0.99487">
        <ele>86</ele>
        <time>2016-09-25T07:56:00.000Z</time>
      </trkpt>
      <trkpt lat="49.44404" lon="0.99493">
        <ele>86.199996948242</ele>
        <time>2016-09-25T07:56:05.000Z</time>
      </trkpt>
      <trkpt lat="49.4439" lon="0.99498">
        <ele>86.199996948242</ele>
        <time>2016-09-25T07:56:09.000Z</time>
      </trkpt>
      <trkpt lat="49.4436" lon="0.9951">
        <ele>86.599998474121</ele>
        <time>2016-09-25T07:56:17.000Z</time>
      </trkpt>
      <trkpt lat="49.44356" lon="0.99511">
        <ele>86.400001525879</ele>
        <time>2016-09-25T07:56:18.000Z</time>
      </trkpt>
      <trkpt lat="49.44331" lon="0.99517">
        <ele>85</ele>
        <time>2016-09-25T07:56:24.000Z</time>
      </trkpt>
      <trkpt lat="49.44322" lon="0.9952">
        <ele>84.599998474121</ele>
        <time>2016-09-25T07:56:26.000Z</time>
      </trkpt>
      <trkpt lat="49.44295" lon="0.99529">
        <ele>84.199996948242</ele>
        <time>2016-09-25T07:56:33.000Z</time>
      </trkpt>
      <trkpt lat="49.44268" lon="0.99538">
        <ele>84.599998474121</ele>
        <time>2016-09-25T07:56:39.000Z</time>
      </trkpt>
      <trkpt lat="49.44264" lon="0.99539">
        <ele>84.800003051758</ele>
        <time>2016-09-25T07:56:40.000Z</time>
      </trkpt>
      <trkpt lat="49.44253" lon="0.99542">
        <ele>85.199996948242</ele>
        <time>2016-09-25T07:56:44.000Z</time>
      </trkpt>
      <trkpt lat="49.44245" lon="0.99539">
        <ele>85.199996948242</ele>
        <time>2016-09-25T07:56:47.000Z</time>
      </trkpt>
      <trkpt lat="49.44243" lon="0.99536">
        <ele>85.199996948242</ele>
        <time>2016-09-25T07:56:48.000Z</time>
      </trkpt>
      <trkpt lat="49.44241" lon="0.9952">
        <ele>84.599998474121</ele>
        <time>2016-09-25T07:56:51.000Z</time>
      </trkpt>
      <trkpt lat="49.44242" lon="0.99513">
        <ele>84.400001525879</ele>
        <time>2016-09-25T07:56:52.000Z</time>
      </trkpt>
      <trkpt lat="49.44243" lon="0.99489">
        <ele>83.400001525879</ele>
        <time>2016-09-25T07:56:55.000Z</time>
      </trkpt>
      <trkpt lat="49.44244" lon="0.99471">
        <ele>82.800003051758</ele>
        <time>2016-09-25T07:56:57.000Z</time>
      </trkpt>
      <trkpt lat="49.44244" lon="0.99462">
        <ele>82.800003051758</ele>
        <time>2016-09-25T07:56:58.000Z</time>
      </trkpt>
      <trkpt lat="49.44243" lon="0.99424">
        <ele>82.599998474121</ele>
        <time>2016-09-25T07:57:03.000Z</time>
      </trkpt>
      <trkpt lat="49.44241" lon="0.9941">
        <ele>82.800003051758</ele>
        <time>2016-09-25T07:57:05.000Z</time>
      </trkpt>
      <trkpt lat="49.4424" lon="0.99378">
        <ele>83</ele>
        <time>2016-09-25T07:57:10.000Z</time>
      </trkpt>
      <trkpt lat="49.4424" lon="0.99364">
        <ele>83</ele>
        <time>2016-09-25T07:57:12.000Z</time>
      </trkpt>
      <trkpt lat="49.44241" lon="0.9933">
        <ele>83.400001525879</ele>
        <time>2016-09-25T07:57:17.000Z</time>
      </trkpt>
      <trkpt lat="49.44242" lon="0.99297">
        <ele>84</ele>
        <time>2016-09-25T07:57:22.000Z</time>
      </trkpt>
      <trkpt lat="49.44243" lon="0.99279">
        <ele>84</ele>
        <time>2016-09-25T07:57:25.000Z</time>
      </trkpt>
      <trkpt lat="49.44243" lon="0.99273">
        <ele>84</ele>
        <time>2016-09-25T07:57:26.000Z</time>
      </trkpt>
      <trkpt lat="49.44243" lon="0.99249">
        <ele>84</ele>
        <time>2016-09-25T07:57:30.000Z</time>
      </trkpt>
      <trkpt lat="49.44243" lon="0.99237">
        <ele>84</ele>
        <time>2016-09-25T07:57:32.000Z</time>
      </trkpt>
      <trkpt lat="49.44244" lon="0.99225">
        <ele>84</ele>
        <time>2016-09-25T07:57:34.000Z</time>
      </trkpt>
      <trkpt lat="49.44243" lon="0.99187">
        <ele>83.599998474121</ele>
        <time>2016-09-25T07:57:40.000Z</time>
      </trkpt>
      <trkpt lat="49.44242" lon="0.99133">
        <ele>83</ele>
        <time>2016-09-25T07:57:47.000Z</time>
      </trkpt>
      <trkpt lat="49.44236" lon="0.99107">
        <ele>82.800003051758</ele>
        <time>2016-09-25T07:57:51.000Z</time>
      </trkpt>
      <trkpt lat="49.44217" lon="0.99096">
        <ele>82.400001525879</ele>
        <time>2016-09-25T07:57:55.000Z</time>
      </trkpt>
      <trkpt lat="49.4421" lon="0.99093">
        <ele>82.199996948242</ele>
        <time>2016-09-25T07:57:56.000Z</time>
      </trkpt>
      <trkpt lat="49.44191" lon="0.99086">
        <ele>82.199996948242</ele>
        <time>2016-09-25T07:57:59.000Z</time>
      </trkpt>
      <trkpt lat="49.44186" lon="0.99084">
        <ele>82.400001525879</ele>
        <time>2016-09-25T07:58:00.000Z</time>
      </trkpt>
      <trkpt lat="49.44175" lon="0.99081">
        <ele>82.599998474121</ele>
        <time>2016-09-25T07:58:02.000Z</time>
      </trkpt>
      <trkpt lat="49.4416" lon="0.99077">
        <ele>83</ele>
        <time>2016-09-25T07:58:05.000Z</time>
      </trkpt>
      <trkpt lat="49.4415" lon="0.99074">
        <ele>83.199996948242</ele>
        <time>2016-09-25T07:58:07.000Z</time>
      </trkpt>
      <trkpt lat="49.4414" lon="0.99072">
        <ele>83.400001525879</ele>
        <time>2016-09-25T07:58:09.000Z</time>
      </trkpt>
      <trkpt lat="49.44127" lon="0.99068">
        <ele>83.800003051758</ele>
        <time>2016-09-25T07:58:12.000Z</time>
      </trkpt>
      <trkpt lat="49.44118" lon="0.99066">
        <ele>84</ele>
        <time>2016-09-25T07:58:14.000Z</time>
      </trkpt>
      <trkpt lat="49.44107" lon="0.99061">
        <ele>84.199996948242</ele>
        <time>2016-09-25T07:58:17.000Z</time>
      </trkpt>
      <trkpt lat="49.44088" lon="0.99053">
        <ele>84.199996948242</ele>
        <time>2016-09-25T07:58:22.000Z</time>
      </trkpt>
      <trkpt lat="49.44072" lon="0.99046">
        <ele>84</ele>
        <time>2016-09-25T07:58:26.000Z</time>
      </trkpt>
      <trkpt lat="49.44059" lon="0.99041">
        <ele>84</ele>
        <time>2016-09-25T07:58:29.000Z</time>
      </trkpt>
      <trkpt lat="49.44035" lon="0.99035">
        <ele>84.199996948242</ele>
        <time>2016-09-25T07:58:33.000Z</time>
      </trkpt>
      <trkpt lat="49.44025" lon="0.99033">
        <ele>84.199996948242</ele>
        <time>2016-09-25T07:58:35.000Z</time>
      </trkpt>
      <trkpt lat="49.44013" lon="0.9903">
        <ele>84.400001525879</ele>
        <time>2016-09-25T07:58:38.000Z</time>
      </trkpt>
      <trkpt lat="49.44006" lon="0.99027">
        <ele>84.599998474121</ele>
        <time>2016-09-25T07:58:40.000Z</time>
      </trkpt>
      <trkpt lat="49.43994" lon="0.99021">
        <ele>84.599998474121</ele>
        <time>2016-09-25T07:58:43.000Z</time>
      </trkpt>
      <trkpt lat="49.43983" lon="0.99017">
        <ele>84.599998474121</ele>
        <time>2016-09-25T07:58:46.000Z</time>
      </trkpt>
      <trkpt lat="49.43978" lon="0.99016">
        <ele>84.400001525879</ele>
        <time>2016-09-25T07:58:47.000Z</time>
      </trkpt>
      <trkpt lat="49.4396" lon="0.99013">
        <ele>84.400001525879</ele>
        <time>2016-09-25T07:58:51.000Z</time>
      </trkpt>
      <trkpt lat="49.43947" lon="0.99009">
        <ele>84.400001525879</ele>
        <time>2016-09-25T07:58:54.000Z</time>
      </trkpt>
      <trkpt lat="49.43924" lon="0.99002">
        <ele>84.599998474121</ele>
        <time>2016-09-25T07:58:59.000Z</time>
      </trkpt>
      <trkpt lat="49.43912" lon="0.99">
        <ele>84.800003051758</ele>
        <time>2016-09-25T07:59:01.000Z</time>
      </trkpt>
      <trkpt lat="49.43878" lon="0.98994">
        <ele>85</ele>
        <time>2016-09-25T07:59:07.000Z</time>
      </trkpt>
      <trkpt lat="49.43873" lon="0.98994">
        <ele>85</ele>
        <time>2016-09-25T07:59:08.000Z</time>
      </trkpt>
      <trkpt lat="49.43864" lon="0.98992">
        <ele>85</ele>
        <time>2016-09-25T07:59:10.000Z</time>
      </trkpt>
      <trkpt lat="49.43847" lon="0.98987">
        <ele>84.599998474121</ele>
        <time>2016-09-25T07:59:13.000Z</time>
      </trkpt>
      <trkpt lat="49.43841" lon="0.98985">
        <ele>84.400001525879</ele>
        <time>2016-09-25T07:59:14.000Z</time>
      </trkpt>
      <trkpt lat="49.43829" lon="0.98982">
        <ele>84.199996948242</ele>
        <time>2016-09-25T07:59:16.000Z</time>
      </trkpt>
      <trkpt lat="49.43817" lon="0.98979">
        <ele>83.800003051758</ele>
        <time>2016-09-25T07:59:18.000Z</time>
      </trkpt>
      <trkpt lat="49.43805" lon="0.98975">
        <ele>83.599998474121</ele>
        <time>2016-09-25T07:59:20.000Z</time>
      </trkpt>
      <trkpt lat="49.43788" lon="0.98969">
        <ele>83.199996948242</ele>
        <time>2016-09-25T07:59:23.000Z</time>
      </trkpt>
      <trkpt lat="49.43772" lon="0.98964">
        <ele>82</ele>
        <time>2016-09-25T07:59:26.000Z</time>
      </trkpt>
      <trkpt lat="49.4375" lon="0.98957">
        <ele>81</ele>
        <time>2016-09-25T07:59:30.000Z</time>
      </trkpt>
      <trkpt lat="49.4374" lon="0.98954">
        <ele>80.400001525879</ele>
        <time>2016-09-25T07:59:32.000Z</time>
      </trkpt>
      <trkpt lat="49.43723" lon="0.98947">
        <ele>79.599998474121</ele>
        <time>2016-09-25T07:59:35.000Z</time>
      </trkpt>
      <trkpt lat="49.437" lon="0.98938">
        <ele>78.400001525879</ele>
        <time>2016-09-25T07:59:39.000Z</time>
      </trkpt>
      <trkpt lat="49.43695" lon="0.98936">
        <ele>78</ele>
        <time>2016-09-25T07:59:40.000Z</time>
      </trkpt>
      <trkpt lat="49.43682" lon="0.98931">
        <ele>77</ele>
        <time>2016-09-25T07:59:42.000Z</time>
      </trkpt>
      <trkpt lat="49.43657" lon="0.98916">
        <ele>74.800003051758</ele>
        <time>2016-09-25T07:59:46.000Z</time>
      </trkpt>
      <trkpt lat="49.43615" lon="0.98901">
        <ele>71.800003051758</ele>
        <time>2016-09-25T07:59:51.000Z</time>
      </trkpt>
      <trkpt lat="49.43559" lon="0.98885">
        <ele>68</ele>
        <time>2016-09-25T07:59:57.000Z</time>
      </trkpt>
      <trkpt lat="49.43529" lon="0.98877">
        <ele>66.199996948242</ele>
        <time>2016-09-25T08:00:01.000Z</time>
      </trkpt>
      <trkpt lat="49.43505" lon="0.98869">
        <ele>64</ele>
        <time>2016-09-25T08:00:04.000Z</time>
      </trkpt>
      <trkpt lat="49.43497" lon="0.98866">
        <ele>63.200000762939</ele>
        <time>2016-09-25T08:00:05.000Z</time>
      </trkpt>
      <trkpt lat="49.4346" lon="0.9885">
        <ele>59.200000762939</ele>
        <time>2016-09-25T08:00:10.000Z</time>
      </trkpt>
      <trkpt lat="49.43433" lon="0.98837">
        <ele>57.599998474121</ele>
        <time>2016-09-25T08:00:14.000Z</time>
      </trkpt>
      <trkpt lat="49.43415" lon="0.98829">
        <ele>57.200000762939</ele>
        <time>2016-09-25T08:00:18.000Z</time>
      </trkpt>
      <trkpt lat="49.43405" lon="0.98826">
        <ele>57</ele>
        <time>2016-09-25T08:00:20.000Z</time>
      </trkpt>
      <trkpt lat="49.4339" lon="0.98825">
        <ele>56.599998474121</ele>
        <time>2016-09-25T08:00:23.000Z</time>
      </trkpt>
      <trkpt lat="49.43385" lon="0.98825">
        <ele>56.400001525879</ele>
        <time>2016-09-25T08:00:24.000Z</time>
      </trkpt>
      <trkpt lat="49.4335" lon="0.98819">
        <ele>56</ele>
        <time>2016-09-25T08:00:30.000Z</time>
      </trkpt>
      <trkpt lat="49.43306" lon="0.98804">
        <ele>56.200000762939</ele>
        <time>2016-09-25T08:00:35.000Z</time>
      </trkpt>
      <trkpt lat="49.43295" lon="0.98802">
        <ele>56.200000762939</ele>
        <time>2016-09-25T08:00:36.000Z</time>
      </trkpt>
      <trkpt lat="49.43268" lon="0.98795">
        <ele>56.799999237061</ele>
        <time>2016-09-25T08:00:39.000Z</time>
      </trkpt>
      <trkpt lat="49.43243" lon="0.98788">
        <ele>57.799999237061</ele>
        <time>2016-09-25T08:00:42.000Z</time>
      </trkpt>
      <trkpt lat="49.43216" lon="0.98782">
        <ele>59.200000762939</ele>
        <time>2016-09-25T08:00:46.000Z</time>
      </trkpt>
      <trkpt lat="49.43211" lon="0.98783">
        <ele>59.400001525879</ele>
        <time>2016-09-25T08:00:47.000Z</time>
      </trkpt>
      <trkpt lat="49.432" lon="0.98799">
        <ele>60</ele>
        <time>2016-09-25T08:00:50.000Z</time>
      </trkpt>
      <trkpt lat="49.43197" lon="0.98805">
        <ele>60</ele>
        <time>2016-09-25T08:00:51.000Z</time>
      </trkpt>
      <trkpt lat="49.43188" lon="0.9882">
        <ele>61.799999237061</ele>
        <time>2016-09-25T08:00:54.000Z</time>
      </trkpt>
      <trkpt lat="49.43184" lon="0.98823">
        <ele>62.200000762939</ele>
        <time>2016-09-25T08:00:55.000Z</time>
      </trkpt>
      <trkpt lat="49.43166" lon="0.98823">
        <ele>62.799999237061</ele>
        <time>2016-09-25T08:00:59.000Z</time>
      </trkpt>
      <trkpt lat="49.43155" lon="0.98821">
        <ele>62.599998474121</ele>
        <time>2016-09-25T08:01:01.000Z</time>
      </trkpt>
      <trkpt lat="49.43121" lon="0.98809">
        <ele>62</ele>
        <time>2016-09-25T08:01:06.000Z</time>
      </trkpt>
      <trkpt lat="49.4309" lon="0.98791">
        <ele>62.599998474121</ele>
        <time>2016-09-25T08:01:11.000Z</time>
      </trkpt>
      <trkpt lat="49.43066" lon="0.98781">
        <ele>63.799999237061</ele>
        <time>2016-09-25T08:01:16.000Z</time>
      </trkpt>
      <trkpt lat="49.43052" lon="0.98773">
        <ele>64.199996948242</ele>
        <time>2016-09-25T08:01:21.000Z</time>
      </trkpt>
      <trkpt lat="49.43037" lon="0.98769">
        <ele>65.400001525879</ele>
        <time>2016-09-25T08:01:27.000Z</time>
      </trkpt>
      <trkpt lat="49.43017" lon="0.98759">
        <ele>64.199996948242</ele>
        <time>2016-09-25T08:01:34.000Z</time>
      </trkpt>
      <trkpt lat="49.43014" lon="0.98758">
        <ele>64</ele>
        <time>2016-09-25T08:01:35.000Z</time>
      </trkpt>
      <trkpt lat="49.42996" lon="0.98746">
        <ele>62</ele>
        <time>2016-09-25T08:01:41.000Z</time>
      </trkpt>
      <trkpt lat="49.42976" lon="0.98728">
        <ele>59.400001525879</ele>
        <time>2016-09-25T08:01:47.000Z</time>
      </trkpt>
      <trkpt lat="49.42969" lon="0.98725">
        <ele>58.799999237061</ele>
        <time>2016-09-25T08:01:48.000Z</time>
      </trkpt>
      <trkpt lat="49.42954" lon="0.98718">
        <ele>57.799999237061</ele>
        <time>2016-09-25T08:01:50.000Z</time>
      </trkpt>
      <trkpt lat="49.42938" lon="0.9871">
        <ele>57.200000762939</ele>
        <time>2016-09-25T08:01:52.000Z</time>
      </trkpt>
      <trkpt lat="49.42925" lon="0.98706">
        <ele>57.400001525879</ele>
        <time>2016-09-25T08:01:54.000Z</time>
      </trkpt>
      <trkpt lat="49.42921" lon="0.98708">
        <ele>58</ele>
        <time>2016-09-25T08:01:55.000Z</time>
      </trkpt>
      <trkpt lat="49.42916" lon="0.98711">
        <ele>58.799999237061</ele>
        <time>2016-09-25T08:01:56.000Z</time>
      </trkpt>
      <trkpt lat="49.42908" lon="0.98725">
        <ele>61.400001525879</ele>
        <time>2016-09-25T08:01:59.000Z</time>
      </trkpt>
      <trkpt lat="49.42906" lon="0.98735">
        <ele>62.200000762939</ele>
        <time>2016-09-25T08:02:01.000Z</time>
      </trkpt>
      <trkpt lat="49.42903" lon="0.98747">
        <ele>63.200000762939</ele>
        <time>2016-09-25T08:02:04.000Z</time>
      </trkpt>
      <trkpt lat="49.42902" lon="0.98754">
        <ele>63.799999237061</ele>
        <time>2016-09-25T08:02:06.000Z</time>
      </trkpt>
      <trkpt lat="49.42899" lon="0.98769">
        <ele>65</ele>
        <time>2016-09-25T08:02:10.000Z</time>
      </trkpt>
      <trkpt lat="49.42899" lon="0.98777">
        <ele>65.800003051758</ele>
        <time>2016-09-25T08:02:12.000Z</time>
      </trkpt>
      <trkpt lat="49.42894" lon="0.98809">
        <ele>69</ele>
        <time>2016-09-25T08:02:18.000Z</time>
      </trkpt>
      <trkpt lat="49.42894" lon="0.98814">
        <ele>69.599998474121</ele>
        <time>2016-09-25T08:02:19.000Z</time>
      </trkpt>
      <trkpt lat="49.42891" lon="0.98838">
        <ele>72.199996948242</ele>
        <time>2016-09-25T08:02:23.000Z</time>
      </trkpt>
      <trkpt lat="49.42889" lon="0.98856">
        <ele>72.800003051758</ele>
        <time>2016-09-25T08:02:26.000Z</time>
      </trkpt>
      <trkpt lat="49.42888" lon="0.98862">
        <ele>73.199996948242</ele>
        <time>2016-09-25T08:02:27.000Z</time>
      </trkpt>
      <trkpt lat="49.42885" lon="0.98881">
        <ele>73.800003051758</ele>
        <time>2016-09-25T08:02:30.000Z</time>
      </trkpt>
      <trkpt lat="49.4288" lon="0.98904">
        <ele>75.400001525879</ele>
        <time>2016-09-25T08:02:34.000Z</time>
      </trkpt>
      <trkpt lat="49.42879" lon="0.98909">
        <ele>75.400001525879</ele>
        <time>2016-09-25T08:02:35.000Z</time>
      </trkpt>
      <trkpt lat="49.42873" lon="0.98931">
        <ele>74.800003051758</ele>
        <time>2016-09-25T08:02:39.000Z</time>
      </trkpt>
      <trkpt lat="49.42867" lon="0.98952">
        <ele>74.400001525879</ele>
        <time>2016-09-25T08:02:43.000Z</time>
      </trkpt>
      <trkpt lat="49.42865" lon="0.98958">
        <ele>74.199996948242</ele>
        <time>2016-09-25T08:02:44.000Z</time>
      </trkpt>
      <trkpt lat="49.42861" lon="0.98973">
        <ele>74.400001525879</ele>
        <time>2016-09-25T08:02:47.000Z</time>
      </trkpt>
      <trkpt lat="49.42852" lon="0.98998">
        <ele>76.199996948242</ele>
        <time>2016-09-25T08:02:53.000Z</time>
      </trkpt>
      <trkpt lat="49.42848" lon="0.99011">
        <ele>77</ele>
        <time>2016-09-25T08:02:56.000Z</time>
      </trkpt>
      <trkpt lat="49.42843" lon="0.99019">
        <ele>77.800003051758</ele>
        <time>2016-09-25T08:02:58.000Z</time>
      </trkpt>
      <trkpt lat="49.4284" lon="0.99025">
        <ele>78.199996948242</ele>
        <time>2016-09-25T08:03:00.000Z</time>
      </trkpt>
      <trkpt lat="49.42837" lon="0.99028">
        <ele>78.599998474121</ele>
        <time>2016-09-25T08:03:01.000Z</time>
      </trkpt>
      <trkpt lat="49.42833" lon="0.99035">
        <ele>79</ele>
        <time>2016-09-25T08:03:03.000Z</time>
      </trkpt>
      <trkpt lat="49.42828" lon="0.99041">
        <ele>79.199996948242</ele>
        <time>2016-09-25T08:03:05.000Z</time>
      </trkpt>
      <trkpt lat="49.42823" lon="0.99052">
        <ele>79.599998474121</ele>
        <time>2016-09-25T08:03:08.000Z</time>
      </trkpt>
      <trkpt lat="49.4281" lon="0.9908">
        <ele>83</ele>
        <time>2016-09-25T08:03:16.000Z</time>
      </trkpt>
      <trkpt lat="49.42799" lon="0.99103">
        <ele>83.400001525879</ele>
        <time>2016-09-25T08:03:22.000Z</time>
      </trkpt>
      <trkpt lat="49.42791" lon="0.9912">
        <ele>83.199996948242</ele>
        <time>2016-09-25T08:03:27.000Z</time>
      </trkpt>
      <trkpt lat="49.42788" lon="0.99126">
        <ele>83</ele>
        <time>2016-09-25T08:03:29.000Z</time>
      </trkpt>
      <trkpt lat="49.42781" lon="0.99146">
        <ele>83.400001525879</ele>
        <time>2016-09-25T08:03:34.000Z</time>
      </trkpt>
      <trkpt lat="49.42779" lon="0.9915">
        <ele>83.800003051758</ele>
        <time>2016-09-25T08:03:35.000Z</time>
      </trkpt>
      <trkpt lat="49.42771" lon="0.99182">
        <ele>85.800003051758</ele>
        <time>2016-09-25T08:03:42.000Z</time>
      </trkpt>
      <trkpt lat="49.4277" lon="0.99187">
        <ele>86.199996948242</ele>
        <time>2016-09-25T08:03:43.000Z</time>
      </trkpt>
      <trkpt lat="49.42759" lon="0.99223">
        <ele>88.800003051758</ele>
        <time>2016-09-25T08:03:50.000Z</time>
      </trkpt>
      <trkpt lat="49.42753" lon="0.99242">
        <ele>90.199996948242</ele>
        <time>2016-09-25T08:03:54.000Z</time>
      </trkpt>
      <trkpt lat="49.42749" lon="0.99255">
        <ele>91</ele>
        <time>2016-09-25T08:03:57.000Z</time>
      </trkpt>
      <trkpt lat="49.42747" lon="0.99259">
        <ele>91.199996948242</ele>
        <time>2016-09-25T08:03:58.000Z</time>
      </trkpt>
      <trkpt lat="49.42746" lon="0.99263">
        <ele>91.599998474121</ele>
        <time>2016-09-25T08:03:59.000Z</time>
      </trkpt>
      <trkpt lat="49.42742" lon="0.99279">
        <ele>91.599998474121</ele>
        <time>2016-09-25T08:04:02.000Z</time>
      </trkpt>
      <trkpt lat="49.42735" lon="0.99302">
        <ele>90.800003051758</ele>
        <time>2016-09-25T08:04:06.000Z</time>
      </trkpt>
      <trkpt lat="49.42734" lon="0.99306">
        <ele>90.800003051758</ele>
        <time>2016-09-25T08:04:07.000Z</time>
      </trkpt>
      <trkpt lat="49.42724" lon="0.9934">
        <ele>92.400001525879</ele>
        <time>2016-09-25T08:04:13.000Z</time>
      </trkpt>
      <trkpt lat="49.42718" lon="0.99359">
        <ele>92</ele>
        <time>2016-09-25T08:04:17.000Z</time>
      </trkpt>
      <trkpt lat="49.4271" lon="0.99384">
        <ele>91.800003051758</ele>
        <time>2016-09-25T08:04:23.000Z</time>
      </trkpt>
      <trkpt lat="49.42708" lon="0.99392">
        <ele>91.800003051758</ele>
        <time>2016-09-25T08:04:25.000Z</time>
      </trkpt>
      <trkpt lat="49.42701" lon="0.99411">
        <ele>91.800003051758</ele>
        <time>2016-09-25T08:04:29.000Z</time>
      </trkpt>
      <trkpt lat="49.42698" lon="0.99425">
        <ele>91.800003051758</ele>
        <time>2016-09-25T08:04:32.000Z</time>
      </trkpt>
      <trkpt lat="49.42692" lon="0.99444">
        <ele>92.599998474121</ele>
        <time>2016-09-25T08:04:36.000Z</time>
      </trkpt>
      <trkpt lat="49.42685" lon="0.9947">
        <ele>93.800003051758</ele>
        <time>2016-09-25T08:04:42.000Z</time>
      </trkpt>
      <trkpt lat="49.42682" lon="0.99478">
        <ele>94</ele>
        <time>2016-09-25T08:04:44.000Z</time>
      </trkpt>
      <trkpt lat="49.42675" lon="0.99502">
        <ele>95.599998474121</ele>
        <time>2016-09-25T08:04:49.000Z</time>
      </trkpt>
      <trkpt lat="49.42666" lon="0.99537">
        <ele>96.599998474121</ele>
        <time>2016-09-25T08:04:57.000Z</time>
      </trkpt>
      <trkpt lat="49.42662" lon="0.99552">
        <ele>96</ele>
        <time>2016-09-25T08:05:00.000Z</time>
      </trkpt>
      <trkpt lat="49.42655" lon="0.99573">
        <ele>96.800003051758</ele>
        <time>2016-09-25T08:05:05.000Z</time>
      </trkpt>
      <trkpt lat="49.42651" lon="0.99586">
        <ele>97.599998474121</ele>
        <time>2016-09-25T08:05:08.000Z</time>
      </trkpt>
      <trkpt lat="49.42647" lon="0.99599">
        <ele>97.800003051758</ele>
        <time>2016-09-25T08:05:11.000Z</time>
      </trkpt>
      <trkpt lat="49.4264" lon="0.99624">
        <ele>97</ele>
        <time>2016-09-25T08:05:17.000Z</time>
      </trkpt>
      <trkpt lat="49.42635" lon="0.99636">
        <ele>96.800003051758</ele>
        <time>2016-09-25T08:05:20.000Z</time>
      </trkpt>
      <trkpt lat="49.42626" lon="0.99657">
        <ele>97.400001525879</ele>
        <time>2016-09-25T08:05:25.000Z</time>
      </trkpt>
      <trkpt lat="49.42622" lon="0.99669">
        <ele>96.400001525879</ele>
        <time>2016-09-25T08:05:28.000Z</time>
      </trkpt>
      <trkpt lat="49.42615" lon="0.99685">
        <ele>95</ele>
        <time>2016-09-25T08:05:32.000Z</time>
      </trkpt>
      <trkpt lat="49.42612" lon="0.99693">
        <ele>95</ele>
        <time>2016-09-25T08:05:34.000Z</time>
      </trkpt>
      <trkpt lat="49.42601" lon="0.99717">
        <ele>95.400001525879</ele>
        <time>2016-09-25T08:05:42.000Z</time>
      </trkpt>
      <trkpt lat="49.426" lon="0.99717">
        <ele>95.400001525879</ele>
        <time>2016-09-25T08:05:43.000Z</time>
      </trkpt>
      <trkpt lat="49.42599" lon="0.99715">
        <ele>95.800003051758</ele>
        <time>2016-09-25T08:05:44.000Z</time>
      </trkpt>
      <trkpt lat="49.42596" lon="0.99712">
        <ele>96.199996948242</ele>
        <time>2016-09-25T08:05:46.000Z</time>
      </trkpt>
      <trkpt lat="49.42592" lon="0.99707">
        <ele>97.400001525879</ele>
        <time>2016-09-25T08:05:50.000Z</time>
      </trkpt>
      <trkpt lat="49.42587" lon="0.99704">
        <ele>98.199996948242</ele>
        <time>2016-09-25T08:05:54.000Z</time>
      </trkpt>
      <trkpt lat="49.42585" lon="0.99704">
        <ele>98.199996948242</ele>
        <time>2016-09-25T08:05:55.000Z</time>
      </trkpt>
      <trkpt lat="49.42582" lon="0.99704">
        <ele>98.599998474121</ele>
        <time>2016-09-25T08:05:58.000Z</time>
      </trkpt>
      <trkpt lat="49.42578" lon="0.99702">
        <ele>99.199996948242</ele>
        <time>2016-09-25T08:06:01.000Z</time>
      </trkpt>
      <trkpt lat="49.42576" lon="0.99701">
        <ele>99.599998474121</ele>
        <time>2016-09-25T08:06:03.000Z</time>
      </trkpt>
      <trkpt lat="49.42573" lon="0.997">
        <ele>100</ele>
        <time>2016-09-25T08:06:05.000Z</time>
      </trkpt>
      <trkpt lat="49.42566" lon="0.99696">
        <ele>101.19999694824</ele>
        <time>2016-09-25T08:06:09.000Z</time>
      </trkpt>
      <trkpt lat="49.42562" lon="0.99694">
        <ele>101.80000305176</ele>
        <time>2016-09-25T08:06:12.000Z</time>
      </trkpt>
      <trkpt lat="49.42561" lon="0.99694">
        <ele>102</ele>
        <time>2016-09-25T08:06:13.000Z</time>
      </trkpt>
      <trkpt lat="49.42555" lon="0.99695">
        <ele>102.40000152588</ele>
        <time>2016-09-25T08:06:18.000Z</time>
      </trkpt>
      <trkpt lat="49.42551" lon="0.99693">
        <ele>103</ele>
        <time>2016-09-25T08:06:21.000Z</time>
      </trkpt>
      <trkpt lat="49.4255" lon="0.99692">
        <ele>103.19999694824</ele>
        <time>2016-09-25T08:06:22.000Z</time>
      </trkpt>
      <trkpt lat="49.42543" lon="0.99676">
        <ele>105.40000152588</ele>
        <time>2016-09-25T08:06:31.000Z</time>
      </trkpt>
      <trkpt lat="49.42542" lon="0.99654">
        <ele>107.80000305176</ele>
        <time>2016-09-25T08:06:40.000Z</time>
      </trkpt>
      <trkpt lat="49.42542" lon="0.99653">
        <ele>107.80000305176</ele>
        <time>2016-09-25T08:06:41.000Z</time>
      </trkpt>
      <trkpt lat="49.42542" lon="0.9965">
        <ele>108</ele>
        <time>2016-09-25T08:06:43.000Z</time>
      </trkpt>
      <trkpt lat="49.42542" lon="0.99644">
        <ele>108.19999694824</ele>
        <time>2016-09-25T08:06:46.000Z</time>
      </trkpt>
      <trkpt lat="49.42541" lon="0.99641">
        <ele>108.59999847412</ele>
        <time>2016-09-25T08:06:49.000Z</time>
      </trkpt>
      <trkpt lat="49.42536" lon="0.99631">
        <ele>109.59999847412</ele>
        <time>2016-09-25T08:06:55.000Z</time>
      </trkpt>
      <trkpt lat="49.42534" lon="0.99628">
        <ele>110</ele>
        <time>2016-09-25T08:06:57.000Z</time>
      </trkpt>
      <trkpt lat="49.42534" lon="0.99628">
        <ele>110.19999694824</ele>
        <time>2016-09-25T08:06:58.000Z</time>
      </trkpt>
      <trkpt lat="49.42529" lon="0.99621">
        <ele>110.40000152588</ele>
        <time>2016-09-25T08:07:05.000Z</time>
      </trkpt>
      <trkpt lat="49.42525" lon="0.99612">
        <ele>110.59999847412</ele>
        <time>2016-09-25T08:07:14.000Z</time>
      </trkpt>
      <trkpt lat="49.42523" lon="0.99609">
        <ele>110.59999847412</ele>
        <time>2016-09-25T08:07:16.000Z</time>
      </trkpt>
      <trkpt lat="49.42521" lon="0.99604">
        <ele>110.59999847412</ele>
        <time>2016-09-25T08:07:18.000Z</time>
      </trkpt>
      <trkpt lat="49.42519" lon="0.99599">
        <ele>110.59999847412</ele>
        <time>2016-09-25T08:07:20.000Z</time>
      </trkpt>
      <trkpt lat="49.42515" lon="0.99594">
        <ele>110.80000305176</ele>
        <time>2016-09-25T08:07:23.000Z</time>
      </trkpt>
      <trkpt lat="49.42504" lon="0.99578">
        <ele>110.80000305176</ele>
        <time>2016-09-25T08:07:32.000Z</time>
      </trkpt>
      <trkpt lat="49.42495" lon="0.99567">
        <ele>111</ele>
        <time>2016-09-25T08:07:40.000Z</time>
      </trkpt>
      <trkpt lat="49.42491" lon="0.99562">
        <ele>111</ele>
        <time>2016-09-25T08:07:44.000Z</time>
      </trkpt>
      <trkpt lat="49.42488" lon="0.99559">
        <ele>111</ele>
        <time>2016-09-25T08:07:46.000Z</time>
      </trkpt>
      <trkpt lat="49.42486" lon="0.99553">
        <ele>110.80000305176</ele>
        <time>2016-09-25T08:07:49.000Z</time>
      </trkpt>
      <trkpt lat="49.42485" lon="0.99551">
        <ele>110.80000305176</ele>
        <time>2016-09-25T08:07:50.000Z</time>
      </trkpt>
      <trkpt lat="49.42479" lon="0.99544">
        <ele>110.59999847412</ele>
        <time>2016-09-25T08:07:54.000Z</time>
      </trkpt>
      <trkpt lat="49.42475" lon="0.99538">
        <ele>110.40000152588</ele>
        <time>2016-09-25T08:07:57.000Z</time>
      </trkpt>
      <trkpt lat="49.42473" lon="0.99536">
        <ele>110.40000152588</ele>
        <time>2016-09-25T08:07:58.000Z</time>
      </trkpt>
      <trkpt lat="49.42469" lon="0.99529">
        <ele>110.19999694824</ele>
        <time>2016-09-25T08:08:01.000Z</time>
      </trkpt>
      <trkpt lat="49.42467" lon="0.99527">
        <ele>110</ele>
        <time>2016-09-25T08:08:02.000Z</time>
      </trkpt>
      <trkpt lat="49.4246" lon="0.99517">
        <ele>109.80000305176</ele>
        <time>2016-09-25T08:08:07.000Z</time>
      </trkpt>
      <trkpt lat="49.42452" lon="0.99507">
        <ele>109.40000152588</ele>
        <time>2016-09-25T08:08:12.000Z</time>
      </trkpt>
      <trkpt lat="49.42445" lon="0.99497">
        <ele>109.40000152588</ele>
        <time>2016-09-25T08:08:16.000Z</time>
      </trkpt>
      <trkpt lat="49.42438" lon="0.9949">
        <ele>109.40000152588</ele>
        <time>2016-09-25T08:08:19.000Z</time>
      </trkpt>
      <trkpt lat="49.42433" lon="0.9948">
        <ele>109.40000152588</ele>
        <time>2016-09-25T08:08:23.000Z</time>
      </trkpt>
      <trkpt lat="49.42431" lon="0.99477">
        <ele>109.40000152588</ele>
        <time>2016-09-25T08:08:24.000Z</time>
      </trkpt>
      <trkpt lat="49.42418" lon="0.99456">
        <ele>110</ele>
        <time>2016-09-25T08:08:33.000Z</time>
      </trkpt>
      <trkpt lat="49.42406" lon="0.99438">
        <ele>110.40000152588</ele>
        <time>2016-09-25T08:08:40.000Z</time>
      </trkpt>
      <trkpt lat="49.42395" lon="0.9942">
        <ele>111</ele>
        <time>2016-09-25T08:08:47.000Z</time>
      </trkpt>
      <trkpt lat="49.42391" lon="0.99415">
        <ele>111.19999694824</ele>
        <time>2016-09-25T08:08:49.000Z</time>
      </trkpt>
      <trkpt lat="49.42385" lon="0.99404">
        <ele>111.80000305176</ele>
        <time>2016-09-25T08:08:53.000Z</time>
      </trkpt>
      <trkpt lat="49.42381" lon="0.99398">
        <ele>112</ele>
        <time>2016-09-25T08:08:55.000Z</time>
      </trkpt>
      <trkpt lat="49.42376" lon="0.99389">
        <ele>112.40000152588</ele>
        <time>2016-09-25T08:08:58.000Z</time>
      </trkpt>
      <trkpt lat="49.42368" lon="0.99377">
        <ele>112.80000305176</ele>
        <time>2016-09-25T08:09:02.000Z</time>
      </trkpt>
      <trkpt lat="49.42365" lon="0.99374">
        <ele>112.80000305176</ele>
        <time>2016-09-25T08:09:03.000Z</time>
      </trkpt>
      <trkpt lat="49.42347" lon="0.9935">
        <ele>114</ele>
        <time>2016-09-25T08:09:10.000Z</time>
      </trkpt>
      <trkpt lat="49.42342" lon="0.99344">
        <ele>114.40000152588</ele>
        <time>2016-09-25T08:09:12.000Z</time>
      </trkpt>
      <trkpt lat="49.42327" lon="0.99326">
        <ele>115.19999694824</ele>
        <time>2016-09-25T08:09:18.000Z</time>
      </trkpt>
      <trkpt lat="49.42323" lon="0.9932">
        <ele>115.40000152588</ele>
        <time>2016-09-25T08:09:20.000Z</time>
      </trkpt>
      <trkpt lat="49.42315" lon="0.99306">
        <ele>116</ele>
        <time>2016-09-25T08:09:24.000Z</time>
      </trkpt>
      <trkpt lat="49.42308" lon="0.99296">
        <ele>116.19999694824</ele>
        <time>2016-09-25T08:09:27.000Z</time>
      </trkpt>
      <trkpt lat="49.42297" lon="0.99278">
        <ele>116.40000152588</ele>
        <time>2016-09-25T08:09:32.000Z</time>
      </trkpt>
      <trkpt lat="49.42287" lon="0.99265">
        <ele>116.59999847412</ele>
        <time>2016-09-25T08:09:36.000Z</time>
      </trkpt>
      <trkpt lat="49.42279" lon="0.99253">
        <ele>116.59999847412</ele>
        <time>2016-09-25T08:09:40.000Z</time>
      </trkpt>
      <trkpt lat="49.42266" lon="0.99237">
        <ele>116.59999847412</ele>
        <time>2016-09-25T08:09:45.000Z</time>
      </trkpt>
      <trkpt lat="49.42252" lon="0.99215">
        <ele>116.80000305176</ele>
        <time>2016-09-25T08:09:51.000Z</time>
      </trkpt>
      <trkpt lat="49.42245" lon="0.99206">
        <ele>116.80000305176</ele>
        <time>2016-09-25T08:09:54.000Z</time>
      </trkpt>
      <trkpt lat="49.42222" lon="0.99173">
        <ele>117</ele>
        <time>2016-09-25T08:10:03.000Z</time>
      </trkpt>
      <trkpt lat="49.42202" lon="0.99142">
        <ele>117</ele>
        <time>2016-09-25T08:10:11.000Z</time>
      </trkpt>
      <trkpt lat="49.42174" lon="0.99107">
        <ele>119.19999694824</ele>
        <time>2016-09-25T08:10:21.000Z</time>
      </trkpt>
      <trkpt lat="49.42171" lon="0.99102">
        <ele>119.40000152588</ele>
        <time>2016-09-25T08:10:22.000Z</time>
      </trkpt>
      <trkpt lat="49.42165" lon="0.99094">
        <ele>120</ele>
        <time>2016-09-25T08:10:25.000Z</time>
      </trkpt>
      <trkpt lat="49.42164" lon="0.99093">
        <ele>120</ele>
        <time>2016-09-25T08:10:26.000Z</time>
      </trkpt>
      <trkpt lat="49.4216" lon="0.9909">
        <ele>120.19999694824</ele>
        <time>2016-09-25T08:10:33.000Z</time>
      </trkpt>
      <trkpt lat="49.4216" lon="0.9909">
        <ele>120.19999694824</ele>
        <time>2016-09-25T08:10:42.000Z</time>
      </trkpt>
      <trkpt lat="49.4216" lon="0.9909">
        <ele>120.19999694824</ele>
        <time>2016-09-25T08:10:53.000Z</time>
      </trkpt>
      <trkpt lat="49.4216" lon="0.9909">
        <ele>120.19999694824</ele>
        <time>2016-09-25T08:11:07.000Z</time>
      </trkpt>
      <trkpt lat="49.4216" lon="0.99089">
        <ele>120.19999694824</ele>
        <time>2016-09-25T08:11:20.000Z</time>
      </trkpt>
      <trkpt lat="49.4216" lon="0.99089">
        <ele>120.19999694824</ele>
        <time>2016-09-25T08:11:39.000Z</time>
      </trkpt>
      <trkpt lat="49.4216" lon="0.99089">
        <ele>120.40000152588</ele>
        <time>2016-09-25T08:11:49.000Z</time>
      </trkpt>
      <trkpt lat="49.4216" lon="0.99089">
        <ele>120.40000152588</ele>
        <time>2016-09-25T08:11:58.000Z</time>
      </trkpt>
      <trkpt lat="49.4216" lon="0.99089">
        <ele>120.40000152588</ele>
        <time>2016-09-25T08:12:20.000Z</time>
      </trkpt>
      <trkpt lat="49.42159" lon="0.99089">
        <ele>120.40000152588</ele>
        <time>2016-09-25T08:12:38.000Z</time>
      </trkpt>
      <trkpt lat="49.42159" lon="0.99089">
        <ele>120.40000152588</ele>
        <time>2016-09-25T08:12:55.000Z</time>
      </trkpt>
      <trkpt lat="49.42159" lon="0.99089">
        <ele>120.40000152588</ele>
        <time>2016-09-25T08:13:11.000Z</time>
      </trkpt>
      <trkpt lat="49.42159" lon="0.99089">
        <ele>120.40000152588</ele>
        <time>2016-09-25T08:13:25.000Z</time>
      </trkpt>
      <trkpt lat="49.42159" lon="0.99089">
        <ele>120.40000152588</ele>
        <time>2016-09-25T08:13:41.000Z</time>
      </trkpt>
      <trkpt lat="49.42158" lon="0.99088">
        <ele>120.40000152588</ele>
        <time>2016-09-25T08:13:58.000Z</time>
      </trkpt>
      <trkpt lat="49.42158" lon="0.99088">
        <ele>120.40000152588</ele>
        <time>2016-09-25T08:14:14.000Z</time>
      </trkpt>
      <trkpt lat="49.42158" lon="0.99088">
        <ele>120.40000152588</ele>
        <time>2016-09-25T08:14:29.000Z</time>
      </trkpt>
      <trkpt lat="49.42158" lon="0.99088">
        <ele>120.40000152588</ele>
        <time>2016-09-25T08:14:30.000Z</time>
      </trkpt>
      <trkpt lat="49.42158" lon="0.99088">
        <ele>120.40000152588</ele>
        <time>2016-09-25T08:14:45.000Z</time>
      </trkpt>
      <trkpt lat="49.42158" lon="0.99088">
        <ele>120.40000152588</ele>
        <time>2016-09-25T08:14:59.000Z</time>
      </trkpt>
      <trkpt lat="49.42157" lon="0.99087">
        <ele>120.40000152588</ele>
        <time>2016-09-25T08:15:16.000Z</time>
      </trkpt>
      <trkpt lat="49.42157" lon="0.99087">
        <ele>120.40000152588</ele>
        <time>2016-09-25T08:15:33.000Z</time>
      </trkpt>
      <trkpt lat="49.42157" lon="0.99087">
        <ele>120.40000152588</ele>
        <time>2016-09-25T08:15:52.000Z</time>
      </trkpt>
      <trkpt lat="49.42157" lon="0.99087">
        <ele>120.40000152588</ele>
        <time>2016-09-25T08:16:12.000Z</time>
      </trkpt>
      <trkpt lat="49.42157" lon="0.99087">
        <ele>120.40000152588</ele>
        <time>2016-09-25T08:16:28.000Z</time>
      </trkpt>
      <trkpt lat="49.42156" lon="0.99086">
        <ele>120.59999847412</ele>
        <time>2016-09-25T08:16:29.000Z</time>
      </trkpt>
      <trkpt lat="49.42156" lon="0.99086">
        <ele>120.59999847412</ele>
        <time>2016-09-25T08:16:40.000Z</time>
      </trkpt>
      <trkpt lat="49.42156" lon="0.99086">
        <ele>120.59999847412</ele>
        <time>2016-09-25T08:16:54.000Z</time>
      </trkpt>
      <trkpt lat="49.42156" lon="0.99086">
        <ele>120.59999847412</ele>
        <time>2016-09-25T08:17:08.000Z</time>
      </trkpt>
      <trkpt lat="49.42156" lon="0.99086">
        <ele>120.59999847412</ele>
        <time>2016-09-25T08:17:27.000Z</time>
      </trkpt>
      <trkpt lat="49.42156" lon="0.99086">
        <ele>120.59999847412</ele>
        <time>2016-09-25T08:17:46.000Z</time>
      </trkpt>
      <trkpt lat="49.42156" lon="0.99085">
        <ele>120.59999847412</ele>
        <time>2016-09-25T08:18:03.000Z</time>
      </trkpt>
      <trkpt lat="49.42156" lon="0.99085">
        <ele>120.59999847412</ele>
        <time>2016-09-25T08:18:21.000Z</time>
      </trkpt>
      <trkpt lat="49.42156" lon="0.99085">
        <ele>120.59999847412</ele>
        <time>2016-09-25T08:18:34.000Z</time>
      </trkpt>
      <trkpt lat="49.42156" lon="0.99085">
        <ele>120.59999847412</ele>
        <time>2016-09-25T08:18:53.000Z</time>
      </trkpt>
      <trkpt lat="49.42156" lon="0.99085">
        <ele>120.59999847412</ele>
        <time>2016-09-25T08:19:08.000Z</time>
      </trkpt>
      <trkpt lat="49.42156" lon="0.99085">
        <ele>120.59999847412</ele>
        <time>2016-09-25T08:19:27.000Z</time>
      </trkpt>
      <trkpt lat="49.42156" lon="0.99085">
        <ele>120.59999847412</ele>
        <time>2016-09-25T08:19:41.000Z</time>
      </trkpt>
      <trkpt lat="49.42154" lon="0.99084">
        <ele>120.59999847412</ele>
        <time>2016-09-25T08:19:49.000Z</time>
      </trkpt>
      <trkpt lat="49.42154" lon="0.99084">
        <ele>120.59999847412</ele>
        <time>2016-09-25T08:19:59.000Z</time>
      </trkpt>
      <trkpt lat="49.42154" lon="0.99084">
        <ele>120.59999847412</ele>
        <time>2016-09-25T08:20:14.000Z</time>
      </trkpt>
      <trkpt lat="49.42154" lon="0.99084">
        <ele>120.59999847412</ele>
        <time>2016-09-25T08:20:26.000Z</time>
      </trkpt>
      <trkpt lat="49.42155" lon="0.99084">
        <ele>120.59999847412</ele>
        <time>2016-09-25T08:20:37.000Z</time>
      </trkpt>
      <trkpt lat="49.42155" lon="0.99084">
        <ele>120.59999847412</ele>
        <time>2016-09-25T08:20:54.000Z</time>
      </trkpt>
      <trkpt lat="49.42154" lon="0.99084">
        <ele>120.59999847412</ele>
        <time>2016-09-25T08:21:11.000Z</time>
      </trkpt>
      <trkpt lat="49.4215" lon="0.99075">
        <ele>121.19999694824</ele>
        <time>2016-09-25T08:21:24.000Z</time>
      </trkpt>
      <trkpt lat="49.42141" lon="0.99059">
        <ele>122</ele>
        <time>2016-09-25T08:21:33.000Z</time>
      </trkpt>
      <trkpt lat="49.42137" lon="0.99053">
        <ele>122.19999694824</ele>
        <time>2016-09-25T08:21:38.000Z</time>
      </trkpt>
      <trkpt lat="49.42137" lon="0.99052">
        <ele>122.19999694824</ele>
        <time>2016-09-25T08:21:42.000Z</time>
      </trkpt>
      <trkpt lat="49.42137" lon="0.99052">
        <ele>122.19999694824</ele>
        <time>2016-09-25T08:21:56.000Z</time>
      </trkpt>
      <trkpt lat="49.42137" lon="0.99052">
        <ele>122.19999694824</ele>
        <time>2016-09-25T08:22:10.000Z</time>
      </trkpt>
      <trkpt lat="49.42137" lon="0.99052">
        <ele>122.19999694824</ele>
        <time>2016-09-25T08:22:24.000Z</time>
      </trkpt>
      <trkpt lat="49.42133" lon="0.99048">
        <ele>122.40000152588</ele>
        <time>2016-09-25T08:22:36.000Z</time>
      </trkpt>
      <trkpt lat="49.42128" lon="0.99041">
        <ele>122.80000305176</ele>
        <time>2016-09-25T08:22:38.000Z</time>
      </trkpt>
      <trkpt lat="49.42121" lon="0.99029">
        <ele>123.19999694824</ele>
        <time>2016-09-25T08:22:41.000Z</time>
      </trkpt>
      <trkpt lat="49.42105" lon="0.99002">
        <ele>124</ele>
        <time>2016-09-25T08:22:49.000Z</time>
      </trkpt>
      <trkpt lat="49.42104" lon="0.98998">
        <ele>124.19999694824</ele>
        <time>2016-09-25T08:22:50.000Z</time>
      </trkpt>
      <trkpt lat="49.42106" lon="0.98983">
        <ele>124.19999694824</ele>
        <time>2016-09-25T08:22:53.000Z</time>
      </trkpt>
      <trkpt lat="49.42109" lon="0.98977">
        <ele>124.19999694824</ele>
        <time>2016-09-25T08:22:54.000Z</time>
      </trkpt>
      <trkpt lat="49.4212" lon="0.98955">
        <ele>123</ele>
        <time>2016-09-25T08:22:57.000Z</time>
      </trkpt>
      <trkpt lat="49.42133" lon="0.98932">
        <ele>121.80000305176</ele>
        <time>2016-09-25T08:23:00.000Z</time>
      </trkpt>
      <trkpt lat="49.42151" lon="0.989">
        <ele>120.40000152588</ele>
        <time>2016-09-25T08:23:04.000Z</time>
      </trkpt>
      <trkpt lat="49.42155" lon="0.98892">
        <ele>120</ele>
        <time>2016-09-25T08:23:05.000Z</time>
      </trkpt>
      <trkpt lat="49.4217" lon="0.98867">
        <ele>119.40000152588</ele>
        <time>2016-09-25T08:23:08.000Z</time>
      </trkpt>
      <trkpt lat="49.42194" lon="0.9883">
        <ele>118.40000152588</ele>
        <time>2016-09-25T08:23:12.000Z</time>
      </trkpt>
      <trkpt lat="49.42212" lon="0.98802">
        <ele>116.80000305176</ele>
        <time>2016-09-25T08:23:15.000Z</time>
      </trkpt>
      <trkpt lat="49.42232" lon="0.98773">
        <ele>114.80000305176</ele>
        <time>2016-09-25T08:23:18.000Z</time>
      </trkpt>
      <trkpt lat="49.42245" lon="0.98754">
        <ele>113.40000152588</ele>
        <time>2016-09-25T08:23:20.000Z</time>
      </trkpt>
      <trkpt lat="49.42251" lon="0.98744">
        <ele>112.59999847412</ele>
        <time>2016-09-25T08:23:21.000Z</time>
      </trkpt>
      <trkpt lat="49.4227" lon="0.98713">
        <ele>110.40000152588</ele>
        <time>2016-09-25T08:23:24.000Z</time>
      </trkpt>
      <trkpt lat="49.42283" lon="0.98692">
        <ele>109.19999694824</ele>
        <time>2016-09-25T08:23:26.000Z</time>
      </trkpt>
      <trkpt lat="49.42289" lon="0.98682">
        <ele>108.40000152588</ele>
        <time>2016-09-25T08:23:27.000Z</time>
      </trkpt>
      <trkpt lat="49.42295" lon="0.98672">
        <ele>107.80000305176</ele>
        <time>2016-09-25T08:23:28.000Z</time>
      </trkpt>
      <trkpt lat="49.42306" lon="0.98654">
        <ele>106.59999847412</ele>
        <time>2016-09-25T08:23:30.000Z</time>
      </trkpt>
      <trkpt lat="49.42316" lon="0.9864">
        <ele>105.40000152588</ele>
        <time>2016-09-25T08:23:32.000Z</time>
      </trkpt>
      <trkpt lat="49.42325" lon="0.98628">
        <ele>104.40000152588</ele>
        <time>2016-09-25T08:23:34.000Z</time>
      </trkpt>
      <trkpt lat="49.42331" lon="0.98618">
        <ele>103.59999847412</ele>
        <time>2016-09-25T08:23:36.000Z</time>
      </trkpt>
      <trkpt lat="49.42332" lon="0.98612">
        <ele>103.40000152588</ele>
        <time>2016-09-25T08:23:37.000Z</time>
      </trkpt>
      <trkpt lat="49.42334" lon="0.98605">
        <ele>102.80000305176</ele>
        <time>2016-09-25T08:23:38.000Z</time>
      </trkpt>
      <trkpt lat="49.42336" lon="0.98592">
        <ele>101.59999847412</ele>
        <time>2016-09-25T08:23:40.000Z</time>
      </trkpt>
      <trkpt lat="49.42338" lon="0.98578">
        <ele>100.40000152588</ele>
        <time>2016-09-25T08:23:42.000Z</time>
      </trkpt>
      <trkpt lat="49.42339" lon="0.98571">
        <ele>99.800003051758</ele>
        <time>2016-09-25T08:23:43.000Z</time>
      </trkpt>
      <trkpt lat="49.42339" lon="0.98563">
        <ele>99.199996948242</ele>
        <time>2016-09-25T08:23:44.000Z</time>
      </trkpt>
      <trkpt lat="49.42339" lon="0.98546">
        <ele>98.400001525879</ele>
        <time>2016-09-25T08:23:46.000Z</time>
      </trkpt>
      <trkpt lat="49.42334" lon="0.98532">
        <ele>98.400001525879</ele>
        <time>2016-09-25T08:23:48.000Z</time>
      </trkpt>
      <trkpt lat="49.42328" lon="0.98524">
        <ele>98.800003051758</ele>
        <time>2016-09-25T08:23:50.000Z</time>
      </trkpt>
      <trkpt lat="49.42321" lon="0.98519">
        <ele>99.400001525879</ele>
        <time>2016-09-25T08:23:52.000Z</time>
      </trkpt>
      <trkpt lat="49.42314" lon="0.98515">
        <ele>100</ele>
        <time>2016-09-25T08:23:54.000Z</time>
      </trkpt>
      <trkpt lat="49.4231" lon="0.98514">
        <ele>100.40000152588</ele>
        <time>2016-09-25T08:23:55.000Z</time>
      </trkpt>
      <trkpt lat="49.42304" lon="0.98512">
        <ele>101</ele>
        <time>2016-09-25T08:23:57.000Z</time>
      </trkpt>
      <trkpt lat="49.42297" lon="0.98509">
        <ele>101.59999847412</ele>
        <time>2016-09-25T08:23:59.000Z</time>
      </trkpt>
      <trkpt lat="49.42282" lon="0.98503">
        <ele>103</ele>
        <time>2016-09-25T08:24:03.000Z</time>
      </trkpt>
      <trkpt lat="49.4227" lon="0.985">
        <ele>103.40000152588</ele>
        <time>2016-09-25T08:24:07.000Z</time>
      </trkpt>
      <trkpt lat="49.42255" lon="0.98495">
        <ele>103.80000305176</ele>
        <time>2016-09-25T08:24:13.000Z</time>
      </trkpt>
      <trkpt lat="49.4224" lon="0.98489">
        <ele>104</ele>
        <time>2016-09-25T08:24:17.000Z</time>
      </trkpt>
      <trkpt lat="49.4222" lon="0.98482">
        <ele>104.59999847412</ele>
        <time>2016-09-25T08:24:24.000Z</time>
      </trkpt>
      <trkpt lat="49.42213" lon="0.9848">
        <ele>104.59999847412</ele>
        <time>2016-09-25T08:24:26.000Z</time>
      </trkpt>
      <trkpt lat="49.42201" lon="0.98475">
        <ele>105</ele>
        <time>2016-09-25T08:24:30.000Z</time>
      </trkpt>
      <trkpt lat="49.42188" lon="0.98469">
        <ele>104.59999847412</ele>
        <time>2016-09-25T08:24:34.000Z</time>
      </trkpt>
      <trkpt lat="49.42177" lon="0.98466">
        <ele>104.19999694824</ele>
        <time>2016-09-25T08:24:36.000Z</time>
      </trkpt>
      <trkpt lat="49.42151" lon="0.9846">
        <ele>103.80000305176</ele>
        <time>2016-09-25T08:24:42.000Z</time>
      </trkpt>
      <trkpt lat="49.42143" lon="0.98457">
        <ele>103.59999847412</ele>
        <time>2016-09-25T08:24:44.000Z</time>
      </trkpt>
      <trkpt lat="49.4212" lon="0.98449">
        <ele>102.80000305176</ele>
        <time>2016-09-25T08:24:50.000Z</time>
      </trkpt>
      <trkpt lat="49.42096" lon="0.98441">
        <ele>100.59999847412</ele>
        <time>2016-09-25T08:24:55.000Z</time>
      </trkpt>
      <trkpt lat="49.4209" lon="0.98439">
        <ele>99.800003051758</ele>
        <time>2016-09-25T08:24:56.000Z</time>
      </trkpt>
      <trkpt lat="49.42058" lon="0.98431">
        <ele>96</ele>
        <time>2016-09-25T08:25:01.000Z</time>
      </trkpt>
      <trkpt lat="49.42051" lon="0.98429">
        <ele>95.199996948242</ele>
        <time>2016-09-25T08:25:02.000Z</time>
      </trkpt>
      <trkpt lat="49.42044" lon="0.98428">
        <ele>94.400001525879</ele>
        <time>2016-09-25T08:25:03.000Z</time>
      </trkpt>
      <trkpt lat="49.42031" lon="0.98424">
        <ele>92.800003051758</ele>
        <time>2016-09-25T08:25:05.000Z</time>
      </trkpt>
      <trkpt lat="49.42025" lon="0.98423">
        <ele>93.400001525879</ele>
        <time>2016-09-25T08:25:06.000Z</time>
      </trkpt>
      <trkpt lat="49.42019" lon="0.98423">
        <ele>94</ele>
        <time>2016-09-25T08:25:07.000Z</time>
      </trkpt>
      <trkpt lat="49.42013" lon="0.98424">
        <ele>94.599998474121</ele>
        <time>2016-09-25T08:25:08.000Z</time>
      </trkpt>
      <trkpt lat="49.42008" lon="0.98426">
        <ele>95</ele>
        <time>2016-09-25T08:25:09.000Z</time>
      </trkpt>
      <trkpt lat="49.42004" lon="0.98427">
        <ele>95.599998474121</ele>
        <time>2016-09-25T08:25:10.000Z</time>
      </trkpt>
      <trkpt lat="49.42" lon="0.98428">
        <ele>96</ele>
        <time>2016-09-25T08:25:11.000Z</time>
      </trkpt>
      <trkpt lat="49.41996" lon="0.98429">
        <ele>96.400001525879</ele>
        <time>2016-09-25T08:25:12.000Z</time>
      </trkpt>
      <trkpt lat="49.41992" lon="0.98428">
        <ele>96.800003051758</ele>
        <time>2016-09-25T08:25:13.000Z</time>
      </trkpt>
      <trkpt lat="49.41983" lon="0.98424">
        <ele>97.599998474121</ele>
        <time>2016-09-25T08:25:15.000Z</time>
      </trkpt>
      <trkpt lat="49.41979" lon="0.98423">
        <ele>97.800003051758</ele>
        <time>2016-09-25T08:25:16.000Z</time>
      </trkpt>
      <trkpt lat="49.41975" lon="0.98423">
        <ele>98.199996948242</ele>
        <time>2016-09-25T08:25:17.000Z</time>
      </trkpt>
      <trkpt lat="49.41971" lon="0.98422">
        <ele>98.599998474121</ele>
        <time>2016-09-25T08:25:18.000Z</time>
      </trkpt>
      <trkpt lat="49.4196" lon="0.98417">
        <ele>99.599998474121</ele>
        <time>2016-09-25T08:25:22.000Z</time>
      </trkpt>
      <trkpt lat="49.41954" lon="0.98416">
        <ele>100</ele>
        <time>2016-09-25T08:25:26.000Z</time>
      </trkpt>
      <trkpt lat="49.41954" lon="0.98416">
        <ele>100.19999694824</ele>
        <time>2016-09-25T08:25:27.000Z</time>
      </trkpt>
      <trkpt lat="49.41945" lon="0.98416">
        <ele>101.19999694824</ele>
        <time>2016-09-25T08:25:36.000Z</time>
      </trkpt>
      <trkpt lat="49.4194" lon="0.98416">
        <ele>102.40000152588</ele>
        <time>2016-09-25T08:25:46.000Z</time>
      </trkpt>
      <trkpt lat="49.41937" lon="0.98416">
        <ele>102.80000305176</ele>
        <time>2016-09-25T08:25:49.000Z</time>
      </trkpt>
      <trkpt lat="49.41935" lon="0.98416">
        <ele>103.19999694824</ele>
        <time>2016-09-25T08:25:53.000Z</time>
      </trkpt>
      <trkpt lat="49.41935" lon="0.98415">
        <ele>103.19999694824</ele>
        <time>2016-09-25T08:25:54.000Z</time>
      </trkpt>
      <trkpt lat="49.41935" lon="0.98415">
        <ele>103.19999694824</ele>
        <time>2016-09-25T08:25:56.000Z</time>
      </trkpt>
      <trkpt lat="49.41933" lon="0.98415">
        <ele>103.59999847412</ele>
        <time>2016-09-25T08:25:59.000Z</time>
      </trkpt>
      <trkpt lat="49.41931" lon="0.98414">
        <ele>104</ele>
        <time>2016-09-25T08:26:02.000Z</time>
      </trkpt>
      <trkpt lat="49.41928" lon="0.98414">
        <ele>104.40000152588</ele>
        <time>2016-09-25T08:26:05.000Z</time>
      </trkpt>
      <trkpt lat="49.41928" lon="0.98414">
        <ele>104.59999847412</ele>
        <time>2016-09-25T08:26:06.000Z</time>
      </trkpt>
      <trkpt lat="49.41927" lon="0.98414">
        <ele>104.80000305176</ele>
        <time>2016-09-25T08:26:14.000Z</time>
      </trkpt>
      <trkpt lat="49.41925" lon="0.98413">
        <ele>105</ele>
        <time>2016-09-25T08:26:22.000Z</time>
      </trkpt>
      <trkpt lat="49.41924" lon="0.98413">
        <ele>105.19999694824</ele>
        <time>2016-09-25T08:26:27.000Z</time>
      </trkpt>
      <trkpt lat="49.41919" lon="0.98411">
        <ele>106.19999694824</ele>
        <time>2016-09-25T08:26:31.000Z</time>
      </trkpt>
      <trkpt lat="49.41919" lon="0.9841">
        <ele>106.19999694824</ele>
        <time>2016-09-25T08:26:36.000Z</time>
      </trkpt>
      <trkpt lat="49.41913" lon="0.98408">
        <ele>107.40000152588</ele>
        <time>2016-09-25T08:26:44.000Z</time>
      </trkpt>
      <trkpt lat="49.41909" lon="0.98408">
        <ele>108</ele>
        <time>2016-09-25T08:26:47.000Z</time>
      </trkpt>
      <trkpt lat="49.41904" lon="0.98405">
        <ele>109</ele>
        <time>2016-09-25T08:26:50.000Z</time>
      </trkpt>
      <trkpt lat="49.41897" lon="0.984">
        <ele>110.19999694824</ele>
        <time>2016-09-25T08:26:56.000Z</time>
      </trkpt>
      <trkpt lat="49.41895" lon="0.98399">
        <ele>110.40000152588</ele>
        <time>2016-09-25T08:26:58.000Z</time>
      </trkpt>
      <trkpt lat="49.41893" lon="0.98399">
        <ele>111</ele>
        <time>2016-09-25T08:27:00.000Z</time>
      </trkpt>
      <trkpt lat="49.41891" lon="0.98398">
        <ele>111.19999694824</ele>
        <time>2016-09-25T08:27:02.000Z</time>
      </trkpt>
      <trkpt lat="49.41889" lon="0.98398">
        <ele>111.59999847412</ele>
        <time>2016-09-25T08:27:04.000Z</time>
      </trkpt>
      <trkpt lat="49.41889" lon="0.98398">
        <ele>111.59999847412</ele>
        <time>2016-09-25T08:27:08.000Z</time>
      </trkpt>
      <trkpt lat="49.41886" lon="0.98396">
        <ele>112</ele>
        <time>2016-09-25T08:27:13.000Z</time>
      </trkpt>
      <trkpt lat="49.41884" lon="0.98395">
        <ele>112.40000152588</ele>
        <time>2016-09-25T08:27:15.000Z</time>
      </trkpt>
      <trkpt lat="49.41884" lon="0.98395">
        <ele>112.59999847412</ele>
        <time>2016-09-25T08:27:16.000Z</time>
      </trkpt>
      <trkpt lat="49.41882" lon="0.98394">
        <ele>113</ele>
        <time>2016-09-25T08:27:18.000Z</time>
      </trkpt>
      <trkpt lat="49.41879" lon="0.98392">
        <ele>113.40000152588</ele>
        <time>2016-09-25T08:27:20.000Z</time>
      </trkpt>
      <trkpt lat="49.41877" lon="0.98391">
        <ele>113.80000305176</ele>
        <time>2016-09-25T08:27:22.000Z</time>
      </trkpt>
      <trkpt lat="49.41876" lon="0.98391">
        <ele>114</ele>
        <time>2016-09-25T08:27:23.000Z</time>
      </trkpt>
      <trkpt lat="49.41875" lon="0.98391">
        <ele>114.19999694824</ele>
        <time>2016-09-25T08:27:24.000Z</time>
      </trkpt>
      <trkpt lat="49.4187" lon="0.98388">
        <ele>115</ele>
        <time>2016-09-25T08:27:27.000Z</time>
      </trkpt>
      <trkpt lat="49.41867" lon="0.98386">
        <ele>115.80000305176</ele>
        <time>2016-09-25T08:27:30.000Z</time>
      </trkpt>
      <trkpt lat="49.41863" lon="0.98384">
        <ele>116.19999694824</ele>
        <time>2016-09-25T08:27:33.000Z</time>
      </trkpt>
      <trkpt lat="49.41859" lon="0.98384">
        <ele>116.40000152588</ele>
        <time>2016-09-25T08:27:42.000Z</time>
      </trkpt>
      <trkpt lat="49.41857" lon="0.98383">
        <ele>116.59999847412</ele>
        <time>2016-09-25T08:27:44.000Z</time>
      </trkpt>
      <trkpt lat="49.41852" lon="0.98381">
        <ele>116.80000305176</ele>
        <time>2016-09-25T08:27:47.000Z</time>
      </trkpt>
      <trkpt lat="49.41847" lon="0.98378">
        <ele>117.19999694824</ele>
        <time>2016-09-25T08:27:50.000Z</time>
      </trkpt>
      <trkpt lat="49.41845" lon="0.98378">
        <ele>117.40000152588</ele>
        <time>2016-09-25T08:27:51.000Z</time>
      </trkpt>
      <trkpt lat="49.4184" lon="0.98376">
        <ele>117.80000305176</ele>
        <time>2016-09-25T08:27:54.000Z</time>
      </trkpt>
      <trkpt lat="49.41833" lon="0.98374">
        <ele>118.19999694824</ele>
        <time>2016-09-25T08:27:58.000Z</time>
      </trkpt>
      <trkpt lat="49.41829" lon="0.98372">
        <ele>118.59999847412</ele>
        <time>2016-09-25T08:28:01.000Z</time>
      </trkpt>
      <trkpt lat="49.41823" lon="0.9837">
        <ele>119</ele>
        <time>2016-09-25T08:28:05.000Z</time>
      </trkpt>
      <trkpt lat="49.41821" lon="0.9837">
        <ele>119.19999694824</ele>
        <time>2016-09-25T08:28:06.000Z</time>
      </trkpt>
      <trkpt lat="49.41805" lon="0.98365">
        <ele>120.40000152588</ele>
        <time>2016-09-25T08:28:15.000Z</time>
      </trkpt>
      <trkpt lat="49.41798" lon="0.98363">
        <ele>121</ele>
        <time>2016-09-25T08:28:20.000Z</time>
      </trkpt>
      <trkpt lat="49.41783" lon="0.98361">
        <ele>122.19999694824</ele>
        <time>2016-09-25T08:28:24.000Z</time>
      </trkpt>
      <trkpt lat="49.41779" lon="0.98362">
        <ele>122.40000152588</ele>
        <time>2016-09-25T08:28:26.000Z</time>
      </trkpt>
      <trkpt lat="49.41777" lon="0.98367">
        <ele>122.40000152588</ele>
        <time>2016-09-25T08:28:30.000Z</time>
      </trkpt>
      <trkpt lat="49.41778" lon="0.98373">
        <ele>122.59999847412</ele>
        <time>2016-09-25T08:28:32.000Z</time>
      </trkpt>
      <trkpt lat="49.4178" lon="0.98386">
        <ele>122.80000305176</ele>
        <time>2016-09-25T08:28:35.000Z</time>
      </trkpt>
      <trkpt lat="49.41781" lon="0.98389">
        <ele>123</ele>
        <time>2016-09-25T08:28:36.000Z</time>
      </trkpt>
      <trkpt lat="49.4178" lon="0.98414">
        <ele>123.19999694824</ele>
        <time>2016-09-25T08:28:42.000Z</time>
      </trkpt>
      <trkpt lat="49.41776" lon="0.9843">
        <ele>123.40000152588</ele>
        <time>2016-09-25T08:28:46.000Z</time>
      </trkpt>
      <trkpt lat="49.41769" lon="0.98446">
        <ele>123.59999847412</ele>
        <time>2016-09-25T08:28:50.000Z</time>
      </trkpt>
      <trkpt lat="49.41767" lon="0.98451">
        <ele>123.80000305176</ele>
        <time>2016-09-25T08:28:51.000Z</time>
      </trkpt>
      <trkpt lat="49.41761" lon="0.98467">
        <ele>124</ele>
        <time>2016-09-25T08:28:55.000Z</time>
      </trkpt>
      <trkpt lat="49.41756" lon="0.98486">
        <ele>124.40000152588</ele>
        <time>2016-09-25T08:28:59.000Z</time>
      </trkpt>
      <trkpt lat="49.41746" lon="0.98519">
        <ele>124.40000152588</ele>
        <time>2016-09-25T08:29:07.000Z</time>
      </trkpt>
      <trkpt lat="49.41736" lon="0.98538">
        <ele>124.59999847412</ele>
        <time>2016-09-25T08:29:15.000Z</time>
      </trkpt>
      <trkpt lat="49.4173" lon="0.98554">
        <ele>124.59999847412</ele>
        <time>2016-09-25T08:29:21.000Z</time>
      </trkpt>
      <trkpt lat="49.41728" lon="0.98559">
        <ele>124.59999847412</ele>
        <time>2016-09-25T08:29:23.000Z</time>
      </trkpt>
      <trkpt lat="49.41715" lon="0.98583">
        <ele>124.40000152588</ele>
        <time>2016-09-25T08:29:32.000Z</time>
      </trkpt>
      <trkpt lat="49.41711" lon="0.98588">
        <ele>124.80000305176</ele>
        <time>2016-09-25T08:29:34.000Z</time>
      </trkpt>
      <trkpt lat="49.41695" lon="0.98603">
        <ele>125.59999847412</ele>
        <time>2016-09-25T08:29:40.000Z</time>
      </trkpt>
      <trkpt lat="49.41686" lon="0.98611">
        <ele>125.59999847412</ele>
        <time>2016-09-25T08:29:43.000Z</time>
      </trkpt>
      <trkpt lat="49.41679" lon="0.98619">
        <ele>125.80000305176</ele>
        <time>2016-09-25T08:29:46.000Z</time>
      </trkpt>
      <trkpt lat="49.41675" lon="0.98625">
        <ele>125.40000152588</ele>
        <time>2016-09-25T08:29:48.000Z</time>
      </trkpt>
      <trkpt lat="49.41668" lon="0.98638">
        <ele>124.59999847412</ele>
        <time>2016-09-25T08:29:52.000Z</time>
      </trkpt>
      <trkpt lat="49.41654" lon="0.98656">
        <ele>123.80000305176</ele>
        <time>2016-09-25T08:29:56.000Z</time>
      </trkpt>
      <trkpt lat="49.41642" lon="0.98682">
        <ele>123</ele>
        <time>2016-09-25T08:30:03.000Z</time>
      </trkpt>
      <trkpt lat="49.41634" lon="0.98711">
        <ele>122.19999694824</ele>
        <time>2016-09-25T08:30:10.000Z</time>
      </trkpt>
      <trkpt lat="49.41628" lon="0.98742">
        <ele>121.80000305176</ele>
        <time>2016-09-25T08:30:18.000Z</time>
      </trkpt>
      <trkpt lat="49.4163" lon="0.98769">
        <ele>122.19999694824</ele>
        <time>2016-09-25T08:30:24.000Z</time>
      </trkpt>
      <trkpt lat="49.41631" lon="0.98783">
        <ele>122.40000152588</ele>
        <time>2016-09-25T08:30:27.000Z</time>
      </trkpt>
      <trkpt lat="49.41631" lon="0.98792">
        <ele>122.59999847412</ele>
        <time>2016-09-25T08:30:29.000Z</time>
      </trkpt>
      <trkpt lat="49.41636" lon="0.98825">
        <ele>122.40000152588</ele>
        <time>2016-09-25T08:30:35.000Z</time>
      </trkpt>
      <trkpt lat="49.41641" lon="0.98839">
        <ele>122.59999847412</ele>
        <time>2016-09-25T08:30:38.000Z</time>
      </trkpt>
      <trkpt lat="49.41644" lon="0.98857">
        <ele>123</ele>
        <time>2016-09-25T08:30:43.000Z</time>
      </trkpt>
      <trkpt lat="49.41647" lon="0.98877">
        <ele>123.80000305176</ele>
        <time>2016-09-25T08:30:48.000Z</time>
      </trkpt>
      <trkpt lat="49.41652" lon="0.98907">
        <ele>124.40000152588</ele>
        <time>2016-09-25T08:30:52.000Z</time>
      </trkpt>
      <trkpt lat="49.41653" lon="0.98914">
        <ele>124.40000152588</ele>
        <time>2016-09-25T08:30:53.000Z</time>
      </trkpt>
      <trkpt lat="49.41656" lon="0.98919">
        <ele>124.40000152588</ele>
        <time>2016-09-25T08:30:54.000Z</time>
      </trkpt>
      <trkpt lat="49.41658" lon="0.9893">
        <ele>124.40000152588</ele>
        <time>2016-09-25T08:30:57.000Z</time>
      </trkpt>
      <trkpt lat="49.41659" lon="0.98936">
        <ele>124.40000152588</ele>
        <time>2016-09-25T08:30:59.000Z</time>
      </trkpt>
      <trkpt lat="49.41661" lon="0.98945">
        <ele>124.59999847412</ele>
        <time>2016-09-25T08:31:04.000Z</time>
      </trkpt>
      <trkpt lat="49.41667" lon="0.98953">
        <ele>124.59999847412</ele>
        <time>2016-09-25T08:31:12.000Z</time>
      </trkpt>
      <trkpt lat="49.4167" lon="0.98956">
        <ele>124.59999847412</ele>
        <time>2016-09-25T08:31:15.000Z</time>
      </trkpt>
      <trkpt lat="49.41677" lon="0.98965">
        <ele>124.59999847412</ele>
        <time>2016-09-25T08:31:22.000Z</time>
      </trkpt>
      <trkpt lat="49.41686" lon="0.98989">
        <ele>124.19999694824</ele>
        <time>2016-09-25T08:31:32.000Z</time>
      </trkpt>
      <trkpt lat="49.41695" lon="0.9901">
        <ele>123.40000152588</ele>
        <time>2016-09-25T08:31:40.000Z</time>
      </trkpt>
      <trkpt lat="49.41704" lon="0.99036">
        <ele>122.80000305176</ele>
        <time>2016-09-25T08:31:49.000Z</time>
      </trkpt>
      <trkpt lat="49.4171" lon="0.99052">
        <ele>122.80000305176</ele>
        <time>2016-09-25T08:31:53.000Z</time>
      </trkpt>
      <trkpt lat="49.41714" lon="0.99062">
        <ele>122.80000305176</ele>
        <time>2016-09-25T08:31:55.000Z</time>
      </trkpt>
      <trkpt lat="49.41715" lon="0.99066">
        <ele>122.80000305176</ele>
        <time>2016-09-25T08:31:56.000Z</time>
      </trkpt>
      <trkpt lat="49.41724" lon="0.9909">
        <ele>122.59999847412</ele>
        <time>2016-09-25T08:32:02.000Z</time>
      </trkpt>
      <trkpt lat="49.41726" lon="0.99098">
        <ele>122.59999847412</ele>
        <time>2016-09-25T08:32:04.000Z</time>
      </trkpt>
      <trkpt lat="49.41738" lon="0.99132">
        <ele>122.59999847412</ele>
        <time>2016-09-25T08:32:12.000Z</time>
      </trkpt>
      <trkpt lat="49.41752" lon="0.99162">
        <ele>123</ele>
        <time>2016-09-25T08:32:19.000Z</time>
      </trkpt>
      <trkpt lat="49.41762" lon="0.99195">
        <ele>123.19999694824</ele>
        <time>2016-09-25T08:32:26.000Z</time>
      </trkpt>
      <trkpt lat="49.41766" lon="0.99206">
        <ele>123.40000152588</ele>
        <time>2016-09-25T08:32:31.000Z</time>
      </trkpt>
      <trkpt lat="49.41771" lon="0.99228">
        <ele>123.80000305176</ele>
        <time>2016-09-25T08:32:37.000Z</time>
      </trkpt>
      <trkpt lat="49.41778" lon="0.99248">
        <ele>123.40000152588</ele>
        <time>2016-09-25T08:32:41.000Z</time>
      </trkpt>
      <trkpt lat="49.41782" lon="0.99259">
        <ele>123.19999694824</ele>
        <time>2016-09-25T08:32:43.000Z</time>
      </trkpt>
      <trkpt lat="49.41796" lon="0.99304">
        <ele>123</ele>
        <time>2016-09-25T08:32:51.000Z</time>
      </trkpt>
      <trkpt lat="49.41798" lon="0.99311">
        <ele>122.80000305176</ele>
        <time>2016-09-25T08:32:52.000Z</time>
      </trkpt>
      <trkpt lat="49.4181" lon="0.99343">
        <ele>121.19999694824</ele>
        <time>2016-09-25T08:32:57.000Z</time>
      </trkpt>
      <trkpt lat="49.41817" lon="0.99357">
        <ele>120.80000305176</ele>
        <time>2016-09-25T08:32:59.000Z</time>
      </trkpt>
      <trkpt lat="49.41835" lon="0.99399">
        <ele>120</ele>
        <time>2016-09-25T08:33:06.000Z</time>
      </trkpt>
      <trkpt lat="49.41836" lon="0.9941">
        <ele>119.80000305176</ele>
        <time>2016-09-25T08:33:08.000Z</time>
      </trkpt>
      <trkpt lat="49.41836" lon="0.99415">
        <ele>119.80000305176</ele>
        <time>2016-09-25T08:33:09.000Z</time>
      </trkpt>
      <trkpt lat="49.41835" lon="0.9942">
        <ele>119.59999847412</ele>
        <time>2016-09-25T08:33:10.000Z</time>
      </trkpt>
      <trkpt lat="49.41834" lon="0.99426">
        <ele>119.59999847412</ele>
        <time>2016-09-25T08:33:11.000Z</time>
      </trkpt>
      <trkpt lat="49.41831" lon="0.99436">
        <ele>119.40000152588</ele>
        <time>2016-09-25T08:33:13.000Z</time>
      </trkpt>
      <trkpt lat="49.4182" lon="0.99457">
        <ele>119.19999694824</ele>
        <time>2016-09-25T08:33:17.000Z</time>
      </trkpt>
      <trkpt lat="49.41807" lon="0.99478">
        <ele>119</ele>
        <time>2016-09-25T08:33:22.000Z</time>
      </trkpt>
      <trkpt lat="49.41801" lon="0.99486">
        <ele>119</ele>
        <time>2016-09-25T08:33:24.000Z</time>
      </trkpt>
      <trkpt lat="49.41783" lon="0.99521">
        <ele>119</ele>
        <time>2016-09-25T08:33:33.000Z</time>
      </trkpt>
      <trkpt lat="49.41759" lon="0.99555">
        <ele>118.59999847412</ele>
        <time>2016-09-25T08:33:40.000Z</time>
      </trkpt>
      <trkpt lat="49.41752" lon="0.99566">
        <ele>118.19999694824</ele>
        <time>2016-09-25T08:33:42.000Z</time>
      </trkpt>
      <trkpt lat="49.41738" lon="0.99594">
        <ele>117.59999847412</ele>
        <time>2016-09-25T08:33:47.000Z</time>
      </trkpt>
      <trkpt lat="49.41731" lon="0.99605">
        <ele>117.40000152588</ele>
        <time>2016-09-25T08:33:49.000Z</time>
      </trkpt>
      <trkpt lat="49.41723" lon="0.99617">
        <ele>117.19999694824</ele>
        <time>2016-09-25T08:33:51.000Z</time>
      </trkpt>
      <trkpt lat="49.4171" lon="0.99635">
        <ele>117.19999694824</ele>
        <time>2016-09-25T08:33:54.000Z</time>
      </trkpt>
      <trkpt lat="49.41705" lon="0.99642">
        <ele>117.19999694824</ele>
        <time>2016-09-25T08:33:55.000Z</time>
      </trkpt>
      <trkpt lat="49.41694" lon="0.99659">
        <ele>118.19999694824</ele>
        <time>2016-09-25T08:33:58.000Z</time>
      </trkpt>
      <trkpt lat="49.41679" lon="0.99682">
        <ele>119.59999847412</ele>
        <time>2016-09-25T08:34:02.000Z</time>
      </trkpt>
      <trkpt lat="49.41671" lon="0.99689">
        <ele>120.19999694824</ele>
        <time>2016-09-25T08:34:04.000Z</time>
      </trkpt>
      <trkpt lat="49.41664" lon="0.99699">
        <ele>120.59999847412</ele>
        <time>2016-09-25T08:34:06.000Z</time>
      </trkpt>
      <trkpt lat="49.41661" lon="0.99705">
        <ele>120.59999847412</ele>
        <time>2016-09-25T08:34:07.000Z</time>
      </trkpt>
      <trkpt lat="49.41654" lon="0.99718">
        <ele>120.80000305176</ele>
        <time>2016-09-25T08:34:09.000Z</time>
      </trkpt>
      <trkpt lat="49.41648" lon="0.99733">
        <ele>120.80000305176</ele>
        <time>2016-09-25T08:34:11.000Z</time>
      </trkpt>
      <trkpt lat="49.41645" lon="0.99738">
        <ele>120.80000305176</ele>
        <time>2016-09-25T08:34:12.000Z</time>
      </trkpt>
      <trkpt lat="49.41643" lon="0.99742">
        <ele>120.80000305176</ele>
        <time>2016-09-25T08:34:13.000Z</time>
      </trkpt>
      <trkpt lat="49.41641" lon="0.99747">
        <ele>120.80000305176</ele>
        <time>2016-09-25T08:34:14.000Z</time>
      </trkpt>
      <trkpt lat="49.41633" lon="0.99764">
        <ele>120.59999847412</ele>
        <time>2016-09-25T08:34:17.000Z</time>
      </trkpt>
      <trkpt lat="49.4163" lon="0.9977">
        <ele>120.59999847412</ele>
        <time>2016-09-25T08:34:18.000Z</time>
      </trkpt>
      <trkpt lat="49.41618" lon="0.99786">
        <ele>120</ele>
        <time>2016-09-25T08:34:21.000Z</time>
      </trkpt>
      <trkpt lat="49.41603" lon="0.99802">
        <ele>119.80000305176</ele>
        <time>2016-09-25T08:34:24.000Z</time>
      </trkpt>
      <trkpt lat="49.41594" lon="0.99821">
        <ele>118.19999694824</ele>
        <time>2016-09-25T08:34:27.000Z</time>
      </trkpt>
      <trkpt lat="49.41588" lon="0.99831">
        <ele>117.40000152588</ele>
        <time>2016-09-25T08:34:29.000Z</time>
      </trkpt>
      <trkpt lat="49.41582" lon="0.9984">
        <ele>116.40000152588</ele>
        <time>2016-09-25T08:34:31.000Z</time>
      </trkpt>
      <trkpt lat="49.41571" lon="0.99858">
        <ele>115</ele>
        <time>2016-09-25T08:34:34.000Z</time>
      </trkpt>
      <trkpt lat="49.41568" lon="0.99865">
        <ele>114.40000152588</ele>
        <time>2016-09-25T08:34:35.000Z</time>
      </trkpt>
      <trkpt lat="49.41568" lon="0.99882">
        <ele>113.19999694824</ele>
        <time>2016-09-25T08:34:37.000Z</time>
      </trkpt>
      <trkpt lat="49.41569" lon="0.9989">
        <ele>112.80000305176</ele>
        <time>2016-09-25T08:34:38.000Z</time>
      </trkpt>
      <trkpt lat="49.41577" lon="0.99907">
        <ele>112.40000152588</ele>
        <time>2016-09-25T08:34:41.000Z</time>
      </trkpt>
      <trkpt lat="49.41581" lon="0.99912">
        <ele>112.40000152588</ele>
        <time>2016-09-25T08:34:42.000Z</time>
      </trkpt>
      <trkpt lat="49.41588" lon="0.99935">
        <ele>111.59999847412</ele>
        <time>2016-09-25T08:34:45.000Z</time>
      </trkpt>
      <trkpt lat="49.41595" lon="0.99959">
        <ele>111.19999694824</ele>
        <time>2016-09-25T08:34:48.000Z</time>
      </trkpt>
      <trkpt lat="49.41606" lon="0.99993">
        <ele>109.59999847412</ele>
        <time>2016-09-25T08:34:52.000Z</time>
      </trkpt>
      <trkpt lat="49.41615" lon="1.00023">
        <ele>106.40000152588</ele>
        <time>2016-09-25T08:34:55.000Z</time>
      </trkpt>
      <trkpt lat="49.4162" lon="1.00041">
        <ele>105</ele>
        <time>2016-09-25T08:34:57.000Z</time>
      </trkpt>
      <trkpt lat="49.41622" lon="1.0005">
        <ele>104.19999694824</ele>
        <time>2016-09-25T08:34:58.000Z</time>
      </trkpt>
      <trkpt lat="49.41629" lon="1.00079">
        <ele>102.19999694824</ele>
        <time>2016-09-25T08:35:01.000Z</time>
      </trkpt>
      <trkpt lat="49.41631" lon="1.00088">
        <ele>101.59999847412</ele>
        <time>2016-09-25T08:35:02.000Z</time>
      </trkpt>
      <trkpt lat="49.41634" lon="1.00096">
        <ele>101.19999694824</ele>
        <time>2016-09-25T08:35:03.000Z</time>
      </trkpt>
      <trkpt lat="49.41638" lon="1.00103">
        <ele>101</ele>
        <time>2016-09-25T08:35:04.000Z</time>
      </trkpt>
      <trkpt lat="49.41642" lon="1.00108">
        <ele>100.80000305176</ele>
        <time>2016-09-25T08:35:05.000Z</time>
      </trkpt>
      <trkpt lat="49.41646" lon="1.00113">
        <ele>100.59999847412</ele>
        <time>2016-09-25T08:35:06.000Z</time>
      </trkpt>
      <trkpt lat="49.41656" lon="1.00123">
        <ele>100.59999847412</ele>
        <time>2016-09-25T08:35:08.000Z</time>
      </trkpt>
      <trkpt lat="49.4166" lon="1.00128">
        <ele>100.40000152588</ele>
        <time>2016-09-25T08:35:09.000Z</time>
      </trkpt>
      <trkpt lat="49.41669" lon="1.0015">
        <ele>99.199996948242</ele>
        <time>2016-09-25T08:35:12.000Z</time>
      </trkpt>
      <trkpt lat="49.41676" lon="1.00165">
        <ele>98.199996948242</ele>
        <time>2016-09-25T08:35:14.000Z</time>
      </trkpt>
      <trkpt lat="49.41693" lon="1.00207">
        <ele>95.400001525879</ele>
        <time>2016-09-25T08:35:20.000Z</time>
      </trkpt>
      <trkpt lat="49.41703" lon="1.00234">
        <ele>94.400001525879</ele>
        <time>2016-09-25T08:35:24.000Z</time>
      </trkpt>
      <trkpt lat="49.41708" lon="1.00252">
        <ele>94.199996948242</ele>
        <time>2016-09-25T08:35:26.000Z</time>
      </trkpt>
      <trkpt lat="49.41715" lon="1.00283">
        <ele>93.800003051758</ele>
        <time>2016-09-25T08:35:29.000Z</time>
      </trkpt>
      <trkpt lat="49.41718" lon="1.00318">
        <ele>92.599998474121</ele>
        <time>2016-09-25T08:35:32.000Z</time>
      </trkpt>
      <trkpt lat="49.41718" lon="1.0033">
        <ele>92.199996948242</ele>
        <time>2016-09-25T08:35:33.000Z</time>
      </trkpt>
      <trkpt lat="49.41723" lon="1.0037">
        <ele>90.199996948242</ele>
        <time>2016-09-25T08:35:37.000Z</time>
      </trkpt>
      <trkpt lat="49.41724" lon="1.00378">
        <ele>89.800003051758</ele>
        <time>2016-09-25T08:35:38.000Z</time>
      </trkpt>
      <trkpt lat="49.41725" lon="1.00398">
        <ele>88.400001525879</ele>
        <time>2016-09-25T08:35:41.000Z</time>
      </trkpt>
      <trkpt lat="49.41725" lon="1.00409">
        <ele>87.800003051758</ele>
        <time>2016-09-25T08:35:43.000Z</time>
      </trkpt>
      <trkpt lat="49.41726" lon="1.00415">
        <ele>87.400001525879</ele>
        <time>2016-09-25T08:35:44.000Z</time>
      </trkpt>
      <trkpt lat="49.41726" lon="1.00429">
        <ele>86.800003051758</ele>
        <time>2016-09-25T08:35:47.000Z</time>
      </trkpt>
      <trkpt lat="49.41729" lon="1.00447">
        <ele>86.599998474121</ele>
        <time>2016-09-25T08:35:51.000Z</time>
      </trkpt>
      <trkpt lat="49.41733" lon="1.00464">
        <ele>86.800003051758</ele>
        <time>2016-09-25T08:35:55.000Z</time>
      </trkpt>
      <trkpt lat="49.41735" lon="1.00476">
        <ele>86.599998474121</ele>
        <time>2016-09-25T08:35:58.000Z</time>
      </trkpt>
      <trkpt lat="49.41735" lon="1.00483">
        <ele>86</ele>
        <time>2016-09-25T08:36:01.000Z</time>
      </trkpt>
      <trkpt lat="49.41731" lon="1.00486">
        <ele>85</ele>
        <time>2016-09-25T08:36:03.000Z</time>
      </trkpt>
      <trkpt lat="49.41725" lon="1.00487">
        <ele>83.400001525879</ele>
        <time>2016-09-25T08:36:06.000Z</time>
      </trkpt>
      <trkpt lat="49.41721" lon="1.0049">
        <ele>82.199996948242</ele>
        <time>2016-09-25T08:36:08.000Z</time>
      </trkpt>
      <trkpt lat="49.41717" lon="1.00496">
        <ele>81</ele>
        <time>2016-09-25T08:36:11.000Z</time>
      </trkpt>
      <trkpt lat="49.41716" lon="1.00499">
        <ele>80.800003051758</ele>
        <time>2016-09-25T08:36:12.000Z</time>
      </trkpt>
      <trkpt lat="49.41715" lon="1.00502">
        <ele>80.599998474121</ele>
        <time>2016-09-25T08:36:13.000Z</time>
      </trkpt>
      <trkpt lat="49.41711" lon="1.00509">
        <ele>80.199996948242</ele>
        <time>2016-09-25T08:36:15.000Z</time>
      </trkpt>
      <trkpt lat="49.41708" lon="1.00513">
        <ele>79.800003051758</ele>
        <time>2016-09-25T08:36:17.000Z</time>
      </trkpt>
      <trkpt lat="49.41706" lon="1.00517">
        <ele>79.400001525879</ele>
        <time>2016-09-25T08:36:19.000Z</time>
      </trkpt>
      <trkpt lat="49.41705" lon="1.00519">
        <ele>79.400001525879</ele>
        <time>2016-09-25T08:36:20.000Z</time>
      </trkpt>
      <trkpt lat="49.417" lon="1.00532">
        <ele>78.800003051758</ele>
        <time>2016-09-25T08:36:26.000Z</time>
      </trkpt>
      <trkpt lat="49.417" lon="1.00536">
        <ele>78.800003051758</ele>
        <time>2016-09-25T08:36:27.000Z</time>
      </trkpt>
      <trkpt lat="49.417" lon="1.00545">
        <ele>79</ele>
        <time>2016-09-25T08:36:30.000Z</time>
      </trkpt>
      <trkpt lat="49.417" lon="1.00547">
        <ele>79</ele>
        <time>2016-09-25T08:36:32.000Z</time>
      </trkpt>
      <trkpt lat="49.417" lon="1.00547">
        <ele>79</ele>
        <time>2016-09-25T08:36:47.000Z</time>
      </trkpt>
      <trkpt lat="49.41696" lon="1.00557">
        <ele>78.599998474121</ele>
        <time>2016-09-25T08:36:51.000Z</time>
      </trkpt>
      <trkpt lat="49.41697" lon="1.00564">
        <ele>78.400001525879</ele>
        <time>2016-09-25T08:36:53.000Z</time>
      </trkpt>
      <trkpt lat="49.41697" lon="1.00569">
        <ele>78.599998474121</ele>
        <time>2016-09-25T08:36:55.000Z</time>
      </trkpt>
      <trkpt lat="49.41697" lon="1.00576">
        <ele>78.599998474121</ele>
        <time>2016-09-25T08:36:57.000Z</time>
      </trkpt>
      <trkpt lat="49.41697" lon="1.00586">
        <ele>78.599998474121</ele>
        <time>2016-09-25T08:36:59.000Z</time>
      </trkpt>
      <trkpt lat="49.41697" lon="1.00591">
        <ele>78.599998474121</ele>
        <time>2016-09-25T08:37:00.000Z</time>
      </trkpt>
      <trkpt lat="49.41696" lon="1.00599">
        <ele>78.400001525879</ele>
        <time>2016-09-25T08:37:02.000Z</time>
      </trkpt>
      <trkpt lat="49.41695" lon="1.00603">
        <ele>78</ele>
        <time>2016-09-25T08:37:04.000Z</time>
      </trkpt>
      <trkpt lat="49.41694" lon="1.00605">
        <ele>77.800003051758</ele>
        <time>2016-09-25T08:37:05.000Z</time>
      </trkpt>
      <trkpt lat="49.41693" lon="1.00607">
        <ele>77.400001525879</ele>
        <time>2016-09-25T08:37:06.000Z</time>
      </trkpt>
      <trkpt lat="49.41692" lon="1.0061">
        <ele>77.199996948242</ele>
        <time>2016-09-25T08:37:07.000Z</time>
      </trkpt>
      <trkpt lat="49.4169" lon="1.00623">
        <ele>76.800003051758</ele>
        <time>2016-09-25T08:37:10.000Z</time>
      </trkpt>
      <trkpt lat="49.4169" lon="1.00627">
        <ele>76.800003051758</ele>
        <time>2016-09-25T08:37:11.000Z</time>
      </trkpt>
      <trkpt lat="49.41692" lon="1.00632">
        <ele>77.400001525879</ele>
        <time>2016-09-25T08:37:12.000Z</time>
      </trkpt>
      <trkpt lat="49.41697" lon="1.00638">
        <ele>78.599998474121</ele>
        <time>2016-09-25T08:37:14.000Z</time>
      </trkpt>
      <trkpt lat="49.41707" lon="1.00643">
        <ele>80.599998474121</ele>
        <time>2016-09-25T08:37:18.000Z</time>
      </trkpt>
      <trkpt lat="49.4171" lon="1.00643">
        <ele>81</ele>
        <time>2016-09-25T08:37:19.000Z</time>
      </trkpt>
      <trkpt lat="49.41734" lon="1.00637">
        <ele>85</ele>
        <time>2016-09-25T08:37:29.000Z</time>
      </trkpt>
      <trkpt lat="49.41742" lon="1.00634">
        <ele>86.400001525879</ele>
        <time>2016-09-25T08:37:34.000Z</time>
      </trkpt>
      <trkpt lat="49.41746" lon="1.00633">
        <ele>87</ele>
        <time>2016-09-25T08:37:38.000Z</time>
      </trkpt>
      <trkpt lat="49.4175" lon="1.00634">
        <ele>87.599998474121</ele>
        <time>2016-09-25T08:37:44.000Z</time>
      </trkpt>
      <trkpt lat="49.4175" lon="1.00634">
        <ele>87.599998474121</ele>
        <time>2016-09-25T08:37:46.000Z</time>
      </trkpt>
      <trkpt lat="49.41755" lon="1.00638">
        <ele>88.400001525879</ele>
        <time>2016-09-25T08:37:54.000Z</time>
      </trkpt>
      <trkpt lat="49.41756" lon="1.00639">
        <ele>88.599998474121</ele>
        <time>2016-09-25T08:37:55.000Z</time>
      </trkpt>
      <trkpt lat="49.41757" lon="1.0064">
        <ele>88.800003051758</ele>
        <time>2016-09-25T08:37:56.000Z</time>
      </trkpt>
      <trkpt lat="49.4176" lon="1.00642">
        <ele>89.400001525879</ele>
        <time>2016-09-25T08:38:04.000Z</time>
      </trkpt>
      <trkpt lat="49.41763" lon="1.00643">
        <ele>89.800003051758</ele>
        <time>2016-09-25T08:38:06.000Z</time>
      </trkpt>
      <trkpt lat="49.41765" lon="1.00644">
        <ele>90.199996948242</ele>
        <time>2016-09-25T08:38:09.000Z</time>
      </trkpt>
      <trkpt lat="49.41766" lon="1.00646">
        <ele>90.599998474121</ele>
        <time>2016-09-25T08:38:11.000Z</time>
      </trkpt>
      <trkpt lat="49.41766" lon="1.00646">
        <ele>90.599998474121</ele>
        <time>2016-09-25T08:38:12.000Z</time>
      </trkpt>
      <trkpt lat="49.41769" lon="1.00652">
        <ele>91.599998474121</ele>
        <time>2016-09-25T08:38:17.000Z</time>
      </trkpt>
      <trkpt lat="49.4177" lon="1.00654">
        <ele>91.800003051758</ele>
        <time>2016-09-25T08:38:19.000Z</time>
      </trkpt>
      <trkpt lat="49.4177" lon="1.00655">
        <ele>92</ele>
        <time>2016-09-25T08:38:20.000Z</time>
      </trkpt>
      <trkpt lat="49.41772" lon="1.00658">
        <ele>92.400001525879</ele>
        <time>2016-09-25T08:38:23.000Z</time>
      </trkpt>
      <trkpt lat="49.41774" lon="1.00661">
        <ele>93</ele>
        <time>2016-09-25T08:38:28.000Z</time>
      </trkpt>
      <trkpt lat="49.41775" lon="1.00663">
        <ele>93.400001525879</ele>
        <time>2016-09-25T08:38:31.000Z</time>
      </trkpt>
      <trkpt lat="49.4178" lon="1.00669">
        <ele>94.599998474121</ele>
        <time>2016-09-25T08:38:41.000Z</time>
      </trkpt>
      <trkpt lat="49.41784" lon="1.00674">
        <ele>95.599998474121</ele>
        <time>2016-09-25T08:38:52.000Z</time>
      </trkpt>
      <trkpt lat="49.4179" lon="1.00682">
        <ele>96.800003051758</ele>
        <time>2016-09-25T08:39:00.000Z</time>
      </trkpt>
      <trkpt lat="49.41792" lon="1.00684">
        <ele>97</ele>
        <time>2016-09-25T08:39:02.000Z</time>
      </trkpt>
      <trkpt lat="49.41793" lon="1.00686">
        <ele>97.400001525879</ele>
        <time>2016-09-25T08:39:05.000Z</time>
      </trkpt>
      <trkpt lat="49.41795" lon="1.00689">
        <ele>97.800003051758</ele>
        <time>2016-09-25T08:39:08.000Z</time>
      </trkpt>
      <trkpt lat="49.41796" lon="1.00691">
        <ele>98</ele>
        <time>2016-09-25T08:39:11.000Z</time>
      </trkpt>
      <trkpt lat="49.41797" lon="1.00691">
        <ele>98.199996948242</ele>
        <time>2016-09-25T08:39:13.000Z</time>
      </trkpt>
      <trkpt lat="49.41797" lon="1.00693">
        <ele>98.199996948242</ele>
        <time>2016-09-25T08:39:15.000Z</time>
      </trkpt>
      <trkpt lat="49.41797" lon="1.00693">
        <ele>98.400001525879</ele>
        <time>2016-09-25T08:39:17.000Z</time>
      </trkpt>
      <trkpt lat="49.41799" lon="1.00694">
        <ele>98.599998474121</ele>
        <time>2016-09-25T08:39:22.000Z</time>
      </trkpt>
      <trkpt lat="49.41799" lon="1.00694">
        <ele>98.599998474121</ele>
        <time>2016-09-25T08:39:23.000Z</time>
      </trkpt>
      <trkpt lat="49.41801" lon="1.00695">
        <ele>98.800003051758</ele>
        <time>2016-09-25T08:39:26.000Z</time>
      </trkpt>
      <trkpt lat="49.41804" lon="1.00699">
        <ele>99.400001525879</ele>
        <time>2016-09-25T08:39:31.000Z</time>
      </trkpt>
      <trkpt lat="49.41804" lon="1.007">
        <ele>99.599998474121</ele>
        <time>2016-09-25T08:39:32.000Z</time>
      </trkpt>
      <trkpt lat="49.41807" lon="1.00708">
        <ele>100.40000152588</ele>
        <time>2016-09-25T08:39:40.000Z</time>
      </trkpt>
      <trkpt lat="49.41809" lon="1.00711">
        <ele>100.80000305176</ele>
        <time>2016-09-25T08:39:45.000Z</time>
      </trkpt>
      <trkpt lat="49.41812" lon="1.00711">
        <ele>101.19999694824</ele>
        <time>2016-09-25T08:39:48.000Z</time>
      </trkpt>
      <trkpt lat="49.41813" lon="1.0071">
        <ele>101.40000152588</ele>
        <time>2016-09-25T08:39:50.000Z</time>
      </trkpt>
      <trkpt lat="49.41814" lon="1.0071">
        <ele>101.40000152588</ele>
        <time>2016-09-25T08:39:51.000Z</time>
      </trkpt>
      <trkpt lat="49.41814" lon="1.0071">
        <ele>101.40000152588</ele>
        <time>2016-09-25T08:39:52.000Z</time>
      </trkpt>
      <trkpt lat="49.41816" lon="1.00712">
        <ele>101.80000305176</ele>
        <time>2016-09-25T08:39:56.000Z</time>
      </trkpt>
      <trkpt lat="49.41819" lon="1.00717">
        <ele>102.40000152588</ele>
        <time>2016-09-25T08:40:00.000Z</time>
      </trkpt>
      <trkpt lat="49.41819" lon="1.00718">
        <ele>102.40000152588</ele>
        <time>2016-09-25T08:40:01.000Z</time>
      </trkpt>
      <trkpt lat="49.41823" lon="1.00723">
        <ele>103.19999694824</ele>
        <time>2016-09-25T08:40:08.000Z</time>
      </trkpt>
      <trkpt lat="49.41823" lon="1.00724">
        <ele>103.40000152588</ele>
        <time>2016-09-25T08:40:09.000Z</time>
      </trkpt>
      <trkpt lat="49.41825" lon="1.00727">
        <ele>103.59999847412</ele>
        <time>2016-09-25T08:40:13.000Z</time>
      </trkpt>
      <trkpt lat="49.41827" lon="1.00727">
        <ele>103.80000305176</ele>
        <time>2016-09-25T08:40:16.000Z</time>
      </trkpt>
      <trkpt lat="49.41833" lon="1.00731">
        <ele>104.59999847412</ele>
        <time>2016-09-25T08:40:22.000Z</time>
      </trkpt>
      <trkpt lat="49.41837" lon="1.0073">
        <ele>105</ele>
        <time>2016-09-25T08:40:26.000Z</time>
      </trkpt>
      <trkpt lat="49.4184" lon="1.00728">
        <ele>105.19999694824</ele>
        <time>2016-09-25T08:40:31.000Z</time>
      </trkpt>
      <trkpt lat="49.4184" lon="1.00728">
        <ele>105.19999694824</ele>
        <time>2016-09-25T08:40:32.000Z</time>
      </trkpt>
      <trkpt lat="49.41842" lon="1.00729">
        <ele>105.59999847412</ele>
        <time>2016-09-25T08:40:42.000Z</time>
      </trkpt>
      <trkpt lat="49.41849" lon="1.00729">
        <ele>106.19999694824</ele>
        <time>2016-09-25T08:40:50.000Z</time>
      </trkpt>
      <trkpt lat="49.41851" lon="1.0073">
        <ele>106.59999847412</ele>
        <time>2016-09-25T08:40:52.000Z</time>
      </trkpt>
      <trkpt lat="49.41862" lon="1.00734">
        <ele>107.80000305176</ele>
        <time>2016-09-25T08:40:58.000Z</time>
      </trkpt>
      <trkpt lat="49.41869" lon="1.00735">
        <ele>108.19999694824</ele>
        <time>2016-09-25T08:41:02.000Z</time>
      </trkpt>
      <trkpt lat="49.41874" lon="1.00736">
        <ele>108.59999847412</ele>
        <time>2016-09-25T08:41:05.000Z</time>
      </trkpt>
      <trkpt lat="49.41878" lon="1.00736">
        <ele>108.80000305176</ele>
        <time>2016-09-25T08:41:08.000Z</time>
      </trkpt>
      <trkpt lat="49.41879" lon="1.00736">
        <ele>109</ele>
        <time>2016-09-25T08:41:09.000Z</time>
      </trkpt>
      <trkpt lat="49.41897" lon="1.00733">
        <ele>110.40000152588</ele>
        <time>2016-09-25T08:41:17.000Z</time>
      </trkpt>
      <trkpt lat="49.41903" lon="1.00732">
        <ele>111</ele>
        <time>2016-09-25T08:41:21.000Z</time>
      </trkpt>
      <trkpt lat="49.41913" lon="1.00727">
        <ele>112</ele>
        <time>2016-09-25T08:41:27.000Z</time>
      </trkpt>
      <trkpt lat="49.41933" lon="1.00722">
        <ele>113.59999847412</ele>
        <time>2016-09-25T08:41:37.000Z</time>
      </trkpt>
      <trkpt lat="49.41944" lon="1.00723">
        <ele>114.40000152588</ele>
        <time>2016-09-25T08:41:42.000Z</time>
      </trkpt>
      <trkpt lat="49.41948" lon="1.00724">
        <ele>115</ele>
        <time>2016-09-25T08:41:45.000Z</time>
      </trkpt>
      <trkpt lat="49.41966" lon="1.00727">
        <ele>115</ele>
        <time>2016-09-25T08:41:53.000Z</time>
      </trkpt>
      <trkpt lat="49.41986" lon="1.00742">
        <ele>114.80000305176</ele>
        <time>2016-09-25T08:42:02.000Z</time>
      </trkpt>
      <trkpt lat="49.42" lon="1.0076">
        <ele>114.59999847412</ele>
        <time>2016-09-25T08:42:09.000Z</time>
      </trkpt>
      <trkpt lat="49.4201" lon="1.00784">
        <ele>114.19999694824</ele>
        <time>2016-09-25T08:42:16.000Z</time>
      </trkpt>
      <trkpt lat="49.42014" lon="1.00814">
        <ele>113.59999847412</ele>
        <time>2016-09-25T08:42:23.000Z</time>
      </trkpt>
      <trkpt lat="49.4202" lon="1.00847">
        <ele>113</ele>
        <time>2016-09-25T08:42:29.000Z</time>
      </trkpt>
      <trkpt lat="49.42021" lon="1.00852">
        <ele>112.80000305176</ele>
        <time>2016-09-25T08:42:30.000Z</time>
      </trkpt>
      <trkpt lat="49.4203" lon="1.00891">
        <ele>112</ele>
        <time>2016-09-25T08:42:36.000Z</time>
      </trkpt>
      <trkpt lat="49.42035" lon="1.0091">
        <ele>112.40000152588</ele>
        <time>2016-09-25T08:42:39.000Z</time>
      </trkpt>
      <trkpt lat="49.42038" lon="1.00924">
        <ele>112.59999847412</ele>
        <time>2016-09-25T08:42:41.000Z</time>
      </trkpt>
      <trkpt lat="49.42041" lon="1.00937">
        <ele>112.80000305176</ele>
        <time>2016-09-25T08:42:43.000Z</time>
      </trkpt>
      <trkpt lat="49.42044" lon="1.0095">
        <ele>113</ele>
        <time>2016-09-25T08:42:45.000Z</time>
      </trkpt>
      <trkpt lat="49.42047" lon="1.00963">
        <ele>113.40000152588</ele>
        <time>2016-09-25T08:42:47.000Z</time>
      </trkpt>
      <trkpt lat="49.42052" lon="1.00994">
        <ele>114</ele>
        <time>2016-09-25T08:42:52.000Z</time>
      </trkpt>
      <trkpt lat="49.42053" lon="1.01001">
        <ele>113.80000305176</ele>
        <time>2016-09-25T08:42:53.000Z</time>
      </trkpt>
      <trkpt lat="49.42061" lon="1.01062">
        <ele>112.59999847412</ele>
        <time>2016-09-25T08:43:01.000Z</time>
      </trkpt>
      <trkpt lat="49.42067" lon="1.01095">
        <ele>112</ele>
        <time>2016-09-25T08:43:06.000Z</time>
      </trkpt>
      <trkpt lat="49.42073" lon="1.0112">
        <ele>112.40000152588</ele>
        <time>2016-09-25T08:43:10.000Z</time>
      </trkpt>
      <trkpt lat="49.42077" lon="1.01139">
        <ele>112.80000305176</ele>
        <time>2016-09-25T08:43:13.000Z</time>
      </trkpt>
      <trkpt lat="49.42084" lon="1.01169">
        <ele>113</ele>
        <time>2016-09-25T08:43:18.000Z</time>
      </trkpt>
      <trkpt lat="49.42098" lon="1.01186">
        <ele>113</ele>
        <time>2016-09-25T08:43:23.000Z</time>
      </trkpt>
      <trkpt lat="49.42129" lon="1.01195">
        <ele>112.59999847412</ele>
        <time>2016-09-25T08:43:31.000Z</time>
      </trkpt>
      <trkpt lat="49.42135" lon="1.01195">
        <ele>112.59999847412</ele>
        <time>2016-09-25T08:43:32.000Z</time>
      </trkpt>
      <trkpt lat="49.42163" lon="1.01199">
        <ele>112.59999847412</ele>
        <time>2016-09-25T08:43:38.000Z</time>
      </trkpt>
      <trkpt lat="49.42189" lon="1.01205">
        <ele>112.59999847412</ele>
        <time>2016-09-25T08:43:43.000Z</time>
      </trkpt>
      <trkpt lat="49.422" lon="1.01209">
        <ele>112.40000152588</ele>
        <time>2016-09-25T08:43:45.000Z</time>
      </trkpt>
      <trkpt lat="49.42211" lon="1.0121">
        <ele>112.40000152588</ele>
        <time>2016-09-25T08:43:47.000Z</time>
      </trkpt>
      <trkpt lat="49.42236" lon="1.01214">
        <ele>112.19999694824</ele>
        <time>2016-09-25T08:43:52.000Z</time>
      </trkpt>
      <trkpt lat="49.42246" lon="1.01216">
        <ele>112.19999694824</ele>
        <time>2016-09-25T08:43:54.000Z</time>
      </trkpt>
      <trkpt lat="49.42285" lon="1.01222">
        <ele>112</ele>
        <time>2016-09-25T08:44:02.000Z</time>
      </trkpt>
      <trkpt lat="49.42299" lon="1.0122">
        <ele>111.80000305176</ele>
        <time>2016-09-25T08:44:05.000Z</time>
      </trkpt>
      <trkpt lat="49.42313" lon="1.01214">
        <ele>111.80000305176</ele>
        <time>2016-09-25T08:44:08.000Z</time>
      </trkpt>
      <trkpt lat="49.42347" lon="1.01197">
        <ele>111.40000152588</ele>
        <time>2016-09-25T08:44:16.000Z</time>
      </trkpt>
      <trkpt lat="49.42367" lon="1.01187">
        <ele>111.59999847412</ele>
        <time>2016-09-25T08:44:21.000Z</time>
      </trkpt>
      <trkpt lat="49.42375" lon="1.01185">
        <ele>111.59999847412</ele>
        <time>2016-09-25T08:44:23.000Z</time>
      </trkpt>
      <trkpt lat="49.42396" lon="1.0118">
        <ele>111.80000305176</ele>
        <time>2016-09-25T08:44:28.000Z</time>
      </trkpt>
      <trkpt lat="49.42407" lon="1.01176">
        <ele>112.19999694824</ele>
        <time>2016-09-25T08:44:31.000Z</time>
      </trkpt>
      <trkpt lat="49.42433" lon="1.01173">
        <ele>113</ele>
        <time>2016-09-25T08:44:37.000Z</time>
      </trkpt>
      <trkpt lat="49.4245" lon="1.01169">
        <ele>113.80000305176</ele>
        <time>2016-09-25T08:44:42.000Z</time>
      </trkpt>
      <trkpt lat="49.42457" lon="1.0116">
        <ele>114.19999694824</ele>
        <time>2016-09-25T08:44:45.000Z</time>
      </trkpt>
      <trkpt lat="49.42458" lon="1.01156">
        <ele>114.40000152588</ele>
        <time>2016-09-25T08:44:46.000Z</time>
      </trkpt>
      <trkpt lat="49.42462" lon="1.01145">
        <ele>114.59999847412</ele>
        <time>2016-09-25T08:44:48.000Z</time>
      </trkpt>
      <trkpt lat="49.42462" lon="1.01135">
        <ele>114.59999847412</ele>
        <time>2016-09-25T08:44:50.000Z</time>
      </trkpt>
      <trkpt lat="49.42461" lon="1.0113">
        <ele>114.59999847412</ele>
        <time>2016-09-25T08:44:51.000Z</time>
      </trkpt>
      <trkpt lat="49.42457" lon="1.0112">
        <ele>114.40000152588</ele>
        <time>2016-09-25T08:44:53.000Z</time>
      </trkpt>
      <trkpt lat="49.42452" lon="1.01104">
        <ele>114.19999694824</ele>
        <time>2016-09-25T08:44:56.000Z</time>
      </trkpt>
      <trkpt lat="49.42449" lon="1.01098">
        <ele>114</ele>
        <time>2016-09-25T08:44:57.000Z</time>
      </trkpt>
      <trkpt lat="49.42444" lon="1.01084">
        <ele>113.80000305176</ele>
        <time>2016-09-25T08:44:59.000Z</time>
      </trkpt>
      <trkpt lat="49.42436" lon="1.01069">
        <ele>113.80000305176</ele>
        <time>2016-09-25T08:45:01.000Z</time>
      </trkpt>
      <trkpt lat="49.42426" lon="1.01052">
        <ele>113.59999847412</ele>
        <time>2016-09-25T08:45:04.000Z</time>
      </trkpt>
      <trkpt lat="49.42419" lon="1.0104">
        <ele>113.80000305176</ele>
        <time>2016-09-25T08:45:06.000Z</time>
      </trkpt>
      <trkpt lat="49.42399" lon="1.01012">
        <ele>114</ele>
        <time>2016-09-25T08:45:11.000Z</time>
      </trkpt>
      <trkpt lat="49.4239" lon="1.01002">
        <ele>114</ele>
        <time>2016-09-25T08:45:13.000Z</time>
      </trkpt>
      <trkpt lat="49.42379" lon="1.00986">
        <ele>114</ele>
        <time>2016-09-25T08:45:16.000Z</time>
      </trkpt>
      <trkpt lat="49.42369" lon="1.00967">
        <ele>114.19999694824</ele>
        <time>2016-09-25T08:45:19.000Z</time>
      </trkpt>
      <trkpt lat="49.42352" lon="1.00938">
        <ele>113.80000305176</ele>
        <time>2016-09-25T08:45:25.000Z</time>
      </trkpt>
      <trkpt lat="49.42352" lon="1.00927">
        <ele>114</ele>
        <time>2016-09-25T08:45:27.000Z</time>
      </trkpt>
      <trkpt lat="49.42352" lon="1.00919">
        <ele>114</ele>
        <time>2016-09-25T08:45:29.000Z</time>
      </trkpt>
      <trkpt lat="49.42354" lon="1.00897">
        <ele>114.40000152588</ele>
        <time>2016-09-25T08:45:34.000Z</time>
      </trkpt>
      <trkpt lat="49.42349" lon="1.00879">
        <ele>114.40000152588</ele>
        <time>2016-09-25T08:45:38.000Z</time>
      </trkpt>
      <trkpt lat="49.42348" lon="1.00874">
        <ele>114.40000152588</ele>
        <time>2016-09-25T08:45:39.000Z</time>
      </trkpt>
      <trkpt lat="49.42339" lon="1.00846">
        <ele>113.80000305176</ele>
        <time>2016-09-25T08:45:45.000Z</time>
      </trkpt>
      <trkpt lat="49.42336" lon="1.00824">
        <ele>113.40000152588</ele>
        <time>2016-09-25T08:45:48.000Z</time>
      </trkpt>
      <trkpt lat="49.42335" lon="1.00816">
        <ele>113.40000152588</ele>
        <time>2016-09-25T08:45:49.000Z</time>
      </trkpt>
      <trkpt lat="49.42342" lon="1.00788">
        <ele>114</ele>
        <time>2016-09-25T08:45:53.000Z</time>
      </trkpt>
      <trkpt lat="49.42352" lon="1.0077">
        <ele>113.40000152588</ele>
        <time>2016-09-25T08:45:56.000Z</time>
      </trkpt>
      <trkpt lat="49.42364" lon="1.00754">
        <ele>112.80000305176</ele>
        <time>2016-09-25T08:45:59.000Z</time>
      </trkpt>
      <trkpt lat="49.42379" lon="1.00735">
        <ele>112.19999694824</ele>
        <time>2016-09-25T08:46:03.000Z</time>
      </trkpt>
      <trkpt lat="49.42392" lon="1.00721">
        <ele>111.80000305176</ele>
        <time>2016-09-25T08:46:06.000Z</time>
      </trkpt>
      <trkpt lat="49.42396" lon="1.00715">
        <ele>111.80000305176</ele>
        <time>2016-09-25T08:46:07.000Z</time>
      </trkpt>
      <trkpt lat="49.42409" lon="1.00699">
        <ele>111.40000152588</ele>
        <time>2016-09-25T08:46:10.000Z</time>
      </trkpt>
      <trkpt lat="49.42428" lon="1.00677">
        <ele>109.80000305176</ele>
        <time>2016-09-25T08:46:14.000Z</time>
      </trkpt>
      <trkpt lat="49.42437" lon="1.00666">
        <ele>108.80000305176</ele>
        <time>2016-09-25T08:46:16.000Z</time>
      </trkpt>
      <trkpt lat="49.42462" lon="1.00637">
        <ele>107.59999847412</ele>
        <time>2016-09-25T08:46:21.000Z</time>
      </trkpt>
      <trkpt lat="49.4247" lon="1.00621">
        <ele>107.59999847412</ele>
        <time>2016-09-25T08:46:23.000Z</time>
      </trkpt>
      <trkpt lat="49.42474" lon="1.00612">
        <ele>107.40000152588</ele>
        <time>2016-09-25T08:46:24.000Z</time>
      </trkpt>
      <trkpt lat="49.42486" lon="1.00585">
        <ele>107</ele>
        <time>2016-09-25T08:46:27.000Z</time>
      </trkpt>
      <trkpt lat="49.42495" lon="1.00569">
        <ele>106.80000305176</ele>
        <time>2016-09-25T08:46:29.000Z</time>
      </trkpt>
      <trkpt lat="49.42499" lon="1.00561">
        <ele>106.59999847412</ele>
        <time>2016-09-25T08:46:30.000Z</time>
      </trkpt>
      <trkpt lat="49.42503" lon="1.00554">
        <ele>106.80000305176</ele>
        <time>2016-09-25T08:46:31.000Z</time>
      </trkpt>
      <trkpt lat="49.4252" lon="1.00528">
        <ele>107.19999694824</ele>
        <time>2016-09-25T08:46:35.000Z</time>
      </trkpt>
      <trkpt lat="49.42528" lon="1.00517">
        <ele>106.59999847412</ele>
        <time>2016-09-25T08:46:37.000Z</time>
      </trkpt>
      <trkpt lat="49.42533" lon="1.00512">
        <ele>106.40000152588</ele>
        <time>2016-09-25T08:46:39.000Z</time>
      </trkpt>
      <trkpt lat="49.4254" lon="1.00517">
        <ele>106.80000305176</ele>
        <time>2016-09-25T08:46:42.000Z</time>
      </trkpt>
      <trkpt lat="49.42543" lon="1.00519">
        <ele>106.80000305176</ele>
        <time>2016-09-25T08:46:43.000Z</time>
      </trkpt>
      <trkpt lat="49.42546" lon="1.00522">
        <ele>107</ele>
        <time>2016-09-25T08:46:44.000Z</time>
      </trkpt>
      <trkpt lat="49.42553" lon="1.00524">
        <ele>107.19999694824</ele>
        <time>2016-09-25T08:46:46.000Z</time>
      </trkpt>
      <trkpt lat="49.42556" lon="1.00522">
        <ele>107.19999694824</ele>
        <time>2016-09-25T08:46:47.000Z</time>
      </trkpt>
      <trkpt lat="49.42564" lon="1.00508">
        <ele>107</ele>
        <time>2016-09-25T08:46:50.000Z</time>
      </trkpt>
      <trkpt lat="49.42577" lon="1.00469">
        <ele>104</ele>
        <time>2016-09-25T08:46:56.000Z</time>
      </trkpt>
      <trkpt lat="49.42584" lon="1.00451">
        <ele>104</ele>
        <time>2016-09-25T08:46:59.000Z</time>
      </trkpt>
      <trkpt lat="49.42596" lon="1.00423">
        <ele>104.40000152588</ele>
        <time>2016-09-25T08:47:04.000Z</time>
      </trkpt>
      <trkpt lat="49.42604" lon="1.00399">
        <ele>105</ele>
        <time>2016-09-25T08:47:08.000Z</time>
      </trkpt>
      <trkpt lat="49.42614" lon="1.00375">
        <ele>105.80000305176</ele>
        <time>2016-09-25T08:47:12.000Z</time>
      </trkpt>
      <trkpt lat="49.42618" lon="1.00363">
        <ele>106.40000152588</ele>
        <time>2016-09-25T08:47:14.000Z</time>
      </trkpt>
      <trkpt lat="49.42633" lon="1.00325">
        <ele>108.59999847412</ele>
        <time>2016-09-25T08:47:20.000Z</time>
      </trkpt>
      <trkpt lat="49.42649" lon="1.00285">
        <ele>109</ele>
        <time>2016-09-25T08:47:27.000Z</time>
      </trkpt>
      <trkpt lat="49.42668" lon="1.00242">
        <ele>109.19999694824</ele>
        <time>2016-09-25T08:47:35.000Z</time>
      </trkpt>
      <trkpt lat="49.42682" lon="1.00211">
        <ele>108.59999847412</ele>
        <time>2016-09-25T08:47:41.000Z</time>
      </trkpt>
      <trkpt lat="49.42688" lon="1.00195">
        <ele>109.40000152588</ele>
        <time>2016-09-25T08:47:44.000Z</time>
      </trkpt>
      <trkpt lat="49.42712" lon="1.00147">
        <ele>111</ele>
        <time>2016-09-25T08:47:53.000Z</time>
      </trkpt>
      <trkpt lat="49.42733" lon="1.00098">
        <ele>109.19999694824</ele>
        <time>2016-09-25T08:48:01.000Z</time>
      </trkpt>
      <trkpt lat="49.42744" lon="1.00072">
        <ele>108.19999694824</ele>
        <time>2016-09-25T08:48:05.000Z</time>
      </trkpt>
      <trkpt lat="49.42758" lon="1.00041">
        <ele>107.19999694824</ele>
        <time>2016-09-25T08:48:10.000Z</time>
      </trkpt>
      <trkpt lat="49.42764" lon="1.00029">
        <ele>107</ele>
        <time>2016-09-25T08:48:12.000Z</time>
      </trkpt>
      <trkpt lat="49.42783" lon="0.99989">
        <ele>106.59999847412</ele>
        <time>2016-09-25T08:48:19.000Z</time>
      </trkpt>
      <trkpt lat="49.42786" lon="0.99987">
        <ele>106.80000305176</ele>
        <time>2016-09-25T08:48:20.000Z</time>
      </trkpt>
      <trkpt lat="49.42796" lon="0.99998">
        <ele>106.59999847412</ele>
        <time>2016-09-25T08:48:23.000Z</time>
      </trkpt>
      <trkpt lat="49.42798" lon="1.00003">
        <ele>106.59999847412</ele>
        <time>2016-09-25T08:48:24.000Z</time>
      </trkpt>
      <trkpt lat="49.42812" lon="1.00026">
        <ele>106.19999694824</ele>
        <time>2016-09-25T08:48:29.000Z</time>
      </trkpt>
      <trkpt lat="49.42828" lon="1.00053">
        <ele>105.59999847412</ele>
        <time>2016-09-25T08:48:35.000Z</time>
      </trkpt>
      <trkpt lat="49.42839" lon="1.00058">
        <ele>105.80000305176</ele>
        <time>2016-09-25T08:48:39.000Z</time>
      </trkpt>
      <trkpt lat="49.42842" lon="1.00052">
        <ele>105.80000305176</ele>
        <time>2016-09-25T08:48:40.000Z</time>
      </trkpt>
      <trkpt lat="49.42851" lon="1.00036">
        <ele>106.19999694824</ele>
        <time>2016-09-25T08:48:43.000Z</time>
      </trkpt>
      <trkpt lat="49.42853" lon="1.00032">
        <ele>106.19999694824</ele>
        <time>2016-09-25T08:48:44.000Z</time>
      </trkpt>
      <trkpt lat="49.42869" lon="1.00009">
        <ele>106.19999694824</ele>
        <time>2016-09-25T08:48:48.000Z</time>
      </trkpt>
      <trkpt lat="49.42888" lon="0.9998">
        <ele>106.80000305176</ele>
        <time>2016-09-25T08:48:52.000Z</time>
      </trkpt>
      <trkpt lat="49.42897" lon="0.99964">
        <ele>106.80000305176</ele>
        <time>2016-09-25T08:48:54.000Z</time>
      </trkpt>
      <trkpt lat="49.42907" lon="0.99948">
        <ele>106.80000305176</ele>
        <time>2016-09-25T08:48:56.000Z</time>
      </trkpt>
      <trkpt lat="49.42921" lon="0.99924">
        <ele>107</ele>
        <time>2016-09-25T08:48:59.000Z</time>
      </trkpt>
      <trkpt lat="49.42926" lon="0.99916">
        <ele>107.19999694824</ele>
        <time>2016-09-25T08:49:00.000Z</time>
      </trkpt>
      <trkpt lat="49.42936" lon="0.99901">
        <ele>107.40000152588</ele>
        <time>2016-09-25T08:49:02.000Z</time>
      </trkpt>
      <trkpt lat="49.42956" lon="0.99868">
        <ele>107</ele>
        <time>2016-09-25T08:49:06.000Z</time>
      </trkpt>
      <trkpt lat="49.4297" lon="0.99844">
        <ele>105.80000305176</ele>
        <time>2016-09-25T08:49:09.000Z</time>
      </trkpt>
      <trkpt lat="49.42984" lon="0.9982">
        <ele>104</ele>
        <time>2016-09-25T08:49:12.000Z</time>
      </trkpt>
      <trkpt lat="49.42989" lon="0.99812">
        <ele>103.19999694824</ele>
        <time>2016-09-25T08:49:13.000Z</time>
      </trkpt>
      <trkpt lat="49.42999" lon="0.99798">
        <ele>102</ele>
        <time>2016-09-25T08:49:15.000Z</time>
      </trkpt>
      <trkpt lat="49.43013" lon="0.99776">
        <ele>99.400001525879</ele>
        <time>2016-09-25T08:49:18.000Z</time>
      </trkpt>
      <trkpt lat="49.43022" lon="0.99763">
        <ele>97</ele>
        <time>2016-09-25T08:49:20.000Z</time>
      </trkpt>
      <trkpt lat="49.43026" lon="0.99758">
        <ele>96.199996948242</ele>
        <time>2016-09-25T08:49:21.000Z</time>
      </trkpt>
      <trkpt lat="49.43032" lon="0.99756">
        <ele>95.400001525879</ele>
        <time>2016-09-25T08:49:23.000Z</time>
      </trkpt>
      <trkpt lat="49.43039" lon="0.99768">
        <ele>95.800003051758</ele>
        <time>2016-09-25T08:49:26.000Z</time>
      </trkpt>
      <trkpt lat="49.43056" lon="0.99794">
        <ele>96.800003051758</ele>
        <time>2016-09-25T08:49:31.000Z</time>
      </trkpt>
      <trkpt lat="49.43087" lon="0.9984">
        <ele>95.800003051758</ele>
        <time>2016-09-25T08:49:39.000Z</time>
      </trkpt>
      <trkpt lat="49.43104" lon="0.9986">
        <ele>94.400001525879</ele>
        <time>2016-09-25T08:49:43.000Z</time>
      </trkpt>
      <trkpt lat="49.43113" lon="0.99869">
        <ele>93.800003051758</ele>
        <time>2016-09-25T08:49:45.000Z</time>
      </trkpt>
      <trkpt lat="49.43149" lon="0.99914">
        <ele>91.599998474121</ele>
        <time>2016-09-25T08:49:53.000Z</time>
      </trkpt>
      <trkpt lat="49.43186" lon="0.99958">
        <ele>89.599998474121</ele>
        <time>2016-09-25T08:50:01.000Z</time>
      </trkpt>
      <trkpt lat="49.43222" lon="1.0001">
        <ele>89.800003051758</ele>
        <time>2016-09-25T08:50:10.000Z</time>
      </trkpt>
      <trkpt lat="49.43245" lon="1.00048">
        <ele>90.800003051758</ele>
        <time>2016-09-25T08:50:16.000Z</time>
      </trkpt>
      <trkpt lat="49.43259" lon="1.00064">
        <ele>91</ele>
        <time>2016-09-25T08:50:19.000Z</time>
      </trkpt>
      <trkpt lat="49.4327" lon="1.00081">
        <ele>91.199996948242</ele>
        <time>2016-09-25T08:50:22.000Z</time>
      </trkpt>
      <trkpt lat="49.43296" lon="1.00112">
        <ele>90.800003051758</ele>
        <time>2016-09-25T08:50:28.000Z</time>
      </trkpt>
      <trkpt lat="49.43323" lon="1.00151">
        <ele>89.800003051758</ele>
        <time>2016-09-25T08:50:35.000Z</time>
      </trkpt>
      <trkpt lat="49.43352" lon="1.00191">
        <ele>89</ele>
        <time>2016-09-25T08:50:42.000Z</time>
      </trkpt>
      <trkpt lat="49.43379" lon="1.00234">
        <ele>89</ele>
        <time>2016-09-25T08:50:50.000Z</time>
      </trkpt>
      <trkpt lat="49.43401" lon="1.00267">
        <ele>89.800003051758</ele>
        <time>2016-09-25T08:50:56.000Z</time>
      </trkpt>
      <trkpt lat="49.43423" lon="1.00294">
        <ele>90.199996948242</ele>
        <time>2016-09-25T08:51:02.000Z</time>
      </trkpt>
      <trkpt lat="49.43429" lon="1.00303">
        <ele>90.400001525879</ele>
        <time>2016-09-25T08:51:04.000Z</time>
      </trkpt>
      <trkpt lat="49.43439" lon="1.00316">
        <ele>90.800003051758</ele>
        <time>2016-09-25T08:51:07.000Z</time>
      </trkpt>
      <trkpt lat="49.43454" lon="1.00341">
        <ele>91.199996948242</ele>
        <time>2016-09-25T08:51:12.000Z</time>
      </trkpt>
      <trkpt lat="49.43462" lon="1.00355">
        <ele>91.199996948242</ele>
        <time>2016-09-25T08:51:15.000Z</time>
      </trkpt>
      <trkpt lat="49.43473" lon="1.00372">
        <ele>91.400001525879</ele>
        <time>2016-09-25T08:51:19.000Z</time>
      </trkpt>
      <trkpt lat="49.43476" lon="1.00376">
        <ele>91.400001525879</ele>
        <time>2016-09-25T08:51:20.000Z</time>
      </trkpt>
      <trkpt lat="49.43486" lon="1.00391">
        <ele>91.199996948242</ele>
        <time>2016-09-25T08:51:23.000Z</time>
      </trkpt>
      <trkpt lat="49.43494" lon="1.00406">
        <ele>91.599998474121</ele>
        <time>2016-09-25T08:51:26.000Z</time>
      </trkpt>
      <trkpt lat="49.435" lon="1.00415">
        <ele>91.800003051758</ele>
        <time>2016-09-25T08:51:28.000Z</time>
      </trkpt>
      <trkpt lat="49.43511" lon="1.00437">
        <ele>92.199996948242</ele>
        <time>2016-09-25T08:51:32.000Z</time>
      </trkpt>
      <trkpt lat="49.43514" lon="1.00442">
        <ele>92.199996948242</ele>
        <time>2016-09-25T08:51:33.000Z</time>
      </trkpt>
      <trkpt lat="49.43524" lon="1.00455">
        <ele>92.400001525879</ele>
        <time>2016-09-25T08:51:36.000Z</time>
      </trkpt>
      <trkpt lat="49.43533" lon="1.00467">
        <ele>92.599998474121</ele>
        <time>2016-09-25T08:51:39.000Z</time>
      </trkpt>
      <trkpt lat="49.43539" lon="1.00475">
        <ele>92.599998474121</ele>
        <time>2016-09-25T08:51:41.000Z</time>
      </trkpt>
      <trkpt lat="49.43566" lon="1.00506">
        <ele>93.199996948242</ele>
        <time>2016-09-25T08:51:49.000Z</time>
      </trkpt>
      <trkpt lat="49.43571" lon="1.00509">
        <ele>93.199996948242</ele>
        <time>2016-09-25T08:51:50.000Z</time>
      </trkpt>
      <trkpt lat="49.43592" lon="1.00515">
        <ele>92.199996948242</ele>
        <time>2016-09-25T08:51:54.000Z</time>
      </trkpt>
      <trkpt lat="49.43636" lon="1.00517">
        <ele>91.400001525879</ele>
        <time>2016-09-25T08:52:02.000Z</time>
      </trkpt>
      <trkpt lat="49.43673" lon="1.00514">
        <ele>91.400001525879</ele>
        <time>2016-09-25T08:52:09.000Z</time>
      </trkpt>
      <trkpt lat="49.43718" lon="1.00501">
        <ele>91.199996948242</ele>
        <time>2016-09-25T08:52:17.000Z</time>
      </trkpt>
      <trkpt lat="49.43753" lon="1.00492">
        <ele>90</ele>
        <time>2016-09-25T08:52:23.000Z</time>
      </trkpt>
      <trkpt lat="49.43765" lon="1.00489">
        <ele>89.599998474121</ele>
        <time>2016-09-25T08:52:25.000Z</time>
      </trkpt>
      <trkpt lat="49.43777" lon="1.00486">
        <ele>89</ele>
        <time>2016-09-25T08:52:27.000Z</time>
      </trkpt>
      <trkpt lat="49.43808" lon="1.0048">
        <ele>88.800003051758</ele>
        <time>2016-09-25T08:52:32.000Z</time>
      </trkpt>
      <trkpt lat="49.43814" lon="1.00479">
        <ele>88.599998474121</ele>
        <time>2016-09-25T08:52:33.000Z</time>
      </trkpt>
      <trkpt lat="49.43839" lon="1.00471">
        <ele>88.400001525879</ele>
        <time>2016-09-25T08:52:37.000Z</time>
      </trkpt>
      <trkpt lat="49.43852" lon="1.00464">
        <ele>88.199996948242</ele>
        <time>2016-09-25T08:52:39.000Z</time>
      </trkpt>
      <trkpt lat="49.43858" lon="1.0046">
        <ele>88</ele>
        <time>2016-09-25T08:52:40.000Z</time>
      </trkpt>
      <trkpt lat="49.43881" lon="1.00441">
        <ele>87.400001525879</ele>
        <time>2016-09-25T08:52:44.000Z</time>
      </trkpt>
      <trkpt lat="49.43886" lon="1.00436">
        <ele>87.400001525879</ele>
        <time>2016-09-25T08:52:45.000Z</time>
      </trkpt>
      <trkpt lat="49.43904" lon="1.0042">
        <ele>87</ele>
        <time>2016-09-25T08:52:48.000Z</time>
      </trkpt>
      <trkpt lat="49.43926" lon="1.004">
        <ele>86</ele>
        <time>2016-09-25T08:52:52.000Z</time>
      </trkpt>
      <trkpt lat="49.43949" lon="1.00379">
        <ele>85.199996948242</ele>
        <time>2016-09-25T08:52:56.000Z</time>
      </trkpt>
      <trkpt lat="49.43973" lon="1.0036">
        <ele>84.199996948242</ele>
        <time>2016-09-25T08:53:00.000Z</time>
      </trkpt>
      <trkpt lat="49.43979" lon="1.00355">
        <ele>84.199996948242</ele>
        <time>2016-09-25T08:53:01.000Z</time>
      </trkpt>
      <trkpt lat="49.43998" lon="1.00347">
        <ele>84.199996948242</ele>
        <time>2016-09-25T08:53:04.000Z</time>
      </trkpt>
      <trkpt lat="49.44007" lon="1.0034">
        <ele>84.400001525879</ele>
        <time>2016-09-25T08:53:06.000Z</time>
      </trkpt>
      <trkpt lat="49.4401" lon="1.00338">
        <ele>84.400001525879</ele>
        <time>2016-09-25T08:53:07.000Z</time>
      </trkpt>
      <trkpt lat="49.44018" lon="1.00327">
        <ele>84.199996948242</ele>
        <time>2016-09-25T08:53:10.000Z</time>
      </trkpt>
      <trkpt lat="49.44025" lon="1.00318">
        <ele>84</ele>
        <time>2016-09-25T08:53:13.000Z</time>
      </trkpt>
      <trkpt lat="49.44027" lon="1.00318">
        <ele>84.199996948242</ele>
        <time>2016-09-25T08:53:14.000Z</time>
      </trkpt>
      <trkpt lat="49.44028" lon="1.00319">
        <ele>84.400001525879</ele>
        <time>2016-09-25T08:53:15.000Z</time>
      </trkpt>
      <trkpt lat="49.44032" lon="1.00327">
        <ele>84.800003051758</ele>
        <time>2016-09-25T08:53:17.000Z</time>
      </trkpt>
      <trkpt lat="49.44036" lon="1.00335">
        <ele>85</ele>
        <time>2016-09-25T08:53:19.000Z</time>
      </trkpt>
      <trkpt lat="49.44056" lon="1.00369">
        <ele>85.199996948242</ele>
        <time>2016-09-25T08:53:26.000Z</time>
      </trkpt>
      <trkpt lat="49.44085" lon="1.00418">
        <ele>84.599998474121</ele>
        <time>2016-09-25T08:53:35.000Z</time>
      </trkpt>
      <trkpt lat="49.44107" lon="1.00456">
        <ele>83.400001525879</ele>
        <time>2016-09-25T08:53:43.000Z</time>
      </trkpt>
      <trkpt lat="49.44115" lon="1.00487">
        <ele>82.800003051758</ele>
        <time>2016-09-25T08:53:49.000Z</time>
      </trkpt>
      <trkpt lat="49.44123" lon="1.00524">
        <ele>82.400001525879</ele>
        <time>2016-09-25T08:53:56.000Z</time>
      </trkpt>
      <trkpt lat="49.44132" lon="1.00547">
        <ele>82.400001525879</ele>
        <time>2016-09-25T08:54:00.000Z</time>
      </trkpt>
      <trkpt lat="49.44138" lon="1.00569">
        <ele>82.800003051758</ele>
        <time>2016-09-25T08:54:05.000Z</time>
      </trkpt>
      <trkpt lat="49.44146" lon="1.00596">
        <ele>83.599998474121</ele>
        <time>2016-09-25T08:54:11.000Z</time>
      </trkpt>
      <trkpt lat="49.44152" lon="1.00635">
        <ele>84</ele>
        <time>2016-09-25T08:54:18.000Z</time>
      </trkpt>
      <trkpt lat="49.44155" lon="1.0066">
        <ele>84.400001525879</ele>
        <time>2016-09-25T08:54:23.000Z</time>
      </trkpt>
      <trkpt lat="49.44157" lon="1.00669">
        <ele>84.599998474121</ele>
        <time>2016-09-25T08:54:25.000Z</time>
      </trkpt>
      <trkpt lat="49.44166" lon="1.00691">
        <ele>85.199996948242</ele>
        <time>2016-09-25T08:54:30.000Z</time>
      </trkpt>
      <trkpt lat="49.44174" lon="1.00708">
        <ele>86.199996948242</ele>
        <time>2016-09-25T08:54:34.000Z</time>
      </trkpt>
      <trkpt lat="49.44176" lon="1.00714">
        <ele>86.599998474121</ele>
        <time>2016-09-25T08:54:36.000Z</time>
      </trkpt>
      <trkpt lat="49.44178" lon="1.00737">
        <ele>87.800003051758</ele>
        <time>2016-09-25T08:54:43.000Z</time>
      </trkpt>
      <trkpt lat="49.44178" lon="1.00738">
        <ele>87.800003051758</ele>
        <time>2016-09-25T08:54:45.000Z</time>
      </trkpt>
      <trkpt lat="49.44177" lon="1.0074">
        <ele>88</ele>
        <time>2016-09-25T08:54:49.000Z</time>
      </trkpt>
      <trkpt lat="49.44175" lon="1.00743">
        <ele>88</ele>
        <time>2016-09-25T08:54:50.000Z</time>
      </trkpt>
      <trkpt lat="49.44168" lon="1.00756">
        <ele>88.400001525879</ele>
        <time>2016-09-25T08:54:55.000Z</time>
      </trkpt>
      <trkpt lat="49.44166" lon="1.00775">
        <ele>89.199996948242</ele>
        <time>2016-09-25T08:55:00.000Z</time>
      </trkpt>
      <trkpt lat="49.44165" lon="1.00778">
        <ele>89.400001525879</ele>
        <time>2016-09-25T08:55:01.000Z</time>
      </trkpt>
      <trkpt lat="49.44166" lon="1.00787">
        <ele>90.199996948242</ele>
        <time>2016-09-25T08:55:04.000Z</time>
      </trkpt>
      <trkpt lat="49.44168" lon="1.00791">
        <ele>90.599998474121</ele>
        <time>2016-09-25T08:55:06.000Z</time>
      </trkpt>
      <trkpt lat="49.44171" lon="1.00792">
        <ele>90.599998474121</ele>
        <time>2016-09-25T08:55:07.000Z</time>
      </trkpt>
      <trkpt lat="49.44188" lon="1.00801">
        <ele>91.400001525879</ele>
        <time>2016-09-25T08:55:12.000Z</time>
      </trkpt>
      <trkpt lat="49.44208" lon="1.0081">
        <ele>92.199996948242</ele>
        <time>2016-09-25T08:55:18.000Z</time>
      </trkpt>
      <trkpt lat="49.44224" lon="1.00823">
        <ele>93</ele>
        <time>2016-09-25T08:55:24.000Z</time>
      </trkpt>
      <trkpt lat="49.44226" lon="1.00824">
        <ele>93</ele>
        <time>2016-09-25T08:55:25.000Z</time>
      </trkpt>
      <trkpt lat="49.44229" lon="1.00824">
        <ele>93.199996948242</ele>
        <time>2016-09-25T08:55:27.000Z</time>
      </trkpt>
      <trkpt lat="49.44235" lon="1.0083">
        <ele>93.400001525879</ele>
        <time>2016-09-25T08:55:31.000Z</time>
      </trkpt>
      <trkpt lat="49.44239" lon="1.00842">
        <ele>94</ele>
        <time>2016-09-25T08:55:35.000Z</time>
      </trkpt>
      <trkpt lat="49.44242" lon="1.00849">
        <ele>94.400001525879</ele>
        <time>2016-09-25T08:55:37.000Z</time>
      </trkpt>
      <trkpt lat="49.4425" lon="1.00859">
        <ele>95</ele>
        <time>2016-09-25T08:55:40.000Z</time>
      </trkpt>
      <trkpt lat="49.44263" lon="1.00877">
        <ele>96.199996948242</ele>
        <time>2016-09-25T08:55:45.000Z</time>
      </trkpt>
      <trkpt lat="49.44282" lon="1.00896">
        <ele>97.199996948242</ele>
        <time>2016-09-25T08:55:51.000Z</time>
      </trkpt>
      <trkpt lat="49.44291" lon="1.00906">
        <ele>97.800003051758</ele>
        <time>2016-09-25T08:55:54.000Z</time>
      </trkpt>
      <trkpt lat="49.44318" lon="1.0093">
        <ele>99.199996948242</ele>
        <time>2016-09-25T08:56:02.000Z</time>
      </trkpt>
      <trkpt lat="49.4434" lon="1.00954">
        <ele>100.80000305176</ele>
        <time>2016-09-25T08:56:10.000Z</time>
      </trkpt>
      <trkpt lat="49.44353" lon="1.00965">
        <ele>101.40000152588</ele>
        <time>2016-09-25T08:56:15.000Z</time>
      </trkpt>
      <trkpt lat="49.44358" lon="1.00968">
        <ele>101.59999847412</ele>
        <time>2016-09-25T08:56:17.000Z</time>
      </trkpt>
      <trkpt lat="49.44377" lon="1.00986">
        <ele>102.40000152588</ele>
        <time>2016-09-25T08:56:24.000Z</time>
      </trkpt>
      <trkpt lat="49.44397" lon="1.01006">
        <ele>103</ele>
        <time>2016-09-25T08:56:33.000Z</time>
      </trkpt>
      <trkpt lat="49.44399" lon="1.01008">
        <ele>103.19999694824</ele>
        <time>2016-09-25T08:56:34.000Z</time>
      </trkpt>
      <trkpt lat="49.4442" lon="1.01028">
        <ele>103.80000305176</ele>
        <time>2016-09-25T08:56:42.000Z</time>
      </trkpt>
      <trkpt lat="49.44422" lon="1.01031">
        <ele>104</ele>
        <time>2016-09-25T08:56:43.000Z</time>
      </trkpt>
      <trkpt lat="49.44441" lon="1.01058">
        <ele>105.40000152588</ele>
        <time>2016-09-25T08:56:50.000Z</time>
      </trkpt>
      <trkpt lat="49.4445" lon="1.01079">
        <ele>105.59999847412</ele>
        <time>2016-09-25T08:56:56.000Z</time>
      </trkpt>
      <trkpt lat="49.44454" lon="1.0109">
        <ele>105.59999847412</ele>
        <time>2016-09-25T08:57:00.000Z</time>
      </trkpt>
      <trkpt lat="49.44455" lon="1.01096">
        <ele>105.80000305176</ele>
        <time>2016-09-25T08:57:02.000Z</time>
      </trkpt>
      <trkpt lat="49.44456" lon="1.01099">
        <ele>105.80000305176</ele>
        <time>2016-09-25T08:57:03.000Z</time>
      </trkpt>
      <trkpt lat="49.44463" lon="1.01125">
        <ele>106</ele>
        <time>2016-09-25T08:57:09.000Z</time>
      </trkpt>
      <trkpt lat="49.44466" lon="1.01147">
        <ele>106.40000152588</ele>
        <time>2016-09-25T08:57:15.000Z</time>
      </trkpt>
      <trkpt lat="49.44469" lon="1.01161">
        <ele>106.40000152588</ele>
        <time>2016-09-25T08:57:19.000Z</time>
      </trkpt>
      <trkpt lat="49.44474" lon="1.01167">
        <ele>106</ele>
        <time>2016-09-25T08:57:22.000Z</time>
      </trkpt>
      <trkpt lat="49.44481" lon="1.01181">
        <ele>105.19999694824</ele>
        <time>2016-09-25T08:57:26.000Z</time>
      </trkpt>
      <trkpt lat="49.44483" lon="1.01194">
        <ele>105</ele>
        <time>2016-09-25T08:57:29.000Z</time>
      </trkpt>
      <trkpt lat="49.44483" lon="1.01211">
        <ele>104.59999847412</ele>
        <time>2016-09-25T08:57:34.000Z</time>
      </trkpt>
      <trkpt lat="49.44486" lon="1.01225">
        <ele>104.40000152588</ele>
        <time>2016-09-25T08:57:37.000Z</time>
      </trkpt>
      <trkpt lat="49.4449" lon="1.01243">
        <ele>103.80000305176</ele>
        <time>2016-09-25T08:57:41.000Z</time>
      </trkpt>
      <trkpt lat="49.44492" lon="1.01248">
        <ele>103.59999847412</ele>
        <time>2016-09-25T08:57:42.000Z</time>
      </trkpt>
      <trkpt lat="49.44502" lon="1.01259">
        <ele>102.80000305176</ele>
        <time>2016-09-25T08:57:46.000Z</time>
      </trkpt>
      <trkpt lat="49.44505" lon="1.01262">
        <ele>102.59999847412</ele>
        <time>2016-09-25T08:57:47.000Z</time>
      </trkpt>
      <trkpt lat="49.44507" lon="1.01276">
        <ele>102.19999694824</ele>
        <time>2016-09-25T08:57:51.000Z</time>
      </trkpt>
      <trkpt lat="49.44507" lon="1.01287">
        <ele>102</ele>
        <time>2016-09-25T08:57:55.000Z</time>
      </trkpt>
      <trkpt lat="49.44505" lon="1.01297">
        <ele>101.80000305176</ele>
        <time>2016-09-25T08:58:00.000Z</time>
      </trkpt>
      <trkpt lat="49.44506" lon="1.013">
        <ele>101.59999847412</ele>
        <time>2016-09-25T08:58:01.000Z</time>
      </trkpt>
      <trkpt lat="49.44513" lon="1.01302">
        <ele>101.19999694824</ele>
        <time>2016-09-25T08:58:05.000Z</time>
      </trkpt>
      <trkpt lat="49.44515" lon="1.01302">
        <ele>101</ele>
        <time>2016-09-25T08:58:06.000Z</time>
      </trkpt>
      <trkpt lat="49.44522" lon="1.01297">
        <ele>101</ele>
        <time>2016-09-25T08:58:12.000Z</time>
      </trkpt>
      <trkpt lat="49.44524" lon="1.01293">
        <ele>100.80000305176</ele>
        <time>2016-09-25T08:58:16.000Z</time>
      </trkpt>
      <trkpt lat="49.44527" lon="1.01285">
        <ele>100.80000305176</ele>
        <time>2016-09-25T08:58:20.000Z</time>
      </trkpt>
      <trkpt lat="49.44528" lon="1.01286">
        <ele>100.59999847412</ele>
        <time>2016-09-25T08:58:21.000Z</time>
      </trkpt>
      <trkpt lat="49.4453" lon="1.01288">
        <ele>100.40000152588</ele>
        <time>2016-09-25T08:58:23.000Z</time>
      </trkpt>
      <trkpt lat="49.44531" lon="1.01294">
        <ele>100.19999694824</ele>
        <time>2016-09-25T08:58:25.000Z</time>
      </trkpt>
      <trkpt lat="49.44532" lon="1.01297">
        <ele>100.19999694824</ele>
        <time>2016-09-25T08:58:26.000Z</time>
      </trkpt>
      <trkpt lat="49.44536" lon="1.01314">
        <ele>100.40000152588</ele>
        <time>2016-09-25T08:58:31.000Z</time>
      </trkpt>
      <trkpt lat="49.44537" lon="1.01318">
        <ele>100.40000152588</ele>
        <time>2016-09-25T08:58:32.000Z</time>
      </trkpt>
      <trkpt lat="49.44539" lon="1.01329">
        <ele>100.59999847412</ele>
        <time>2016-09-25T08:58:35.000Z</time>
      </trkpt>
      <trkpt lat="49.44544" lon="1.0134">
        <ele>101</ele>
        <time>2016-09-25T08:58:39.000Z</time>
      </trkpt>
      <trkpt lat="49.44544" lon="1.0136">
        <ele>101</ele>
        <time>2016-09-25T08:58:43.000Z</time>
      </trkpt>
      <trkpt lat="49.44546" lon="1.0137">
        <ele>101</ele>
        <time>2016-09-25T08:58:45.000Z</time>
      </trkpt>
      <trkpt lat="49.44545" lon="1.01384">
        <ele>100.80000305176</ele>
        <time>2016-09-25T08:58:48.000Z</time>
      </trkpt>
      <trkpt lat="49.44546" lon="1.01396">
        <ele>100.80000305176</ele>
        <time>2016-09-25T08:58:51.000Z</time>
      </trkpt>
      <trkpt lat="49.44546" lon="1.014">
        <ele>100.80000305176</ele>
        <time>2016-09-25T08:58:52.000Z</time>
      </trkpt>
      <trkpt lat="49.44544" lon="1.01416">
        <ele>100.40000152588</ele>
        <time>2016-09-25T08:58:56.000Z</time>
      </trkpt>
      <trkpt lat="49.44544" lon="1.01425">
        <ele>100.19999694824</ele>
        <time>2016-09-25T08:58:58.000Z</time>
      </trkpt>
      <trkpt lat="49.44545" lon="1.01432">
        <ele>100.19999694824</ele>
        <time>2016-09-25T08:59:00.000Z</time>
      </trkpt>
      <trkpt lat="49.44548" lon="1.01444">
        <ele>100.59999847412</ele>
        <time>2016-09-25T08:59:03.000Z</time>
      </trkpt>
      <trkpt lat="49.4455" lon="1.01456">
        <ele>100.80000305176</ele>
        <time>2016-09-25T08:59:06.000Z</time>
      </trkpt>
      <trkpt lat="49.44552" lon="1.01468">
        <ele>101</ele>
        <time>2016-09-25T08:59:09.000Z</time>
      </trkpt>
      <trkpt lat="49.44555" lon="1.01482">
        <ele>101.40000152588</ele>
        <time>2016-09-25T08:59:13.000Z</time>
      </trkpt>
      <trkpt lat="49.44557" lon="1.01513">
        <ele>102.59999847412</ele>
        <time>2016-09-25T08:59:21.000Z</time>
      </trkpt>
      <trkpt lat="49.44561" lon="1.01539">
        <ele>103.40000152588</ele>
        <time>2016-09-25T08:59:29.000Z</time>
      </trkpt>
      <trkpt lat="49.44562" lon="1.0154">
        <ele>103.80000305176</ele>
        <time>2016-09-25T08:59:30.000Z</time>
      </trkpt>
      <trkpt lat="49.44572" lon="1.01544">
        <ele>105.40000152588</ele>
        <time>2016-09-25T08:59:34.000Z</time>
      </trkpt>
      <trkpt lat="49.44577" lon="1.01547">
        <ele>106.19999694824</ele>
        <time>2016-09-25T08:59:36.000Z</time>
      </trkpt>
      <trkpt lat="49.44591" lon="1.0155">
        <ele>108.80000305176</ele>
        <time>2016-09-25T08:59:43.000Z</time>
      </trkpt>
      <trkpt lat="49.44597" lon="1.01551">
        <ele>109.59999847412</ele>
        <time>2016-09-25T08:59:45.000Z</time>
      </trkpt>
      <trkpt lat="49.44608" lon="1.01553">
        <ele>111.59999847412</ele>
        <time>2016-09-25T08:59:50.000Z</time>
      </trkpt>
      <trkpt lat="49.44625" lon="1.01559">
        <ele>113.80000305176</ele>
        <time>2016-09-25T08:59:57.000Z</time>
      </trkpt>
      <trkpt lat="49.44644" lon="1.01563">
        <ele>115.80000305176</ele>
        <time>2016-09-25T09:00:06.000Z</time>
      </trkpt>
      <trkpt lat="49.44654" lon="1.01565">
        <ele>116.80000305176</ele>
        <time>2016-09-25T09:00:10.000Z</time>
      </trkpt>
      <trkpt lat="49.44659" lon="1.01566">
        <ele>117.19999694824</ele>
        <time>2016-09-25T09:00:13.000Z</time>
      </trkpt>
      <trkpt lat="49.44673" lon="1.01571">
        <ele>118.59999847412</ele>
        <time>2016-09-25T09:00:19.000Z</time>
      </trkpt>
      <trkpt lat="49.44688" lon="1.01576">
        <ele>120.19999694824</ele>
        <time>2016-09-25T09:00:26.000Z</time>
      </trkpt>
      <trkpt lat="49.4469" lon="1.01577">
        <ele>120.40000152588</ele>
        <time>2016-09-25T09:00:27.000Z</time>
      </trkpt>
      <trkpt lat="49.44701" lon="1.01581">
        <ele>121.40000152588</ele>
        <time>2016-09-25T09:00:32.000Z</time>
      </trkpt>
      <trkpt lat="49.44706" lon="1.01583">
        <ele>121.59999847412</ele>
        <time>2016-09-25T09:00:34.000Z</time>
      </trkpt>
      <trkpt lat="49.4471" lon="1.01584">
        <ele>121.80000305176</ele>
        <time>2016-09-25T09:00:36.000Z</time>
      </trkpt>
      <trkpt lat="49.44718" lon="1.01587">
        <ele>122.19999694824</ele>
        <time>2016-09-25T09:00:40.000Z</time>
      </trkpt>
      <trkpt lat="49.44723" lon="1.01589">
        <ele>122.59999847412</ele>
        <time>2016-09-25T09:00:42.000Z</time>
      </trkpt>
      <trkpt lat="49.44741" lon="1.01594">
        <ele>123.40000152588</ele>
        <time>2016-09-25T09:00:50.000Z</time>
      </trkpt>
      <trkpt lat="49.44743" lon="1.01594">
        <ele>123.59999847412</ele>
        <time>2016-09-25T09:00:51.000Z</time>
      </trkpt>
      <trkpt lat="49.44758" lon="1.01597">
        <ele>124.19999694824</ele>
        <time>2016-09-25T09:00:59.000Z</time>
      </trkpt>
      <trkpt lat="49.44778" lon="1.01605">
        <ele>125.40000152588</ele>
        <time>2016-09-25T09:01:07.000Z</time>
      </trkpt>
      <trkpt lat="49.44801" lon="1.01612">
        <ele>126.40000152588</ele>
        <time>2016-09-25T09:01:16.000Z</time>
      </trkpt>
      <trkpt lat="49.44803" lon="1.01613">
        <ele>126.40000152588</ele>
        <time>2016-09-25T09:01:17.000Z</time>
      </trkpt>
      <trkpt lat="49.4483" lon="1.01619">
        <ele>127.40000152588</ele>
        <time>2016-09-25T09:01:27.000Z</time>
      </trkpt>
      <trkpt lat="49.44837" lon="1.01621">
        <ele>127.80000305176</ele>
        <time>2016-09-25T09:01:29.000Z</time>
      </trkpt>
      <trkpt lat="49.44858" lon="1.01627">
        <ele>128.60000610352</ele>
        <time>2016-09-25T09:01:36.000Z</time>
      </trkpt>
      <trkpt lat="49.44881" lon="1.01629">
        <ele>129.39999389648</ele>
        <time>2016-09-25T09:01:44.000Z</time>
      </trkpt>
      <trkpt lat="49.44897" lon="1.01633">
        <ele>130</ele>
        <time>2016-09-25T09:01:50.000Z</time>
      </trkpt>
      <trkpt lat="49.44911" lon="1.01641">
        <ele>130.60000610352</ele>
        <time>2016-09-25T09:01:55.000Z</time>
      </trkpt>
      <trkpt lat="49.44924" lon="1.01648">
        <ele>131</ele>
        <time>2016-09-25T09:02:01.000Z</time>
      </trkpt>
      <trkpt lat="49.44942" lon="1.01654">
        <ele>131.80000305176</ele>
        <time>2016-09-25T09:02:08.000Z</time>
      </trkpt>
      <trkpt lat="49.44963" lon="1.01658">
        <ele>132.39999389648</ele>
        <time>2016-09-25T09:02:14.000Z</time>
      </trkpt>
      <trkpt lat="49.44967" lon="1.01659">
        <ele>132.39999389648</ele>
        <time>2016-09-25T09:02:15.000Z</time>
      </trkpt>
      <trkpt lat="49.44986" lon="1.01666">
        <ele>132.60000610352</ele>
        <time>2016-09-25T09:02:22.000Z</time>
      </trkpt>
      <trkpt lat="49.4501" lon="1.01674">
        <ele>132.80000305176</ele>
        <time>2016-09-25T09:02:29.000Z</time>
      </trkpt>
      <trkpt lat="49.45031" lon="1.01682">
        <ele>133</ele>
        <time>2016-09-25T09:02:35.000Z</time>
      </trkpt>
      <trkpt lat="49.45035" lon="1.0168">
        <ele>132.80000305176</ele>
        <time>2016-09-25T09:02:36.000Z</time>
      </trkpt>
      <trkpt lat="49.45045" lon="1.0167">
        <ele>132.19999694824</ele>
        <time>2016-09-25T09:02:39.000Z</time>
      </trkpt>
      <trkpt lat="49.45067" lon="1.01643">
        <ele>130.39999389648</ele>
        <time>2016-09-25T09:02:45.000Z</time>
      </trkpt>
      <trkpt lat="49.45089" lon="1.01614">
        <ele>129</ele>
        <time>2016-09-25T09:02:51.000Z</time>
      </trkpt>
      <trkpt lat="49.45092" lon="1.01612">
        <ele>128.60000610352</ele>
        <time>2016-09-25T09:02:52.000Z</time>
      </trkpt>
      <trkpt lat="49.45102" lon="1.01617">
        <ele>128.19999694824</ele>
        <time>2016-09-25T09:02:55.000Z</time>
      </trkpt>
      <trkpt lat="49.45106" lon="1.01617">
        <ele>127.80000305176</ele>
        <time>2016-09-25T09:02:56.000Z</time>
      </trkpt>
      <trkpt lat="49.45111" lon="1.01619">
        <ele>127.59999847412</ele>
        <time>2016-09-25T09:02:57.000Z</time>
      </trkpt>
      <trkpt lat="49.45122" lon="1.01622">
        <ele>127.19999694824</ele>
        <time>2016-09-25T09:02:59.000Z</time>
      </trkpt>
      <trkpt lat="49.45162" lon="1.01635">
        <ele>127.19999694824</ele>
        <time>2016-09-25T09:03:06.000Z</time>
      </trkpt>
      <trkpt lat="49.45185" lon="1.0164">
        <ele>127</ele>
        <time>2016-09-25T09:03:11.000Z</time>
      </trkpt>
      <trkpt lat="49.45189" lon="1.01642">
        <ele>127.19999694824</ele>
        <time>2016-09-25T09:03:12.000Z</time>
      </trkpt>
      <trkpt lat="49.452" lon="1.01649">
        <ele>127.40000152588</ele>
        <time>2016-09-25T09:03:16.000Z</time>
      </trkpt>
      <trkpt lat="49.45202" lon="1.01653">
        <ele>127.59999847412</ele>
        <time>2016-09-25T09:03:17.000Z</time>
      </trkpt>
      <trkpt lat="49.45205" lon="1.01662">
        <ele>128</ele>
        <time>2016-09-25T09:03:20.000Z</time>
      </trkpt>
      <trkpt lat="49.45207" lon="1.01671">
        <ele>128.39999389648</ele>
        <time>2016-09-25T09:03:22.000Z</time>
      </trkpt>
      <trkpt lat="49.45207" lon="1.0168">
        <ele>129</ele>
        <time>2016-09-25T09:03:24.000Z</time>
      </trkpt>
      <trkpt lat="49.45209" lon="1.01701">
        <ele>130</ele>
        <time>2016-09-25T09:03:28.000Z</time>
      </trkpt>
      <trkpt lat="49.45209" lon="1.01706">
        <ele>130.19999694824</ele>
        <time>2016-09-25T09:03:29.000Z</time>
      </trkpt>
      <trkpt lat="49.4521" lon="1.01728">
        <ele>131.19999694824</ele>
        <time>2016-09-25T09:03:33.000Z</time>
      </trkpt>
      <trkpt lat="49.45212" lon="1.0175">
        <ele>131.80000305176</ele>
        <time>2016-09-25T09:03:37.000Z</time>
      </trkpt>
      <trkpt lat="49.45217" lon="1.01794">
        <ele>132.80000305176</ele>
        <time>2016-09-25T09:03:44.000Z</time>
      </trkpt>
      <trkpt lat="49.45218" lon="1.018">
        <ele>133</ele>
        <time>2016-09-25T09:03:45.000Z</time>
      </trkpt>
      <trkpt lat="49.45226" lon="1.01827">
        <ele>133.19999694824</ele>
        <time>2016-09-25T09:03:51.000Z</time>
      </trkpt>
      <trkpt lat="49.45236" lon="1.01846">
        <ele>133</ele>
        <time>2016-09-25T09:03:56.000Z</time>
      </trkpt>
      <trkpt lat="49.45243" lon="1.01858">
        <ele>133</ele>
        <time>2016-09-25T09:03:59.000Z</time>
      </trkpt>
      <trkpt lat="49.45245" lon="1.01861">
        <ele>133</ele>
        <time>2016-09-25T09:04:00.000Z</time>
      </trkpt>
      <trkpt lat="49.45253" lon="1.01878">
        <ele>133</ele>
        <time>2016-09-25T09:04:04.000Z</time>
      </trkpt>
      <trkpt lat="49.45256" lon="1.01886">
        <ele>133</ele>
        <time>2016-09-25T09:04:06.000Z</time>
      </trkpt>
      <trkpt lat="49.45268" lon="1.01927">
        <ele>131.80000305176</ele>
        <time>2016-09-25T09:04:13.000Z</time>
      </trkpt>
      <trkpt lat="49.45282" lon="1.01965">
        <ele>130.39999389648</ele>
        <time>2016-09-25T09:04:21.000Z</time>
      </trkpt>
      <trkpt lat="49.45288" lon="1.01981">
        <ele>130.39999389648</ele>
        <time>2016-09-25T09:04:25.000Z</time>
      </trkpt>
      <trkpt lat="49.45291" lon="1.01994">
        <ele>130.39999389648</ele>
        <time>2016-09-25T09:04:28.000Z</time>
      </trkpt>
      <trkpt lat="49.45291" lon="1.01998">
        <ele>130.39999389648</ele>
        <time>2016-09-25T09:04:29.000Z</time>
      </trkpt>
      <trkpt lat="49.45291" lon="1.02009">
        <ele>130.19999694824</ele>
        <time>2016-09-25T09:04:31.000Z</time>
      </trkpt>
      <trkpt lat="49.45288" lon="1.02043">
        <ele>129.60000610352</ele>
        <time>2016-09-25T09:04:37.000Z</time>
      </trkpt>
      <trkpt lat="49.45292" lon="1.02056">
        <ele>129.60000610352</ele>
        <time>2016-09-25T09:04:40.000Z</time>
      </trkpt>
      <trkpt lat="49.45296" lon="1.02069">
        <ele>130</ele>
        <time>2016-09-25T09:04:43.000Z</time>
      </trkpt>
      <trkpt lat="49.45298" lon="1.02111">
        <ele>130.19999694824</ele>
        <time>2016-09-25T09:04:51.000Z</time>
      </trkpt>
      <trkpt lat="49.45302" lon="1.02154">
        <ele>130.60000610352</ele>
        <time>2016-09-25T09:04:59.000Z</time>
      </trkpt>
      <trkpt lat="49.45303" lon="1.02165">
        <ele>130.80000305176</ele>
        <time>2016-09-25T09:05:01.000Z</time>
      </trkpt>
      <trkpt lat="49.45305" lon="1.02196">
        <ele>130.80000305176</ele>
        <time>2016-09-25T09:05:07.000Z</time>
      </trkpt>
      <trkpt lat="49.45304" lon="1.02231">
        <ele>130.80000305176</ele>
        <time>2016-09-25T09:05:14.000Z</time>
      </trkpt>
      <trkpt lat="49.45306" lon="1.02265">
        <ele>131.19999694824</ele>
        <time>2016-09-25T09:05:21.000Z</time>
      </trkpt>
      <trkpt lat="49.45306" lon="1.02269">
        <ele>131.19999694824</ele>
        <time>2016-09-25T09:05:22.000Z</time>
      </trkpt>
      <trkpt lat="49.45312" lon="1.02307">
        <ele>132.19999694824</ele>
        <time>2016-09-25T09:05:30.000Z</time>
      </trkpt>
      <trkpt lat="49.45317" lon="1.02339">
        <ele>132.80000305176</ele>
        <time>2016-09-25T09:05:36.000Z</time>
      </trkpt>
      <trkpt lat="49.45318" lon="1.02345">
        <ele>133</ele>
        <time>2016-09-25T09:05:37.000Z</time>
      </trkpt>
      <trkpt lat="49.45322" lon="1.02357">
        <ele>133.19999694824</ele>
        <time>2016-09-25T09:05:39.000Z</time>
      </trkpt>
      <trkpt lat="49.45324" lon="1.02377">
        <ele>133.19999694824</ele>
        <time>2016-09-25T09:05:43.000Z</time>
      </trkpt>
      <trkpt lat="49.45324" lon="1.02415">
        <ele>133</ele>
        <time>2016-09-25T09:05:50.000Z</time>
      </trkpt>
      <trkpt lat="49.45324" lon="1.0242">
        <ele>133</ele>
        <time>2016-09-25T09:05:51.000Z</time>
      </trkpt>
      <trkpt lat="49.45325" lon="1.02434">
        <ele>133.19999694824</ele>
        <time>2016-09-25T09:05:54.000Z</time>
      </trkpt>
      <trkpt lat="49.4533" lon="1.02462">
        <ele>133.80000305176</ele>
        <time>2016-09-25T09:06:00.000Z</time>
      </trkpt>
      <trkpt lat="49.45332" lon="1.02471">
        <ele>134</ele>
        <time>2016-09-25T09:06:02.000Z</time>
      </trkpt>
      <trkpt lat="49.45336" lon="1.02496">
        <ele>134.60000610352</ele>
        <time>2016-09-25T09:06:07.000Z</time>
      </trkpt>
      <trkpt lat="49.45329" lon="1.02527">
        <ele>134</ele>
        <time>2016-09-25T09:06:13.000Z</time>
      </trkpt>
      <trkpt lat="49.45326" lon="1.02532">
        <ele>133.60000610352</ele>
        <time>2016-09-25T09:06:14.000Z</time>
      </trkpt>
      <trkpt lat="49.45316" lon="1.02556">
        <ele>132.80000305176</ele>
        <time>2016-09-25T09:06:18.000Z</time>
      </trkpt>
      <trkpt lat="49.45312" lon="1.02569">
        <ele>132.39999389648</ele>
        <time>2016-09-25T09:06:20.000Z</time>
      </trkpt>
      <trkpt lat="49.4531" lon="1.02585">
        <ele>132.39999389648</ele>
        <time>2016-09-25T09:06:23.000Z</time>
      </trkpt>
      <trkpt lat="49.45311" lon="1.02596">
        <ele>132.39999389648</ele>
        <time>2016-09-25T09:06:25.000Z</time>
      </trkpt>
      <trkpt lat="49.45315" lon="1.02637">
        <ele>132.60000610352</ele>
        <time>2016-09-25T09:06:32.000Z</time>
      </trkpt>
      <trkpt lat="49.45316" lon="1.0267">
        <ele>132.80000305176</ele>
        <time>2016-09-25T09:06:37.000Z</time>
      </trkpt>
      <trkpt lat="49.45314" lon="1.02694">
        <ele>133</ele>
        <time>2016-09-25T09:06:41.000Z</time>
      </trkpt>
      <trkpt lat="49.45312" lon="1.0274">
        <ele>133</ele>
        <time>2016-09-25T09:06:49.000Z</time>
      </trkpt>
      <trkpt lat="49.45312" lon="1.02746">
        <ele>132.80000305176</ele>
        <time>2016-09-25T09:06:50.000Z</time>
      </trkpt>
      <trkpt lat="49.45312" lon="1.02783">
        <ele>132.80000305176</ele>
        <time>2016-09-25T09:06:56.000Z</time>
      </trkpt>
      <trkpt lat="49.45317" lon="1.0283">
        <ele>133.80000305176</ele>
        <time>2016-09-25T09:07:03.000Z</time>
      </trkpt>
      <trkpt lat="49.45313" lon="1.0286">
        <ele>133.80000305176</ele>
        <time>2016-09-25T09:07:07.000Z</time>
      </trkpt>
      <trkpt lat="49.45312" lon="1.02874">
        <ele>133.80000305176</ele>
        <time>2016-09-25T09:07:09.000Z</time>
      </trkpt>
      <trkpt lat="49.45312" lon="1.02925">
        <ele>134.19999694824</ele>
        <time>2016-09-25T09:07:16.000Z</time>
      </trkpt>
      <trkpt lat="49.45313" lon="1.02972">
        <ele>134.39999389648</ele>
        <time>2016-09-25T09:07:23.000Z</time>
      </trkpt>
      <trkpt lat="49.45313" lon="1.03003">
        <ele>133</ele>
        <time>2016-09-25T09:07:27.000Z</time>
      </trkpt>
      <trkpt lat="49.45311" lon="1.03025">
        <ele>132.80000305176</ele>
        <time>2016-09-25T09:07:30.000Z</time>
      </trkpt>
      <trkpt lat="49.45311" lon="1.03072">
        <ele>132.39999389648</ele>
        <time>2016-09-25T09:07:37.000Z</time>
      </trkpt>
      <trkpt lat="49.45306" lon="1.03103">
        <ele>132.39999389648</ele>
        <time>2016-09-25T09:07:41.000Z</time>
      </trkpt>
      <trkpt lat="49.45309" lon="1.03118">
        <ele>132.80000305176</ele>
        <time>2016-09-25T09:07:43.000Z</time>
      </trkpt>
      <trkpt lat="49.45309" lon="1.03138">
        <ele>133.19999694824</ele>
        <time>2016-09-25T09:07:46.000Z</time>
      </trkpt>
      <trkpt lat="49.45308" lon="1.03142">
        <ele>133.39999389648</ele>
        <time>2016-09-25T09:07:47.000Z</time>
      </trkpt>
      <trkpt lat="49.45307" lon="1.03145">
        <ele>133.19999694824</ele>
        <time>2016-09-25T09:07:48.000Z</time>
      </trkpt>
      <trkpt lat="49.45302" lon="1.03145">
        <ele>133.19999694824</ele>
        <time>2016-09-25T09:07:52.000Z</time>
      </trkpt>
      <trkpt lat="49.45284" lon="1.0312">
        <ele>132.39999389648</ele>
        <time>2016-09-25T09:07:57.000Z</time>
      </trkpt>
      <trkpt lat="49.45265" lon="1.03091">
        <ele>131.39999389648</ele>
        <time>2016-09-25T09:08:01.000Z</time>
      </trkpt>
      <trkpt lat="49.45256" lon="1.03082">
        <ele>131</ele>
        <time>2016-09-25T09:08:03.000Z</time>
      </trkpt>
      <trkpt lat="49.45232" lon="1.03046">
        <ele>130</ele>
        <time>2016-09-25T09:08:10.000Z</time>
      </trkpt>
      <trkpt lat="49.45224" lon="1.03037">
        <ele>129.80000305176</ele>
        <time>2016-09-25T09:08:12.000Z</time>
      </trkpt>
      <trkpt lat="49.45204" lon="1.03018">
        <ele>129.60000610352</ele>
        <time>2016-09-25T09:08:17.000Z</time>
      </trkpt>
      <trkpt lat="49.45193" lon="1.03005">
        <ele>129.39999389648</ele>
        <time>2016-09-25T09:08:21.000Z</time>
      </trkpt>
      <trkpt lat="49.45182" lon="1.03002">
        <ele>129.19999694824</ele>
        <time>2016-09-25T09:08:24.000Z</time>
      </trkpt>
      <trkpt lat="49.45174" lon="1.03">
        <ele>129</ele>
        <time>2016-09-25T09:08:26.000Z</time>
      </trkpt>
      <trkpt lat="49.4515" lon="1.0299">
        <ele>128.60000610352</ele>
        <time>2016-09-25T09:08:33.000Z</time>
      </trkpt>
      <trkpt lat="49.45146" lon="1.02989">
        <ele>128.60000610352</ele>
        <time>2016-09-25T09:08:35.000Z</time>
      </trkpt>
      <trkpt lat="49.45142" lon="1.02994">
        <ele>128.39999389648</ele>
        <time>2016-09-25T09:08:37.000Z</time>
      </trkpt>
      <trkpt lat="49.45141" lon="1.03008">
        <ele>128.19999694824</ele>
        <time>2016-09-25T09:08:41.000Z</time>
      </trkpt>
      <trkpt lat="49.45141" lon="1.03013">
        <ele>128.39999389648</ele>
        <time>2016-09-25T09:08:42.000Z</time>
      </trkpt>
      <trkpt lat="49.45143" lon="1.03024">
        <ele>128.39999389648</ele>
        <time>2016-09-25T09:08:45.000Z</time>
      </trkpt>
      <trkpt lat="49.45145" lon="1.03038">
        <ele>128.39999389648</ele>
        <time>2016-09-25T09:08:49.000Z</time>
      </trkpt>
      <trkpt lat="49.45145" lon="1.03042">
        <ele>128.39999389648</ele>
        <time>2016-09-25T09:08:50.000Z</time>
      </trkpt>
      <trkpt lat="49.45143" lon="1.03052">
        <ele>128.39999389648</ele>
        <time>2016-09-25T09:08:54.000Z</time>
      </trkpt>
      <trkpt lat="49.45143" lon="1.03053">
        <ele>128.39999389648</ele>
        <time>2016-09-25T09:08:55.000Z</time>
      </trkpt>
      <trkpt lat="49.45141" lon="1.03059">
        <ele>128.19999694824</ele>
        <time>2016-09-25T09:08:59.000Z</time>
      </trkpt>
      <trkpt lat="49.45139" lon="1.03061">
        <ele>128.39999389648</ele>
        <time>2016-09-25T09:09:00.000Z</time>
      </trkpt>
      <trkpt lat="49.45136" lon="1.03069">
        <ele>128.60000610352</ele>
        <time>2016-09-25T09:09:03.000Z</time>
      </trkpt>
      <trkpt lat="49.45134" lon="1.03081">
        <ele>129</ele>
        <time>2016-09-25T09:09:07.000Z</time>
      </trkpt>
      <trkpt lat="49.4513" lon="1.03109">
        <ele>129.19999694824</ele>
        <time>2016-09-25T09:09:14.000Z</time>
      </trkpt>
      <trkpt lat="49.45129" lon="1.03121">
        <ele>129.19999694824</ele>
        <time>2016-09-25T09:09:19.000Z</time>
      </trkpt>
      <trkpt lat="49.45129" lon="1.03122">
        <ele>129.19999694824</ele>
        <time>2016-09-25T09:09:20.000Z</time>
      </trkpt>
      <trkpt lat="49.45127" lon="1.03129">
        <ele>129.19999694824</ele>
        <time>2016-09-25T09:09:26.000Z</time>
      </trkpt>
      <trkpt lat="49.45127" lon="1.0313">
        <ele>129.19999694824</ele>
        <time>2016-09-25T09:09:27.000Z</time>
      </trkpt>
      <trkpt lat="49.45126" lon="1.03138">
        <ele>129.39999389648</ele>
        <time>2016-09-25T09:09:32.000Z</time>
      </trkpt>
      <trkpt lat="49.45125" lon="1.0314">
        <ele>129.19999694824</ele>
        <time>2016-09-25T09:09:33.000Z</time>
      </trkpt>
      <trkpt lat="49.4512" lon="1.03147">
        <ele>129.39999389648</ele>
        <time>2016-09-25T09:09:39.000Z</time>
      </trkpt>
      <trkpt lat="49.4512" lon="1.03149">
        <ele>129.39999389648</ele>
        <time>2016-09-25T09:09:47.000Z</time>
      </trkpt>
      <trkpt lat="49.4512" lon="1.03149">
        <ele>129.39999389648</ele>
        <time>2016-09-25T09:10:05.000Z</time>
      </trkpt>
      <trkpt lat="49.4512" lon="1.03149">
        <ele>129.39999389648</ele>
        <time>2016-09-25T09:10:18.000Z</time>
      </trkpt>
      <trkpt lat="49.4512" lon="1.03149">
        <ele>129.39999389648</ele>
        <time>2016-09-25T09:10:26.000Z</time>
      </trkpt>
      <trkpt lat="49.4512" lon="1.0315">
        <ele>129.60000610352</ele>
        <time>2016-09-25T09:10:33.000Z</time>
      </trkpt>
      <trkpt lat="49.45122" lon="1.03153">
        <ele>129.80000305176</ele>
        <time>2016-09-25T09:10:35.000Z</time>
      </trkpt>
      <trkpt lat="49.45124" lon="1.03156">
        <ele>130</ele>
        <time>2016-09-25T09:10:38.000Z</time>
      </trkpt>
      <trkpt lat="49.45128" lon="1.03157">
        <ele>130.19999694824</ele>
        <time>2016-09-25T09:10:42.000Z</time>
      </trkpt>
      <trkpt lat="49.45128" lon="1.03155">
        <ele>130.19999694824</ele>
        <time>2016-09-25T09:10:44.000Z</time>
      </trkpt>
      <trkpt lat="49.45127" lon="1.03152">
        <ele>130</ele>
        <time>2016-09-25T09:10:47.000Z</time>
      </trkpt>
      <trkpt lat="49.45128" lon="1.03149">
        <ele>129.80000305176</ele>
        <time>2016-09-25T09:10:50.000Z</time>
      </trkpt>
      <trkpt lat="49.45129" lon="1.03145">
        <ele>129.60000610352</ele>
        <time>2016-09-25T09:10:54.000Z</time>
      </trkpt>
      <trkpt lat="49.45131" lon="1.03142">
        <ele>129.60000610352</ele>
        <time>2016-09-25T09:10:59.000Z</time>
      </trkpt>
    </trkseg>
  </trk>
</gpx>